<?xml version="1.0" encoding="UTF-8" standalone="no" ?>
<gpx xmlns="http://www.topografix.com/GPX/1/1" xmlns:xsi="http://www.w3.org/2001/XMLSchema-instance" xsi:schemaLocation="http://www.topografix.com/GPX/1/1 http://www.topografix.com/GPX/1/1/gpx.xsd" version="1.1" creator="VisuGPX - https://www.visugpx.com">
  <metadata>
    <name>2016 06 05 lacs d'Estibe Aute et d'Estom</name>
    <desc><![CDATA[Départ en douceur puis bifurcation et montée rude jusqu'aux lacs d'Estibe Aute gelés. Quelques névés à traverser. Magnifique descente sur le lac d'Estom avec le Vignemale en arrière-plan, cette variante vaut le détour]]></desc>
  </metadata>
  <trk>
    <name><![CDATA[Tracé actuel: 05 JUIN 2016 08:54]]></name>
    <trkseg>
      <trkpt lat="42.85297" lon="-0.09811">
        <ele>1365.21</ele>
        <time>2016-06-05T06:54:38Z</time>
      </trkpt>
      <trkpt lat="42.85297" lon="-0.09811">
        <ele>1365.21</ele>
        <time>2016-06-05T06:54:40Z</time>
      </trkpt>
      <trkpt lat="42.85292" lon="-0.09816">
        <ele>1364.73</ele>
        <time>2016-06-05T06:54:55Z</time>
      </trkpt>
      <trkpt lat="42.85291" lon="-0.09814">
        <ele>1365.21</ele>
        <time>2016-06-05T06:55:00Z</time>
      </trkpt>
      <trkpt lat="42.85288" lon="-0.09814">
        <ele>1365.21</ele>
        <time>2016-06-05T06:55:03Z</time>
      </trkpt>
      <trkpt lat="42.85284" lon="-0.09812">
        <ele>1365.21</ele>
        <time>2016-06-05T06:55:06Z</time>
      </trkpt>
      <trkpt lat="42.85265" lon="-0.09812">
        <ele>1365.69</ele>
        <time>2016-06-05T06:55:24Z</time>
      </trkpt>
      <trkpt lat="42.8525" lon="-0.0981">
        <ele>1366.65</ele>
        <time>2016-06-05T06:55:40Z</time>
      </trkpt>
      <trkpt lat="42.85244" lon="-0.0981">
        <ele>1366.65</ele>
        <time>2016-06-05T06:55:52Z</time>
      </trkpt>
      <trkpt lat="42.8524" lon="-0.09804">
        <ele>1366.65</ele>
        <time>2016-06-05T06:56:01Z</time>
      </trkpt>
      <trkpt lat="42.85239" lon="-0.09801">
        <ele>1366.65</ele>
        <time>2016-06-05T06:56:04Z</time>
      </trkpt>
      <trkpt lat="42.85227" lon="-0.09787">
        <ele>1366.65</ele>
        <time>2016-06-05T06:56:18Z</time>
      </trkpt>
      <trkpt lat="42.8522" lon="-0.09783">
        <ele>1367.13</ele>
        <time>2016-06-05T06:56:31Z</time>
      </trkpt>
      <trkpt lat="42.85209" lon="-0.09782">
        <ele>1367.13</ele>
        <time>2016-06-05T06:56:44Z</time>
      </trkpt>
      <trkpt lat="42.85195" lon="-0.09781">
        <ele>1367.61</ele>
        <time>2016-06-05T06:56:58Z</time>
      </trkpt>
      <trkpt lat="42.85193" lon="-0.09781">
        <ele>1368.09</ele>
        <time>2016-06-05T06:57:00Z</time>
      </trkpt>
      <trkpt lat="42.8518" lon="-0.09778">
        <ele>1369.05</ele>
        <time>2016-06-05T06:57:15Z</time>
      </trkpt>
      <trkpt lat="42.85178" lon="-0.09779">
        <ele>1369.05</ele>
        <time>2016-06-05T06:57:17Z</time>
      </trkpt>
      <trkpt lat="42.85163" lon="-0.09782">
        <ele>1370.02</ele>
        <time>2016-06-05T06:57:33Z</time>
      </trkpt>
      <trkpt lat="42.85154" lon="-0.09783">
        <ele>1370.02</ele>
        <time>2016-06-05T06:57:42Z</time>
      </trkpt>
      <trkpt lat="42.85138" lon="-0.09785">
        <ele>1370.02</ele>
        <time>2016-06-05T06:57:58Z</time>
      </trkpt>
      <trkpt lat="42.85122" lon="-0.09782">
        <ele>1370.02</ele>
        <time>2016-06-05T06:58:14Z</time>
      </trkpt>
      <trkpt lat="42.85101" lon="-0.09781">
        <ele>1371.46</ele>
        <time>2016-06-05T06:58:32Z</time>
      </trkpt>
      <trkpt lat="42.85084" lon="-0.09781">
        <ele>1372.42</ele>
        <time>2016-06-05T06:58:48Z</time>
      </trkpt>
      <trkpt lat="42.85067" lon="-0.09781">
        <ele>1373.86</ele>
        <time>2016-06-05T06:59:04Z</time>
      </trkpt>
      <trkpt lat="42.85064" lon="-0.09781">
        <ele>1373.86</ele>
        <time>2016-06-05T06:59:07Z</time>
      </trkpt>
      <trkpt lat="42.85047" lon="-0.09779">
        <ele>1375.3</ele>
        <time>2016-06-05T06:59:22Z</time>
      </trkpt>
      <trkpt lat="42.85035" lon="-0.09774">
        <ele>1375.3</ele>
        <time>2016-06-05T06:59:32Z</time>
      </trkpt>
      <trkpt lat="42.8502" lon="-0.0977">
        <ele>1377.71</ele>
        <time>2016-06-05T06:59:47Z</time>
      </trkpt>
      <trkpt lat="42.8502" lon="-0.09769">
        <ele>1377.71</ele>
        <time>2016-06-05T06:59:48Z</time>
      </trkpt>
      <trkpt lat="42.85015" lon="-0.09767">
        <ele>1377.71</ele>
        <time>2016-06-05T07:00:00Z</time>
      </trkpt>
      <trkpt lat="42.85015" lon="-0.09768">
        <ele>1378.19</ele>
        <time>2016-06-05T07:00:05Z</time>
      </trkpt>
      <trkpt lat="42.85009" lon="-0.09765">
        <ele>1378.19</ele>
        <time>2016-06-05T07:00:10Z</time>
      </trkpt>
      <trkpt lat="42.84993" lon="-0.09763">
        <ele>1378.19</ele>
        <time>2016-06-05T07:00:24Z</time>
      </trkpt>
      <trkpt lat="42.84992" lon="-0.09763">
        <ele>1378.19</ele>
        <time>2016-06-05T07:00:25Z</time>
      </trkpt>
      <trkpt lat="42.84975" lon="-0.09758">
        <ele>1379.63</ele>
        <time>2016-06-05T07:00:41Z</time>
      </trkpt>
      <trkpt lat="42.84954" lon="-0.09753">
        <ele>1380.11</ele>
        <time>2016-06-05T07:00:58Z</time>
      </trkpt>
      <trkpt lat="42.84939" lon="-0.09741">
        <ele>1381.55</ele>
        <time>2016-06-05T07:01:13Z</time>
      </trkpt>
      <trkpt lat="42.84921" lon="-0.09726">
        <ele>1382.99</ele>
        <time>2016-06-05T07:01:30Z</time>
      </trkpt>
      <trkpt lat="42.84912" lon="-0.09721">
        <ele>1382.99</ele>
        <time>2016-06-05T07:01:44Z</time>
      </trkpt>
      <trkpt lat="42.84897" lon="-0.09706">
        <ele>1381.55</ele>
        <time>2016-06-05T07:01:59Z</time>
      </trkpt>
      <trkpt lat="42.8489" lon="-0.09701">
        <ele>1381.55</ele>
        <time>2016-06-05T07:02:06Z</time>
      </trkpt>
      <trkpt lat="42.84875" lon="-0.09692">
        <ele>1382.99</ele>
        <time>2016-06-05T07:02:19Z</time>
      </trkpt>
      <trkpt lat="42.8486" lon="-0.09686">
        <ele>1383.96</ele>
        <time>2016-06-05T07:02:33Z</time>
      </trkpt>
      <trkpt lat="42.84839" lon="-0.09673">
        <ele>1384.92</ele>
        <time>2016-06-05T07:02:49Z</time>
      </trkpt>
      <trkpt lat="42.84835" lon="-0.0967">
        <ele>1384.92</ele>
        <time>2016-06-05T07:02:53Z</time>
      </trkpt>
      <trkpt lat="42.8483" lon="-0.0967">
        <ele>1385.4</ele>
        <time>2016-06-05T07:02:57Z</time>
      </trkpt>
      <trkpt lat="42.84816" lon="-0.09666">
        <ele>1386.84</ele>
        <time>2016-06-05T07:03:11Z</time>
      </trkpt>
      <trkpt lat="42.84807" lon="-0.09662">
        <ele>1388.28</ele>
        <time>2016-06-05T07:03:21Z</time>
      </trkpt>
      <trkpt lat="42.84793" lon="-0.09658">
        <ele>1389.72</ele>
        <time>2016-06-05T07:03:35Z</time>
      </trkpt>
      <trkpt lat="42.8478" lon="-0.09652">
        <ele>1390.2</ele>
        <time>2016-06-05T07:03:48Z</time>
      </trkpt>
      <trkpt lat="42.8477" lon="-0.09646">
        <ele>1390.68</ele>
        <time>2016-06-05T07:03:57Z</time>
      </trkpt>
      <trkpt lat="42.84766" lon="-0.09644">
        <ele>1390.68</ele>
        <time>2016-06-05T07:04:00Z</time>
      </trkpt>
      <trkpt lat="42.84761" lon="-0.09641">
        <ele>1391.17</ele>
        <time>2016-06-05T07:04:04Z</time>
      </trkpt>
      <trkpt lat="42.84754" lon="-0.09635">
        <ele>1391.17</ele>
        <time>2016-06-05T07:04:11Z</time>
      </trkpt>
      <trkpt lat="42.84744" lon="-0.09634">
        <ele>1392.13</ele>
        <time>2016-06-05T07:04:25Z</time>
      </trkpt>
      <trkpt lat="42.84743" lon="-0.09635">
        <ele>1392.13</ele>
        <time>2016-06-05T07:04:39Z</time>
      </trkpt>
      <trkpt lat="42.84724" lon="-0.09629">
        <ele>1393.09</ele>
        <time>2016-06-05T07:04:54Z</time>
      </trkpt>
      <trkpt lat="42.84712" lon="-0.09622">
        <ele>1394.05</ele>
        <time>2016-06-05T07:05:05Z</time>
      </trkpt>
      <trkpt lat="42.84702" lon="-0.0962">
        <ele>1395.97</ele>
        <time>2016-06-05T07:05:19Z</time>
      </trkpt>
      <trkpt lat="42.84691" lon="-0.09621">
        <ele>1396.45</ele>
        <time>2016-06-05T07:05:29Z</time>
      </trkpt>
      <trkpt lat="42.84678" lon="-0.0962">
        <ele>1397.41</ele>
        <time>2016-06-05T07:05:42Z</time>
      </trkpt>
      <trkpt lat="42.84667" lon="-0.09618">
        <ele>1397.89</ele>
        <time>2016-06-05T07:05:55Z</time>
      </trkpt>
      <trkpt lat="42.84663" lon="-0.09617">
        <ele>1397.89</ele>
        <time>2016-06-05T07:05:59Z</time>
      </trkpt>
      <trkpt lat="42.84651" lon="-0.09617">
        <ele>1397.89</ele>
        <time>2016-06-05T07:06:13Z</time>
      </trkpt>
      <trkpt lat="42.84642" lon="-0.09617">
        <ele>1397.89</ele>
        <time>2016-06-05T07:06:25Z</time>
      </trkpt>
      <trkpt lat="42.84637" lon="-0.09619">
        <ele>1397.89</ele>
        <time>2016-06-05T07:06:30Z</time>
      </trkpt>
      <trkpt lat="42.8463" lon="-0.09621">
        <ele>1398.86</ele>
        <time>2016-06-05T07:06:42Z</time>
      </trkpt>
      <trkpt lat="42.84624" lon="-0.09622">
        <ele>1398.86</ele>
        <time>2016-06-05T07:06:56Z</time>
      </trkpt>
      <trkpt lat="42.84618" lon="-0.09621">
        <ele>1399.34</ele>
        <time>2016-06-05T07:07:08Z</time>
      </trkpt>
      <trkpt lat="42.84615" lon="-0.0962">
        <ele>1399.34</ele>
        <time>2016-06-05T07:07:14Z</time>
      </trkpt>
      <trkpt lat="42.846" lon="-0.09626">
        <ele>1400.3</ele>
        <time>2016-06-05T07:07:30Z</time>
      </trkpt>
      <trkpt lat="42.84589" lon="-0.09632">
        <ele>1402.22</ele>
        <time>2016-06-05T07:07:45Z</time>
      </trkpt>
      <trkpt lat="42.84582" lon="-0.09631">
        <ele>1403.18</ele>
        <time>2016-06-05T07:08:00Z</time>
      </trkpt>
      <trkpt lat="42.84573" lon="-0.09622">
        <ele>1404.14</ele>
        <time>2016-06-05T07:08:11Z</time>
      </trkpt>
      <trkpt lat="42.84568" lon="-0.09621">
        <ele>1404.14</ele>
        <time>2016-06-05T07:08:25Z</time>
      </trkpt>
      <trkpt lat="42.84548" lon="-0.09618">
        <ele>1404.62</ele>
        <time>2016-06-05T07:08:41Z</time>
      </trkpt>
      <trkpt lat="42.8454" lon="-0.09616">
        <ele>1405.1</ele>
        <time>2016-06-05T07:08:54Z</time>
      </trkpt>
      <trkpt lat="42.84537" lon="-0.09615">
        <ele>1405.58</ele>
        <time>2016-06-05T07:08:56Z</time>
      </trkpt>
      <trkpt lat="42.84523" lon="-0.0962">
        <ele>1406.55</ele>
        <time>2016-06-05T07:09:08Z</time>
      </trkpt>
      <trkpt lat="42.84511" lon="-0.09626">
        <ele>1407.99</ele>
        <time>2016-06-05T07:09:23Z</time>
      </trkpt>
      <trkpt lat="42.84501" lon="-0.09633">
        <ele>1409.43</ele>
        <time>2016-06-05T07:09:38Z</time>
      </trkpt>
      <trkpt lat="42.84486" lon="-0.09634">
        <ele>1411.83</ele>
        <time>2016-06-05T07:09:52Z</time>
      </trkpt>
      <trkpt lat="42.84478" lon="-0.09637">
        <ele>1413.76</ele>
        <time>2016-06-05T07:10:05Z</time>
      </trkpt>
      <trkpt lat="42.84468" lon="-0.09642">
        <ele>1416.64</ele>
        <time>2016-06-05T07:10:19Z</time>
      </trkpt>
      <trkpt lat="42.84461" lon="-0.09644">
        <ele>1418.56</ele>
        <time>2016-06-05T07:10:33Z</time>
      </trkpt>
      <trkpt lat="42.84452" lon="-0.09651">
        <ele>1420.97</ele>
        <time>2016-06-05T07:10:50Z</time>
      </trkpt>
      <trkpt lat="42.84441" lon="-0.09654">
        <ele>1423.37</ele>
        <time>2016-06-05T07:11:07Z</time>
      </trkpt>
      <trkpt lat="42.84433" lon="-0.0966">
        <ele>1425.29</ele>
        <time>2016-06-05T07:11:20Z</time>
      </trkpt>
      <trkpt lat="42.84423" lon="-0.09661">
        <ele>1427.7</ele>
        <time>2016-06-05T07:11:35Z</time>
      </trkpt>
      <trkpt lat="42.84414" lon="-0.09665">
        <ele>1429.14</ele>
        <time>2016-06-05T07:11:47Z</time>
      </trkpt>
      <trkpt lat="42.84403" lon="-0.09668">
        <ele>1430.58</ele>
        <time>2016-06-05T07:12:00Z</time>
      </trkpt>
      <trkpt lat="42.84397" lon="-0.09667">
        <ele>1431.06</ele>
        <time>2016-06-05T07:12:11Z</time>
      </trkpt>
      <trkpt lat="42.84386" lon="-0.09664">
        <ele>1432.02</ele>
        <time>2016-06-05T07:12:26Z</time>
      </trkpt>
      <trkpt lat="42.84373" lon="-0.09663">
        <ele>1432.98</ele>
        <time>2016-06-05T07:12:40Z</time>
      </trkpt>
      <trkpt lat="42.84359" lon="-0.09665">
        <ele>1433.46</ele>
        <time>2016-06-05T07:12:53Z</time>
      </trkpt>
      <trkpt lat="42.84351" lon="-0.09666">
        <ele>1433.94</ele>
        <time>2016-06-05T07:13:08Z</time>
      </trkpt>
      <trkpt lat="42.84349" lon="-0.09665">
        <ele>1433.94</ele>
        <time>2016-06-05T07:13:10Z</time>
      </trkpt>
      <trkpt lat="42.8433" lon="-0.09658">
        <ele>1434.91</ele>
        <time>2016-06-05T07:13:28Z</time>
      </trkpt>
      <trkpt lat="42.8432" lon="-0.09659">
        <ele>1435.39</ele>
        <time>2016-06-05T07:13:37Z</time>
      </trkpt>
      <trkpt lat="42.84306" lon="-0.09662">
        <ele>1436.83</ele>
        <time>2016-06-05T07:13:52Z</time>
      </trkpt>
      <trkpt lat="42.84294" lon="-0.09659">
        <ele>1437.79</ele>
        <time>2016-06-05T07:14:04Z</time>
      </trkpt>
      <trkpt lat="42.84283" lon="-0.09658">
        <ele>1437.79</ele>
        <time>2016-06-05T07:14:16Z</time>
      </trkpt>
      <trkpt lat="42.84272" lon="-0.09657">
        <ele>1436.35</ele>
        <time>2016-06-05T07:14:28Z</time>
      </trkpt>
      <trkpt lat="42.84258" lon="-0.09655">
        <ele>1436.35</ele>
        <time>2016-06-05T07:14:41Z</time>
      </trkpt>
      <trkpt lat="42.84243" lon="-0.09654">
        <ele>1436.35</ele>
        <time>2016-06-05T07:14:56Z</time>
      </trkpt>
      <trkpt lat="42.84231" lon="-0.09653">
        <ele>1437.79</ele>
        <time>2016-06-05T07:15:07Z</time>
      </trkpt>
      <trkpt lat="42.84211" lon="-0.0965">
        <ele>1437.79</ele>
        <time>2016-06-05T07:15:25Z</time>
      </trkpt>
      <trkpt lat="42.84206" lon="-0.09655">
        <ele>1437.79</ele>
        <time>2016-06-05T07:15:31Z</time>
      </trkpt>
      <trkpt lat="42.84206" lon="-0.09658">
        <ele>1437.79</ele>
        <time>2016-06-05T07:15:33Z</time>
      </trkpt>
      <trkpt lat="42.842" lon="-0.09666">
        <ele>1438.27</ele>
        <time>2016-06-05T07:15:41Z</time>
      </trkpt>
      <trkpt lat="42.84199" lon="-0.09668">
        <ele>1438.27</ele>
        <time>2016-06-05T07:15:43Z</time>
      </trkpt>
      <trkpt lat="42.84196" lon="-0.09677">
        <ele>1438.75</ele>
        <time>2016-06-05T07:15:49Z</time>
      </trkpt>
      <trkpt lat="42.84194" lon="-0.09695">
        <ele>1440.19</ele>
        <time>2016-06-05T07:16:03Z</time>
      </trkpt>
      <trkpt lat="42.8419" lon="-0.09705">
        <ele>1441.15</ele>
        <time>2016-06-05T07:16:13Z</time>
      </trkpt>
      <trkpt lat="42.84189" lon="-0.09709">
        <ele>1441.15</ele>
        <time>2016-06-05T07:16:16Z</time>
      </trkpt>
      <trkpt lat="42.84187" lon="-0.09717">
        <ele>1441.63</ele>
        <time>2016-06-05T07:16:22Z</time>
      </trkpt>
      <trkpt lat="42.84175" lon="-0.09728">
        <ele>1443.08</ele>
        <time>2016-06-05T07:16:36Z</time>
      </trkpt>
      <trkpt lat="42.84162" lon="-0.09733">
        <ele>1444.04</ele>
        <time>2016-06-05T07:16:49Z</time>
      </trkpt>
      <trkpt lat="42.84145" lon="-0.09736">
        <ele>1445.48</ele>
        <time>2016-06-05T07:17:04Z</time>
      </trkpt>
      <trkpt lat="42.84137" lon="-0.09733">
        <ele>1446.44</ele>
        <time>2016-06-05T07:17:13Z</time>
      </trkpt>
      <trkpt lat="42.84126" lon="-0.09725">
        <ele>1447.88</ele>
        <time>2016-06-05T07:17:26Z</time>
      </trkpt>
      <trkpt lat="42.84118" lon="-0.09717">
        <ele>1449.32</ele>
        <time>2016-06-05T07:17:40Z</time>
      </trkpt>
      <trkpt lat="42.84112" lon="-0.09707">
        <ele>1451.25</ele>
        <time>2016-06-05T07:17:53Z</time>
      </trkpt>
      <trkpt lat="42.84103" lon="-0.09697">
        <ele>1453.65</ele>
        <time>2016-06-05T07:18:10Z</time>
      </trkpt>
      <trkpt lat="42.84095" lon="-0.09687">
        <ele>1455.09</ele>
        <time>2016-06-05T07:18:23Z</time>
      </trkpt>
      <trkpt lat="42.84091" lon="-0.09683">
        <ele>1457.02</ele>
        <time>2016-06-05T07:18:37Z</time>
      </trkpt>
      <trkpt lat="42.84083" lon="-0.09676">
        <ele>1458.46</ele>
        <time>2016-06-05T07:18:50Z</time>
      </trkpt>
      <trkpt lat="42.84076" lon="-0.0967">
        <ele>1458.94</ele>
        <time>2016-06-05T07:19:04Z</time>
      </trkpt>
      <trkpt lat="42.84072" lon="-0.09667">
        <ele>1458.94</ele>
        <time>2016-06-05T07:19:35Z</time>
      </trkpt>
      <trkpt lat="42.84061" lon="-0.09662">
        <ele>1457.5</ele>
        <time>2016-06-05T07:19:48Z</time>
      </trkpt>
      <trkpt lat="42.84049" lon="-0.09657">
        <ele>1457.02</ele>
        <time>2016-06-05T07:20:00Z</time>
      </trkpt>
      <trkpt lat="42.84032" lon="-0.09657">
        <ele>1456.53</ele>
        <time>2016-06-05T07:20:15Z</time>
      </trkpt>
      <trkpt lat="42.84023" lon="-0.09661">
        <ele>1457.98</ele>
        <time>2016-06-05T07:20:24Z</time>
      </trkpt>
      <trkpt lat="42.84006" lon="-0.09654">
        <ele>1458.46</ele>
        <time>2016-06-05T07:20:40Z</time>
      </trkpt>
      <trkpt lat="42.83996" lon="-0.09646">
        <ele>1458.46</ele>
        <time>2016-06-05T07:20:54Z</time>
      </trkpt>
      <trkpt lat="42.83986" lon="-0.09641">
        <ele>1459.42</ele>
        <time>2016-06-05T07:21:06Z</time>
      </trkpt>
      <trkpt lat="42.83979" lon="-0.09638">
        <ele>1459.42</ele>
        <time>2016-06-05T07:21:21Z</time>
      </trkpt>
      <trkpt lat="42.83967" lon="-0.09631">
        <ele>1459.9</ele>
        <time>2016-06-05T07:21:34Z</time>
      </trkpt>
      <trkpt lat="42.83959" lon="-0.09627">
        <ele>1459.9</ele>
        <time>2016-06-05T07:21:52Z</time>
      </trkpt>
      <trkpt lat="42.83946" lon="-0.09625">
        <ele>1460.38</ele>
        <time>2016-06-05T07:22:03Z</time>
      </trkpt>
      <trkpt lat="42.83933" lon="-0.09625">
        <ele>1460.86</ele>
        <time>2016-06-05T07:22:16Z</time>
      </trkpt>
      <trkpt lat="42.83927" lon="-0.09624">
        <ele>1460.86</ele>
        <time>2016-06-05T07:22:22Z</time>
      </trkpt>
      <trkpt lat="42.8392" lon="-0.09622">
        <ele>1460.86</ele>
        <time>2016-06-05T07:22:29Z</time>
      </trkpt>
      <trkpt lat="42.83917" lon="-0.0962">
        <ele>1461.34</ele>
        <time>2016-06-05T07:22:32Z</time>
      </trkpt>
      <trkpt lat="42.83901" lon="-0.09616">
        <ele>1461.82</ele>
        <time>2016-06-05T07:22:46Z</time>
      </trkpt>
      <trkpt lat="42.83896" lon="-0.09614">
        <ele>1461.82</ele>
        <time>2016-06-05T07:22:50Z</time>
      </trkpt>
      <trkpt lat="42.8389" lon="-0.09613">
        <ele>1462.3</ele>
        <time>2016-06-05T07:23:02Z</time>
      </trkpt>
      <trkpt lat="42.83891" lon="-0.09612">
        <ele>1462.3</ele>
        <time>2016-06-05T07:23:10Z</time>
      </trkpt>
      <trkpt lat="42.83884" lon="-0.09621">
        <ele>1462.78</ele>
        <time>2016-06-05T07:23:26Z</time>
      </trkpt>
      <trkpt lat="42.83879" lon="-0.0962">
        <ele>1462.78</ele>
        <time>2016-06-05T07:23:52Z</time>
      </trkpt>
      <trkpt lat="42.83873" lon="-0.09617">
        <ele>1462.78</ele>
        <time>2016-06-05T07:23:58Z</time>
      </trkpt>
      <trkpt lat="42.83858" lon="-0.09606">
        <ele>1462.78</ele>
        <time>2016-06-05T07:24:13Z</time>
      </trkpt>
      <trkpt lat="42.83847" lon="-0.09601">
        <ele>1463.74</ele>
        <time>2016-06-05T07:24:23Z</time>
      </trkpt>
      <trkpt lat="42.83829" lon="-0.09596">
        <ele>1464.23</ele>
        <time>2016-06-05T07:24:38Z</time>
      </trkpt>
      <trkpt lat="42.83824" lon="-0.09598">
        <ele>1464.23</ele>
        <time>2016-06-05T07:24:42Z</time>
      </trkpt>
      <trkpt lat="42.83813" lon="-0.09601">
        <ele>1464.71</ele>
        <time>2016-06-05T07:24:50Z</time>
      </trkpt>
      <trkpt lat="42.83798" lon="-0.09608">
        <ele>1465.19</ele>
        <time>2016-06-05T07:25:03Z</time>
      </trkpt>
      <trkpt lat="42.83783" lon="-0.09615">
        <ele>1465.19</ele>
        <time>2016-06-05T07:25:16Z</time>
      </trkpt>
      <trkpt lat="42.83775" lon="-0.09616">
        <ele>1465.67</ele>
        <time>2016-06-05T07:25:23Z</time>
      </trkpt>
      <trkpt lat="42.83773" lon="-0.09617">
        <ele>1465.67</ele>
        <time>2016-06-05T07:25:25Z</time>
      </trkpt>
      <trkpt lat="42.83757" lon="-0.09628">
        <ele>1466.15</ele>
        <time>2016-06-05T07:25:40Z</time>
      </trkpt>
      <trkpt lat="42.83756" lon="-0.09629">
        <ele>1466.63</ele>
        <time>2016-06-05T07:25:41Z</time>
      </trkpt>
      <trkpt lat="42.83751" lon="-0.09632">
        <ele>1467.11</ele>
        <time>2016-06-05T07:25:57Z</time>
      </trkpt>
      <trkpt lat="42.83739" lon="-0.09635">
        <ele>1467.59</ele>
        <time>2016-06-05T07:26:16Z</time>
      </trkpt>
      <trkpt lat="42.83721" lon="-0.0964">
        <ele>1468.55</ele>
        <time>2016-06-05T07:26:31Z</time>
      </trkpt>
      <trkpt lat="42.83716" lon="-0.09643">
        <ele>1468.55</ele>
        <time>2016-06-05T07:26:36Z</time>
      </trkpt>
      <trkpt lat="42.83706" lon="-0.09648">
        <ele>1469.51</ele>
        <time>2016-06-05T07:26:44Z</time>
      </trkpt>
      <trkpt lat="42.83688" lon="-0.09661">
        <ele>1469.51</ele>
        <time>2016-06-05T07:27:00Z</time>
      </trkpt>
      <trkpt lat="42.83675" lon="-0.09668">
        <ele>1470.47</ele>
        <time>2016-06-05T07:27:13Z</time>
      </trkpt>
      <trkpt lat="42.83663" lon="-0.09672">
        <ele>1470.95</ele>
        <time>2016-06-05T07:27:24Z</time>
      </trkpt>
      <trkpt lat="42.83652" lon="-0.09673">
        <ele>1471.44</ele>
        <time>2016-06-05T07:27:37Z</time>
      </trkpt>
      <trkpt lat="42.83651" lon="-0.09672">
        <ele>1471.44</ele>
        <time>2016-06-05T07:27:38Z</time>
      </trkpt>
      <trkpt lat="42.83632" lon="-0.09663">
        <ele>1472.4</ele>
        <time>2016-06-05T07:27:56Z</time>
      </trkpt>
      <trkpt lat="42.83631" lon="-0.09663">
        <ele>1472.4</ele>
        <time>2016-06-05T07:27:57Z</time>
      </trkpt>
      <trkpt lat="42.83624" lon="-0.09663">
        <ele>1472.88</ele>
        <time>2016-06-05T07:28:02Z</time>
      </trkpt>
      <trkpt lat="42.83621" lon="-0.09663">
        <ele>1472.88</ele>
        <time>2016-06-05T07:28:05Z</time>
      </trkpt>
      <trkpt lat="42.83605" lon="-0.09668">
        <ele>1473.36</ele>
        <time>2016-06-05T07:28:18Z</time>
      </trkpt>
      <trkpt lat="42.83593" lon="-0.0967">
        <ele>1474.32</ele>
        <time>2016-06-05T07:28:28Z</time>
      </trkpt>
      <trkpt lat="42.83588" lon="-0.09673">
        <ele>1474.32</ele>
        <time>2016-06-05T07:28:34Z</time>
      </trkpt>
      <trkpt lat="42.83567" lon="-0.0967">
        <ele>1475.28</ele>
        <time>2016-06-05T07:28:51Z</time>
      </trkpt>
      <trkpt lat="42.83553" lon="-0.09661">
        <ele>1476.72</ele>
        <time>2016-06-05T07:29:08Z</time>
      </trkpt>
      <trkpt lat="42.83539" lon="-0.09653">
        <ele>1477.68</ele>
        <time>2016-06-05T07:29:21Z</time>
      </trkpt>
      <trkpt lat="42.83519" lon="-0.09645">
        <ele>1477.68</ele>
        <time>2016-06-05T07:29:37Z</time>
      </trkpt>
      <trkpt lat="42.83511" lon="-0.09647">
        <ele>1478.65</ele>
        <time>2016-06-05T07:29:52Z</time>
      </trkpt>
      <trkpt lat="42.83504" lon="-0.09647">
        <ele>1478.65</ele>
        <time>2016-06-05T07:30:10Z</time>
      </trkpt>
      <trkpt lat="42.83496" lon="-0.09643">
        <ele>1478.65</ele>
        <time>2016-06-05T07:30:17Z</time>
      </trkpt>
      <trkpt lat="42.83486" lon="-0.09633">
        <ele>1480.09</ele>
        <time>2016-06-05T07:30:30Z</time>
      </trkpt>
      <trkpt lat="42.83477" lon="-0.09627">
        <ele>1481.53</ele>
        <time>2016-06-05T07:30:42Z</time>
      </trkpt>
      <trkpt lat="42.83465" lon="-0.09619">
        <ele>1482.49</ele>
        <time>2016-06-05T07:30:54Z</time>
      </trkpt>
      <trkpt lat="42.83458" lon="-0.09615">
        <ele>1482.49</ele>
        <time>2016-06-05T07:31:01Z</time>
      </trkpt>
      <trkpt lat="42.83445" lon="-0.09611">
        <ele>1482.49</ele>
        <time>2016-06-05T07:31:13Z</time>
      </trkpt>
      <trkpt lat="42.83444" lon="-0.0961">
        <ele>1482.49</ele>
        <time>2016-06-05T07:31:14Z</time>
      </trkpt>
      <trkpt lat="42.83441" lon="-0.09606">
        <ele>1482.49</ele>
        <time>2016-06-05T07:31:17Z</time>
      </trkpt>
      <trkpt lat="42.83419" lon="-0.09607">
        <ele>1482.97</ele>
        <time>2016-06-05T07:31:35Z</time>
      </trkpt>
      <trkpt lat="42.83405" lon="-0.09608">
        <ele>1483.45</ele>
        <time>2016-06-05T07:31:48Z</time>
      </trkpt>
      <trkpt lat="42.83394" lon="-0.09605">
        <ele>1484.41</ele>
        <time>2016-06-05T07:31:59Z</time>
      </trkpt>
      <trkpt lat="42.83383" lon="-0.09596">
        <ele>1484.89</ele>
        <time>2016-06-05T07:32:12Z</time>
      </trkpt>
      <trkpt lat="42.83379" lon="-0.09593">
        <ele>1484.89</ele>
        <time>2016-06-05T07:32:16Z</time>
      </trkpt>
      <trkpt lat="42.83373" lon="-0.09592">
        <ele>1484.89</ele>
        <time>2016-06-05T07:32:22Z</time>
      </trkpt>
      <trkpt lat="42.83359" lon="-0.09591">
        <ele>1486.34</ele>
        <time>2016-06-05T07:32:35Z</time>
      </trkpt>
      <trkpt lat="42.83356" lon="-0.09593">
        <ele>1486.34</ele>
        <time>2016-06-05T07:32:39Z</time>
      </trkpt>
      <trkpt lat="42.83354" lon="-0.09595">
        <ele>1486.34</ele>
        <time>2016-06-05T07:32:41Z</time>
      </trkpt>
      <trkpt lat="42.83339" lon="-0.09598">
        <ele>1486.82</ele>
        <time>2016-06-05T07:32:55Z</time>
      </trkpt>
      <trkpt lat="42.83326" lon="-0.09597">
        <ele>1487.78</ele>
        <time>2016-06-05T07:33:07Z</time>
      </trkpt>
      <trkpt lat="42.83313" lon="-0.09597">
        <ele>1488.26</ele>
        <time>2016-06-05T07:33:18Z</time>
      </trkpt>
      <trkpt lat="42.83295" lon="-0.09602">
        <ele>1488.74</ele>
        <time>2016-06-05T07:33:33Z</time>
      </trkpt>
      <trkpt lat="42.8328" lon="-0.09604">
        <ele>1489.7</ele>
        <time>2016-06-05T07:33:47Z</time>
      </trkpt>
      <trkpt lat="42.83274" lon="-0.09606">
        <ele>1490.18</ele>
        <time>2016-06-05T07:33:54Z</time>
      </trkpt>
      <trkpt lat="42.8327" lon="-0.09609">
        <ele>1490.66</ele>
        <time>2016-06-05T07:34:05Z</time>
      </trkpt>
      <trkpt lat="42.83263" lon="-0.09612">
        <ele>1491.14</ele>
        <time>2016-06-05T07:34:20Z</time>
      </trkpt>
      <trkpt lat="42.83257" lon="-0.09606">
        <ele>1491.62</ele>
        <time>2016-06-05T07:34:35Z</time>
      </trkpt>
      <trkpt lat="42.83257" lon="-0.09608">
        <ele>1492.1</ele>
        <time>2016-06-05T07:34:56Z</time>
      </trkpt>
      <trkpt lat="42.83254" lon="-0.09609">
        <ele>1492.1</ele>
        <time>2016-06-05T07:35:19Z</time>
      </trkpt>
      <trkpt lat="42.83258" lon="-0.09603">
        <ele>1492.1</ele>
        <time>2016-06-05T07:35:33Z</time>
      </trkpt>
      <trkpt lat="42.83257" lon="-0.09603">
        <ele>1492.1</ele>
        <time>2016-06-05T07:36:01Z</time>
      </trkpt>
      <trkpt lat="42.83254" lon="-0.09598">
        <ele>1492.58</ele>
        <time>2016-06-05T07:36:20Z</time>
      </trkpt>
      <trkpt lat="42.83247" lon="-0.09591">
        <ele>1494.51</ele>
        <time>2016-06-05T07:36:35Z</time>
      </trkpt>
      <trkpt lat="42.83242" lon="-0.09584">
        <ele>1496.91</ele>
        <time>2016-06-05T07:36:49Z</time>
      </trkpt>
      <trkpt lat="42.83233" lon="-0.0958">
        <ele>1498.83</ele>
        <time>2016-06-05T07:37:03Z</time>
      </trkpt>
      <trkpt lat="42.83225" lon="-0.09577">
        <ele>1501.72</ele>
        <time>2016-06-05T07:37:20Z</time>
      </trkpt>
      <trkpt lat="42.83216" lon="-0.09573">
        <ele>1503.64</ele>
        <time>2016-06-05T07:37:34Z</time>
      </trkpt>
      <trkpt lat="42.83206" lon="-0.09574">
        <ele>1505.56</ele>
        <time>2016-06-05T07:37:50Z</time>
      </trkpt>
      <trkpt lat="42.83194" lon="-0.09578">
        <ele>1507</ele>
        <time>2016-06-05T07:38:04Z</time>
      </trkpt>
      <trkpt lat="42.83185" lon="-0.09577">
        <ele>1508.45</ele>
        <time>2016-06-05T07:38:16Z</time>
      </trkpt>
      <trkpt lat="42.83177" lon="-0.09579">
        <ele>1509.89</ele>
        <time>2016-06-05T07:38:28Z</time>
      </trkpt>
      <trkpt lat="42.83167" lon="-0.09574">
        <ele>1511.33</ele>
        <time>2016-06-05T07:38:43Z</time>
      </trkpt>
      <trkpt lat="42.83157" lon="-0.09577">
        <ele>1512.77</ele>
        <time>2016-06-05T07:38:56Z</time>
      </trkpt>
      <trkpt lat="42.83151" lon="-0.09583">
        <ele>1514.21</ele>
        <time>2016-06-05T07:39:07Z</time>
      </trkpt>
      <trkpt lat="42.83148" lon="-0.09585">
        <ele>1514.69</ele>
        <time>2016-06-05T07:39:11Z</time>
      </trkpt>
      <trkpt lat="42.83138" lon="-0.09587">
        <ele>1516.14</ele>
        <time>2016-06-05T07:39:24Z</time>
      </trkpt>
      <trkpt lat="42.83127" lon="-0.09592">
        <ele>1517.1</ele>
        <time>2016-06-05T07:39:38Z</time>
      </trkpt>
      <trkpt lat="42.83116" lon="-0.09593">
        <ele>1518.06</ele>
        <time>2016-06-05T07:39:51Z</time>
      </trkpt>
      <trkpt lat="42.83101" lon="-0.09602">
        <ele>1518.06</ele>
        <time>2016-06-05T07:40:06Z</time>
      </trkpt>
      <trkpt lat="42.83089" lon="-0.09605">
        <ele>1518.54</ele>
        <time>2016-06-05T07:40:19Z</time>
      </trkpt>
      <trkpt lat="42.83077" lon="-0.0961">
        <ele>1519.5</ele>
        <time>2016-06-05T07:40:33Z</time>
      </trkpt>
      <trkpt lat="42.83063" lon="-0.09616">
        <ele>1519.5</ele>
        <time>2016-06-05T07:40:47Z</time>
      </trkpt>
      <trkpt lat="42.83047" lon="-0.09618">
        <ele>1519.98</ele>
        <time>2016-06-05T07:41:02Z</time>
      </trkpt>
      <trkpt lat="42.83044" lon="-0.09621">
        <ele>1519.98</ele>
        <time>2016-06-05T07:41:07Z</time>
      </trkpt>
      <trkpt lat="42.83033" lon="-0.09627">
        <ele>1520.94</ele>
        <time>2016-06-05T07:41:23Z</time>
      </trkpt>
      <trkpt lat="42.83024" lon="-0.09637">
        <ele>1521.42</ele>
        <time>2016-06-05T07:41:36Z</time>
      </trkpt>
      <trkpt lat="42.83014" lon="-0.09648">
        <ele>1521.42</ele>
        <time>2016-06-05T07:41:50Z</time>
      </trkpt>
      <trkpt lat="42.83006" lon="-0.09658">
        <ele>1519.98</ele>
        <time>2016-06-05T07:42:04Z</time>
      </trkpt>
      <trkpt lat="42.83005" lon="-0.09657">
        <ele>1519.98</ele>
        <time>2016-06-05T07:42:05Z</time>
      </trkpt>
      <trkpt lat="42.82998" lon="-0.09657">
        <ele>1519.98</ele>
        <time>2016-06-05T07:42:17Z</time>
      </trkpt>
      <trkpt lat="42.82986" lon="-0.09654">
        <ele>1520.46</ele>
        <time>2016-06-05T07:42:30Z</time>
      </trkpt>
      <trkpt lat="42.82983" lon="-0.09651">
        <ele>1520.46</ele>
        <time>2016-06-05T07:42:38Z</time>
      </trkpt>
      <trkpt lat="42.82978" lon="-0.09646">
        <ele>1520.46</ele>
        <time>2016-06-05T07:42:44Z</time>
      </trkpt>
      <trkpt lat="42.82972" lon="-0.09643">
        <ele>1520.46</ele>
        <time>2016-06-05T07:42:50Z</time>
      </trkpt>
      <trkpt lat="42.82968" lon="-0.09645">
        <ele>1520.46</ele>
        <time>2016-06-05T07:42:53Z</time>
      </trkpt>
      <trkpt lat="42.82957" lon="-0.09647">
        <ele>1521.42</ele>
        <time>2016-06-05T07:43:03Z</time>
      </trkpt>
      <trkpt lat="42.82944" lon="-0.09646">
        <ele>1522.39</ele>
        <time>2016-06-05T07:43:16Z</time>
      </trkpt>
      <trkpt lat="42.82938" lon="-0.09646">
        <ele>1523.35</ele>
        <time>2016-06-05T07:43:23Z</time>
      </trkpt>
      <trkpt lat="42.82933" lon="-0.09648">
        <ele>1523.83</ele>
        <time>2016-06-05T07:43:27Z</time>
      </trkpt>
      <trkpt lat="42.8292" lon="-0.09651">
        <ele>1524.31</ele>
        <time>2016-06-05T07:43:42Z</time>
      </trkpt>
      <trkpt lat="42.82919" lon="-0.0965">
        <ele>1524.31</ele>
        <time>2016-06-05T07:43:43Z</time>
      </trkpt>
      <trkpt lat="42.82913" lon="-0.09645">
        <ele>1524.31</ele>
        <time>2016-06-05T07:43:50Z</time>
      </trkpt>
      <trkpt lat="42.82907" lon="-0.09644">
        <ele>1524.79</ele>
        <time>2016-06-05T07:44:04Z</time>
      </trkpt>
      <trkpt lat="42.82907" lon="-0.09647">
        <ele>1524.79</ele>
        <time>2016-06-05T07:44:26Z</time>
      </trkpt>
      <trkpt lat="42.82898" lon="-0.09647">
        <ele>1525.75</ele>
        <time>2016-06-05T07:44:39Z</time>
      </trkpt>
      <trkpt lat="42.82891" lon="-0.09648">
        <ele>1525.75</ele>
        <time>2016-06-05T07:45:00Z</time>
      </trkpt>
      <trkpt lat="42.82875" lon="-0.09646">
        <ele>1525.75</ele>
        <time>2016-06-05T07:45:14Z</time>
      </trkpt>
      <trkpt lat="42.82864" lon="-0.09639">
        <ele>1526.23</ele>
        <time>2016-06-05T07:45:26Z</time>
      </trkpt>
      <trkpt lat="42.82854" lon="-0.09631">
        <ele>1529.59</ele>
        <time>2016-06-05T07:45:40Z</time>
      </trkpt>
      <trkpt lat="42.8284" lon="-0.09624">
        <ele>1527.67</ele>
        <time>2016-06-05T07:45:55Z</time>
      </trkpt>
      <trkpt lat="42.82831" lon="-0.09622">
        <ele>1529.59</ele>
        <time>2016-06-05T07:46:08Z</time>
      </trkpt>
      <trkpt lat="42.82823" lon="-0.09613">
        <ele>1531.52</ele>
        <time>2016-06-05T07:46:23Z</time>
      </trkpt>
      <trkpt lat="42.82808" lon="-0.09609">
        <ele>1532</ele>
        <time>2016-06-05T07:46:36Z</time>
      </trkpt>
      <trkpt lat="42.82793" lon="-0.09604">
        <ele>1532</ele>
        <time>2016-06-05T07:46:50Z</time>
      </trkpt>
      <trkpt lat="42.82781" lon="-0.09597">
        <ele>1532.48</ele>
        <time>2016-06-05T07:47:03Z</time>
      </trkpt>
      <trkpt lat="42.82773" lon="-0.09593">
        <ele>1533.92</ele>
        <time>2016-06-05T07:47:18Z</time>
      </trkpt>
      <trkpt lat="42.82763" lon="-0.09587">
        <ele>1535.36</ele>
        <time>2016-06-05T07:47:30Z</time>
      </trkpt>
      <trkpt lat="42.8276" lon="-0.09587">
        <ele>1535.36</ele>
        <time>2016-06-05T07:47:33Z</time>
      </trkpt>
      <trkpt lat="42.82757" lon="-0.09585">
        <ele>1535.36</ele>
        <time>2016-06-05T07:47:37Z</time>
      </trkpt>
      <trkpt lat="42.82748" lon="-0.09578">
        <ele>1536.32</ele>
        <time>2016-06-05T07:47:51Z</time>
      </trkpt>
      <trkpt lat="42.82748" lon="-0.09579">
        <ele>1536.8</ele>
        <time>2016-06-05T07:48:03Z</time>
      </trkpt>
      <trkpt lat="42.82748" lon="-0.09579">
        <ele>1536.8</ele>
        <time>2016-06-05T07:48:04Z</time>
      </trkpt>
      <trkpt lat="42.82747" lon="-0.09579">
        <ele>1535.36</ele>
        <time>2016-06-05T07:48:10Z</time>
      </trkpt>
      <trkpt lat="42.82741" lon="-0.09579">
        <ele>1535.36</ele>
        <time>2016-06-05T07:48:39Z</time>
      </trkpt>
      <trkpt lat="42.82746" lon="-0.09584">
        <ele>1535.84</ele>
        <time>2016-06-05T07:49:11Z</time>
      </trkpt>
      <trkpt lat="42.8275" lon="-0.09579">
        <ele>1535.84</ele>
        <time>2016-06-05T07:49:36Z</time>
      </trkpt>
      <trkpt lat="42.82749" lon="-0.09587">
        <ele>1536.32</ele>
        <time>2016-06-05T07:50:06Z</time>
      </trkpt>
      <trkpt lat="42.82744" lon="-0.0959">
        <ele>1536.32</ele>
        <time>2016-06-05T07:50:35Z</time>
      </trkpt>
      <trkpt lat="42.82745" lon="-0.0959">
        <ele>1536.8</ele>
        <time>2016-06-05T07:51:01Z</time>
      </trkpt>
      <trkpt lat="42.82744" lon="-0.09585">
        <ele>1536.32</ele>
        <time>2016-06-05T07:51:27Z</time>
      </trkpt>
      <trkpt lat="42.82744" lon="-0.09582">
        <ele>1537.77</ele>
        <time>2016-06-05T07:51:54Z</time>
      </trkpt>
      <trkpt lat="42.82744" lon="-0.09577">
        <ele>1537.77</ele>
        <time>2016-06-05T07:52:07Z</time>
      </trkpt>
      <trkpt lat="42.82744" lon="-0.0957">
        <ele>1538.25</ele>
        <time>2016-06-05T07:52:29Z</time>
      </trkpt>
      <trkpt lat="42.82735" lon="-0.09568">
        <ele>1538.25</ele>
        <time>2016-06-05T07:52:46Z</time>
      </trkpt>
      <trkpt lat="42.82732" lon="-0.09566">
        <ele>1538.25</ele>
        <time>2016-06-05T07:52:50Z</time>
      </trkpt>
      <trkpt lat="42.82718" lon="-0.0956">
        <ele>1539.69</ele>
        <time>2016-06-05T07:53:06Z</time>
      </trkpt>
      <trkpt lat="42.82708" lon="-0.09557">
        <ele>1540.65</ele>
        <time>2016-06-05T07:53:18Z</time>
      </trkpt>
      <trkpt lat="42.82703" lon="-0.09565">
        <ele>1542.09</ele>
        <time>2016-06-05T07:53:31Z</time>
      </trkpt>
      <trkpt lat="42.82702" lon="-0.09565">
        <ele>1542.09</ele>
        <time>2016-06-05T07:53:51Z</time>
      </trkpt>
      <trkpt lat="42.82691" lon="-0.09575">
        <ele>1542.57</ele>
        <time>2016-06-05T07:54:04Z</time>
      </trkpt>
      <trkpt lat="42.82682" lon="-0.09584">
        <ele>1544.01</ele>
        <time>2016-06-05T07:54:17Z</time>
      </trkpt>
      <trkpt lat="42.82675" lon="-0.09593">
        <ele>1544.98</ele>
        <time>2016-06-05T07:54:31Z</time>
      </trkpt>
      <trkpt lat="42.8267" lon="-0.09598">
        <ele>1545.46</ele>
        <time>2016-06-05T07:54:38Z</time>
      </trkpt>
      <trkpt lat="42.82662" lon="-0.09604">
        <ele>1545.46</ele>
        <time>2016-06-05T07:54:46Z</time>
      </trkpt>
      <trkpt lat="42.82651" lon="-0.09614">
        <ele>1545.94</ele>
        <time>2016-06-05T07:55:00Z</time>
      </trkpt>
      <trkpt lat="42.82649" lon="-0.09616">
        <ele>1545.94</ele>
        <time>2016-06-05T07:55:15Z</time>
      </trkpt>
      <trkpt lat="42.82646" lon="-0.09615">
        <ele>1546.42</ele>
        <time>2016-06-05T07:55:34Z</time>
      </trkpt>
      <trkpt lat="42.82649" lon="-0.09616">
        <ele>1546.42</ele>
        <time>2016-06-05T07:55:48Z</time>
      </trkpt>
      <trkpt lat="42.82647" lon="-0.09616">
        <ele>1546.42</ele>
        <time>2016-06-05T07:56:09Z</time>
      </trkpt>
      <trkpt lat="42.82647" lon="-0.09621">
        <ele>1546.9</ele>
        <time>2016-06-05T07:56:39Z</time>
      </trkpt>
      <trkpt lat="42.82646" lon="-0.0962">
        <ele>1545.46</ele>
        <time>2016-06-05T07:57:05Z</time>
      </trkpt>
      <trkpt lat="42.82645" lon="-0.09618">
        <ele>1545.46</ele>
        <time>2016-06-05T07:57:27Z</time>
      </trkpt>
      <trkpt lat="42.82632" lon="-0.09619">
        <ele>1545.46</ele>
        <time>2016-06-05T07:57:42Z</time>
      </trkpt>
      <trkpt lat="42.82622" lon="-0.09619">
        <ele>1545.94</ele>
        <time>2016-06-05T07:57:55Z</time>
      </trkpt>
      <trkpt lat="42.82609" lon="-0.09619">
        <ele>1547.38</ele>
        <time>2016-06-05T07:58:08Z</time>
      </trkpt>
      <trkpt lat="42.82598" lon="-0.09625">
        <ele>1547.86</ele>
        <time>2016-06-05T07:58:22Z</time>
      </trkpt>
      <trkpt lat="42.82589" lon="-0.09629">
        <ele>1547.86</ele>
        <time>2016-06-05T07:58:30Z</time>
      </trkpt>
      <trkpt lat="42.82583" lon="-0.09627">
        <ele>1548.34</ele>
        <time>2016-06-05T07:58:35Z</time>
      </trkpt>
      <trkpt lat="42.82572" lon="-0.09621">
        <ele>1549.3</ele>
        <time>2016-06-05T07:58:50Z</time>
      </trkpt>
      <trkpt lat="42.8256" lon="-0.09615">
        <ele>1549.78</ele>
        <time>2016-06-05T07:59:02Z</time>
      </trkpt>
      <trkpt lat="42.82545" lon="-0.09614">
        <ele>1548.82</ele>
        <time>2016-06-05T07:59:17Z</time>
      </trkpt>
      <trkpt lat="42.82529" lon="-0.09614">
        <ele>1547.86</ele>
        <time>2016-06-05T07:59:31Z</time>
      </trkpt>
      <trkpt lat="42.82518" lon="-0.09622">
        <ele>1547.38</ele>
        <time>2016-06-05T07:59:45Z</time>
      </trkpt>
      <trkpt lat="42.82501" lon="-0.09623">
        <ele>1546.9</ele>
        <time>2016-06-05T08:00:01Z</time>
      </trkpt>
      <trkpt lat="42.8249" lon="-0.09622">
        <ele>1548.34</ele>
        <time>2016-06-05T08:00:14Z</time>
      </trkpt>
      <trkpt lat="42.8248" lon="-0.09621">
        <ele>1548.82</ele>
        <time>2016-06-05T08:00:25Z</time>
      </trkpt>
      <trkpt lat="42.82473" lon="-0.0962">
        <ele>1549.3</ele>
        <time>2016-06-05T08:00:32Z</time>
      </trkpt>
      <trkpt lat="42.82468" lon="-0.09616">
        <ele>1549.3</ele>
        <time>2016-06-05T08:00:38Z</time>
      </trkpt>
      <trkpt lat="42.82459" lon="-0.09619">
        <ele>1549.78</ele>
        <time>2016-06-05T08:00:47Z</time>
      </trkpt>
      <trkpt lat="42.82454" lon="-0.09621">
        <ele>1550.26</ele>
        <time>2016-06-05T08:00:53Z</time>
      </trkpt>
      <trkpt lat="42.82442" lon="-0.09627">
        <ele>1550.74</ele>
        <time>2016-06-05T08:01:03Z</time>
      </trkpt>
      <trkpt lat="42.82433" lon="-0.09628">
        <ele>1550.74</ele>
        <time>2016-06-05T08:01:12Z</time>
      </trkpt>
      <trkpt lat="42.82427" lon="-0.09626">
        <ele>1551.22</ele>
        <time>2016-06-05T08:01:17Z</time>
      </trkpt>
      <trkpt lat="42.82411" lon="-0.09629">
        <ele>1551.22</ele>
        <time>2016-06-05T08:01:32Z</time>
      </trkpt>
      <trkpt lat="42.824" lon="-0.09629">
        <ele>1552.19</ele>
        <time>2016-06-05T08:01:42Z</time>
      </trkpt>
      <trkpt lat="42.82389" lon="-0.09633">
        <ele>1552.67</ele>
        <time>2016-06-05T08:01:53Z</time>
      </trkpt>
      <trkpt lat="42.82384" lon="-0.09647">
        <ele>1552.67</ele>
        <time>2016-06-05T08:02:07Z</time>
      </trkpt>
      <trkpt lat="42.82385" lon="-0.09652">
        <ele>1553.15</ele>
        <time>2016-06-05T08:02:25Z</time>
      </trkpt>
      <trkpt lat="42.82387" lon="-0.09661">
        <ele>1553.15</ele>
        <time>2016-06-05T08:02:35Z</time>
      </trkpt>
      <trkpt lat="42.82375" lon="-0.09669">
        <ele>1554.11</ele>
        <time>2016-06-05T08:02:48Z</time>
      </trkpt>
      <trkpt lat="42.82368" lon="-0.09678">
        <ele>1555.07</ele>
        <time>2016-06-05T08:03:01Z</time>
      </trkpt>
      <trkpt lat="42.82366" lon="-0.09684">
        <ele>1555.55</ele>
        <time>2016-06-05T08:03:15Z</time>
      </trkpt>
      <trkpt lat="42.82362" lon="-0.09685">
        <ele>1555.55</ele>
        <time>2016-06-05T08:03:37Z</time>
      </trkpt>
      <trkpt lat="42.82362" lon="-0.09687">
        <ele>1556.51</ele>
        <time>2016-06-05T08:03:51Z</time>
      </trkpt>
      <trkpt lat="42.82361" lon="-0.09686">
        <ele>1556.51</ele>
        <time>2016-06-05T08:03:59Z</time>
      </trkpt>
      <trkpt lat="42.82359" lon="-0.09688">
        <ele>1556.51</ele>
        <time>2016-06-05T08:04:01Z</time>
      </trkpt>
      <trkpt lat="42.82345" lon="-0.09698">
        <ele>1557.47</ele>
        <time>2016-06-05T08:04:16Z</time>
      </trkpt>
      <trkpt lat="42.82341" lon="-0.09704">
        <ele>1557.95</ele>
        <time>2016-06-05T08:04:22Z</time>
      </trkpt>
      <trkpt lat="42.82331" lon="-0.09709">
        <ele>1557.95</ele>
        <time>2016-06-05T08:04:39Z</time>
      </trkpt>
      <trkpt lat="42.8232" lon="-0.09712">
        <ele>1557.95</ele>
        <time>2016-06-05T08:04:51Z</time>
      </trkpt>
      <trkpt lat="42.82315" lon="-0.09713">
        <ele>1557.95</ele>
        <time>2016-06-05T08:04:55Z</time>
      </trkpt>
      <trkpt lat="42.82302" lon="-0.09711">
        <ele>1557.95</ele>
        <time>2016-06-05T08:05:08Z</time>
      </trkpt>
      <trkpt lat="42.82299" lon="-0.09713">
        <ele>1558.92</ele>
        <time>2016-06-05T08:05:12Z</time>
      </trkpt>
      <trkpt lat="42.82295" lon="-0.09717">
        <ele>1559.4</ele>
        <time>2016-06-05T08:05:18Z</time>
      </trkpt>
      <trkpt lat="42.82291" lon="-0.09718">
        <ele>1559.4</ele>
        <time>2016-06-05T08:05:22Z</time>
      </trkpt>
      <trkpt lat="42.82275" lon="-0.09718">
        <ele>1560.84</ele>
        <time>2016-06-05T08:05:35Z</time>
      </trkpt>
      <trkpt lat="42.82273" lon="-0.09718">
        <ele>1560.84</ele>
        <time>2016-06-05T08:05:37Z</time>
      </trkpt>
      <trkpt lat="42.82269" lon="-0.09718">
        <ele>1560.84</ele>
        <time>2016-06-05T08:05:40Z</time>
      </trkpt>
      <trkpt lat="42.82265" lon="-0.09719">
        <ele>1561.32</ele>
        <time>2016-06-05T08:05:43Z</time>
      </trkpt>
      <trkpt lat="42.82263" lon="-0.09718">
        <ele>1561.8</ele>
        <time>2016-06-05T08:05:45Z</time>
      </trkpt>
      <trkpt lat="42.82255" lon="-0.09723">
        <ele>1562.28</ele>
        <time>2016-06-05T08:05:57Z</time>
      </trkpt>
      <trkpt lat="42.82254" lon="-0.09724">
        <ele>1562.28</ele>
        <time>2016-06-05T08:06:04Z</time>
      </trkpt>
      <trkpt lat="42.82237" lon="-0.0973">
        <ele>1563.72</ele>
        <time>2016-06-05T08:06:19Z</time>
      </trkpt>
      <trkpt lat="42.82234" lon="-0.09732">
        <ele>1563.72</ele>
        <time>2016-06-05T08:06:23Z</time>
      </trkpt>
      <trkpt lat="42.82232" lon="-0.09734">
        <ele>1564.2</ele>
        <time>2016-06-05T08:06:25Z</time>
      </trkpt>
      <trkpt lat="42.8222" lon="-0.09739">
        <ele>1565.16</ele>
        <time>2016-06-05T08:06:37Z</time>
      </trkpt>
      <trkpt lat="42.82215" lon="-0.09744">
        <ele>1565.64</ele>
        <time>2016-06-05T08:06:43Z</time>
      </trkpt>
      <trkpt lat="42.82208" lon="-0.09753">
        <ele>1567.09</ele>
        <time>2016-06-05T08:06:53Z</time>
      </trkpt>
      <trkpt lat="42.82195" lon="-0.09758">
        <ele>1568.05</ele>
        <time>2016-06-05T08:07:08Z</time>
      </trkpt>
      <trkpt lat="42.8219" lon="-0.09769">
        <ele>1569.49</ele>
        <time>2016-06-05T08:07:20Z</time>
      </trkpt>
      <trkpt lat="42.82182" lon="-0.09772">
        <ele>1570.45</ele>
        <time>2016-06-05T08:07:30Z</time>
      </trkpt>
      <trkpt lat="42.82175" lon="-0.09777">
        <ele>1571.41</ele>
        <time>2016-06-05T08:07:41Z</time>
      </trkpt>
      <trkpt lat="42.82169" lon="-0.0978">
        <ele>1572.37</ele>
        <time>2016-06-05T08:07:53Z</time>
      </trkpt>
      <trkpt lat="42.82156" lon="-0.09786">
        <ele>1573.82</ele>
        <time>2016-06-05T08:08:09Z</time>
      </trkpt>
      <trkpt lat="42.82151" lon="-0.09786">
        <ele>1575.26</ele>
        <time>2016-06-05T08:08:19Z</time>
      </trkpt>
      <trkpt lat="42.82149" lon="-0.09789">
        <ele>1575.26</ele>
        <time>2016-06-05T08:08:25Z</time>
      </trkpt>
      <trkpt lat="42.82147" lon="-0.09791">
        <ele>1575.26</ele>
        <time>2016-06-05T08:08:29Z</time>
      </trkpt>
      <trkpt lat="42.82136" lon="-0.09788">
        <ele>1576.22</ele>
        <time>2016-06-05T08:08:41Z</time>
      </trkpt>
      <trkpt lat="42.82133" lon="-0.09789">
        <ele>1576.7</ele>
        <time>2016-06-05T08:08:44Z</time>
      </trkpt>
      <trkpt lat="42.82125" lon="-0.09795">
        <ele>1577.66</ele>
        <time>2016-06-05T08:08:54Z</time>
      </trkpt>
      <trkpt lat="42.82115" lon="-0.09806">
        <ele>1578.62</ele>
        <time>2016-06-05T08:09:09Z</time>
      </trkpt>
      <trkpt lat="42.82103" lon="-0.09803">
        <ele>1579.1</ele>
        <time>2016-06-05T08:09:23Z</time>
      </trkpt>
      <trkpt lat="42.82092" lon="-0.09802">
        <ele>1580.06</ele>
        <time>2016-06-05T08:09:40Z</time>
      </trkpt>
      <trkpt lat="42.82084" lon="-0.09803">
        <ele>1580.54</ele>
        <time>2016-06-05T08:09:51Z</time>
      </trkpt>
      <trkpt lat="42.82073" lon="-0.09799">
        <ele>1581.99</ele>
        <time>2016-06-05T08:10:03Z</time>
      </trkpt>
      <trkpt lat="42.82069" lon="-0.09796">
        <ele>1582.47</ele>
        <time>2016-06-05T08:10:07Z</time>
      </trkpt>
      <trkpt lat="42.82065" lon="-0.09794">
        <ele>1582.47</ele>
        <time>2016-06-05T08:10:10Z</time>
      </trkpt>
      <trkpt lat="42.82053" lon="-0.09793">
        <ele>1583.91</ele>
        <time>2016-06-05T08:10:23Z</time>
      </trkpt>
      <trkpt lat="42.82051" lon="-0.09793">
        <ele>1584.39</ele>
        <time>2016-06-05T08:10:25Z</time>
      </trkpt>
      <trkpt lat="42.82049" lon="-0.09793">
        <ele>1584.39</ele>
        <time>2016-06-05T08:10:27Z</time>
      </trkpt>
      <trkpt lat="42.8204" lon="-0.09792">
        <ele>1585.35</ele>
        <time>2016-06-05T08:10:37Z</time>
      </trkpt>
      <trkpt lat="42.82032" lon="-0.09791">
        <ele>1586.31</ele>
        <time>2016-06-05T08:10:49Z</time>
      </trkpt>
      <trkpt lat="42.82026" lon="-0.09793">
        <ele>1587.27</ele>
        <time>2016-06-05T08:10:59Z</time>
      </trkpt>
      <trkpt lat="42.82019" lon="-0.09797">
        <ele>1588.72</ele>
        <time>2016-06-05T08:11:11Z</time>
      </trkpt>
      <trkpt lat="42.82011" lon="-0.09797">
        <ele>1590.16</ele>
        <time>2016-06-05T08:11:25Z</time>
      </trkpt>
      <trkpt lat="42.82006" lon="-0.09803">
        <ele>1591.12</ele>
        <time>2016-06-05T08:11:43Z</time>
      </trkpt>
      <trkpt lat="42.82004" lon="-0.09805">
        <ele>1591.6</ele>
        <time>2016-06-05T08:11:55Z</time>
      </trkpt>
      <trkpt lat="42.81999" lon="-0.09809">
        <ele>1593.04</ele>
        <time>2016-06-05T08:12:06Z</time>
      </trkpt>
      <trkpt lat="42.81991" lon="-0.09816">
        <ele>1594.96</ele>
        <time>2016-06-05T08:12:19Z</time>
      </trkpt>
      <trkpt lat="42.81982" lon="-0.09822">
        <ele>1596.41</ele>
        <time>2016-06-05T08:12:33Z</time>
      </trkpt>
      <trkpt lat="42.81974" lon="-0.09828">
        <ele>1597.85</ele>
        <time>2016-06-05T08:12:45Z</time>
      </trkpt>
      <trkpt lat="42.8197" lon="-0.09831">
        <ele>1599.29</ele>
        <time>2016-06-05T08:12:58Z</time>
      </trkpt>
      <trkpt lat="42.81962" lon="-0.09832">
        <ele>1599.77</ele>
        <time>2016-06-05T08:13:11Z</time>
      </trkpt>
      <trkpt lat="42.81952" lon="-0.09833">
        <ele>1598.33</ele>
        <time>2016-06-05T08:13:24Z</time>
      </trkpt>
      <trkpt lat="42.81939" lon="-0.09832">
        <ele>1598.33</ele>
        <time>2016-06-05T08:13:38Z</time>
      </trkpt>
      <trkpt lat="42.81928" lon="-0.09832">
        <ele>1598.33</ele>
        <time>2016-06-05T08:13:52Z</time>
      </trkpt>
      <trkpt lat="42.81914" lon="-0.09831">
        <ele>1599.29</ele>
        <time>2016-06-05T08:14:05Z</time>
      </trkpt>
      <trkpt lat="42.81906" lon="-0.0983">
        <ele>1599.29</ele>
        <time>2016-06-05T08:14:21Z</time>
      </trkpt>
      <trkpt lat="42.81894" lon="-0.09831">
        <ele>1599.29</ele>
        <time>2016-06-05T08:14:36Z</time>
      </trkpt>
      <trkpt lat="42.8189" lon="-0.0983">
        <ele>1599.29</ele>
        <time>2016-06-05T08:14:52Z</time>
      </trkpt>
      <trkpt lat="42.81891" lon="-0.09832">
        <ele>1599.29</ele>
        <time>2016-06-05T08:15:10Z</time>
      </trkpt>
      <trkpt lat="42.81888" lon="-0.09837">
        <ele>1600.73</ele>
        <time>2016-06-05T08:15:23Z</time>
      </trkpt>
      <trkpt lat="42.81882" lon="-0.09841">
        <ele>1602.66</ele>
        <time>2016-06-05T08:15:36Z</time>
      </trkpt>
      <trkpt lat="42.81882" lon="-0.09844">
        <ele>1604.1</ele>
        <time>2016-06-05T08:15:52Z</time>
      </trkpt>
      <trkpt lat="42.81876" lon="-0.09852">
        <ele>1605.54</ele>
        <time>2016-06-05T08:16:04Z</time>
      </trkpt>
      <trkpt lat="42.81874" lon="-0.09853">
        <ele>1606.02</ele>
        <time>2016-06-05T08:16:18Z</time>
      </trkpt>
      <trkpt lat="42.81873" lon="-0.09851">
        <ele>1606.02</ele>
        <time>2016-06-05T08:16:32Z</time>
      </trkpt>
      <trkpt lat="42.81879" lon="-0.09846">
        <ele>1605.06</ele>
        <time>2016-06-05T08:16:57Z</time>
      </trkpt>
      <trkpt lat="42.81881" lon="-0.09844">
        <ele>1605.06</ele>
        <time>2016-06-05T08:17:28Z</time>
      </trkpt>
      <trkpt lat="42.81882" lon="-0.09845">
        <ele>1605.54</ele>
        <time>2016-06-05T08:18:02Z</time>
      </trkpt>
      <trkpt lat="42.81881" lon="-0.09844">
        <ele>1605.54</ele>
        <time>2016-06-05T08:18:30Z</time>
      </trkpt>
      <trkpt lat="42.81881" lon="-0.09843">
        <ele>1605.54</ele>
        <time>2016-06-05T08:19:05Z</time>
      </trkpt>
      <trkpt lat="42.81884" lon="-0.09847">
        <ele>1606.02</ele>
        <time>2016-06-05T08:19:41Z</time>
      </trkpt>
      <trkpt lat="42.81883" lon="-0.09842">
        <ele>1606.02</ele>
        <time>2016-06-05T08:20:10Z</time>
      </trkpt>
      <trkpt lat="42.81886" lon="-0.09843">
        <ele>1606.5</ele>
        <time>2016-06-05T08:20:44Z</time>
      </trkpt>
      <trkpt lat="42.81884" lon="-0.09848">
        <ele>1606.5</ele>
        <time>2016-06-05T08:21:04Z</time>
      </trkpt>
      <trkpt lat="42.81882" lon="-0.09847">
        <ele>1578.62</ele>
        <time>2016-06-05T08:21:15Z</time>
      </trkpt>
      <trkpt lat="42.81883" lon="-0.09847">
        <ele>1609.86</ele>
        <time>2016-06-05T08:21:16Z</time>
      </trkpt>
      <trkpt lat="42.81884" lon="-0.09847">
        <ele>1602.66</ele>
        <time>2016-06-05T08:21:17Z</time>
      </trkpt>
      <trkpt lat="42.81885" lon="-0.09847">
        <ele>1614.67</ele>
        <time>2016-06-05T08:21:18Z</time>
      </trkpt>
      <trkpt lat="42.81886" lon="-0.09846">
        <ele>1605.06</ele>
        <time>2016-06-05T08:21:19Z</time>
      </trkpt>
      <trkpt lat="42.81883" lon="-0.09846">
        <ele>1616.11</ele>
        <time>2016-06-05T08:21:27Z</time>
      </trkpt>
      <trkpt lat="42.81883" lon="-0.09845">
        <ele>1602.66</ele>
        <time>2016-06-05T08:21:28Z</time>
      </trkpt>
      <trkpt lat="42.81882" lon="-0.09844">
        <ele>1609.38</ele>
        <time>2016-06-05T08:21:29Z</time>
      </trkpt>
      <trkpt lat="42.81882" lon="-0.09844">
        <ele>1605.54</ele>
        <time>2016-06-05T08:21:30Z</time>
      </trkpt>
      <trkpt lat="42.81882" lon="-0.09844">
        <ele>1627.65</ele>
        <time>2016-06-05T08:21:31Z</time>
      </trkpt>
      <trkpt lat="42.81883" lon="-0.09845">
        <ele>1608.42</ele>
        <time>2016-06-05T08:21:32Z</time>
      </trkpt>
      <trkpt lat="42.81882" lon="-0.09845">
        <ele>1607.46</ele>
        <time>2016-06-05T08:21:34Z</time>
      </trkpt>
      <trkpt lat="42.81881" lon="-0.09845">
        <ele>1606.98</ele>
        <time>2016-06-05T08:21:58Z</time>
      </trkpt>
      <trkpt lat="42.8188" lon="-0.09849">
        <ele>1606.98</ele>
        <time>2016-06-05T08:22:25Z</time>
      </trkpt>
      <trkpt lat="42.81883" lon="-0.0985">
        <ele>1607.46</ele>
        <time>2016-06-05T08:22:40Z</time>
      </trkpt>
      <trkpt lat="42.81882" lon="-0.09853">
        <ele>1607.46</ele>
        <time>2016-06-05T08:23:09Z</time>
      </trkpt>
      <trkpt lat="42.81881" lon="-0.09849">
        <ele>1608.9</ele>
        <time>2016-06-05T08:23:22Z</time>
      </trkpt>
      <trkpt lat="42.81876" lon="-0.09847">
        <ele>1608.9</ele>
        <time>2016-06-05T08:23:35Z</time>
      </trkpt>
      <trkpt lat="42.81875" lon="-0.09848">
        <ele>1608.9</ele>
        <time>2016-06-05T08:23:51Z</time>
      </trkpt>
      <trkpt lat="42.81872" lon="-0.09851">
        <ele>1608.9</ele>
        <time>2016-06-05T08:24:12Z</time>
      </trkpt>
      <trkpt lat="42.81878" lon="-0.09852">
        <ele>1609.86</ele>
        <time>2016-06-05T08:24:33Z</time>
      </trkpt>
      <trkpt lat="42.81879" lon="-0.09856">
        <ele>1610.83</ele>
        <time>2016-06-05T08:24:45Z</time>
      </trkpt>
      <trkpt lat="42.8188" lon="-0.09868">
        <ele>1612.75</ele>
        <time>2016-06-05T08:25:01Z</time>
      </trkpt>
      <trkpt lat="42.8188" lon="-0.09879">
        <ele>1614.67</ele>
        <time>2016-06-05T08:25:13Z</time>
      </trkpt>
      <trkpt lat="42.81878" lon="-0.09881">
        <ele>1614.67</ele>
        <time>2016-06-05T08:25:28Z</time>
      </trkpt>
      <trkpt lat="42.8188" lon="-0.09891">
        <ele>1617.07</ele>
        <time>2016-06-05T08:25:42Z</time>
      </trkpt>
      <trkpt lat="42.81882" lon="-0.09901">
        <ele>1618.52</ele>
        <time>2016-06-05T08:25:54Z</time>
      </trkpt>
      <trkpt lat="42.81881" lon="-0.09911">
        <ele>1620.44</ele>
        <time>2016-06-05T08:26:07Z</time>
      </trkpt>
      <trkpt lat="42.81878" lon="-0.09919">
        <ele>1622.36</ele>
        <time>2016-06-05T08:26:19Z</time>
      </trkpt>
      <trkpt lat="42.81875" lon="-0.09923">
        <ele>1623.8</ele>
        <time>2016-06-05T08:26:37Z</time>
      </trkpt>
      <trkpt lat="42.81874" lon="-0.09935">
        <ele>1625.25</ele>
        <time>2016-06-05T08:26:55Z</time>
      </trkpt>
      <trkpt lat="42.81871" lon="-0.09946">
        <ele>1627.65</ele>
        <time>2016-06-05T08:27:10Z</time>
      </trkpt>
      <trkpt lat="42.81876" lon="-0.09953">
        <ele>1629.09</ele>
        <time>2016-06-05T08:27:21Z</time>
      </trkpt>
      <trkpt lat="42.81877" lon="-0.0996">
        <ele>1631.01</ele>
        <time>2016-06-05T08:27:32Z</time>
      </trkpt>
      <trkpt lat="42.81875" lon="-0.09965">
        <ele>1632.46</ele>
        <time>2016-06-05T08:27:44Z</time>
      </trkpt>
      <trkpt lat="42.81872" lon="-0.09972">
        <ele>1633.42</ele>
        <time>2016-06-05T08:28:05Z</time>
      </trkpt>
      <trkpt lat="42.81866" lon="-0.09978">
        <ele>1633.9</ele>
        <time>2016-06-05T08:28:16Z</time>
      </trkpt>
      <trkpt lat="42.81864" lon="-0.09987">
        <ele>1635.34</ele>
        <time>2016-06-05T08:28:27Z</time>
      </trkpt>
      <trkpt lat="42.81862" lon="-0.09996">
        <ele>1637.26</ele>
        <time>2016-06-05T08:28:39Z</time>
      </trkpt>
      <trkpt lat="42.81863" lon="-0.10006">
        <ele>1639.19</ele>
        <time>2016-06-05T08:28:52Z</time>
      </trkpt>
      <trkpt lat="42.81865" lon="-0.10014">
        <ele>1641.11</ele>
        <time>2016-06-05T08:29:06Z</time>
      </trkpt>
      <trkpt lat="42.81863" lon="-0.10025">
        <ele>1642.55</ele>
        <time>2016-06-05T08:29:20Z</time>
      </trkpt>
      <trkpt lat="42.81862" lon="-0.1003">
        <ele>1643.51</ele>
        <time>2016-06-05T08:29:31Z</time>
      </trkpt>
      <trkpt lat="42.81857" lon="-0.10037">
        <ele>1644.47</ele>
        <time>2016-06-05T08:29:44Z</time>
      </trkpt>
      <trkpt lat="42.81852" lon="-0.10041">
        <ele>1646.88</ele>
        <time>2016-06-05T08:29:57Z</time>
      </trkpt>
      <trkpt lat="42.81847" lon="-0.10041">
        <ele>1647.84</ele>
        <time>2016-06-05T08:30:09Z</time>
      </trkpt>
      <trkpt lat="42.81844" lon="-0.10041">
        <ele>1648.32</ele>
        <time>2016-06-05T08:30:25Z</time>
      </trkpt>
      <trkpt lat="42.81839" lon="-0.10044">
        <ele>1650.24</ele>
        <time>2016-06-05T08:30:38Z</time>
      </trkpt>
      <trkpt lat="42.81836" lon="-0.10046">
        <ele>1651.68</ele>
        <time>2016-06-05T08:30:52Z</time>
      </trkpt>
      <trkpt lat="42.81831" lon="-0.10049">
        <ele>1653.6</ele>
        <time>2016-06-05T08:31:06Z</time>
      </trkpt>
      <trkpt lat="42.81828" lon="-0.10051">
        <ele>1655.05</ele>
        <time>2016-06-05T08:31:19Z</time>
      </trkpt>
      <trkpt lat="42.81829" lon="-0.10057">
        <ele>1656.49</ele>
        <time>2016-06-05T08:31:33Z</time>
      </trkpt>
      <trkpt lat="42.81827" lon="-0.10062">
        <ele>1658.41</ele>
        <time>2016-06-05T08:31:46Z</time>
      </trkpt>
      <trkpt lat="42.81826" lon="-0.10067">
        <ele>1660.33</ele>
        <time>2016-06-05T08:31:59Z</time>
      </trkpt>
      <trkpt lat="42.81821" lon="-0.10067">
        <ele>1662.26</ele>
        <time>2016-06-05T08:32:12Z</time>
      </trkpt>
      <trkpt lat="42.81817" lon="-0.10071">
        <ele>1664.18</ele>
        <time>2016-06-05T08:32:26Z</time>
      </trkpt>
      <trkpt lat="42.81814" lon="-0.10075">
        <ele>1666.1</ele>
        <time>2016-06-05T08:32:42Z</time>
      </trkpt>
      <trkpt lat="42.81811" lon="-0.10076">
        <ele>1668.02</ele>
        <time>2016-06-05T08:32:55Z</time>
      </trkpt>
      <trkpt lat="42.81808" lon="-0.10075">
        <ele>1669.47</ele>
        <time>2016-06-05T08:33:06Z</time>
      </trkpt>
      <trkpt lat="42.81804" lon="-0.10074">
        <ele>1670.43</ele>
        <time>2016-06-05T08:33:17Z</time>
      </trkpt>
      <trkpt lat="42.818" lon="-0.1008">
        <ele>1673.31</ele>
        <time>2016-06-05T08:33:34Z</time>
      </trkpt>
      <trkpt lat="42.81795" lon="-0.10079">
        <ele>1674.75</ele>
        <time>2016-06-05T08:33:49Z</time>
      </trkpt>
      <trkpt lat="42.81791" lon="-0.10081">
        <ele>1676.68</ele>
        <time>2016-06-05T08:34:01Z</time>
      </trkpt>
      <trkpt lat="42.81791" lon="-0.10087">
        <ele>1678.12</ele>
        <time>2016-06-05T08:34:16Z</time>
      </trkpt>
      <trkpt lat="42.8179" lon="-0.10093">
        <ele>1679.56</ele>
        <time>2016-06-05T08:34:37Z</time>
      </trkpt>
      <trkpt lat="42.81789" lon="-0.101">
        <ele>1681.48</ele>
        <time>2016-06-05T08:34:50Z</time>
      </trkpt>
      <trkpt lat="42.81787" lon="-0.10103">
        <ele>1682.93</ele>
        <time>2016-06-05T08:35:00Z</time>
      </trkpt>
      <trkpt lat="42.81785" lon="-0.10102">
        <ele>1684.37</ele>
        <time>2016-06-05T08:35:14Z</time>
      </trkpt>
      <trkpt lat="42.81778" lon="-0.101">
        <ele>1685.33</ele>
        <time>2016-06-05T08:35:33Z</time>
      </trkpt>
      <trkpt lat="42.81776" lon="-0.10105">
        <ele>1687.73</ele>
        <time>2016-06-05T08:35:47Z</time>
      </trkpt>
      <trkpt lat="42.81769" lon="-0.10108">
        <ele>1689.65</ele>
        <time>2016-06-05T08:36:02Z</time>
      </trkpt>
      <trkpt lat="42.81767" lon="-0.10109">
        <ele>1690.62</ele>
        <time>2016-06-05T08:36:17Z</time>
      </trkpt>
      <trkpt lat="42.81766" lon="-0.10111">
        <ele>1690.62</ele>
        <time>2016-06-05T08:36:36Z</time>
      </trkpt>
      <trkpt lat="42.8176" lon="-0.10113">
        <ele>1692.06</ele>
        <time>2016-06-05T08:36:52Z</time>
      </trkpt>
      <trkpt lat="42.8176" lon="-0.10121">
        <ele>1694.46</ele>
        <time>2016-06-05T08:37:06Z</time>
      </trkpt>
      <trkpt lat="42.81756" lon="-0.10123">
        <ele>1695.9</ele>
        <time>2016-06-05T08:37:18Z</time>
      </trkpt>
      <trkpt lat="42.81753" lon="-0.10129">
        <ele>1698.31</ele>
        <time>2016-06-05T08:37:33Z</time>
      </trkpt>
      <trkpt lat="42.81752" lon="-0.10138">
        <ele>1699.75</ele>
        <time>2016-06-05T08:37:45Z</time>
      </trkpt>
      <trkpt lat="42.81752" lon="-0.10134">
        <ele>1700.23</ele>
        <time>2016-06-05T08:38:04Z</time>
      </trkpt>
      <trkpt lat="42.8175" lon="-0.10136">
        <ele>1701.19</ele>
        <time>2016-06-05T08:38:17Z</time>
      </trkpt>
      <trkpt lat="42.81745" lon="-0.10146">
        <ele>1703.11</ele>
        <time>2016-06-05T08:38:32Z</time>
      </trkpt>
      <trkpt lat="42.81745" lon="-0.10152">
        <ele>1705.52</ele>
        <time>2016-06-05T08:38:44Z</time>
      </trkpt>
      <trkpt lat="42.81745" lon="-0.10156">
        <ele>1707.44</ele>
        <time>2016-06-05T08:38:59Z</time>
      </trkpt>
      <trkpt lat="42.81744" lon="-0.1016">
        <ele>1708.88</ele>
        <time>2016-06-05T08:39:10Z</time>
      </trkpt>
      <trkpt lat="42.81744" lon="-0.10163">
        <ele>1709.36</ele>
        <time>2016-06-05T08:39:21Z</time>
      </trkpt>
      <trkpt lat="42.81742" lon="-0.10164">
        <ele>1711.28</ele>
        <time>2016-06-05T08:39:35Z</time>
      </trkpt>
      <trkpt lat="42.81737" lon="-0.10166">
        <ele>1713.21</ele>
        <time>2016-06-05T08:39:49Z</time>
      </trkpt>
      <trkpt lat="42.81734" lon="-0.1017">
        <ele>1714.65</ele>
        <time>2016-06-05T08:40:04Z</time>
      </trkpt>
      <trkpt lat="42.81731" lon="-0.10172">
        <ele>1716.57</ele>
        <time>2016-06-05T08:40:20Z</time>
      </trkpt>
      <trkpt lat="42.81729" lon="-0.10175">
        <ele>1718.01</ele>
        <time>2016-06-05T08:40:32Z</time>
      </trkpt>
      <trkpt lat="42.81727" lon="-0.10179">
        <ele>1719.94</ele>
        <time>2016-06-05T08:40:46Z</time>
      </trkpt>
      <trkpt lat="42.81724" lon="-0.10184">
        <ele>1721.38</ele>
        <time>2016-06-05T08:41:00Z</time>
      </trkpt>
      <trkpt lat="42.81725" lon="-0.10186">
        <ele>1721.86</ele>
        <time>2016-06-05T08:41:12Z</time>
      </trkpt>
      <trkpt lat="42.81722" lon="-0.10186">
        <ele>1721.86</ele>
        <time>2016-06-05T08:41:33Z</time>
      </trkpt>
      <trkpt lat="42.81726" lon="-0.10187">
        <ele>1722.34</ele>
        <time>2016-06-05T08:41:54Z</time>
      </trkpt>
      <trkpt lat="42.81726" lon="-0.10192">
        <ele>1724.26</ele>
        <time>2016-06-05T08:42:06Z</time>
      </trkpt>
      <trkpt lat="42.81724" lon="-0.102">
        <ele>1727.15</ele>
        <time>2016-06-05T08:42:23Z</time>
      </trkpt>
      <trkpt lat="42.81719" lon="-0.10202">
        <ele>1729.07</ele>
        <time>2016-06-05T08:42:34Z</time>
      </trkpt>
      <trkpt lat="42.81718" lon="-0.102">
        <ele>1730.03</ele>
        <time>2016-06-05T08:42:51Z</time>
      </trkpt>
      <trkpt lat="42.81717" lon="-0.10205">
        <ele>1730.99</ele>
        <time>2016-06-05T08:43:08Z</time>
      </trkpt>
      <trkpt lat="42.81717" lon="-0.10209">
        <ele>1733.39</ele>
        <time>2016-06-05T08:43:23Z</time>
      </trkpt>
      <trkpt lat="42.81714" lon="-0.10214">
        <ele>1735.32</ele>
        <time>2016-06-05T08:43:35Z</time>
      </trkpt>
      <trkpt lat="42.81714" lon="-0.10214">
        <ele>1736.76</ele>
        <time>2016-06-05T08:43:49Z</time>
      </trkpt>
      <trkpt lat="42.81712" lon="-0.10215">
        <ele>1738.2</ele>
        <time>2016-06-05T08:44:07Z</time>
      </trkpt>
      <trkpt lat="42.8171" lon="-0.10218">
        <ele>1739.16</ele>
        <time>2016-06-05T08:44:20Z</time>
      </trkpt>
      <trkpt lat="42.8171" lon="-0.10221">
        <ele>1741.08</ele>
        <time>2016-06-05T08:44:34Z</time>
      </trkpt>
      <trkpt lat="42.81713" lon="-0.10225">
        <ele>1742.53</ele>
        <time>2016-06-05T08:44:49Z</time>
      </trkpt>
      <trkpt lat="42.81715" lon="-0.10224">
        <ele>1742.53</ele>
        <time>2016-06-05T08:45:07Z</time>
      </trkpt>
      <trkpt lat="42.81714" lon="-0.10222">
        <ele>1742.53</ele>
        <time>2016-06-05T08:45:28Z</time>
      </trkpt>
      <trkpt lat="42.81713" lon="-0.10227">
        <ele>1744.45</ele>
        <time>2016-06-05T08:45:39Z</time>
      </trkpt>
      <trkpt lat="42.81712" lon="-0.10229">
        <ele>1745.41</ele>
        <time>2016-06-05T08:45:54Z</time>
      </trkpt>
      <trkpt lat="42.81711" lon="-0.10233">
        <ele>1747.33</ele>
        <time>2016-06-05T08:46:09Z</time>
      </trkpt>
      <trkpt lat="42.81712" lon="-0.10236">
        <ele>1748.29</ele>
        <time>2016-06-05T08:46:27Z</time>
      </trkpt>
      <trkpt lat="42.81712" lon="-0.10237">
        <ele>1748.78</ele>
        <time>2016-06-05T08:46:49Z</time>
      </trkpt>
      <trkpt lat="42.81715" lon="-0.10243">
        <ele>1749.74</ele>
        <time>2016-06-05T08:47:06Z</time>
      </trkpt>
      <trkpt lat="42.81713" lon="-0.1024">
        <ele>1750.22</ele>
        <time>2016-06-05T08:47:27Z</time>
      </trkpt>
      <trkpt lat="42.81714" lon="-0.10242">
        <ele>1750.22</ele>
        <time>2016-06-05T08:48:00Z</time>
      </trkpt>
      <trkpt lat="42.81707" lon="-0.10244">
        <ele>1750.7</ele>
        <time>2016-06-05T08:48:22Z</time>
      </trkpt>
      <trkpt lat="42.81706" lon="-0.10248">
        <ele>1752.14</ele>
        <time>2016-06-05T08:48:34Z</time>
      </trkpt>
      <trkpt lat="42.81705" lon="-0.10252">
        <ele>1754.06</ele>
        <time>2016-06-05T08:48:45Z</time>
      </trkpt>
      <trkpt lat="42.81702" lon="-0.10258">
        <ele>1755.5</ele>
        <time>2016-06-05T08:48:59Z</time>
      </trkpt>
      <trkpt lat="42.81703" lon="-0.10263">
        <ele>1756.47</ele>
        <time>2016-06-05T08:49:12Z</time>
      </trkpt>
      <trkpt lat="42.81702" lon="-0.10265">
        <ele>1758.39</ele>
        <time>2016-06-05T08:49:24Z</time>
      </trkpt>
      <trkpt lat="42.81698" lon="-0.10266">
        <ele>1759.83</ele>
        <time>2016-06-05T08:49:40Z</time>
      </trkpt>
      <trkpt lat="42.81699" lon="-0.10272">
        <ele>1761.75</ele>
        <time>2016-06-05T08:49:55Z</time>
      </trkpt>
      <trkpt lat="42.81698" lon="-0.10275">
        <ele>1763.2</ele>
        <time>2016-06-05T08:50:08Z</time>
      </trkpt>
      <trkpt lat="42.81698" lon="-0.10278">
        <ele>1764.64</ele>
        <time>2016-06-05T08:50:20Z</time>
      </trkpt>
      <trkpt lat="42.81699" lon="-0.10283">
        <ele>1766.56</ele>
        <time>2016-06-05T08:50:35Z</time>
      </trkpt>
      <trkpt lat="42.81694" lon="-0.10284">
        <ele>1767.52</ele>
        <time>2016-06-05T08:50:49Z</time>
      </trkpt>
      <trkpt lat="42.81692" lon="-0.10285">
        <ele>1768.96</ele>
        <time>2016-06-05T08:51:01Z</time>
      </trkpt>
      <trkpt lat="42.81691" lon="-0.10288">
        <ele>1771.37</ele>
        <time>2016-06-05T08:51:17Z</time>
      </trkpt>
      <trkpt lat="42.8169" lon="-0.1029">
        <ele>1772.33</ele>
        <time>2016-06-05T08:51:31Z</time>
      </trkpt>
      <trkpt lat="42.81692" lon="-0.10294">
        <ele>1773.29</ele>
        <time>2016-06-05T08:51:46Z</time>
      </trkpt>
      <trkpt lat="42.8169" lon="-0.1029">
        <ele>1773.29</ele>
        <time>2016-06-05T08:52:07Z</time>
      </trkpt>
      <trkpt lat="42.81687" lon="-0.10289">
        <ele>1774.73</ele>
        <time>2016-06-05T08:52:17Z</time>
      </trkpt>
      <trkpt lat="42.81686" lon="-0.1029">
        <ele>1775.69</ele>
        <time>2016-06-05T08:52:30Z</time>
      </trkpt>
      <trkpt lat="42.81684" lon="-0.10293">
        <ele>1777.61</ele>
        <time>2016-06-05T08:52:42Z</time>
      </trkpt>
      <trkpt lat="42.81681" lon="-0.10292">
        <ele>1779.54</ele>
        <time>2016-06-05T08:52:57Z</time>
      </trkpt>
      <trkpt lat="42.81679" lon="-0.10295">
        <ele>1780.98</ele>
        <time>2016-06-05T08:53:10Z</time>
      </trkpt>
      <trkpt lat="42.81679" lon="-0.10297">
        <ele>1782.9</ele>
        <time>2016-06-05T08:53:23Z</time>
      </trkpt>
      <trkpt lat="42.81681" lon="-0.10305">
        <ele>1783.86</ele>
        <time>2016-06-05T08:53:37Z</time>
      </trkpt>
      <trkpt lat="42.8168" lon="-0.10309">
        <ele>1785.31</ele>
        <time>2016-06-05T08:53:49Z</time>
      </trkpt>
      <trkpt lat="42.8168" lon="-0.10314">
        <ele>1787.23</ele>
        <time>2016-06-05T08:54:03Z</time>
      </trkpt>
      <trkpt lat="42.81677" lon="-0.10313">
        <ele>1789.15</ele>
        <time>2016-06-05T08:54:18Z</time>
      </trkpt>
      <trkpt lat="42.81675" lon="-0.10317">
        <ele>1790.59</ele>
        <time>2016-06-05T08:54:33Z</time>
      </trkpt>
      <trkpt lat="42.81673" lon="-0.10318">
        <ele>1792.03</ele>
        <time>2016-06-05T08:54:46Z</time>
      </trkpt>
      <trkpt lat="42.81673" lon="-0.10321">
        <ele>1793.48</ele>
        <time>2016-06-05T08:54:59Z</time>
      </trkpt>
      <trkpt lat="42.8167" lon="-0.10321">
        <ele>1794.92</ele>
        <time>2016-06-05T08:55:15Z</time>
      </trkpt>
      <trkpt lat="42.81668" lon="-0.10322">
        <ele>1796.36</ele>
        <time>2016-06-05T08:55:27Z</time>
      </trkpt>
      <trkpt lat="42.81666" lon="-0.10324">
        <ele>1797.8</ele>
        <time>2016-06-05T08:55:39Z</time>
      </trkpt>
      <trkpt lat="42.81665" lon="-0.10329">
        <ele>1799.73</ele>
        <time>2016-06-05T08:55:55Z</time>
      </trkpt>
      <trkpt lat="42.81668" lon="-0.10336">
        <ele>1800.69</ele>
        <time>2016-06-05T08:56:10Z</time>
      </trkpt>
      <trkpt lat="42.81664" lon="-0.10335">
        <ele>1802.61</ele>
        <time>2016-06-05T08:56:24Z</time>
      </trkpt>
      <trkpt lat="42.81664" lon="-0.10335">
        <ele>1802.61</ele>
        <time>2016-06-05T08:56:46Z</time>
      </trkpt>
      <trkpt lat="42.81667" lon="-0.10335">
        <ele>1803.09</ele>
        <time>2016-06-05T08:57:15Z</time>
      </trkpt>
      <trkpt lat="42.81664" lon="-0.10337">
        <ele>1804.05</ele>
        <time>2016-06-05T08:57:45Z</time>
      </trkpt>
      <trkpt lat="42.81662" lon="-0.10343">
        <ele>1805.97</ele>
        <time>2016-06-05T08:58:00Z</time>
      </trkpt>
      <trkpt lat="42.8166" lon="-0.10351">
        <ele>1808.38</ele>
        <time>2016-06-05T08:58:16Z</time>
      </trkpt>
      <trkpt lat="42.81658" lon="-0.10355">
        <ele>1810.78</ele>
        <time>2016-06-05T08:58:31Z</time>
      </trkpt>
      <trkpt lat="42.81657" lon="-0.10358">
        <ele>1812.22</ele>
        <time>2016-06-05T08:58:46Z</time>
      </trkpt>
      <trkpt lat="42.81657" lon="-0.10359">
        <ele>1812.7</ele>
        <time>2016-06-05T08:59:07Z</time>
      </trkpt>
      <trkpt lat="42.81658" lon="-0.10366">
        <ele>1814.15</ele>
        <time>2016-06-05T08:59:20Z</time>
      </trkpt>
      <trkpt lat="42.81656" lon="-0.10369">
        <ele>1815.59</ele>
        <time>2016-06-05T08:59:34Z</time>
      </trkpt>
      <trkpt lat="42.81653" lon="-0.10369">
        <ele>1817.51</ele>
        <time>2016-06-05T08:59:48Z</time>
      </trkpt>
      <trkpt lat="42.81651" lon="-0.10374">
        <ele>1819.43</ele>
        <time>2016-06-05T09:00:03Z</time>
      </trkpt>
      <trkpt lat="42.81648" lon="-0.10373">
        <ele>1820.87</ele>
        <time>2016-06-05T09:00:14Z</time>
      </trkpt>
      <trkpt lat="42.8165" lon="-0.10381">
        <ele>1823.28</ele>
        <time>2016-06-05T09:00:30Z</time>
      </trkpt>
      <trkpt lat="42.81647" lon="-0.10383">
        <ele>1824.72</ele>
        <time>2016-06-05T09:00:42Z</time>
      </trkpt>
      <trkpt lat="42.81643" lon="-0.10386">
        <ele>1826.16</ele>
        <time>2016-06-05T09:00:57Z</time>
      </trkpt>
      <trkpt lat="42.81644" lon="-0.10394">
        <ele>1828.56</ele>
        <time>2016-06-05T09:01:12Z</time>
      </trkpt>
      <trkpt lat="42.81642" lon="-0.10395">
        <ele>1829.53</ele>
        <time>2016-06-05T09:01:23Z</time>
      </trkpt>
      <trkpt lat="42.8164" lon="-0.10399">
        <ele>1831.45</ele>
        <time>2016-06-05T09:01:37Z</time>
      </trkpt>
      <trkpt lat="42.81637" lon="-0.10401">
        <ele>1832.89</ele>
        <time>2016-06-05T09:01:53Z</time>
      </trkpt>
      <trkpt lat="42.81638" lon="-0.10405">
        <ele>1834.33</ele>
        <time>2016-06-05T09:02:06Z</time>
      </trkpt>
      <trkpt lat="42.81638" lon="-0.10408">
        <ele>1835.29</ele>
        <time>2016-06-05T09:02:19Z</time>
      </trkpt>
      <trkpt lat="42.81634" lon="-0.10409">
        <ele>1837.7</ele>
        <time>2016-06-05T09:02:32Z</time>
      </trkpt>
      <trkpt lat="42.81635" lon="-0.10409">
        <ele>1837.7</ele>
        <time>2016-06-05T09:02:55Z</time>
      </trkpt>
      <trkpt lat="42.81631" lon="-0.1041">
        <ele>1838.18</ele>
        <time>2016-06-05T09:03:23Z</time>
      </trkpt>
      <trkpt lat="42.8163" lon="-0.10417">
        <ele>1841.06</ele>
        <time>2016-06-05T09:03:36Z</time>
      </trkpt>
      <trkpt lat="42.81626" lon="-0.1042">
        <ele>1842.5</ele>
        <time>2016-06-05T09:03:48Z</time>
      </trkpt>
      <trkpt lat="42.81629" lon="-0.10425">
        <ele>1843.95</ele>
        <time>2016-06-05T09:04:02Z</time>
      </trkpt>
      <trkpt lat="42.81625" lon="-0.10426">
        <ele>1845.87</ele>
        <time>2016-06-05T09:04:16Z</time>
      </trkpt>
      <trkpt lat="42.8162" lon="-0.10426">
        <ele>1847.79</ele>
        <time>2016-06-05T09:04:29Z</time>
      </trkpt>
      <trkpt lat="42.81619" lon="-0.10432">
        <ele>1849.23</ele>
        <time>2016-06-05T09:04:42Z</time>
      </trkpt>
      <trkpt lat="42.81617" lon="-0.10433">
        <ele>1850.19</ele>
        <time>2016-06-05T09:04:57Z</time>
      </trkpt>
      <trkpt lat="42.81615" lon="-0.10433">
        <ele>1851.64</ele>
        <time>2016-06-05T09:05:15Z</time>
      </trkpt>
      <trkpt lat="42.81613" lon="-0.10439">
        <ele>1853.56</ele>
        <time>2016-06-05T09:05:27Z</time>
      </trkpt>
      <trkpt lat="42.81611" lon="-0.10442">
        <ele>1855</ele>
        <time>2016-06-05T09:05:41Z</time>
      </trkpt>
      <trkpt lat="42.81609" lon="-0.10445">
        <ele>1856.92</ele>
        <time>2016-06-05T09:05:54Z</time>
      </trkpt>
      <trkpt lat="42.81612" lon="-0.10452">
        <ele>1858.85</ele>
        <time>2016-06-05T09:06:07Z</time>
      </trkpt>
      <trkpt lat="42.81608" lon="-0.10456">
        <ele>1860.29</ele>
        <time>2016-06-05T09:06:21Z</time>
      </trkpt>
      <trkpt lat="42.81604" lon="-0.10459">
        <ele>1861.73</ele>
        <time>2016-06-05T09:06:34Z</time>
      </trkpt>
      <trkpt lat="42.816" lon="-0.10456">
        <ele>1862.69</ele>
        <time>2016-06-05T09:06:47Z</time>
      </trkpt>
      <trkpt lat="42.81598" lon="-0.10461">
        <ele>1865.09</ele>
        <time>2016-06-05T09:07:00Z</time>
      </trkpt>
      <trkpt lat="42.81597" lon="-0.10466">
        <ele>1867.02</ele>
        <time>2016-06-05T09:07:11Z</time>
      </trkpt>
      <trkpt lat="42.81598" lon="-0.10469">
        <ele>1867.98</ele>
        <time>2016-06-05T09:07:23Z</time>
      </trkpt>
      <trkpt lat="42.81597" lon="-0.1047">
        <ele>1867.98</ele>
        <time>2016-06-05T09:07:42Z</time>
      </trkpt>
      <trkpt lat="42.81592" lon="-0.10468">
        <ele>1870.38</ele>
        <time>2016-06-05T09:07:54Z</time>
      </trkpt>
      <trkpt lat="42.81588" lon="-0.10469">
        <ele>1871.82</ele>
        <time>2016-06-05T09:08:08Z</time>
      </trkpt>
      <trkpt lat="42.81588" lon="-0.10477">
        <ele>1873.27</ele>
        <time>2016-06-05T09:08:20Z</time>
      </trkpt>
      <trkpt lat="42.81586" lon="-0.10477">
        <ele>1874.71</ele>
        <time>2016-06-05T09:08:32Z</time>
      </trkpt>
      <trkpt lat="42.81584" lon="-0.10481">
        <ele>1876.15</ele>
        <time>2016-06-05T09:08:48Z</time>
      </trkpt>
      <trkpt lat="42.81581" lon="-0.10481">
        <ele>1877.59</ele>
        <time>2016-06-05T09:09:00Z</time>
      </trkpt>
      <trkpt lat="42.81578" lon="-0.10481">
        <ele>1879.03</ele>
        <time>2016-06-05T09:09:12Z</time>
      </trkpt>
      <trkpt lat="42.81575" lon="-0.10482">
        <ele>1880.96</ele>
        <time>2016-06-05T09:09:25Z</time>
      </trkpt>
      <trkpt lat="42.81573" lon="-0.10485">
        <ele>1882.88</ele>
        <time>2016-06-05T09:09:40Z</time>
      </trkpt>
      <trkpt lat="42.81573" lon="-0.10485">
        <ele>1882.88</ele>
        <time>2016-06-05T09:09:58Z</time>
      </trkpt>
      <trkpt lat="42.81574" lon="-0.10484">
        <ele>1882.88</ele>
        <time>2016-06-05T09:10:19Z</time>
      </trkpt>
      <trkpt lat="42.8157" lon="-0.10488">
        <ele>1884.32</ele>
        <time>2016-06-05T09:10:31Z</time>
      </trkpt>
      <trkpt lat="42.81569" lon="-0.10491">
        <ele>1885.28</ele>
        <time>2016-06-05T09:10:42Z</time>
      </trkpt>
      <trkpt lat="42.81565" lon="-0.10487">
        <ele>1887.69</ele>
        <time>2016-06-05T09:10:54Z</time>
      </trkpt>
      <trkpt lat="42.8156" lon="-0.10486">
        <ele>1889.13</ele>
        <time>2016-06-05T09:11:08Z</time>
      </trkpt>
      <trkpt lat="42.81557" lon="-0.10484">
        <ele>1890.57</ele>
        <time>2016-06-05T09:11:20Z</time>
      </trkpt>
      <trkpt lat="42.81556" lon="-0.10488">
        <ele>1892.01</ele>
        <time>2016-06-05T09:11:30Z</time>
      </trkpt>
      <trkpt lat="42.81556" lon="-0.10495">
        <ele>1893.45</ele>
        <time>2016-06-05T09:11:43Z</time>
      </trkpt>
      <trkpt lat="42.81552" lon="-0.10493">
        <ele>1895.86</ele>
        <time>2016-06-05T09:11:57Z</time>
      </trkpt>
      <trkpt lat="42.81549" lon="-0.10499">
        <ele>1897.3</ele>
        <time>2016-06-05T09:12:09Z</time>
      </trkpt>
      <trkpt lat="42.81547" lon="-0.10498">
        <ele>1898.74</ele>
        <time>2016-06-05T09:12:22Z</time>
      </trkpt>
      <trkpt lat="42.81544" lon="-0.10497">
        <ele>1900.18</ele>
        <time>2016-06-05T09:12:35Z</time>
      </trkpt>
      <trkpt lat="42.81542" lon="-0.10498">
        <ele>1901.63</ele>
        <time>2016-06-05T09:12:50Z</time>
      </trkpt>
      <trkpt lat="42.81541" lon="-0.10496">
        <ele>1903.07</ele>
        <time>2016-06-05T09:13:03Z</time>
      </trkpt>
      <trkpt lat="42.81536" lon="-0.10497">
        <ele>1904.99</ele>
        <time>2016-06-05T09:13:18Z</time>
      </trkpt>
      <trkpt lat="42.81534" lon="-0.10494">
        <ele>1905.95</ele>
        <time>2016-06-05T09:13:30Z</time>
      </trkpt>
      <trkpt lat="42.81533" lon="-0.10493">
        <ele>1907.87</ele>
        <time>2016-06-05T09:13:45Z</time>
      </trkpt>
      <trkpt lat="42.81529" lon="-0.10489">
        <ele>1908.83</ele>
        <time>2016-06-05T09:13:59Z</time>
      </trkpt>
      <trkpt lat="42.81527" lon="-0.10494">
        <ele>1911.72</ele>
        <time>2016-06-05T09:14:15Z</time>
      </trkpt>
      <trkpt lat="42.81523" lon="-0.10494">
        <ele>1912.68</ele>
        <time>2016-06-05T09:14:29Z</time>
      </trkpt>
      <trkpt lat="42.81522" lon="-0.10497">
        <ele>1914.6</ele>
        <time>2016-06-05T09:14:41Z</time>
      </trkpt>
      <trkpt lat="42.81519" lon="-0.10494">
        <ele>1916.53</ele>
        <time>2016-06-05T09:14:55Z</time>
      </trkpt>
      <trkpt lat="42.81518" lon="-0.10497">
        <ele>1917.01</ele>
        <time>2016-06-05T09:15:11Z</time>
      </trkpt>
      <trkpt lat="42.81519" lon="-0.10496">
        <ele>1917.49</ele>
        <time>2016-06-05T09:15:31Z</time>
      </trkpt>
      <trkpt lat="42.81517" lon="-0.10505">
        <ele>1918.93</ele>
        <time>2016-06-05T09:15:51Z</time>
      </trkpt>
      <trkpt lat="42.81513" lon="-0.10503">
        <ele>1920.85</ele>
        <time>2016-06-05T09:16:04Z</time>
      </trkpt>
      <trkpt lat="42.8151" lon="-0.10501">
        <ele>1922.77</ele>
        <time>2016-06-05T09:16:15Z</time>
      </trkpt>
      <trkpt lat="42.81506" lon="-0.10502">
        <ele>1924.7</ele>
        <time>2016-06-05T09:16:27Z</time>
      </trkpt>
      <trkpt lat="42.81502" lon="-0.10496">
        <ele>1926.14</ele>
        <time>2016-06-05T09:16:40Z</time>
      </trkpt>
      <trkpt lat="42.81502" lon="-0.10495">
        <ele>1926.14</ele>
        <time>2016-06-05T09:17:04Z</time>
      </trkpt>
      <trkpt lat="42.81501" lon="-0.10495">
        <ele>1926.14</ele>
        <time>2016-06-05T09:17:05Z</time>
      </trkpt>
      <trkpt lat="42.81497" lon="-0.10495">
        <ele>1928.06</ele>
        <time>2016-06-05T09:17:17Z</time>
      </trkpt>
      <trkpt lat="42.81495" lon="-0.10502">
        <ele>1930.95</ele>
        <time>2016-06-05T09:17:31Z</time>
      </trkpt>
      <trkpt lat="42.81495" lon="-0.10505">
        <ele>1932.87</ele>
        <time>2016-06-05T09:17:43Z</time>
      </trkpt>
      <trkpt lat="42.81493" lon="-0.10506">
        <ele>1932.87</ele>
        <time>2016-06-05T09:18:01Z</time>
      </trkpt>
      <trkpt lat="42.8149" lon="-0.10505">
        <ele>1934.79</ele>
        <time>2016-06-05T09:18:14Z</time>
      </trkpt>
      <trkpt lat="42.81488" lon="-0.10503">
        <ele>1936.23</ele>
        <time>2016-06-05T09:18:28Z</time>
      </trkpt>
      <trkpt lat="42.81487" lon="-0.10507">
        <ele>1937.19</ele>
        <time>2016-06-05T09:18:44Z</time>
      </trkpt>
      <trkpt lat="42.81485" lon="-0.10507">
        <ele>1938.16</ele>
        <time>2016-06-05T09:18:57Z</time>
      </trkpt>
      <trkpt lat="42.81485" lon="-0.10507">
        <ele>1939.12</ele>
        <time>2016-06-05T09:19:13Z</time>
      </trkpt>
      <trkpt lat="42.81485" lon="-0.10509">
        <ele>1939.12</ele>
        <time>2016-06-05T09:19:33Z</time>
      </trkpt>
      <trkpt lat="42.81485" lon="-0.10508">
        <ele>1939.12</ele>
        <time>2016-06-05T09:20:01Z</time>
      </trkpt>
      <trkpt lat="42.81484" lon="-0.10508">
        <ele>1940.56</ele>
        <time>2016-06-05T09:20:20Z</time>
      </trkpt>
      <trkpt lat="42.81481" lon="-0.1051">
        <ele>1940.56</ele>
        <time>2016-06-05T09:20:41Z</time>
      </trkpt>
      <trkpt lat="42.81482" lon="-0.10511">
        <ele>1940.56</ele>
        <time>2016-06-05T09:21:05Z</time>
      </trkpt>
      <trkpt lat="42.81482" lon="-0.10507">
        <ele>1941.04</ele>
        <time>2016-06-05T09:21:28Z</time>
      </trkpt>
      <trkpt lat="42.81483" lon="-0.10508">
        <ele>1941.04</ele>
        <time>2016-06-05T09:21:45Z</time>
      </trkpt>
      <trkpt lat="42.81484" lon="-0.10514">
        <ele>1941.52</ele>
        <time>2016-06-05T09:22:15Z</time>
      </trkpt>
      <trkpt lat="42.81484" lon="-0.10521">
        <ele>1941.52</ele>
        <time>2016-06-05T09:22:53Z</time>
      </trkpt>
      <trkpt lat="42.81483" lon="-0.10519">
        <ele>1942</ele>
        <time>2016-06-05T09:23:29Z</time>
      </trkpt>
      <trkpt lat="42.81483" lon="-0.1051">
        <ele>1942.48</ele>
        <time>2016-06-05T09:24:00Z</time>
      </trkpt>
      <trkpt lat="42.81482" lon="-0.10506">
        <ele>1942.48</ele>
        <time>2016-06-05T09:24:39Z</time>
      </trkpt>
      <trkpt lat="42.81483" lon="-0.10505">
        <ele>1942.96</ele>
        <time>2016-06-05T09:25:24Z</time>
      </trkpt>
      <trkpt lat="42.81483" lon="-0.10509">
        <ele>1942.96</ele>
        <time>2016-06-05T09:26:06Z</time>
      </trkpt>
      <trkpt lat="42.81486" lon="-0.10509">
        <ele>1942.96</ele>
        <time>2016-06-05T09:26:40Z</time>
      </trkpt>
      <trkpt lat="42.81484" lon="-0.10505">
        <ele>1941.52</ele>
        <time>2016-06-05T09:27:24Z</time>
      </trkpt>
      <trkpt lat="42.81487" lon="-0.10509">
        <ele>1941.52</ele>
        <time>2016-06-05T09:27:57Z</time>
      </trkpt>
      <trkpt lat="42.81485" lon="-0.10508">
        <ele>1941.52</ele>
        <time>2016-06-05T09:28:28Z</time>
      </trkpt>
      <trkpt lat="42.81486" lon="-0.1051">
        <ele>1942</ele>
        <time>2016-06-05T09:28:56Z</time>
      </trkpt>
      <trkpt lat="42.81486" lon="-0.1051">
        <ele>1942</ele>
        <time>2016-06-05T09:29:35Z</time>
      </trkpt>
      <trkpt lat="42.81486" lon="-0.10509">
        <ele>1942</ele>
        <time>2016-06-05T09:30:10Z</time>
      </trkpt>
      <trkpt lat="42.81486" lon="-0.10508">
        <ele>1942</ele>
        <time>2016-06-05T09:30:38Z</time>
      </trkpt>
      <trkpt lat="42.81485" lon="-0.10505">
        <ele>1942</ele>
        <time>2016-06-05T09:31:03Z</time>
      </trkpt>
      <trkpt lat="42.81484" lon="-0.10508">
        <ele>1942</ele>
        <time>2016-06-05T09:31:30Z</time>
      </trkpt>
      <trkpt lat="42.81484" lon="-0.10507">
        <ele>1942.48</ele>
        <time>2016-06-05T09:32:10Z</time>
      </trkpt>
      <trkpt lat="42.81485" lon="-0.10508">
        <ele>1942.48</ele>
        <time>2016-06-05T09:32:38Z</time>
      </trkpt>
      <trkpt lat="42.81487" lon="-0.10509">
        <ele>1942.48</ele>
        <time>2016-06-05T09:33:14Z</time>
      </trkpt>
      <trkpt lat="42.81486" lon="-0.10508">
        <ele>1942.48</ele>
        <time>2016-06-05T09:33:44Z</time>
      </trkpt>
      <trkpt lat="42.81485" lon="-0.1051">
        <ele>1942.48</ele>
        <time>2016-06-05T09:34:10Z</time>
      </trkpt>
      <trkpt lat="42.81486" lon="-0.1051">
        <ele>1943.92</ele>
        <time>2016-06-05T09:34:21Z</time>
      </trkpt>
      <trkpt lat="42.81484" lon="-0.10511">
        <ele>1943.92</ele>
        <time>2016-06-05T09:34:42Z</time>
      </trkpt>
      <trkpt lat="42.81483" lon="-0.1051">
        <ele>1944.4</ele>
        <time>2016-06-05T09:34:57Z</time>
      </trkpt>
      <trkpt lat="42.81483" lon="-0.10508">
        <ele>1945.36</ele>
        <time>2016-06-05T09:35:16Z</time>
      </trkpt>
      <trkpt lat="42.81482" lon="-0.10509">
        <ele>1945.36</ele>
        <time>2016-06-05T09:35:34Z</time>
      </trkpt>
      <trkpt lat="42.81481" lon="-0.10514">
        <ele>1946.33</ele>
        <time>2016-06-05T09:35:48Z</time>
      </trkpt>
      <trkpt lat="42.81483" lon="-0.10516">
        <ele>1946.33</ele>
        <time>2016-06-05T09:36:13Z</time>
      </trkpt>
      <trkpt lat="42.81481" lon="-0.10519">
        <ele>1946.81</ele>
        <time>2016-06-05T09:36:33Z</time>
      </trkpt>
      <trkpt lat="42.8148" lon="-0.10515">
        <ele>1948.25</ele>
        <time>2016-06-05T09:36:45Z</time>
      </trkpt>
      <trkpt lat="42.81477" lon="-0.10517">
        <ele>1950.17</ele>
        <time>2016-06-05T09:37:00Z</time>
      </trkpt>
      <trkpt lat="42.81474" lon="-0.10519">
        <ele>1951.61</ele>
        <time>2016-06-05T09:37:14Z</time>
      </trkpt>
      <trkpt lat="42.81473" lon="-0.10521">
        <ele>1953.54</ele>
        <time>2016-06-05T09:37:27Z</time>
      </trkpt>
      <trkpt lat="42.81471" lon="-0.10524">
        <ele>1954.5</ele>
        <time>2016-06-05T09:37:38Z</time>
      </trkpt>
      <trkpt lat="42.8147" lon="-0.10527">
        <ele>1955.94</ele>
        <time>2016-06-05T09:37:51Z</time>
      </trkpt>
      <trkpt lat="42.81468" lon="-0.10529">
        <ele>1957.38</ele>
        <time>2016-06-05T09:38:05Z</time>
      </trkpt>
      <trkpt lat="42.81465" lon="-0.10523">
        <ele>1958.82</ele>
        <time>2016-06-05T09:38:26Z</time>
      </trkpt>
      <trkpt lat="42.81459" lon="-0.10517">
        <ele>1960.75</ele>
        <time>2016-06-05T09:38:41Z</time>
      </trkpt>
      <trkpt lat="42.81457" lon="-0.10515">
        <ele>1962.19</ele>
        <time>2016-06-05T09:38:53Z</time>
      </trkpt>
      <trkpt lat="42.81455" lon="-0.10512">
        <ele>1962.67</ele>
        <time>2016-06-05T09:39:05Z</time>
      </trkpt>
      <trkpt lat="42.81452" lon="-0.10512">
        <ele>1964.59</ele>
        <time>2016-06-05T09:39:20Z</time>
      </trkpt>
      <trkpt lat="42.81448" lon="-0.10507">
        <ele>1966.03</ele>
        <time>2016-06-05T09:39:33Z</time>
      </trkpt>
      <trkpt lat="42.81446" lon="-0.10509">
        <ele>1966.99</ele>
        <time>2016-06-05T09:39:48Z</time>
      </trkpt>
      <trkpt lat="42.81443" lon="-0.10511">
        <ele>1968.92</ele>
        <time>2016-06-05T09:40:03Z</time>
      </trkpt>
      <trkpt lat="42.81441" lon="-0.10508">
        <ele>1970.36</ele>
        <time>2016-06-05T09:40:16Z</time>
      </trkpt>
      <trkpt lat="42.81439" lon="-0.10506">
        <ele>1970.84</ele>
        <time>2016-06-05T09:40:29Z</time>
      </trkpt>
      <trkpt lat="42.81436" lon="-0.10506">
        <ele>1971.8</ele>
        <time>2016-06-05T09:40:43Z</time>
      </trkpt>
      <trkpt lat="42.81436" lon="-0.10507">
        <ele>1972.28</ele>
        <time>2016-06-05T09:41:09Z</time>
      </trkpt>
      <trkpt lat="42.81427" lon="-0.10501">
        <ele>1975.17</ele>
        <time>2016-06-05T09:41:26Z</time>
      </trkpt>
      <trkpt lat="42.81419" lon="-0.10497">
        <ele>1977.09</ele>
        <time>2016-06-05T09:41:42Z</time>
      </trkpt>
      <trkpt lat="42.81416" lon="-0.10498">
        <ele>1978.53</ele>
        <time>2016-06-05T09:41:55Z</time>
      </trkpt>
      <trkpt lat="42.81413" lon="-0.10499">
        <ele>1980.45</ele>
        <time>2016-06-05T09:42:09Z</time>
      </trkpt>
      <trkpt lat="42.81409" lon="-0.10498">
        <ele>1980.93</ele>
        <time>2016-06-05T09:42:21Z</time>
      </trkpt>
      <trkpt lat="42.81406" lon="-0.10497">
        <ele>1981.9</ele>
        <time>2016-06-05T09:42:34Z</time>
      </trkpt>
      <trkpt lat="42.81403" lon="-0.10501">
        <ele>1984.3</ele>
        <time>2016-06-05T09:42:50Z</time>
      </trkpt>
      <trkpt lat="42.81402" lon="-0.10497">
        <ele>1985.74</ele>
        <time>2016-06-05T09:43:06Z</time>
      </trkpt>
      <trkpt lat="42.81401" lon="-0.10502">
        <ele>1987.18</ele>
        <time>2016-06-05T09:43:22Z</time>
      </trkpt>
      <trkpt lat="42.814" lon="-0.10499">
        <ele>1987.18</ele>
        <time>2016-06-05T09:43:42Z</time>
      </trkpt>
      <trkpt lat="42.81397" lon="-0.10497">
        <ele>1989.1</ele>
        <time>2016-06-05T09:44:00Z</time>
      </trkpt>
      <trkpt lat="42.81393" lon="-0.10493">
        <ele>1990.55</ele>
        <time>2016-06-05T09:44:13Z</time>
      </trkpt>
      <trkpt lat="42.81391" lon="-0.1049">
        <ele>1990.55</ele>
        <time>2016-06-05T09:44:24Z</time>
      </trkpt>
      <trkpt lat="42.81387" lon="-0.10493">
        <ele>1992.95</ele>
        <time>2016-06-05T09:44:38Z</time>
      </trkpt>
      <trkpt lat="42.81384" lon="-0.10495">
        <ele>1994.39</ele>
        <time>2016-06-05T09:44:50Z</time>
      </trkpt>
      <trkpt lat="42.81383" lon="-0.10494">
        <ele>1996.32</ele>
        <time>2016-06-05T09:45:04Z</time>
      </trkpt>
      <trkpt lat="42.81381" lon="-0.10494">
        <ele>1996.8</ele>
        <time>2016-06-05T09:45:20Z</time>
      </trkpt>
      <trkpt lat="42.81381" lon="-0.10492">
        <ele>1997.76</ele>
        <time>2016-06-05T09:45:36Z</time>
      </trkpt>
      <trkpt lat="42.81377" lon="-0.10491">
        <ele>1999.68</ele>
        <time>2016-06-05T09:45:52Z</time>
      </trkpt>
      <trkpt lat="42.81375" lon="-0.10497">
        <ele>2001.12</ele>
        <time>2016-06-05T09:46:03Z</time>
      </trkpt>
      <trkpt lat="42.81372" lon="-0.10498">
        <ele>2003.04</ele>
        <time>2016-06-05T09:46:17Z</time>
      </trkpt>
      <trkpt lat="42.81369" lon="-0.10497">
        <ele>2004.49</ele>
        <time>2016-06-05T09:46:28Z</time>
      </trkpt>
      <trkpt lat="42.81369" lon="-0.10497">
        <ele>2004.49</ele>
        <time>2016-06-05T09:46:41Z</time>
      </trkpt>
      <trkpt lat="42.8137" lon="-0.10495">
        <ele>2003.52</ele>
        <time>2016-06-05T09:46:58Z</time>
      </trkpt>
      <trkpt lat="42.81372" lon="-0.10494">
        <ele>2003.52</ele>
        <time>2016-06-05T09:47:17Z</time>
      </trkpt>
      <trkpt lat="42.81372" lon="-0.10492">
        <ele>2004.97</ele>
        <time>2016-06-05T09:47:38Z</time>
      </trkpt>
      <trkpt lat="42.81369" lon="-0.10497">
        <ele>2005.45</ele>
        <time>2016-06-05T09:47:57Z</time>
      </trkpt>
      <trkpt lat="42.81368" lon="-0.10505">
        <ele>2007.37</ele>
        <time>2016-06-05T09:48:08Z</time>
      </trkpt>
      <trkpt lat="42.81363" lon="-0.10501">
        <ele>2009.77</ele>
        <time>2016-06-05T09:48:23Z</time>
      </trkpt>
      <trkpt lat="42.8136" lon="-0.10499">
        <ele>2011.22</ele>
        <time>2016-06-05T09:48:38Z</time>
      </trkpt>
      <trkpt lat="42.81356" lon="-0.10497">
        <ele>2012.66</ele>
        <time>2016-06-05T09:48:51Z</time>
      </trkpt>
      <trkpt lat="42.81355" lon="-0.10503">
        <ele>2014.58</ele>
        <time>2016-06-05T09:49:06Z</time>
      </trkpt>
      <trkpt lat="42.81352" lon="-0.10504">
        <ele>2016.02</ele>
        <time>2016-06-05T09:49:21Z</time>
      </trkpt>
      <trkpt lat="42.81351" lon="-0.10509">
        <ele>2017.94</ele>
        <time>2016-06-05T09:49:34Z</time>
      </trkpt>
      <trkpt lat="42.8135" lon="-0.10515">
        <ele>2019.39</ele>
        <time>2016-06-05T09:49:47Z</time>
      </trkpt>
      <trkpt lat="42.81349" lon="-0.10514">
        <ele>2021.31</ele>
        <time>2016-06-05T09:50:01Z</time>
      </trkpt>
      <trkpt lat="42.81348" lon="-0.10516">
        <ele>2022.27</ele>
        <time>2016-06-05T09:50:12Z</time>
      </trkpt>
      <trkpt lat="42.81345" lon="-0.10514">
        <ele>2024.19</ele>
        <time>2016-06-05T09:50:24Z</time>
      </trkpt>
      <trkpt lat="42.81342" lon="-0.10518">
        <ele>2025.64</ele>
        <time>2016-06-05T09:50:39Z</time>
      </trkpt>
      <trkpt lat="42.8134" lon="-0.10518">
        <ele>2026.6</ele>
        <time>2016-06-05T09:50:51Z</time>
      </trkpt>
      <trkpt lat="42.81341" lon="-0.10517">
        <ele>2027.08</ele>
        <time>2016-06-05T09:51:12Z</time>
      </trkpt>
      <trkpt lat="42.8134" lon="-0.10519">
        <ele>2027.56</ele>
        <time>2016-06-05T09:51:41Z</time>
      </trkpt>
      <trkpt lat="42.81338" lon="-0.10523">
        <ele>2029.96</ele>
        <time>2016-06-05T09:52:00Z</time>
      </trkpt>
      <trkpt lat="42.81338" lon="-0.10529">
        <ele>2030.92</ele>
        <time>2016-06-05T09:52:12Z</time>
      </trkpt>
      <trkpt lat="42.81336" lon="-0.10533">
        <ele>2032.84</ele>
        <time>2016-06-05T09:52:36Z</time>
      </trkpt>
      <trkpt lat="42.81337" lon="-0.10536">
        <ele>2032.84</ele>
        <time>2016-06-05T09:52:38Z</time>
      </trkpt>
      <trkpt lat="42.81339" lon="-0.10543">
        <ele>2034.77</ele>
        <time>2016-06-05T09:52:50Z</time>
      </trkpt>
      <trkpt lat="42.8134" lon="-0.10548">
        <ele>2036.21</ele>
        <time>2016-06-05T09:53:02Z</time>
      </trkpt>
      <trkpt lat="42.8134" lon="-0.10553">
        <ele>2038.13</ele>
        <time>2016-06-05T09:53:17Z</time>
      </trkpt>
      <trkpt lat="42.81338" lon="-0.10553">
        <ele>2039.57</ele>
        <time>2016-06-05T09:53:34Z</time>
      </trkpt>
      <trkpt lat="42.81336" lon="-0.10559">
        <ele>2041.98</ele>
        <time>2016-06-05T09:53:48Z</time>
      </trkpt>
      <trkpt lat="42.81334" lon="-0.10564">
        <ele>2043.9</ele>
        <time>2016-06-05T09:54:04Z</time>
      </trkpt>
      <trkpt lat="42.81336" lon="-0.10569">
        <ele>2045.82</ele>
        <time>2016-06-05T09:54:16Z</time>
      </trkpt>
      <trkpt lat="42.81337" lon="-0.10572">
        <ele>2046.78</ele>
        <time>2016-06-05T09:54:28Z</time>
      </trkpt>
      <trkpt lat="42.81339" lon="-0.10574">
        <ele>2047.75</ele>
        <time>2016-06-05T09:54:41Z</time>
      </trkpt>
      <trkpt lat="42.81337" lon="-0.10575">
        <ele>2048.71</ele>
        <time>2016-06-05T09:54:53Z</time>
      </trkpt>
      <trkpt lat="42.81333" lon="-0.10575">
        <ele>2050.63</ele>
        <time>2016-06-05T09:55:05Z</time>
      </trkpt>
      <trkpt lat="42.81328" lon="-0.10573">
        <ele>2052.07</ele>
        <time>2016-06-05T09:55:21Z</time>
      </trkpt>
      <trkpt lat="42.81326" lon="-0.10574">
        <ele>2053.51</ele>
        <time>2016-06-05T09:55:32Z</time>
      </trkpt>
      <trkpt lat="42.81328" lon="-0.10578">
        <ele>2054.96</ele>
        <time>2016-06-05T09:55:48Z</time>
      </trkpt>
      <trkpt lat="42.8133" lon="-0.10584">
        <ele>2055.92</ele>
        <time>2016-06-05T09:56:01Z</time>
      </trkpt>
      <trkpt lat="42.81334" lon="-0.10589">
        <ele>2056.88</ele>
        <time>2016-06-05T09:56:13Z</time>
      </trkpt>
      <trkpt lat="42.81337" lon="-0.10593">
        <ele>2058.8</ele>
        <time>2016-06-05T09:56:27Z</time>
      </trkpt>
      <trkpt lat="42.81341" lon="-0.10596">
        <ele>2060.24</ele>
        <time>2016-06-05T09:56:41Z</time>
      </trkpt>
      <trkpt lat="42.81341" lon="-0.10595">
        <ele>2060.72</ele>
        <time>2016-06-05T09:57:00Z</time>
      </trkpt>
      <trkpt lat="42.81338" lon="-0.10603">
        <ele>2062.17</ele>
        <time>2016-06-05T09:57:20Z</time>
      </trkpt>
      <trkpt lat="42.8134" lon="-0.10605">
        <ele>2063.61</ele>
        <time>2016-06-05T09:57:36Z</time>
      </trkpt>
      <trkpt lat="42.8134" lon="-0.106">
        <ele>2063.61</ele>
        <time>2016-06-05T09:57:54Z</time>
      </trkpt>
      <trkpt lat="42.81339" lon="-0.10608">
        <ele>2065.05</ele>
        <time>2016-06-05T09:58:08Z</time>
      </trkpt>
      <trkpt lat="42.8134" lon="-0.10613">
        <ele>2066.97</ele>
        <time>2016-06-05T09:58:22Z</time>
      </trkpt>
      <trkpt lat="42.81342" lon="-0.10616">
        <ele>2067.93</ele>
        <time>2016-06-05T09:58:38Z</time>
      </trkpt>
      <trkpt lat="42.81345" lon="-0.1062">
        <ele>2068.41</ele>
        <time>2016-06-05T09:58:57Z</time>
      </trkpt>
      <trkpt lat="42.81348" lon="-0.10628">
        <ele>2069.38</ele>
        <time>2016-06-05T09:59:11Z</time>
      </trkpt>
      <trkpt lat="42.81353" lon="-0.1063">
        <ele>2070.34</ele>
        <time>2016-06-05T09:59:26Z</time>
      </trkpt>
      <trkpt lat="42.81358" lon="-0.10636">
        <ele>2070.82</ele>
        <time>2016-06-05T09:59:39Z</time>
      </trkpt>
      <trkpt lat="42.81364" lon="-0.10639">
        <ele>2070.82</ele>
        <time>2016-06-05T09:59:50Z</time>
      </trkpt>
      <trkpt lat="42.81365" lon="-0.1064">
        <ele>2069.86</ele>
        <time>2016-06-05T09:59:54Z</time>
      </trkpt>
      <trkpt lat="42.81367" lon="-0.10643">
        <ele>2069.86</ele>
        <time>2016-06-05T10:00:00Z</time>
      </trkpt>
      <trkpt lat="42.81369" lon="-0.10652">
        <ele>2070.82</ele>
        <time>2016-06-05T10:00:11Z</time>
      </trkpt>
      <trkpt lat="42.81371" lon="-0.10658">
        <ele>2071.78</ele>
        <time>2016-06-05T10:00:22Z</time>
      </trkpt>
      <trkpt lat="42.81372" lon="-0.10657">
        <ele>2071.78</ele>
        <time>2016-06-05T10:00:41Z</time>
      </trkpt>
      <trkpt lat="42.81371" lon="-0.10661">
        <ele>2073.22</ele>
        <time>2016-06-05T10:00:54Z</time>
      </trkpt>
      <trkpt lat="42.81373" lon="-0.1066">
        <ele>2073.7</ele>
        <time>2016-06-05T10:01:08Z</time>
      </trkpt>
      <trkpt lat="42.81374" lon="-0.10659">
        <ele>2073.7</ele>
        <time>2016-06-05T10:01:26Z</time>
      </trkpt>
      <trkpt lat="42.81375" lon="-0.10661">
        <ele>2072.74</ele>
        <time>2016-06-05T10:01:43Z</time>
      </trkpt>
      <trkpt lat="42.81379" lon="-0.10663">
        <ele>2072.74</ele>
        <time>2016-06-05T10:01:56Z</time>
      </trkpt>
      <trkpt lat="42.81383" lon="-0.10662">
        <ele>2072.26</ele>
        <time>2016-06-05T10:02:07Z</time>
      </trkpt>
      <trkpt lat="42.81384" lon="-0.10663">
        <ele>2073.22</ele>
        <time>2016-06-05T10:02:09Z</time>
      </trkpt>
      <trkpt lat="42.81391" lon="-0.10668">
        <ele>2075.62</ele>
        <time>2016-06-05T10:02:23Z</time>
      </trkpt>
      <trkpt lat="42.81397" lon="-0.10673">
        <ele>2076.59</ele>
        <time>2016-06-05T10:02:36Z</time>
      </trkpt>
      <trkpt lat="42.81403" lon="-0.10677">
        <ele>2078.03</ele>
        <time>2016-06-05T10:02:47Z</time>
      </trkpt>
      <trkpt lat="42.81406" lon="-0.10676">
        <ele>2079.47</ele>
        <time>2016-06-05T10:02:59Z</time>
      </trkpt>
      <trkpt lat="42.81406" lon="-0.10676">
        <ele>2079.47</ele>
        <time>2016-06-05T10:03:22Z</time>
      </trkpt>
      <trkpt lat="42.81405" lon="-0.10675">
        <ele>2079.95</ele>
        <time>2016-06-05T10:03:48Z</time>
      </trkpt>
      <trkpt lat="42.81405" lon="-0.10682">
        <ele>2081.87</ele>
        <time>2016-06-05T10:04:02Z</time>
      </trkpt>
      <trkpt lat="42.81409" lon="-0.10685">
        <ele>2083.31</ele>
        <time>2016-06-05T10:04:15Z</time>
      </trkpt>
      <trkpt lat="42.81412" lon="-0.1069">
        <ele>2085.24</ele>
        <time>2016-06-05T10:04:27Z</time>
      </trkpt>
      <trkpt lat="42.81413" lon="-0.10694">
        <ele>2086.68</ele>
        <time>2016-06-05T10:04:39Z</time>
      </trkpt>
      <trkpt lat="42.81416" lon="-0.10702">
        <ele>2088.6</ele>
        <time>2016-06-05T10:04:54Z</time>
      </trkpt>
      <trkpt lat="42.81418" lon="-0.10706">
        <ele>2090.04</ele>
        <time>2016-06-05T10:05:09Z</time>
      </trkpt>
      <trkpt lat="42.81418" lon="-0.10708">
        <ele>2091.49</ele>
        <time>2016-06-05T10:05:23Z</time>
      </trkpt>
      <trkpt lat="42.81417" lon="-0.10711">
        <ele>2092.93</ele>
        <time>2016-06-05T10:05:37Z</time>
      </trkpt>
      <trkpt lat="42.81421" lon="-0.10713">
        <ele>2094.37</ele>
        <time>2016-06-05T10:05:50Z</time>
      </trkpt>
      <trkpt lat="42.81423" lon="-0.10714">
        <ele>2094.37</ele>
        <time>2016-06-05T10:06:10Z</time>
      </trkpt>
      <trkpt lat="42.81424" lon="-0.1072">
        <ele>2096.29</ele>
        <time>2016-06-05T10:06:24Z</time>
      </trkpt>
      <trkpt lat="42.81426" lon="-0.10726">
        <ele>2098.7</ele>
        <time>2016-06-05T10:06:40Z</time>
      </trkpt>
      <trkpt lat="42.8143" lon="-0.10733">
        <ele>2101.1</ele>
        <time>2016-06-05T10:06:53Z</time>
      </trkpt>
      <trkpt lat="42.81433" lon="-0.1074">
        <ele>2102.54</ele>
        <time>2016-06-05T10:07:06Z</time>
      </trkpt>
      <trkpt lat="42.81437" lon="-0.10742">
        <ele>2103.5</ele>
        <time>2016-06-05T10:07:18Z</time>
      </trkpt>
      <trkpt lat="42.81438" lon="-0.10747">
        <ele>2105.42</ele>
        <time>2016-06-05T10:07:33Z</time>
      </trkpt>
      <trkpt lat="42.8144" lon="-0.10746">
        <ele>2106.39</ele>
        <time>2016-06-05T10:07:49Z</time>
      </trkpt>
      <trkpt lat="42.81439" lon="-0.10746">
        <ele>2106.39</ele>
        <time>2016-06-05T10:08:08Z</time>
      </trkpt>
      <trkpt lat="42.81443" lon="-0.1075">
        <ele>2107.83</ele>
        <time>2016-06-05T10:08:21Z</time>
      </trkpt>
      <trkpt lat="42.8145" lon="-0.10756">
        <ele>2108.79</ele>
        <time>2016-06-05T10:08:34Z</time>
      </trkpt>
      <trkpt lat="42.81457" lon="-0.10759">
        <ele>2109.75</ele>
        <time>2016-06-05T10:08:47Z</time>
      </trkpt>
      <trkpt lat="42.81458" lon="-0.10761">
        <ele>2111.19</ele>
        <time>2016-06-05T10:09:01Z</time>
      </trkpt>
      <trkpt lat="42.81459" lon="-0.10762">
        <ele>2111.67</ele>
        <time>2016-06-05T10:09:20Z</time>
      </trkpt>
      <trkpt lat="42.81458" lon="-0.10765">
        <ele>2112.63</ele>
        <time>2016-06-05T10:09:36Z</time>
      </trkpt>
      <trkpt lat="42.81455" lon="-0.10765">
        <ele>2113.12</ele>
        <time>2016-06-05T10:10:09Z</time>
      </trkpt>
      <trkpt lat="42.81457" lon="-0.10763">
        <ele>2113.12</ele>
        <time>2016-06-05T10:10:46Z</time>
      </trkpt>
      <trkpt lat="42.81456" lon="-0.10763">
        <ele>2113.12</ele>
        <time>2016-06-05T10:11:13Z</time>
      </trkpt>
      <trkpt lat="42.81457" lon="-0.10764">
        <ele>2113.6</ele>
        <time>2016-06-05T10:11:42Z</time>
      </trkpt>
      <trkpt lat="42.81462" lon="-0.10774">
        <ele>2114.56</ele>
        <time>2016-06-05T10:11:55Z</time>
      </trkpt>
      <trkpt lat="42.81465" lon="-0.10779">
        <ele>2115.04</ele>
        <time>2016-06-05T10:12:04Z</time>
      </trkpt>
      <trkpt lat="42.81471" lon="-0.10787">
        <ele>2116</ele>
        <time>2016-06-05T10:12:15Z</time>
      </trkpt>
      <trkpt lat="42.8147" lon="-0.10789">
        <ele>2117.44</ele>
        <time>2016-06-05T10:12:29Z</time>
      </trkpt>
      <trkpt lat="42.8147" lon="-0.10794">
        <ele>2118.4</ele>
        <time>2016-06-05T10:12:45Z</time>
      </trkpt>
      <trkpt lat="42.81476" lon="-0.10798">
        <ele>2120.32</ele>
        <time>2016-06-05T10:12:59Z</time>
      </trkpt>
      <trkpt lat="42.81477" lon="-0.10797">
        <ele>2121.29</ele>
        <time>2016-06-05T10:13:14Z</time>
      </trkpt>
      <trkpt lat="42.81479" lon="-0.10802">
        <ele>2123.69</ele>
        <time>2016-06-05T10:13:26Z</time>
      </trkpt>
      <trkpt lat="42.8148" lon="-0.10804">
        <ele>2124.65</ele>
        <time>2016-06-05T10:13:38Z</time>
      </trkpt>
      <trkpt lat="42.81478" lon="-0.10805">
        <ele>2125.61</ele>
        <time>2016-06-05T10:13:47Z</time>
      </trkpt>
      <trkpt lat="42.81477" lon="-0.10808">
        <ele>2126.57</ele>
        <time>2016-06-05T10:13:58Z</time>
      </trkpt>
      <trkpt lat="42.81477" lon="-0.10809">
        <ele>2127.53</ele>
        <time>2016-06-05T10:14:10Z</time>
      </trkpt>
      <trkpt lat="42.81479" lon="-0.10811">
        <ele>2128.5</ele>
        <time>2016-06-05T10:14:28Z</time>
      </trkpt>
      <trkpt lat="42.81473" lon="-0.10811">
        <ele>2130.42</ele>
        <time>2016-06-05T10:14:43Z</time>
      </trkpt>
      <trkpt lat="42.81471" lon="-0.10812">
        <ele>2131.38</ele>
        <time>2016-06-05T10:15:00Z</time>
      </trkpt>
      <trkpt lat="42.8147" lon="-0.10813">
        <ele>2131.38</ele>
        <time>2016-06-05T10:15:18Z</time>
      </trkpt>
      <trkpt lat="42.81469" lon="-0.10816">
        <ele>2131.86</ele>
        <time>2016-06-05T10:15:31Z</time>
      </trkpt>
      <trkpt lat="42.81469" lon="-0.10817">
        <ele>2133.3</ele>
        <time>2016-06-05T10:15:45Z</time>
      </trkpt>
      <trkpt lat="42.81472" lon="-0.10822">
        <ele>2135.71</ele>
        <time>2016-06-05T10:15:59Z</time>
      </trkpt>
      <trkpt lat="42.81467" lon="-0.10825">
        <ele>2137.63</ele>
        <time>2016-06-05T10:16:11Z</time>
      </trkpt>
      <trkpt lat="42.81467" lon="-0.10829">
        <ele>2139.55</ele>
        <time>2016-06-05T10:16:25Z</time>
      </trkpt>
      <trkpt lat="42.81465" lon="-0.10833">
        <ele>2141.47</ele>
        <time>2016-06-05T10:16:40Z</time>
      </trkpt>
      <trkpt lat="42.81462" lon="-0.10833">
        <ele>2142.92</ele>
        <time>2016-06-05T10:16:56Z</time>
      </trkpt>
      <trkpt lat="42.81462" lon="-0.10833">
        <ele>2142.92</ele>
        <time>2016-06-05T10:17:19Z</time>
      </trkpt>
      <trkpt lat="42.8146" lon="-0.10839">
        <ele>2144.36</ele>
        <time>2016-06-05T10:17:29Z</time>
      </trkpt>
      <trkpt lat="42.8146" lon="-0.10843">
        <ele>2146.28</ele>
        <time>2016-06-05T10:17:42Z</time>
      </trkpt>
      <trkpt lat="42.81457" lon="-0.10847">
        <ele>2147.24</ele>
        <time>2016-06-05T10:17:55Z</time>
      </trkpt>
      <trkpt lat="42.81454" lon="-0.10852">
        <ele>2148.68</ele>
        <time>2016-06-05T10:18:09Z</time>
      </trkpt>
      <trkpt lat="42.81452" lon="-0.10855">
        <ele>2149.16</ele>
        <time>2016-06-05T10:18:25Z</time>
      </trkpt>
      <trkpt lat="42.81449" lon="-0.10856">
        <ele>2150.13</ele>
        <time>2016-06-05T10:18:50Z</time>
      </trkpt>
      <trkpt lat="42.81446" lon="-0.10858">
        <ele>2151.09</ele>
        <time>2016-06-05T10:19:02Z</time>
      </trkpt>
      <trkpt lat="42.81442" lon="-0.1086">
        <ele>2153.49</ele>
        <time>2016-06-05T10:19:18Z</time>
      </trkpt>
      <trkpt lat="42.81441" lon="-0.10866">
        <ele>2155.89</ele>
        <time>2016-06-05T10:19:32Z</time>
      </trkpt>
      <trkpt lat="42.81438" lon="-0.10867">
        <ele>2156.86</ele>
        <time>2016-06-05T10:19:48Z</time>
      </trkpt>
      <trkpt lat="42.81434" lon="-0.10861">
        <ele>2157.82</ele>
        <time>2016-06-05T10:20:04Z</time>
      </trkpt>
      <trkpt lat="42.81433" lon="-0.1086">
        <ele>2157.82</ele>
        <time>2016-06-05T10:20:05Z</time>
      </trkpt>
      <trkpt lat="42.81429" lon="-0.10857">
        <ele>2158.3</ele>
        <time>2016-06-05T10:20:18Z</time>
      </trkpt>
      <trkpt lat="42.81429" lon="-0.1086">
        <ele>2159.26</ele>
        <time>2016-06-05T10:20:30Z</time>
      </trkpt>
      <trkpt lat="42.81427" lon="-0.10864">
        <ele>2160.7</ele>
        <time>2016-06-05T10:20:46Z</time>
      </trkpt>
      <trkpt lat="42.81425" lon="-0.10863">
        <ele>2162.14</ele>
        <time>2016-06-05T10:21:00Z</time>
      </trkpt>
      <trkpt lat="42.81424" lon="-0.10868">
        <ele>2163.58</ele>
        <time>2016-06-05T10:21:13Z</time>
      </trkpt>
      <trkpt lat="42.81422" lon="-0.10868">
        <ele>2165.51</ele>
        <time>2016-06-05T10:21:28Z</time>
      </trkpt>
      <trkpt lat="42.81421" lon="-0.10869">
        <ele>2165.99</ele>
        <time>2016-06-05T10:21:41Z</time>
      </trkpt>
      <trkpt lat="42.81419" lon="-0.1087">
        <ele>2166.47</ele>
        <time>2016-06-05T10:21:56Z</time>
      </trkpt>
      <trkpt lat="42.8142" lon="-0.10876">
        <ele>2168.87</ele>
        <time>2016-06-05T10:22:10Z</time>
      </trkpt>
      <trkpt lat="42.81418" lon="-0.10877">
        <ele>2169.35</ele>
        <time>2016-06-05T10:22:28Z</time>
      </trkpt>
      <trkpt lat="42.8142" lon="-0.10875">
        <ele>2170.79</ele>
        <time>2016-06-05T10:22:43Z</time>
      </trkpt>
      <trkpt lat="42.81421" lon="-0.10877">
        <ele>2170.79</ele>
        <time>2016-06-05T10:23:07Z</time>
      </trkpt>
      <trkpt lat="42.81422" lon="-0.10876">
        <ele>2170.79</ele>
        <time>2016-06-05T10:23:32Z</time>
      </trkpt>
      <trkpt lat="42.81421" lon="-0.10876">
        <ele>2170.79</ele>
        <time>2016-06-05T10:23:59Z</time>
      </trkpt>
      <trkpt lat="42.8142" lon="-0.1088">
        <ele>2171.76</ele>
        <time>2016-06-05T10:24:12Z</time>
      </trkpt>
      <trkpt lat="42.81418" lon="-0.10882">
        <ele>2171.76</ele>
        <time>2016-06-05T10:24:25Z</time>
      </trkpt>
      <trkpt lat="42.81417" lon="-0.10883">
        <ele>2172.24</ele>
        <time>2016-06-05T10:24:36Z</time>
      </trkpt>
      <trkpt lat="42.81416" lon="-0.10882">
        <ele>2172.24</ele>
        <time>2016-06-05T10:24:49Z</time>
      </trkpt>
      <trkpt lat="42.81415" lon="-0.10882">
        <ele>2173.2</ele>
        <time>2016-06-05T10:25:06Z</time>
      </trkpt>
      <trkpt lat="42.81416" lon="-0.10885">
        <ele>2173.68</ele>
        <time>2016-06-05T10:25:27Z</time>
      </trkpt>
      <trkpt lat="42.81416" lon="-0.10888">
        <ele>2174.16</ele>
        <time>2016-06-05T10:25:44Z</time>
      </trkpt>
      <trkpt lat="42.81415" lon="-0.10889">
        <ele>2174.64</ele>
        <time>2016-06-05T10:25:59Z</time>
      </trkpt>
      <trkpt lat="42.81414" lon="-0.10888">
        <ele>2175.12</ele>
        <time>2016-06-05T10:26:15Z</time>
      </trkpt>
      <trkpt lat="42.81413" lon="-0.10891">
        <ele>2176.08</ele>
        <time>2016-06-05T10:26:28Z</time>
      </trkpt>
      <trkpt lat="42.81413" lon="-0.10892">
        <ele>2177.04</ele>
        <time>2016-06-05T10:26:42Z</time>
      </trkpt>
      <trkpt lat="42.81411" lon="-0.10895">
        <ele>2178.48</ele>
        <time>2016-06-05T10:26:57Z</time>
      </trkpt>
      <trkpt lat="42.81408" lon="-0.10897">
        <ele>2179.93</ele>
        <time>2016-06-05T10:27:09Z</time>
      </trkpt>
      <trkpt lat="42.81406" lon="-0.10898">
        <ele>2181.37</ele>
        <time>2016-06-05T10:27:23Z</time>
      </trkpt>
      <trkpt lat="42.81406" lon="-0.109">
        <ele>2182.81</ele>
        <time>2016-06-05T10:27:40Z</time>
      </trkpt>
      <trkpt lat="42.81405" lon="-0.10903">
        <ele>2185.21</ele>
        <time>2016-06-05T10:27:50Z</time>
      </trkpt>
      <trkpt lat="42.81405" lon="-0.10908">
        <ele>2186.18</ele>
        <time>2016-06-05T10:28:05Z</time>
      </trkpt>
      <trkpt lat="42.81405" lon="-0.10913">
        <ele>2187.62</ele>
        <time>2016-06-05T10:28:20Z</time>
      </trkpt>
      <trkpt lat="42.81405" lon="-0.10913">
        <ele>2188.1</ele>
        <time>2016-06-05T10:28:34Z</time>
      </trkpt>
      <trkpt lat="42.81406" lon="-0.10918">
        <ele>2189.06</ele>
        <time>2016-06-05T10:28:50Z</time>
      </trkpt>
      <trkpt lat="42.81405" lon="-0.10921">
        <ele>2190.98</ele>
        <time>2016-06-05T10:29:07Z</time>
      </trkpt>
      <trkpt lat="42.81404" lon="-0.10925">
        <ele>2191.94</ele>
        <time>2016-06-05T10:29:24Z</time>
      </trkpt>
      <trkpt lat="42.81404" lon="-0.10926">
        <ele>2192.42</ele>
        <time>2016-06-05T10:29:37Z</time>
      </trkpt>
      <trkpt lat="42.81401" lon="-0.10926">
        <ele>2193.39</ele>
        <time>2016-06-05T10:29:52Z</time>
      </trkpt>
      <trkpt lat="42.81402" lon="-0.10926">
        <ele>2193.87</ele>
        <time>2016-06-05T10:30:08Z</time>
      </trkpt>
      <trkpt lat="42.81403" lon="-0.1093">
        <ele>2195.31</ele>
        <time>2016-06-05T10:30:23Z</time>
      </trkpt>
      <trkpt lat="42.81402" lon="-0.10931">
        <ele>2195.79</ele>
        <time>2016-06-05T10:30:36Z</time>
      </trkpt>
      <trkpt lat="42.81406" lon="-0.10932">
        <ele>2196.75</ele>
        <time>2016-06-05T10:30:50Z</time>
      </trkpt>
      <trkpt lat="42.81406" lon="-0.10929">
        <ele>2197.71</ele>
        <time>2016-06-05T10:31:06Z</time>
      </trkpt>
      <trkpt lat="42.81408" lon="-0.1093">
        <ele>2198.19</ele>
        <time>2016-06-05T10:31:18Z</time>
      </trkpt>
      <trkpt lat="42.81409" lon="-0.10933">
        <ele>2199.63</ele>
        <time>2016-06-05T10:31:23Z</time>
      </trkpt>
      <trkpt lat="42.8141" lon="-0.10936">
        <ele>2200.59</ele>
        <time>2016-06-05T10:31:35Z</time>
      </trkpt>
      <trkpt lat="42.81413" lon="-0.10936">
        <ele>2201.56</ele>
        <time>2016-06-05T10:31:47Z</time>
      </trkpt>
      <trkpt lat="42.81414" lon="-0.10934">
        <ele>2200.11</ele>
        <time>2016-06-05T10:32:04Z</time>
      </trkpt>
      <trkpt lat="42.8141" lon="-0.10933">
        <ele>2200.59</ele>
        <time>2016-06-05T10:32:42Z</time>
      </trkpt>
      <trkpt lat="42.81412" lon="-0.10935">
        <ele>2200.59</ele>
        <time>2016-06-05T10:33:06Z</time>
      </trkpt>
      <trkpt lat="42.81413" lon="-0.10935">
        <ele>2200.59</ele>
        <time>2016-06-05T10:33:30Z</time>
      </trkpt>
      <trkpt lat="42.81411" lon="-0.10933">
        <ele>2200.59</ele>
        <time>2016-06-05T10:33:45Z</time>
      </trkpt>
      <trkpt lat="42.81407" lon="-0.10932">
        <ele>2200.59</ele>
        <time>2016-06-05T10:34:12Z</time>
      </trkpt>
      <trkpt lat="42.81407" lon="-0.10935">
        <ele>2200.59</ele>
        <time>2016-06-05T10:34:25Z</time>
      </trkpt>
      <trkpt lat="42.81407" lon="-0.10937">
        <ele>2202.04</ele>
        <time>2016-06-05T10:34:44Z</time>
      </trkpt>
      <trkpt lat="42.81408" lon="-0.10937">
        <ele>2201.08</ele>
        <time>2016-06-05T10:35:07Z</time>
      </trkpt>
      <trkpt lat="42.81409" lon="-0.10938">
        <ele>2201.08</ele>
        <time>2016-06-05T10:35:28Z</time>
      </trkpt>
      <trkpt lat="42.81408" lon="-0.10938">
        <ele>2202.04</ele>
        <time>2016-06-05T10:35:36Z</time>
      </trkpt>
      <trkpt lat="42.81408" lon="-0.10936">
        <ele>2201.08</ele>
        <time>2016-06-05T10:35:45Z</time>
      </trkpt>
      <trkpt lat="42.81408" lon="-0.10935">
        <ele>2201.08</ele>
        <time>2016-06-05T10:36:14Z</time>
      </trkpt>
      <trkpt lat="42.81407" lon="-0.10938">
        <ele>2201.08</ele>
        <time>2016-06-05T10:36:37Z</time>
      </trkpt>
      <trkpt lat="42.81412" lon="-0.1094">
        <ele>2202.52</ele>
        <time>2016-06-05T10:36:52Z</time>
      </trkpt>
      <trkpt lat="42.81415" lon="-0.10942">
        <ele>2204.44</ele>
        <time>2016-06-05T10:37:05Z</time>
      </trkpt>
      <trkpt lat="42.81418" lon="-0.10942">
        <ele>2204.92</ele>
        <time>2016-06-05T10:37:20Z</time>
      </trkpt>
      <trkpt lat="42.81421" lon="-0.10944">
        <ele>2207.32</ele>
        <time>2016-06-05T10:37:31Z</time>
      </trkpt>
      <trkpt lat="42.8142" lon="-0.10942">
        <ele>2207.81</ele>
        <time>2016-06-05T10:37:46Z</time>
      </trkpt>
      <trkpt lat="42.81421" lon="-0.10945">
        <ele>2208.29</ele>
        <time>2016-06-05T10:38:06Z</time>
      </trkpt>
      <trkpt lat="42.81426" lon="-0.10947">
        <ele>2208.29</ele>
        <time>2016-06-05T10:38:20Z</time>
      </trkpt>
      <trkpt lat="42.8143" lon="-0.10953">
        <ele>2208.77</ele>
        <time>2016-06-05T10:38:34Z</time>
      </trkpt>
      <trkpt lat="42.81437" lon="-0.10954">
        <ele>2208.77</ele>
        <time>2016-06-05T10:38:45Z</time>
      </trkpt>
      <trkpt lat="42.81445" lon="-0.10958">
        <ele>2207.81</ele>
        <time>2016-06-05T10:38:59Z</time>
      </trkpt>
      <trkpt lat="42.81446" lon="-0.10959">
        <ele>2208.77</ele>
        <time>2016-06-05T10:39:09Z</time>
      </trkpt>
      <trkpt lat="42.81447" lon="-0.10962">
        <ele>2210.21</ele>
        <time>2016-06-05T10:39:21Z</time>
      </trkpt>
      <trkpt lat="42.81451" lon="-0.10965">
        <ele>2212.61</ele>
        <time>2016-06-05T10:39:36Z</time>
      </trkpt>
      <trkpt lat="42.81454" lon="-0.10968">
        <ele>2213.57</ele>
        <time>2016-06-05T10:39:49Z</time>
      </trkpt>
      <trkpt lat="42.81458" lon="-0.1097">
        <ele>2215.5</ele>
        <time>2016-06-05T10:40:02Z</time>
      </trkpt>
      <trkpt lat="42.81456" lon="-0.10969">
        <ele>2215.98</ele>
        <time>2016-06-05T10:40:16Z</time>
      </trkpt>
      <trkpt lat="42.81459" lon="-0.10971">
        <ele>2215.98</ele>
        <time>2016-06-05T10:40:29Z</time>
      </trkpt>
      <trkpt lat="42.81462" lon="-0.10976">
        <ele>2215.98</ele>
        <time>2016-06-05T10:40:38Z</time>
      </trkpt>
      <trkpt lat="42.81464" lon="-0.10981">
        <ele>2216.94</ele>
        <time>2016-06-05T10:40:47Z</time>
      </trkpt>
      <trkpt lat="42.81467" lon="-0.10984">
        <ele>2217.42</ele>
        <time>2016-06-05T10:41:02Z</time>
      </trkpt>
      <trkpt lat="42.81468" lon="-0.10989">
        <ele>2220.3</ele>
        <time>2016-06-05T10:41:19Z</time>
      </trkpt>
      <trkpt lat="42.81473" lon="-0.10992">
        <ele>2220.3</ele>
        <time>2016-06-05T10:41:32Z</time>
      </trkpt>
      <trkpt lat="42.81472" lon="-0.10994">
        <ele>2220.3</ele>
        <time>2016-06-05T10:41:46Z</time>
      </trkpt>
      <trkpt lat="42.81468" lon="-0.10995">
        <ele>2220.78</ele>
        <time>2016-06-05T10:42:02Z</time>
      </trkpt>
      <trkpt lat="42.8147" lon="-0.11001">
        <ele>2222.22</ele>
        <time>2016-06-05T10:42:17Z</time>
      </trkpt>
      <trkpt lat="42.81469" lon="-0.11">
        <ele>2223.19</ele>
        <time>2016-06-05T10:42:34Z</time>
      </trkpt>
      <trkpt lat="42.81469" lon="-0.11001">
        <ele>2223.19</ele>
        <time>2016-06-05T10:42:49Z</time>
      </trkpt>
      <trkpt lat="42.81465" lon="-0.11">
        <ele>2224.63</ele>
        <time>2016-06-05T10:43:03Z</time>
      </trkpt>
      <trkpt lat="42.81466" lon="-0.11004">
        <ele>2225.59</ele>
        <time>2016-06-05T10:43:17Z</time>
      </trkpt>
      <trkpt lat="42.81464" lon="-0.11002">
        <ele>2226.07</ele>
        <time>2016-06-05T10:43:39Z</time>
      </trkpt>
      <trkpt lat="42.81464" lon="-0.11006">
        <ele>2226.55</ele>
        <time>2016-06-05T10:44:05Z</time>
      </trkpt>
      <trkpt lat="42.81463" lon="-0.11008">
        <ele>2227.51</ele>
        <time>2016-06-05T10:44:14Z</time>
      </trkpt>
      <trkpt lat="42.81463" lon="-0.11005">
        <ele>2227.99</ele>
        <time>2016-06-05T10:44:27Z</time>
      </trkpt>
      <trkpt lat="42.81466" lon="-0.11006">
        <ele>2228.47</ele>
        <time>2016-06-05T10:44:50Z</time>
      </trkpt>
      <trkpt lat="42.81464" lon="-0.11006">
        <ele>2228.95</ele>
        <time>2016-06-05T10:45:11Z</time>
      </trkpt>
      <trkpt lat="42.81463" lon="-0.11014">
        <ele>2230.88</ele>
        <time>2016-06-05T10:45:22Z</time>
      </trkpt>
      <trkpt lat="42.81466" lon="-0.11017">
        <ele>2232.32</ele>
        <time>2016-06-05T10:45:40Z</time>
      </trkpt>
      <trkpt lat="42.81467" lon="-0.11018">
        <ele>2232.8</ele>
        <time>2016-06-05T10:45:58Z</time>
      </trkpt>
      <trkpt lat="42.81464" lon="-0.11017">
        <ele>2233.28</ele>
        <time>2016-06-05T10:46:20Z</time>
      </trkpt>
      <trkpt lat="42.81461" lon="-0.1102">
        <ele>2235.2</ele>
        <time>2016-06-05T10:46:33Z</time>
      </trkpt>
      <trkpt lat="42.81457" lon="-0.11023">
        <ele>2237.13</ele>
        <time>2016-06-05T10:46:46Z</time>
      </trkpt>
      <trkpt lat="42.81454" lon="-0.11023">
        <ele>2239.05</ele>
        <time>2016-06-05T10:46:59Z</time>
      </trkpt>
      <trkpt lat="42.81452" lon="-0.11026">
        <ele>2240.97</ele>
        <time>2016-06-05T10:47:12Z</time>
      </trkpt>
      <trkpt lat="42.81447" lon="-0.11024">
        <ele>2242.41</ele>
        <time>2016-06-05T10:47:24Z</time>
      </trkpt>
      <trkpt lat="42.81443" lon="-0.11026">
        <ele>2243.85</ele>
        <time>2016-06-05T10:47:37Z</time>
      </trkpt>
      <trkpt lat="42.81439" lon="-0.11027">
        <ele>2245.3</ele>
        <time>2016-06-05T10:47:49Z</time>
      </trkpt>
      <trkpt lat="42.81435" lon="-0.11027">
        <ele>2246.74</ele>
        <time>2016-06-05T10:48:01Z</time>
      </trkpt>
      <trkpt lat="42.81432" lon="-0.11031">
        <ele>2247.7</ele>
        <time>2016-06-05T10:48:13Z</time>
      </trkpt>
      <trkpt lat="42.81432" lon="-0.11031">
        <ele>2248.18</ele>
        <time>2016-06-05T10:48:30Z</time>
      </trkpt>
      <trkpt lat="42.81432" lon="-0.11033">
        <ele>2248.66</ele>
        <time>2016-06-05T10:48:50Z</time>
      </trkpt>
      <trkpt lat="42.81432" lon="-0.11037">
        <ele>2251.06</ele>
        <time>2016-06-05T10:49:03Z</time>
      </trkpt>
      <trkpt lat="42.81433" lon="-0.11046">
        <ele>2252.03</ele>
        <time>2016-06-05T10:49:14Z</time>
      </trkpt>
      <trkpt lat="42.81432" lon="-0.11052">
        <ele>2253.95</ele>
        <time>2016-06-05T10:49:28Z</time>
      </trkpt>
      <trkpt lat="42.81431" lon="-0.11056">
        <ele>2254.91</ele>
        <time>2016-06-05T10:49:39Z</time>
      </trkpt>
      <trkpt lat="42.81428" lon="-0.11061">
        <ele>2256.35</ele>
        <time>2016-06-05T10:49:53Z</time>
      </trkpt>
      <trkpt lat="42.81426" lon="-0.11062">
        <ele>2257.31</ele>
        <time>2016-06-05T10:50:02Z</time>
      </trkpt>
      <trkpt lat="42.81427" lon="-0.11064">
        <ele>2259.24</ele>
        <time>2016-06-05T10:50:15Z</time>
      </trkpt>
      <trkpt lat="42.81425" lon="-0.11068">
        <ele>2260.2</ele>
        <time>2016-06-05T10:50:28Z</time>
      </trkpt>
      <trkpt lat="42.81425" lon="-0.1107">
        <ele>2261.16</ele>
        <time>2016-06-05T10:50:35Z</time>
      </trkpt>
      <trkpt lat="42.81423" lon="-0.11072">
        <ele>2262.6</ele>
        <time>2016-06-05T10:50:47Z</time>
      </trkpt>
      <trkpt lat="42.81421" lon="-0.11075">
        <ele>2263.56</ele>
        <time>2016-06-05T10:51:01Z</time>
      </trkpt>
      <trkpt lat="42.8142" lon="-0.11077">
        <ele>2264.52</ele>
        <time>2016-06-05T10:51:11Z</time>
      </trkpt>
      <trkpt lat="42.81419" lon="-0.11078">
        <ele>2265</ele>
        <time>2016-06-05T10:51:21Z</time>
      </trkpt>
      <trkpt lat="42.81418" lon="-0.11081">
        <ele>2265.48</ele>
        <time>2016-06-05T10:51:29Z</time>
      </trkpt>
      <trkpt lat="42.81417" lon="-0.11084">
        <ele>2265.96</ele>
        <time>2016-06-05T10:51:45Z</time>
      </trkpt>
      <trkpt lat="42.81417" lon="-0.11085">
        <ele>2267.41</ele>
        <time>2016-06-05T10:51:57Z</time>
      </trkpt>
      <trkpt lat="42.81417" lon="-0.11085">
        <ele>2267.89</ele>
        <time>2016-06-05T10:52:08Z</time>
      </trkpt>
      <trkpt lat="42.81417" lon="-0.11086">
        <ele>2269.81</ele>
        <time>2016-06-05T10:52:22Z</time>
      </trkpt>
      <trkpt lat="42.81418" lon="-0.11086">
        <ele>2270.29</ele>
        <time>2016-06-05T10:52:37Z</time>
      </trkpt>
      <trkpt lat="42.81419" lon="-0.11085">
        <ele>2271.25</ele>
        <time>2016-06-05T10:52:54Z</time>
      </trkpt>
      <trkpt lat="42.81422" lon="-0.11087">
        <ele>2271.25</ele>
        <time>2016-06-05T10:53:15Z</time>
      </trkpt>
      <trkpt lat="42.81421" lon="-0.11092">
        <ele>2273.17</ele>
        <time>2016-06-05T10:53:27Z</time>
      </trkpt>
      <trkpt lat="42.81421" lon="-0.11094">
        <ele>2274.14</ele>
        <time>2016-06-05T10:53:38Z</time>
      </trkpt>
      <trkpt lat="42.81421" lon="-0.11095">
        <ele>2275.1</ele>
        <time>2016-06-05T10:53:55Z</time>
      </trkpt>
      <trkpt lat="42.81422" lon="-0.11097">
        <ele>2277.02</ele>
        <time>2016-06-05T10:54:07Z</time>
      </trkpt>
      <trkpt lat="42.81424" lon="-0.11099">
        <ele>2277.98</ele>
        <time>2016-06-05T10:54:19Z</time>
      </trkpt>
      <trkpt lat="42.81425" lon="-0.11101">
        <ele>2279.42</ele>
        <time>2016-06-05T10:54:34Z</time>
      </trkpt>
      <trkpt lat="42.8142" lon="-0.11103">
        <ele>2280.38</ele>
        <time>2016-06-05T10:54:49Z</time>
      </trkpt>
      <trkpt lat="42.81418" lon="-0.11105">
        <ele>2281.35</ele>
        <time>2016-06-05T10:55:03Z</time>
      </trkpt>
      <trkpt lat="42.81415" lon="-0.11106">
        <ele>2282.31</ele>
        <time>2016-06-05T10:55:26Z</time>
      </trkpt>
      <trkpt lat="42.81413" lon="-0.11105">
        <ele>2282.79</ele>
        <time>2016-06-05T10:55:46Z</time>
      </trkpt>
      <trkpt lat="42.81411" lon="-0.1111">
        <ele>2283.75</ele>
        <time>2016-06-05T10:56:05Z</time>
      </trkpt>
      <trkpt lat="42.81412" lon="-0.11107">
        <ele>2284.23</ele>
        <time>2016-06-05T10:56:22Z</time>
      </trkpt>
      <trkpt lat="42.81411" lon="-0.11108">
        <ele>2284.23</ele>
        <time>2016-06-05T10:56:47Z</time>
      </trkpt>
      <trkpt lat="42.81413" lon="-0.11107">
        <ele>2284.23</ele>
        <time>2016-06-05T10:57:11Z</time>
      </trkpt>
      <trkpt lat="42.81411" lon="-0.1111">
        <ele>2284.23</ele>
        <time>2016-06-05T10:57:38Z</time>
      </trkpt>
      <trkpt lat="42.8141" lon="-0.11112">
        <ele>2284.23</ele>
        <time>2016-06-05T10:57:58Z</time>
      </trkpt>
      <trkpt lat="42.81412" lon="-0.11114">
        <ele>2284.23</ele>
        <time>2016-06-05T10:58:08Z</time>
      </trkpt>
      <trkpt lat="42.81412" lon="-0.11114">
        <ele>2284.71</ele>
        <time>2016-06-05T10:58:23Z</time>
      </trkpt>
      <trkpt lat="42.81411" lon="-0.11117">
        <ele>2284.71</ele>
        <time>2016-06-05T10:58:43Z</time>
      </trkpt>
      <trkpt lat="42.81414" lon="-0.11116">
        <ele>2284.71</ele>
        <time>2016-06-05T10:59:03Z</time>
      </trkpt>
      <trkpt lat="42.81415" lon="-0.11117">
        <ele>2284.71</ele>
        <time>2016-06-05T10:59:27Z</time>
      </trkpt>
      <trkpt lat="42.81413" lon="-0.11116">
        <ele>2285.19</ele>
        <time>2016-06-05T10:59:48Z</time>
      </trkpt>
      <trkpt lat="42.81409" lon="-0.11115">
        <ele>2285.19</ele>
        <time>2016-06-05T11:00:19Z</time>
      </trkpt>
      <trkpt lat="42.81407" lon="-0.11115">
        <ele>2285.19</ele>
        <time>2016-06-05T11:00:45Z</time>
      </trkpt>
      <trkpt lat="42.81404" lon="-0.11111">
        <ele>2285.19</ele>
        <time>2016-06-05T11:00:58Z</time>
      </trkpt>
      <trkpt lat="42.81404" lon="-0.11111">
        <ele>2285.19</ele>
        <time>2016-06-05T11:01:12Z</time>
      </trkpt>
      <trkpt lat="42.81401" lon="-0.1111">
        <ele>2285.67</ele>
        <time>2016-06-05T11:01:33Z</time>
      </trkpt>
      <trkpt lat="42.81398" lon="-0.11114">
        <ele>2285.67</ele>
        <time>2016-06-05T11:01:55Z</time>
      </trkpt>
      <trkpt lat="42.81395" lon="-0.11109">
        <ele>2286.63</ele>
        <time>2016-06-05T11:02:17Z</time>
      </trkpt>
      <trkpt lat="42.81388" lon="-0.11111">
        <ele>2288.56</ele>
        <time>2016-06-05T11:02:31Z</time>
      </trkpt>
      <trkpt lat="42.81385" lon="-0.11113">
        <ele>2290</ele>
        <time>2016-06-05T11:02:44Z</time>
      </trkpt>
      <trkpt lat="42.81383" lon="-0.11115">
        <ele>2291.44</ele>
        <time>2016-06-05T11:02:50Z</time>
      </trkpt>
      <trkpt lat="42.81379" lon="-0.11116">
        <ele>2292.88</ele>
        <time>2016-06-05T11:03:06Z</time>
      </trkpt>
      <trkpt lat="42.81379" lon="-0.1112">
        <ele>2293.36</ele>
        <time>2016-06-05T11:03:21Z</time>
      </trkpt>
      <trkpt lat="42.81376" lon="-0.11124">
        <ele>2294.8</ele>
        <time>2016-06-05T11:03:34Z</time>
      </trkpt>
      <trkpt lat="42.81369" lon="-0.11128">
        <ele>2295.28</ele>
        <time>2016-06-05T11:03:47Z</time>
      </trkpt>
      <trkpt lat="42.81366" lon="-0.11131">
        <ele>2296.25</ele>
        <time>2016-06-05T11:03:59Z</time>
      </trkpt>
      <trkpt lat="42.81361" lon="-0.11133">
        <ele>2297.21</ele>
        <time>2016-06-05T11:04:20Z</time>
      </trkpt>
      <trkpt lat="42.81357" lon="-0.11137">
        <ele>2298.65</ele>
        <time>2016-06-05T11:04:34Z</time>
      </trkpt>
      <trkpt lat="42.81357" lon="-0.1114">
        <ele>2299.61</ele>
        <time>2016-06-05T11:04:49Z</time>
      </trkpt>
      <trkpt lat="42.81349" lon="-0.11143">
        <ele>2300.09</ele>
        <time>2016-06-05T11:05:03Z</time>
      </trkpt>
      <trkpt lat="42.81343" lon="-0.11141">
        <ele>2302.01</ele>
        <time>2016-06-05T11:05:21Z</time>
      </trkpt>
      <trkpt lat="42.8134" lon="-0.11142">
        <ele>2304.42</ele>
        <time>2016-06-05T11:05:37Z</time>
      </trkpt>
      <trkpt lat="42.81337" lon="-0.11142">
        <ele>2305.38</ele>
        <time>2016-06-05T11:05:52Z</time>
      </trkpt>
      <trkpt lat="42.81333" lon="-0.11142">
        <ele>2307.3</ele>
        <time>2016-06-05T11:06:07Z</time>
      </trkpt>
      <trkpt lat="42.81331" lon="-0.11144">
        <ele>2308.74</ele>
        <time>2016-06-05T11:06:20Z</time>
      </trkpt>
      <trkpt lat="42.81331" lon="-0.11147">
        <ele>2309.7</ele>
        <time>2016-06-05T11:06:36Z</time>
      </trkpt>
      <trkpt lat="42.81329" lon="-0.11148">
        <ele>2309.7</ele>
        <time>2016-06-05T11:06:52Z</time>
      </trkpt>
      <trkpt lat="42.81326" lon="-0.11152">
        <ele>2309.7</ele>
        <time>2016-06-05T11:07:14Z</time>
      </trkpt>
      <trkpt lat="42.81323" lon="-0.11159">
        <ele>2310.19</ele>
        <time>2016-06-05T11:07:30Z</time>
      </trkpt>
      <trkpt lat="42.8132" lon="-0.11164">
        <ele>2310.67</ele>
        <time>2016-06-05T11:07:40Z</time>
      </trkpt>
      <trkpt lat="42.81316" lon="-0.11172">
        <ele>2310.67</ele>
        <time>2016-06-05T11:07:55Z</time>
      </trkpt>
      <trkpt lat="42.81317" lon="-0.11172">
        <ele>2310.67</ele>
        <time>2016-06-05T11:08:16Z</time>
      </trkpt>
      <trkpt lat="42.81313" lon="-0.11173">
        <ele>2309.22</ele>
        <time>2016-06-05T11:08:23Z</time>
      </trkpt>
      <trkpt lat="42.81305" lon="-0.11176">
        <ele>2306.82</ele>
        <time>2016-06-05T11:08:32Z</time>
      </trkpt>
      <trkpt lat="42.81297" lon="-0.1118">
        <ele>2305.86</ele>
        <time>2016-06-05T11:08:47Z</time>
      </trkpt>
      <trkpt lat="42.81291" lon="-0.11185">
        <ele>2308.26</ele>
        <time>2016-06-05T11:09:00Z</time>
      </trkpt>
      <trkpt lat="42.81289" lon="-0.11189">
        <ele>2309.7</ele>
        <time>2016-06-05T11:09:12Z</time>
      </trkpt>
      <trkpt lat="42.81286" lon="-0.11192">
        <ele>2311.15</ele>
        <time>2016-06-05T11:09:23Z</time>
      </trkpt>
      <trkpt lat="42.81283" lon="-0.11195">
        <ele>2313.55</ele>
        <time>2016-06-05T11:09:39Z</time>
      </trkpt>
      <trkpt lat="42.8128" lon="-0.11199">
        <ele>2314.51</ele>
        <time>2016-06-05T11:09:53Z</time>
      </trkpt>
      <trkpt lat="42.81276" lon="-0.11203">
        <ele>2316.43</ele>
        <time>2016-06-05T11:10:06Z</time>
      </trkpt>
      <trkpt lat="42.81273" lon="-0.11204">
        <ele>2317.88</ele>
        <time>2016-06-05T11:10:19Z</time>
      </trkpt>
      <trkpt lat="42.81269" lon="-0.11208">
        <ele>2319.8</ele>
        <time>2016-06-05T11:10:34Z</time>
      </trkpt>
      <trkpt lat="42.81266" lon="-0.11211">
        <ele>2320.76</ele>
        <time>2016-06-05T11:10:49Z</time>
      </trkpt>
      <trkpt lat="42.8126" lon="-0.11213">
        <ele>2322.2</ele>
        <time>2016-06-05T11:11:03Z</time>
      </trkpt>
      <trkpt lat="42.81258" lon="-0.11214">
        <ele>2324.12</ele>
        <time>2016-06-05T11:11:14Z</time>
      </trkpt>
      <trkpt lat="42.81254" lon="-0.11217">
        <ele>2325.57</ele>
        <time>2016-06-05T11:11:28Z</time>
      </trkpt>
      <trkpt lat="42.81251" lon="-0.11222">
        <ele>2327.01</ele>
        <time>2016-06-05T11:11:40Z</time>
      </trkpt>
      <trkpt lat="42.81249" lon="-0.11225">
        <ele>2327.97</ele>
        <time>2016-06-05T11:11:53Z</time>
      </trkpt>
      <trkpt lat="42.81244" lon="-0.11229">
        <ele>2328.93</ele>
        <time>2016-06-05T11:12:04Z</time>
      </trkpt>
      <trkpt lat="42.81242" lon="-0.11233">
        <ele>2330.37</ele>
        <time>2016-06-05T11:12:14Z</time>
      </trkpt>
      <trkpt lat="42.81237" lon="-0.11239">
        <ele>2331.33</ele>
        <time>2016-06-05T11:12:25Z</time>
      </trkpt>
      <trkpt lat="42.81232" lon="-0.11247">
        <ele>2332.3</ele>
        <time>2016-06-05T11:12:39Z</time>
      </trkpt>
      <trkpt lat="42.81234" lon="-0.11254">
        <ele>2333.74</ele>
        <time>2016-06-05T11:12:52Z</time>
      </trkpt>
      <trkpt lat="42.8123" lon="-0.11261">
        <ele>2334.22</ele>
        <time>2016-06-05T11:13:03Z</time>
      </trkpt>
      <trkpt lat="42.81231" lon="-0.11263">
        <ele>2334.7</ele>
        <time>2016-06-05T11:13:25Z</time>
      </trkpt>
      <trkpt lat="42.81229" lon="-0.11269">
        <ele>2337.1</ele>
        <time>2016-06-05T11:13:38Z</time>
      </trkpt>
      <trkpt lat="42.8123" lon="-0.11273">
        <ele>2337.58</ele>
        <time>2016-06-05T11:13:47Z</time>
      </trkpt>
      <trkpt lat="42.81227" lon="-0.1128">
        <ele>2339.51</ele>
        <time>2016-06-05T11:14:00Z</time>
      </trkpt>
      <trkpt lat="42.81228" lon="-0.11285">
        <ele>2340.47</ele>
        <time>2016-06-05T11:14:10Z</time>
      </trkpt>
      <trkpt lat="42.81227" lon="-0.11291">
        <ele>2341.91</ele>
        <time>2016-06-05T11:14:22Z</time>
      </trkpt>
      <trkpt lat="42.81227" lon="-0.11295">
        <ele>2343.35</ele>
        <time>2016-06-05T11:14:31Z</time>
      </trkpt>
      <trkpt lat="42.81228" lon="-0.11301">
        <ele>2344.79</ele>
        <time>2016-06-05T11:14:43Z</time>
      </trkpt>
      <trkpt lat="42.81229" lon="-0.11307">
        <ele>2345.27</ele>
        <time>2016-06-05T11:14:55Z</time>
      </trkpt>
      <trkpt lat="42.8123" lon="-0.11313">
        <ele>2346.23</ele>
        <time>2016-06-05T11:15:07Z</time>
      </trkpt>
      <trkpt lat="42.81235" lon="-0.11318">
        <ele>2346.23</ele>
        <time>2016-06-05T11:15:21Z</time>
      </trkpt>
      <trkpt lat="42.81237" lon="-0.11322">
        <ele>2346.23</ele>
        <time>2016-06-05T11:15:27Z</time>
      </trkpt>
      <trkpt lat="42.81239" lon="-0.11326">
        <ele>2346.23</ele>
        <time>2016-06-05T11:15:32Z</time>
      </trkpt>
      <trkpt lat="42.81239" lon="-0.11332">
        <ele>2346.23</ele>
        <time>2016-06-05T11:15:45Z</time>
      </trkpt>
      <trkpt lat="42.81242" lon="-0.1134">
        <ele>2346.23</ele>
        <time>2016-06-05T11:15:56Z</time>
      </trkpt>
      <trkpt lat="42.81247" lon="-0.1135">
        <ele>2345.75</ele>
        <time>2016-06-05T11:16:11Z</time>
      </trkpt>
      <trkpt lat="42.81253" lon="-0.11355">
        <ele>2345.75</ele>
        <time>2016-06-05T11:16:21Z</time>
      </trkpt>
      <trkpt lat="42.81255" lon="-0.11352">
        <ele>2345.75</ele>
        <time>2016-06-05T11:16:42Z</time>
      </trkpt>
      <trkpt lat="42.81256" lon="-0.11353">
        <ele>2344.79</ele>
        <time>2016-06-05T11:16:56Z</time>
      </trkpt>
      <trkpt lat="42.81255" lon="-0.11352">
        <ele>2344.79</ele>
        <time>2016-06-05T11:17:16Z</time>
      </trkpt>
      <trkpt lat="42.81256" lon="-0.11354">
        <ele>2344.79</ele>
        <time>2016-06-05T11:17:20Z</time>
      </trkpt>
      <trkpt lat="42.81257" lon="-0.11357">
        <ele>2344.79</ele>
        <time>2016-06-05T11:17:23Z</time>
      </trkpt>
      <trkpt lat="42.81256" lon="-0.1136">
        <ele>2343.83</ele>
        <time>2016-06-05T11:17:37Z</time>
      </trkpt>
      <trkpt lat="42.8126" lon="-0.11359">
        <ele>2343.83</ele>
        <time>2016-06-05T11:18:00Z</time>
      </trkpt>
      <trkpt lat="42.81261" lon="-0.11367">
        <ele>2343.83</ele>
        <time>2016-06-05T11:18:17Z</time>
      </trkpt>
      <trkpt lat="42.81262" lon="-0.1137">
        <ele>2341.91</ele>
        <time>2016-06-05T11:18:22Z</time>
      </trkpt>
      <trkpt lat="42.81264" lon="-0.11375">
        <ele>2341.43</ele>
        <time>2016-06-05T11:18:29Z</time>
      </trkpt>
      <trkpt lat="42.81268" lon="-0.11382">
        <ele>2340.95</ele>
        <time>2016-06-05T11:18:40Z</time>
      </trkpt>
      <trkpt lat="42.81268" lon="-0.11393">
        <ele>2340.95</ele>
        <time>2016-06-05T11:18:52Z</time>
      </trkpt>
      <trkpt lat="42.81274" lon="-0.11396">
        <ele>2340.95</ele>
        <time>2016-06-05T11:19:03Z</time>
      </trkpt>
      <trkpt lat="42.81281" lon="-0.11402">
        <ele>2343.35</ele>
        <time>2016-06-05T11:19:14Z</time>
      </trkpt>
      <trkpt lat="42.81285" lon="-0.11404">
        <ele>2344.31</ele>
        <time>2016-06-05T11:19:27Z</time>
      </trkpt>
      <trkpt lat="42.81283" lon="-0.11406">
        <ele>2344.31</ele>
        <time>2016-06-05T11:19:36Z</time>
      </trkpt>
      <trkpt lat="42.81288" lon="-0.11411">
        <ele>2344.31</ele>
        <time>2016-06-05T11:19:47Z</time>
      </trkpt>
      <trkpt lat="42.8129" lon="-0.11407">
        <ele>2344.31</ele>
        <time>2016-06-05T11:20:13Z</time>
      </trkpt>
      <trkpt lat="42.81289" lon="-0.11407">
        <ele>2344.31</ele>
        <time>2016-06-05T11:20:48Z</time>
      </trkpt>
      <trkpt lat="42.81291" lon="-0.11414">
        <ele>2344.31</ele>
        <time>2016-06-05T11:21:08Z</time>
      </trkpt>
      <trkpt lat="42.81291" lon="-0.11414">
        <ele>2344.31</ele>
        <time>2016-06-05T11:21:32Z</time>
      </trkpt>
      <trkpt lat="42.81296" lon="-0.11416">
        <ele>2344.31</ele>
        <time>2016-06-05T11:21:45Z</time>
      </trkpt>
      <trkpt lat="42.81301" lon="-0.11416">
        <ele>2344.31</ele>
        <time>2016-06-05T11:21:57Z</time>
      </trkpt>
      <trkpt lat="42.81304" lon="-0.11417">
        <ele>2344.31</ele>
        <time>2016-06-05T11:22:23Z</time>
      </trkpt>
      <trkpt lat="42.81305" lon="-0.11419">
        <ele>2344.31</ele>
        <time>2016-06-05T11:22:26Z</time>
      </trkpt>
      <trkpt lat="42.81313" lon="-0.11421">
        <ele>2344.31</ele>
        <time>2016-06-05T11:22:41Z</time>
      </trkpt>
      <trkpt lat="42.81318" lon="-0.11419">
        <ele>2344.31</ele>
        <time>2016-06-05T11:22:52Z</time>
      </trkpt>
      <trkpt lat="42.81328" lon="-0.11419">
        <ele>2344.31</ele>
        <time>2016-06-05T11:23:06Z</time>
      </trkpt>
      <trkpt lat="42.81336" lon="-0.11423">
        <ele>2344.31</ele>
        <time>2016-06-05T11:23:21Z</time>
      </trkpt>
      <trkpt lat="42.81338" lon="-0.11425">
        <ele>2344.31</ele>
        <time>2016-06-05T11:23:26Z</time>
      </trkpt>
      <trkpt lat="42.81344" lon="-0.11427">
        <ele>2342.87</ele>
        <time>2016-06-05T11:23:33Z</time>
      </trkpt>
      <trkpt lat="42.81353" lon="-0.11428">
        <ele>2342.39</ele>
        <time>2016-06-05T11:23:46Z</time>
      </trkpt>
      <trkpt lat="42.81362" lon="-0.11435">
        <ele>2342.39</ele>
        <time>2016-06-05T11:23:59Z</time>
      </trkpt>
      <trkpt lat="42.81367" lon="-0.11439">
        <ele>2342.39</ele>
        <time>2016-06-05T11:24:13Z</time>
      </trkpt>
      <trkpt lat="42.8137" lon="-0.11438">
        <ele>2343.83</ele>
        <time>2016-06-05T11:24:20Z</time>
      </trkpt>
      <trkpt lat="42.81373" lon="-0.11439">
        <ele>2344.31</ele>
        <time>2016-06-05T11:24:25Z</time>
      </trkpt>
      <trkpt lat="42.81376" lon="-0.11441">
        <ele>2344.31</ele>
        <time>2016-06-05T11:24:31Z</time>
      </trkpt>
      <trkpt lat="42.81378" lon="-0.11442">
        <ele>2344.31</ele>
        <time>2016-06-05T11:24:33Z</time>
      </trkpt>
      <trkpt lat="42.81388" lon="-0.11445">
        <ele>2344.79</ele>
        <time>2016-06-05T11:24:46Z</time>
      </trkpt>
      <trkpt lat="42.81397" lon="-0.11453">
        <ele>2345.27</ele>
        <time>2016-06-05T11:25:00Z</time>
      </trkpt>
      <trkpt lat="42.81403" lon="-0.11456">
        <ele>2345.27</ele>
        <time>2016-06-05T11:25:12Z</time>
      </trkpt>
      <trkpt lat="42.81408" lon="-0.11462">
        <ele>2346.23</ele>
        <time>2016-06-05T11:25:23Z</time>
      </trkpt>
      <trkpt lat="42.81414" lon="-0.11469">
        <ele>2346.23</ele>
        <time>2016-06-05T11:25:36Z</time>
      </trkpt>
      <trkpt lat="42.81416" lon="-0.11471">
        <ele>2346.23</ele>
        <time>2016-06-05T11:25:53Z</time>
      </trkpt>
      <trkpt lat="42.81417" lon="-0.11475">
        <ele>2346.23</ele>
        <time>2016-06-05T11:26:15Z</time>
      </trkpt>
      <trkpt lat="42.81418" lon="-0.11474">
        <ele>2346.23</ele>
        <time>2016-06-05T11:26:40Z</time>
      </trkpt>
      <trkpt lat="42.81418" lon="-0.11477">
        <ele>2346.23</ele>
        <time>2016-06-05T11:27:01Z</time>
      </trkpt>
      <trkpt lat="42.81418" lon="-0.11478">
        <ele>2346.23</ele>
        <time>2016-06-05T11:27:34Z</time>
      </trkpt>
      <trkpt lat="42.81417" lon="-0.11477">
        <ele>2346.23</ele>
        <time>2016-06-05T11:27:57Z</time>
      </trkpt>
      <trkpt lat="42.81415" lon="-0.11477">
        <ele>2345.75</ele>
        <time>2016-06-05T11:28:24Z</time>
      </trkpt>
      <trkpt lat="42.81416" lon="-0.11477">
        <ele>2345.75</ele>
        <time>2016-06-05T11:28:53Z</time>
      </trkpt>
      <trkpt lat="42.81416" lon="-0.11476">
        <ele>2345.75</ele>
        <time>2016-06-05T11:29:18Z</time>
      </trkpt>
      <trkpt lat="42.81414" lon="-0.11477">
        <ele>2345.75</ele>
        <time>2016-06-05T11:29:44Z</time>
      </trkpt>
      <trkpt lat="42.81418" lon="-0.11477">
        <ele>2345.75</ele>
        <time>2016-06-05T11:30:14Z</time>
      </trkpt>
      <trkpt lat="42.81418" lon="-0.11473">
        <ele>2345.75</ele>
        <time>2016-06-05T11:30:38Z</time>
      </trkpt>
      <trkpt lat="42.81419" lon="-0.11472">
        <ele>2345.75</ele>
        <time>2016-06-05T11:30:58Z</time>
      </trkpt>
      <trkpt lat="42.81415" lon="-0.11471">
        <ele>2345.75</ele>
        <time>2016-06-05T11:31:19Z</time>
      </trkpt>
      <trkpt lat="42.81411" lon="-0.11469">
        <ele>2345.75</ele>
        <time>2016-06-05T11:31:38Z</time>
      </trkpt>
      <trkpt lat="42.81411" lon="-0.1147">
        <ele>2345.75</ele>
        <time>2016-06-05T11:31:42Z</time>
      </trkpt>
      <trkpt lat="42.81412" lon="-0.11471">
        <ele>2345.75</ele>
        <time>2016-06-05T11:31:44Z</time>
      </trkpt>
      <trkpt lat="42.81414" lon="-0.11469">
        <ele>2345.75</ele>
        <time>2016-06-05T11:31:56Z</time>
      </trkpt>
      <trkpt lat="42.8142" lon="-0.11475">
        <ele>2343.83</ele>
        <time>2016-06-05T11:32:08Z</time>
      </trkpt>
      <trkpt lat="42.81425" lon="-0.11477">
        <ele>2343.83</ele>
        <time>2016-06-05T11:32:27Z</time>
      </trkpt>
      <trkpt lat="42.81426" lon="-0.11483">
        <ele>2343.83</ele>
        <time>2016-06-05T11:32:52Z</time>
      </trkpt>
      <trkpt lat="42.81425" lon="-0.11489">
        <ele>2341.91</ele>
        <time>2016-06-05T11:33:01Z</time>
      </trkpt>
      <trkpt lat="42.81425" lon="-0.11493">
        <ele>2340.95</ele>
        <time>2016-06-05T11:33:03Z</time>
      </trkpt>
      <trkpt lat="42.81426" lon="-0.11506">
        <ele>2337.1</ele>
        <time>2016-06-05T11:33:09Z</time>
      </trkpt>
      <trkpt lat="42.81426" lon="-0.11507">
        <ele>2337.1</ele>
        <time>2016-06-05T11:33:10Z</time>
      </trkpt>
      <trkpt lat="42.81427" lon="-0.11514">
        <ele>2334.7</ele>
        <time>2016-06-05T11:33:22Z</time>
      </trkpt>
      <trkpt lat="42.81433" lon="-0.11522">
        <ele>2331.81</ele>
        <time>2016-06-05T11:33:39Z</time>
      </trkpt>
      <trkpt lat="42.81435" lon="-0.11526">
        <ele>2331.33</ele>
        <time>2016-06-05T11:33:43Z</time>
      </trkpt>
      <trkpt lat="42.81438" lon="-0.1154">
        <ele>2328.45</ele>
        <time>2016-06-05T11:33:56Z</time>
      </trkpt>
      <trkpt lat="42.81439" lon="-0.11546">
        <ele>2328.45</ele>
        <time>2016-06-05T11:34:01Z</time>
      </trkpt>
      <trkpt lat="42.81444" lon="-0.11555">
        <ele>2327.97</ele>
        <time>2016-06-05T11:34:17Z</time>
      </trkpt>
      <trkpt lat="42.81446" lon="-0.11564">
        <ele>2327.97</ele>
        <time>2016-06-05T11:34:27Z</time>
      </trkpt>
      <trkpt lat="42.81447" lon="-0.11569">
        <ele>2327.49</ele>
        <time>2016-06-05T11:34:31Z</time>
      </trkpt>
      <trkpt lat="42.81449" lon="-0.11577">
        <ele>2327.49</ele>
        <time>2016-06-05T11:34:38Z</time>
      </trkpt>
      <trkpt lat="42.81449" lon="-0.11586">
        <ele>2327.01</ele>
        <time>2016-06-05T11:34:48Z</time>
      </trkpt>
      <trkpt lat="42.81451" lon="-0.11595">
        <ele>2327.01</ele>
        <time>2016-06-05T11:34:58Z</time>
      </trkpt>
      <trkpt lat="42.81451" lon="-0.11601">
        <ele>2327.01</ele>
        <time>2016-06-05T11:35:08Z</time>
      </trkpt>
      <trkpt lat="42.8145" lon="-0.11607">
        <ele>2327.01</ele>
        <time>2016-06-05T11:35:23Z</time>
      </trkpt>
      <trkpt lat="42.81451" lon="-0.11605">
        <ele>2327.01</ele>
        <time>2016-06-05T11:35:37Z</time>
      </trkpt>
      <trkpt lat="42.81455" lon="-0.11605">
        <ele>2328.45</ele>
        <time>2016-06-05T11:35:50Z</time>
      </trkpt>
      <trkpt lat="42.81455" lon="-0.116">
        <ele>2328.45</ele>
        <time>2016-06-05T11:36:11Z</time>
      </trkpt>
      <trkpt lat="42.81455" lon="-0.11603">
        <ele>2328.45</ele>
        <time>2016-06-05T11:36:24Z</time>
      </trkpt>
      <trkpt lat="42.81455" lon="-0.11604">
        <ele>2328.45</ele>
        <time>2016-06-05T11:36:33Z</time>
      </trkpt>
      <trkpt lat="42.81455" lon="-0.11608">
        <ele>2329.41</ele>
        <time>2016-06-05T11:36:51Z</time>
      </trkpt>
      <trkpt lat="42.81454" lon="-0.11611">
        <ele>2329.41</ele>
        <time>2016-06-05T11:37:18Z</time>
      </trkpt>
      <trkpt lat="42.81455" lon="-0.11612">
        <ele>2329.41</ele>
        <time>2016-06-05T11:37:33Z</time>
      </trkpt>
      <trkpt lat="42.81455" lon="-0.11611">
        <ele>2329.41</ele>
        <time>2016-06-05T11:37:51Z</time>
      </trkpt>
      <trkpt lat="42.81454" lon="-0.11611">
        <ele>2329.41</ele>
        <time>2016-06-05T11:38:08Z</time>
      </trkpt>
      <trkpt lat="42.81454" lon="-0.11613">
        <ele>2329.41</ele>
        <time>2016-06-05T11:38:23Z</time>
      </trkpt>
      <trkpt lat="42.81453" lon="-0.11615">
        <ele>2330.37</ele>
        <time>2016-06-05T11:38:40Z</time>
      </trkpt>
      <trkpt lat="42.8145" lon="-0.11616">
        <ele>2330.37</ele>
        <time>2016-06-05T11:38:55Z</time>
      </trkpt>
      <trkpt lat="42.8145" lon="-0.11617">
        <ele>2330.37</ele>
        <time>2016-06-05T11:39:09Z</time>
      </trkpt>
      <trkpt lat="42.81449" lon="-0.11622">
        <ele>2330.85</ele>
        <time>2016-06-05T11:39:26Z</time>
      </trkpt>
      <trkpt lat="42.81447" lon="-0.11622">
        <ele>2330.85</ele>
        <time>2016-06-05T11:39:40Z</time>
      </trkpt>
      <trkpt lat="42.81449" lon="-0.1162">
        <ele>2331.33</ele>
        <time>2016-06-05T11:40:00Z</time>
      </trkpt>
      <trkpt lat="42.81449" lon="-0.11622">
        <ele>2331.33</ele>
        <time>2016-06-05T11:40:14Z</time>
      </trkpt>
      <trkpt lat="42.81449" lon="-0.1162">
        <ele>2331.33</ele>
        <time>2016-06-05T11:40:28Z</time>
      </trkpt>
      <trkpt lat="42.81449" lon="-0.11621">
        <ele>2331.33</ele>
        <time>2016-06-05T11:41:11Z</time>
      </trkpt>
      <trkpt lat="42.81449" lon="-0.11621">
        <ele>2331.81</ele>
        <time>2016-06-05T11:41:50Z</time>
      </trkpt>
      <trkpt lat="42.81449" lon="-0.1162">
        <ele>2331.81</ele>
        <time>2016-06-05T11:42:24Z</time>
      </trkpt>
      <trkpt lat="42.81449" lon="-0.11622">
        <ele>2331.81</ele>
        <time>2016-06-05T11:43:00Z</time>
      </trkpt>
      <trkpt lat="42.81449" lon="-0.11621">
        <ele>2330.85</ele>
        <time>2016-06-05T11:43:25Z</time>
      </trkpt>
      <trkpt lat="42.81449" lon="-0.11621">
        <ele>2331.33</ele>
        <time>2016-06-05T11:43:51Z</time>
      </trkpt>
      <trkpt lat="42.81449" lon="-0.11622">
        <ele>2331.33</ele>
        <time>2016-06-05T11:44:26Z</time>
      </trkpt>
      <trkpt lat="42.81448" lon="-0.11623">
        <ele>2331.33</ele>
        <time>2016-06-05T11:45:00Z</time>
      </trkpt>
      <trkpt lat="42.81448" lon="-0.11622">
        <ele>2331.81</ele>
        <time>2016-06-05T11:45:25Z</time>
      </trkpt>
      <trkpt lat="42.81448" lon="-0.11623">
        <ele>2331.81</ele>
        <time>2016-06-05T11:45:53Z</time>
      </trkpt>
      <trkpt lat="42.81447" lon="-0.11622">
        <ele>2332.3</ele>
        <time>2016-06-05T11:46:26Z</time>
      </trkpt>
      <trkpt lat="42.81445" lon="-0.11621">
        <ele>2331.81</ele>
        <time>2016-06-05T11:46:41Z</time>
      </trkpt>
      <trkpt lat="42.81446" lon="-0.1162">
        <ele>2332.3</ele>
        <time>2016-06-05T11:47:17Z</time>
      </trkpt>
      <trkpt lat="42.81446" lon="-0.11621">
        <ele>2332.3</ele>
        <time>2016-06-05T11:47:49Z</time>
      </trkpt>
      <trkpt lat="42.81446" lon="-0.1162">
        <ele>2332.78</ele>
        <time>2016-06-05T11:48:22Z</time>
      </trkpt>
      <trkpt lat="42.81446" lon="-0.1162">
        <ele>2332.78</ele>
        <time>2016-06-05T11:48:56Z</time>
      </trkpt>
      <trkpt lat="42.81446" lon="-0.11621">
        <ele>2333.26</ele>
        <time>2016-06-05T11:49:28Z</time>
      </trkpt>
      <trkpt lat="42.81444" lon="-0.11621">
        <ele>2333.26</ele>
        <time>2016-06-05T11:50:04Z</time>
      </trkpt>
      <trkpt lat="42.81445" lon="-0.11621">
        <ele>2333.74</ele>
        <time>2016-06-05T11:50:37Z</time>
      </trkpt>
      <trkpt lat="42.81444" lon="-0.11621">
        <ele>2333.74</ele>
        <time>2016-06-05T11:51:11Z</time>
      </trkpt>
      <trkpt lat="42.81443" lon="-0.11621">
        <ele>2334.22</ele>
        <time>2016-06-05T11:51:40Z</time>
      </trkpt>
      <trkpt lat="42.81443" lon="-0.11621">
        <ele>2334.22</ele>
        <time>2016-06-05T11:52:12Z</time>
      </trkpt>
      <trkpt lat="42.81443" lon="-0.11621">
        <ele>2334.7</ele>
        <time>2016-06-05T11:52:40Z</time>
      </trkpt>
      <trkpt lat="42.81443" lon="-0.1162">
        <ele>2334.7</ele>
        <time>2016-06-05T11:53:12Z</time>
      </trkpt>
      <trkpt lat="42.81443" lon="-0.1162">
        <ele>2335.18</ele>
        <time>2016-06-05T11:53:46Z</time>
      </trkpt>
      <trkpt lat="42.81443" lon="-0.11619">
        <ele>2335.18</ele>
        <time>2016-06-05T11:54:14Z</time>
      </trkpt>
      <trkpt lat="42.81444" lon="-0.11619">
        <ele>2335.66</ele>
        <time>2016-06-05T11:54:41Z</time>
      </trkpt>
      <trkpt lat="42.81444" lon="-0.11619">
        <ele>2335.66</ele>
        <time>2016-06-05T11:55:10Z</time>
      </trkpt>
      <trkpt lat="42.81443" lon="-0.11619">
        <ele>2336.14</ele>
        <time>2016-06-05T11:55:43Z</time>
      </trkpt>
      <trkpt lat="42.81444" lon="-0.11618">
        <ele>2336.62</ele>
        <time>2016-06-05T11:56:18Z</time>
      </trkpt>
      <trkpt lat="42.81444" lon="-0.11618">
        <ele>2336.62</ele>
        <time>2016-06-05T11:56:55Z</time>
      </trkpt>
      <trkpt lat="42.81443" lon="-0.11619">
        <ele>2337.1</ele>
        <time>2016-06-05T11:57:29Z</time>
      </trkpt>
      <trkpt lat="42.81444" lon="-0.11618">
        <ele>2337.1</ele>
        <time>2016-06-05T11:58:09Z</time>
      </trkpt>
      <trkpt lat="42.81444" lon="-0.11618">
        <ele>2337.58</ele>
        <time>2016-06-05T11:58:54Z</time>
      </trkpt>
      <trkpt lat="42.81445" lon="-0.11617">
        <ele>2338.06</ele>
        <time>2016-06-05T11:59:33Z</time>
      </trkpt>
      <trkpt lat="42.81445" lon="-0.11617">
        <ele>2338.06</ele>
        <time>2016-06-05T12:00:09Z</time>
      </trkpt>
      <trkpt lat="42.81446" lon="-0.11616">
        <ele>2338.06</ele>
        <time>2016-06-05T12:00:50Z</time>
      </trkpt>
      <trkpt lat="42.81446" lon="-0.11616">
        <ele>2338.54</ele>
        <time>2016-06-05T12:01:31Z</time>
      </trkpt>
      <trkpt lat="42.81444" lon="-0.11617">
        <ele>2338.54</ele>
        <time>2016-06-05T12:02:07Z</time>
      </trkpt>
      <trkpt lat="42.81445" lon="-0.11617">
        <ele>2339.02</ele>
        <time>2016-06-05T12:02:46Z</time>
      </trkpt>
      <trkpt lat="42.81446" lon="-0.11616">
        <ele>2339.02</ele>
        <time>2016-06-05T12:03:21Z</time>
      </trkpt>
      <trkpt lat="42.81446" lon="-0.11615">
        <ele>2339.51</ele>
        <time>2016-06-05T12:04:03Z</time>
      </trkpt>
      <trkpt lat="42.81445" lon="-0.11614">
        <ele>2339.51</ele>
        <time>2016-06-05T12:04:40Z</time>
      </trkpt>
      <trkpt lat="42.81445" lon="-0.11615">
        <ele>2339.99</ele>
        <time>2016-06-05T12:05:24Z</time>
      </trkpt>
      <trkpt lat="42.81445" lon="-0.11615">
        <ele>2339.99</ele>
        <time>2016-06-05T12:05:59Z</time>
      </trkpt>
      <trkpt lat="42.81445" lon="-0.11615">
        <ele>2339.99</ele>
        <time>2016-06-05T12:06:34Z</time>
      </trkpt>
      <trkpt lat="42.81445" lon="-0.11613">
        <ele>2340.47</ele>
        <time>2016-06-05T12:07:10Z</time>
      </trkpt>
      <trkpt lat="42.81445" lon="-0.11613">
        <ele>2340.47</ele>
        <time>2016-06-05T12:07:47Z</time>
      </trkpt>
      <trkpt lat="42.81445" lon="-0.11615">
        <ele>2340.95</ele>
        <time>2016-06-05T12:08:24Z</time>
      </trkpt>
      <trkpt lat="42.81447" lon="-0.11614">
        <ele>2340.95</ele>
        <time>2016-06-05T12:09:03Z</time>
      </trkpt>
      <trkpt lat="42.81446" lon="-0.11615">
        <ele>2341.43</ele>
        <time>2016-06-05T12:09:34Z</time>
      </trkpt>
      <trkpt lat="42.81446" lon="-0.11616">
        <ele>2341.43</ele>
        <time>2016-06-05T12:10:13Z</time>
      </trkpt>
      <trkpt lat="42.81446" lon="-0.11617">
        <ele>2341.43</ele>
        <time>2016-06-05T12:10:51Z</time>
      </trkpt>
      <trkpt lat="42.81446" lon="-0.11618">
        <ele>2341.43</ele>
        <time>2016-06-05T12:11:32Z</time>
      </trkpt>
      <trkpt lat="42.81445" lon="-0.11616">
        <ele>2341.43</ele>
        <time>2016-06-05T12:12:06Z</time>
      </trkpt>
      <trkpt lat="42.81447" lon="-0.11615">
        <ele>2341.91</ele>
        <time>2016-06-05T12:12:35Z</time>
      </trkpt>
      <trkpt lat="42.81448" lon="-0.11615">
        <ele>2341.91</ele>
        <time>2016-06-05T12:13:08Z</time>
      </trkpt>
      <trkpt lat="42.81447" lon="-0.11614">
        <ele>2341.91</ele>
        <time>2016-06-05T12:13:37Z</time>
      </trkpt>
      <trkpt lat="42.81448" lon="-0.11615">
        <ele>2341.91</ele>
        <time>2016-06-05T12:14:16Z</time>
      </trkpt>
      <trkpt lat="42.81446" lon="-0.11616">
        <ele>2341.91</ele>
        <time>2016-06-05T12:14:57Z</time>
      </trkpt>
      <trkpt lat="42.81447" lon="-0.11617">
        <ele>2341.43</ele>
        <time>2016-06-05T12:15:33Z</time>
      </trkpt>
      <trkpt lat="42.81446" lon="-0.11616">
        <ele>2341.43</ele>
        <time>2016-06-05T12:16:09Z</time>
      </trkpt>
      <trkpt lat="42.81445" lon="-0.11616">
        <ele>2341.43</ele>
        <time>2016-06-05T12:16:45Z</time>
      </trkpt>
      <trkpt lat="42.81446" lon="-0.11618">
        <ele>2341.43</ele>
        <time>2016-06-05T12:17:25Z</time>
      </trkpt>
      <trkpt lat="42.81445" lon="-0.11618">
        <ele>2340.47</ele>
        <time>2016-06-05T12:17:57Z</time>
      </trkpt>
      <trkpt lat="42.81445" lon="-0.11618">
        <ele>2340.47</ele>
        <time>2016-06-05T12:18:28Z</time>
      </trkpt>
      <trkpt lat="42.81446" lon="-0.11618">
        <ele>2339.99</ele>
        <time>2016-06-05T12:18:57Z</time>
      </trkpt>
      <trkpt lat="42.81445" lon="-0.11618">
        <ele>2339.99</ele>
        <time>2016-06-05T12:19:37Z</time>
      </trkpt>
      <trkpt lat="42.81446" lon="-0.11617">
        <ele>2339.99</ele>
        <time>2016-06-05T12:20:08Z</time>
      </trkpt>
      <trkpt lat="42.81446" lon="-0.11617">
        <ele>2339.99</ele>
        <time>2016-06-05T12:20:43Z</time>
      </trkpt>
      <trkpt lat="42.81445" lon="-0.11618">
        <ele>2339.99</ele>
        <time>2016-06-05T12:21:15Z</time>
      </trkpt>
      <trkpt lat="42.81446" lon="-0.11617">
        <ele>2339.99</ele>
        <time>2016-06-05T12:21:57Z</time>
      </trkpt>
      <trkpt lat="42.81445" lon="-0.11617">
        <ele>2339.99</ele>
        <time>2016-06-05T12:22:35Z</time>
      </trkpt>
      <trkpt lat="42.81444" lon="-0.11617">
        <ele>2339.51</ele>
        <time>2016-06-05T12:23:11Z</time>
      </trkpt>
      <trkpt lat="42.81446" lon="-0.11617">
        <ele>2339.51</ele>
        <time>2016-06-05T12:23:53Z</time>
      </trkpt>
      <trkpt lat="42.81446" lon="-0.11615">
        <ele>2339.51</ele>
        <time>2016-06-05T12:24:26Z</time>
      </trkpt>
      <trkpt lat="42.81444" lon="-0.11617">
        <ele>2339.51</ele>
        <time>2016-06-05T12:24:59Z</time>
      </trkpt>
      <trkpt lat="42.81444" lon="-0.11618">
        <ele>2339.02</ele>
        <time>2016-06-05T12:25:27Z</time>
      </trkpt>
      <trkpt lat="42.81445" lon="-0.11613">
        <ele>2339.02</ele>
        <time>2016-06-05T12:26:01Z</time>
      </trkpt>
      <trkpt lat="42.81446" lon="-0.11615">
        <ele>2339.02</ele>
        <time>2016-06-05T12:26:32Z</time>
      </trkpt>
      <trkpt lat="42.81445" lon="-0.11617">
        <ele>2339.02</ele>
        <time>2016-06-05T12:27:05Z</time>
      </trkpt>
      <trkpt lat="42.81442" lon="-0.11619">
        <ele>2339.02</ele>
        <time>2016-06-05T12:27:36Z</time>
      </trkpt>
      <trkpt lat="42.81443" lon="-0.11616">
        <ele>2339.02</ele>
        <time>2016-06-05T12:28:07Z</time>
      </trkpt>
      <trkpt lat="42.81444" lon="-0.11615">
        <ele>2339.02</ele>
        <time>2016-06-05T12:28:44Z</time>
      </trkpt>
      <trkpt lat="42.81445" lon="-0.11615">
        <ele>2339.02</ele>
        <time>2016-06-05T12:29:15Z</time>
      </trkpt>
      <trkpt lat="42.81446" lon="-0.11614">
        <ele>2339.02</ele>
        <time>2016-06-05T12:29:57Z</time>
      </trkpt>
      <trkpt lat="42.81444" lon="-0.11617">
        <ele>2339.99</ele>
        <time>2016-06-05T12:30:35Z</time>
      </trkpt>
      <trkpt lat="42.81445" lon="-0.11623">
        <ele>2340.95</ele>
        <time>2016-06-05T12:30:57Z</time>
      </trkpt>
      <trkpt lat="42.81446" lon="-0.11625">
        <ele>2339.51</ele>
        <time>2016-06-05T12:31:12Z</time>
      </trkpt>
      <trkpt lat="42.81446" lon="-0.11623">
        <ele>2339.02</ele>
        <time>2016-06-05T12:31:52Z</time>
      </trkpt>
      <trkpt lat="42.81443" lon="-0.11621">
        <ele>2339.51</ele>
        <time>2016-06-05T12:32:20Z</time>
      </trkpt>
      <trkpt lat="42.81442" lon="-0.1162">
        <ele>2339.51</ele>
        <time>2016-06-05T12:32:53Z</time>
      </trkpt>
      <trkpt lat="42.81442" lon="-0.11621">
        <ele>2339.51</ele>
        <time>2016-06-05T12:33:27Z</time>
      </trkpt>
      <trkpt lat="42.81441" lon="-0.11621">
        <ele>2339.02</ele>
        <time>2016-06-05T12:34:07Z</time>
      </trkpt>
      <trkpt lat="42.81441" lon="-0.11621">
        <ele>2339.02</ele>
        <time>2016-06-05T12:34:51Z</time>
      </trkpt>
      <trkpt lat="42.8144" lon="-0.1162">
        <ele>2339.02</ele>
        <time>2016-06-05T12:35:41Z</time>
      </trkpt>
      <trkpt lat="42.8144" lon="-0.11621">
        <ele>2339.02</ele>
        <time>2016-06-05T12:36:28Z</time>
      </trkpt>
      <trkpt lat="42.8144" lon="-0.1162">
        <ele>2339.02</ele>
        <time>2016-06-05T12:37:05Z</time>
      </trkpt>
      <trkpt lat="42.81439" lon="-0.1162">
        <ele>2338.54</ele>
        <time>2016-06-05T12:37:38Z</time>
      </trkpt>
      <trkpt lat="42.81439" lon="-0.11619">
        <ele>2338.54</ele>
        <time>2016-06-05T12:38:20Z</time>
      </trkpt>
      <trkpt lat="42.81438" lon="-0.11619">
        <ele>2338.54</ele>
        <time>2016-06-05T12:38:53Z</time>
      </trkpt>
      <trkpt lat="42.81438" lon="-0.11619">
        <ele>2338.54</ele>
        <time>2016-06-05T12:39:29Z</time>
      </trkpt>
      <trkpt lat="42.81437" lon="-0.11618">
        <ele>2338.54</ele>
        <time>2016-06-05T12:40:04Z</time>
      </trkpt>
      <trkpt lat="42.81437" lon="-0.11618">
        <ele>2338.54</ele>
        <time>2016-06-05T12:40:36Z</time>
      </trkpt>
      <trkpt lat="42.81436" lon="-0.11619">
        <ele>2338.54</ele>
        <time>2016-06-05T12:41:11Z</time>
      </trkpt>
      <trkpt lat="42.81436" lon="-0.11618">
        <ele>2338.54</ele>
        <time>2016-06-05T12:41:46Z</time>
      </trkpt>
      <trkpt lat="42.81436" lon="-0.11619">
        <ele>2339.51</ele>
        <time>2016-06-05T12:42:18Z</time>
      </trkpt>
      <trkpt lat="42.81437" lon="-0.11617">
        <ele>2339.51</ele>
        <time>2016-06-05T12:42:45Z</time>
      </trkpt>
      <trkpt lat="42.81436" lon="-0.11618">
        <ele>2339.51</ele>
        <time>2016-06-05T12:43:19Z</time>
      </trkpt>
      <trkpt lat="42.81435" lon="-0.11617">
        <ele>2339.51</ele>
        <time>2016-06-05T12:43:56Z</time>
      </trkpt>
      <trkpt lat="42.81436" lon="-0.11617">
        <ele>2339.51</ele>
        <time>2016-06-05T12:44:26Z</time>
      </trkpt>
      <trkpt lat="42.81436" lon="-0.11615">
        <ele>2339.51</ele>
        <time>2016-06-05T12:44:52Z</time>
      </trkpt>
      <trkpt lat="42.81437" lon="-0.11618">
        <ele>2339.51</ele>
        <time>2016-06-05T12:45:21Z</time>
      </trkpt>
      <trkpt lat="42.81437" lon="-0.11618">
        <ele>2339.51</ele>
        <time>2016-06-05T12:45:54Z</time>
      </trkpt>
      <trkpt lat="42.81437" lon="-0.11619">
        <ele>2339.51</ele>
        <time>2016-06-05T12:46:25Z</time>
      </trkpt>
      <trkpt lat="42.81436" lon="-0.11619">
        <ele>2339.51</ele>
        <time>2016-06-05T12:47:01Z</time>
      </trkpt>
      <trkpt lat="42.81436" lon="-0.11619">
        <ele>2339.02</ele>
        <time>2016-06-05T12:47:35Z</time>
      </trkpt>
      <trkpt lat="42.81436" lon="-0.11619">
        <ele>2339.02</ele>
        <time>2016-06-05T12:48:17Z</time>
      </trkpt>
      <trkpt lat="42.81436" lon="-0.11622">
        <ele>2339.02</ele>
        <time>2016-06-05T12:49:00Z</time>
      </trkpt>
      <trkpt lat="42.81435" lon="-0.11622">
        <ele>2338.54</ele>
        <time>2016-06-05T12:49:42Z</time>
      </trkpt>
      <trkpt lat="42.81434" lon="-0.1162">
        <ele>2338.54</ele>
        <time>2016-06-05T12:50:21Z</time>
      </trkpt>
      <trkpt lat="42.81437" lon="-0.1162">
        <ele>2338.06</ele>
        <time>2016-06-05T12:50:57Z</time>
      </trkpt>
      <trkpt lat="42.81436" lon="-0.1162">
        <ele>2338.06</ele>
        <time>2016-06-05T12:51:31Z</time>
      </trkpt>
      <trkpt lat="42.81435" lon="-0.11621">
        <ele>2338.06</ele>
        <time>2016-06-05T12:52:03Z</time>
      </trkpt>
      <trkpt lat="42.81434" lon="-0.11621">
        <ele>2337.58</ele>
        <time>2016-06-05T12:52:38Z</time>
      </trkpt>
      <trkpt lat="42.81434" lon="-0.1162">
        <ele>2337.58</ele>
        <time>2016-06-05T12:53:17Z</time>
      </trkpt>
      <trkpt lat="42.81435" lon="-0.11621">
        <ele>2337.1</ele>
        <time>2016-06-05T12:54:00Z</time>
      </trkpt>
      <trkpt lat="42.81435" lon="-0.1162">
        <ele>2337.1</ele>
        <time>2016-06-05T12:54:28Z</time>
      </trkpt>
      <trkpt lat="42.81435" lon="-0.1162">
        <ele>2337.1</ele>
        <time>2016-06-05T12:54:52Z</time>
      </trkpt>
      <trkpt lat="42.81435" lon="-0.1162">
        <ele>2337.1</ele>
        <time>2016-06-05T12:55:22Z</time>
      </trkpt>
      <trkpt lat="42.81435" lon="-0.1162">
        <ele>2336.62</ele>
        <time>2016-06-05T12:55:54Z</time>
      </trkpt>
      <trkpt lat="42.81435" lon="-0.11621">
        <ele>2336.62</ele>
        <time>2016-06-05T12:56:25Z</time>
      </trkpt>
      <trkpt lat="42.81435" lon="-0.1162">
        <ele>2336.62</ele>
        <time>2016-06-05T12:57:00Z</time>
      </trkpt>
      <trkpt lat="42.81435" lon="-0.1162">
        <ele>2336.62</ele>
        <time>2016-06-05T12:57:30Z</time>
      </trkpt>
      <trkpt lat="42.81434" lon="-0.1162">
        <ele>2336.14</ele>
        <time>2016-06-05T12:58:03Z</time>
      </trkpt>
      <trkpt lat="42.81434" lon="-0.11622">
        <ele>2336.14</ele>
        <time>2016-06-05T12:58:35Z</time>
      </trkpt>
      <trkpt lat="42.81434" lon="-0.11621">
        <ele>2336.14</ele>
        <time>2016-06-05T12:59:03Z</time>
      </trkpt>
      <trkpt lat="42.81434" lon="-0.11622">
        <ele>2336.14</ele>
        <time>2016-06-05T12:59:34Z</time>
      </trkpt>
      <trkpt lat="42.81434" lon="-0.11623">
        <ele>2336.14</ele>
        <time>2016-06-05T13:00:09Z</time>
      </trkpt>
      <trkpt lat="42.81435" lon="-0.11622">
        <ele>2335.66</ele>
        <time>2016-06-05T13:00:38Z</time>
      </trkpt>
      <trkpt lat="42.81435" lon="-0.11622">
        <ele>2335.66</ele>
        <time>2016-06-05T13:01:09Z</time>
      </trkpt>
      <trkpt lat="42.81435" lon="-0.11622">
        <ele>2335.66</ele>
        <time>2016-06-05T13:01:39Z</time>
      </trkpt>
      <trkpt lat="42.81435" lon="-0.11624">
        <ele>2335.66</ele>
        <time>2016-06-05T13:02:12Z</time>
      </trkpt>
      <trkpt lat="42.81435" lon="-0.11626">
        <ele>2335.18</ele>
        <time>2016-06-05T13:02:42Z</time>
      </trkpt>
      <trkpt lat="42.81435" lon="-0.11626">
        <ele>2335.18</ele>
        <time>2016-06-05T13:03:18Z</time>
      </trkpt>
      <trkpt lat="42.81435" lon="-0.11626">
        <ele>2335.18</ele>
        <time>2016-06-05T13:03:48Z</time>
      </trkpt>
      <trkpt lat="42.81435" lon="-0.11621">
        <ele>2334.22</ele>
        <time>2016-06-05T13:04:18Z</time>
      </trkpt>
      <trkpt lat="42.81436" lon="-0.1162">
        <ele>2335.66</ele>
        <time>2016-06-05T13:04:28Z</time>
      </trkpt>
      <trkpt lat="42.81439" lon="-0.11622">
        <ele>2335.66</ele>
        <time>2016-06-05T13:05:04Z</time>
      </trkpt>
      <trkpt lat="42.81439" lon="-0.11623">
        <ele>2335.66</ele>
        <time>2016-06-05T13:05:37Z</time>
      </trkpt>
      <trkpt lat="42.81439" lon="-0.11623">
        <ele>2335.66</ele>
        <time>2016-06-05T13:06:10Z</time>
      </trkpt>
      <trkpt lat="42.81439" lon="-0.11623">
        <ele>2335.66</ele>
        <time>2016-06-05T13:06:46Z</time>
      </trkpt>
      <trkpt lat="42.81438" lon="-0.11623">
        <ele>2335.66</ele>
        <time>2016-06-05T13:07:21Z</time>
      </trkpt>
      <trkpt lat="42.81439" lon="-0.11623">
        <ele>2335.18</ele>
        <time>2016-06-05T13:07:54Z</time>
      </trkpt>
      <trkpt lat="42.81441" lon="-0.11624">
        <ele>2335.18</ele>
        <time>2016-06-05T13:08:27Z</time>
      </trkpt>
      <trkpt lat="42.8144" lon="-0.11623">
        <ele>2335.18</ele>
        <time>2016-06-05T13:09:03Z</time>
      </trkpt>
      <trkpt lat="42.81439" lon="-0.11623">
        <ele>2335.18</ele>
        <time>2016-06-05T13:09:37Z</time>
      </trkpt>
      <trkpt lat="42.81444" lon="-0.11626">
        <ele>2335.18</ele>
        <time>2016-06-05T13:10:19Z</time>
      </trkpt>
      <trkpt lat="42.81443" lon="-0.11626">
        <ele>2335.18</ele>
        <time>2016-06-05T13:10:58Z</time>
      </trkpt>
      <trkpt lat="42.8144" lon="-0.11625">
        <ele>2334.7</ele>
        <time>2016-06-05T13:11:33Z</time>
      </trkpt>
      <trkpt lat="42.8144" lon="-0.11622">
        <ele>2334.7</ele>
        <time>2016-06-05T13:12:11Z</time>
      </trkpt>
      <trkpt lat="42.81442" lon="-0.11622">
        <ele>2334.7</ele>
        <time>2016-06-05T13:12:35Z</time>
      </trkpt>
      <trkpt lat="42.81445" lon="-0.11622">
        <ele>2334.7</ele>
        <time>2016-06-05T13:13:06Z</time>
      </trkpt>
      <trkpt lat="42.81445" lon="-0.11622">
        <ele>2334.7</ele>
        <time>2016-06-05T13:13:43Z</time>
      </trkpt>
      <trkpt lat="42.81446" lon="-0.11622">
        <ele>2334.7</ele>
        <time>2016-06-05T13:14:17Z</time>
      </trkpt>
      <trkpt lat="42.81445" lon="-0.11624">
        <ele>2334.7</ele>
        <time>2016-06-05T13:14:46Z</time>
      </trkpt>
      <trkpt lat="42.81445" lon="-0.11623">
        <ele>2334.7</ele>
        <time>2016-06-05T13:15:18Z</time>
      </trkpt>
      <trkpt lat="42.81446" lon="-0.11623">
        <ele>2334.7</ele>
        <time>2016-06-05T13:15:52Z</time>
      </trkpt>
      <trkpt lat="42.81447" lon="-0.11624">
        <ele>2335.18</ele>
        <time>2016-06-05T13:16:33Z</time>
      </trkpt>
      <trkpt lat="42.81448" lon="-0.11625">
        <ele>2334.7</ele>
        <time>2016-06-05T13:16:45Z</time>
      </trkpt>
      <trkpt lat="42.81448" lon="-0.11626">
        <ele>2334.7</ele>
        <time>2016-06-05T13:17:03Z</time>
      </trkpt>
      <trkpt lat="42.81449" lon="-0.11627">
        <ele>2334.7</ele>
        <time>2016-06-05T13:17:30Z</time>
      </trkpt>
      <trkpt lat="42.81449" lon="-0.11624">
        <ele>2334.7</ele>
        <time>2016-06-05T13:17:47Z</time>
      </trkpt>
      <trkpt lat="42.81449" lon="-0.11622">
        <ele>2334.7</ele>
        <time>2016-06-05T13:18:01Z</time>
      </trkpt>
      <trkpt lat="42.81451" lon="-0.11618">
        <ele>2334.22</ele>
        <time>2016-06-05T13:18:25Z</time>
      </trkpt>
      <trkpt lat="42.81452" lon="-0.11614">
        <ele>2333.26</ele>
        <time>2016-06-05T13:18:39Z</time>
      </trkpt>
      <trkpt lat="42.81451" lon="-0.11609">
        <ele>2332.3</ele>
        <time>2016-06-05T13:18:52Z</time>
      </trkpt>
      <trkpt lat="42.81445" lon="-0.11603">
        <ele>2330.85</ele>
        <time>2016-06-05T13:19:05Z</time>
      </trkpt>
      <trkpt lat="42.81444" lon="-0.11602">
        <ele>2330.37</ele>
        <time>2016-06-05T13:19:21Z</time>
      </trkpt>
      <trkpt lat="42.81449" lon="-0.11605">
        <ele>2329.89</ele>
        <time>2016-06-05T13:19:38Z</time>
      </trkpt>
      <trkpt lat="42.8145" lon="-0.11606">
        <ele>2331.33</ele>
        <time>2016-06-05T13:19:40Z</time>
      </trkpt>
      <trkpt lat="42.81457" lon="-0.11603">
        <ele>2332.3</ele>
        <time>2016-06-05T13:19:52Z</time>
      </trkpt>
      <trkpt lat="42.81461" lon="-0.11601">
        <ele>2332.78</ele>
        <time>2016-06-05T13:20:05Z</time>
      </trkpt>
      <trkpt lat="42.81463" lon="-0.11599">
        <ele>2332.78</ele>
        <time>2016-06-05T13:20:23Z</time>
      </trkpt>
      <trkpt lat="42.81473" lon="-0.11595">
        <ele>2332.78</ele>
        <time>2016-06-05T13:20:36Z</time>
      </trkpt>
      <trkpt lat="42.81474" lon="-0.11594">
        <ele>2332.78</ele>
        <time>2016-06-05T13:20:37Z</time>
      </trkpt>
      <trkpt lat="42.81478" lon="-0.11589">
        <ele>2332.78</ele>
        <time>2016-06-05T13:20:49Z</time>
      </trkpt>
      <trkpt lat="42.81484" lon="-0.11586">
        <ele>2332.78</ele>
        <time>2016-06-05T13:21:02Z</time>
      </trkpt>
      <trkpt lat="42.81494" lon="-0.11581">
        <ele>2332.78</ele>
        <time>2016-06-05T13:21:16Z</time>
      </trkpt>
      <trkpt lat="42.81495" lon="-0.11581">
        <ele>2332.78</ele>
        <time>2016-06-05T13:21:18Z</time>
      </trkpt>
      <trkpt lat="42.81507" lon="-0.11576">
        <ele>2333.26</ele>
        <time>2016-06-05T13:21:34Z</time>
      </trkpt>
      <trkpt lat="42.81518" lon="-0.11566">
        <ele>2334.7</ele>
        <time>2016-06-05T13:21:50Z</time>
      </trkpt>
      <trkpt lat="42.81525" lon="-0.11564">
        <ele>2334.7</ele>
        <time>2016-06-05T13:22:04Z</time>
      </trkpt>
      <trkpt lat="42.81531" lon="-0.11559">
        <ele>2335.18</ele>
        <time>2016-06-05T13:22:20Z</time>
      </trkpt>
      <trkpt lat="42.81537" lon="-0.11549">
        <ele>2336.14</ele>
        <time>2016-06-05T13:22:34Z</time>
      </trkpt>
      <trkpt lat="42.81541" lon="-0.1154">
        <ele>2337.58</ele>
        <time>2016-06-05T13:22:47Z</time>
      </trkpt>
      <trkpt lat="42.81545" lon="-0.11533">
        <ele>2338.54</ele>
        <time>2016-06-05T13:23:00Z</time>
      </trkpt>
      <trkpt lat="42.81548" lon="-0.11526">
        <ele>2339.99</ele>
        <time>2016-06-05T13:23:15Z</time>
      </trkpt>
      <trkpt lat="42.81552" lon="-0.11519">
        <ele>2340.95</ele>
        <time>2016-06-05T13:23:29Z</time>
      </trkpt>
      <trkpt lat="42.81558" lon="-0.11512">
        <ele>2340.95</ele>
        <time>2016-06-05T13:23:40Z</time>
      </trkpt>
      <trkpt lat="42.81566" lon="-0.11506">
        <ele>2341.91</ele>
        <time>2016-06-05T13:23:53Z</time>
      </trkpt>
      <trkpt lat="42.81573" lon="-0.11499">
        <ele>2342.87</ele>
        <time>2016-06-05T13:24:06Z</time>
      </trkpt>
      <trkpt lat="42.81578" lon="-0.11495">
        <ele>2343.83</ele>
        <time>2016-06-05T13:24:19Z</time>
      </trkpt>
      <trkpt lat="42.8158" lon="-0.11496">
        <ele>2343.83</ele>
        <time>2016-06-05T13:24:34Z</time>
      </trkpt>
      <trkpt lat="42.81578" lon="-0.11495">
        <ele>2343.83</ele>
        <time>2016-06-05T13:24:58Z</time>
      </trkpt>
      <trkpt lat="42.81585" lon="-0.1149">
        <ele>2344.31</ele>
        <time>2016-06-05T13:25:12Z</time>
      </trkpt>
      <trkpt lat="42.81594" lon="-0.11486">
        <ele>2344.79</ele>
        <time>2016-06-05T13:25:25Z</time>
      </trkpt>
      <trkpt lat="42.81595" lon="-0.11485">
        <ele>2344.79</ele>
        <time>2016-06-05T13:25:27Z</time>
      </trkpt>
      <trkpt lat="42.81602" lon="-0.11481">
        <ele>2344.79</ele>
        <time>2016-06-05T13:25:36Z</time>
      </trkpt>
      <trkpt lat="42.81607" lon="-0.11478">
        <ele>2344.79</ele>
        <time>2016-06-05T13:25:44Z</time>
      </trkpt>
      <trkpt lat="42.81613" lon="-0.11469">
        <ele>2344.79</ele>
        <time>2016-06-05T13:25:57Z</time>
      </trkpt>
      <trkpt lat="42.81619" lon="-0.11458">
        <ele>2344.79</ele>
        <time>2016-06-05T13:26:11Z</time>
      </trkpt>
      <trkpt lat="42.81622" lon="-0.11448">
        <ele>2344.79</ele>
        <time>2016-06-05T13:26:23Z</time>
      </trkpt>
      <trkpt lat="42.81622" lon="-0.11445">
        <ele>2344.79</ele>
        <time>2016-06-05T13:26:27Z</time>
      </trkpt>
      <trkpt lat="42.81623" lon="-0.11433">
        <ele>2344.79</ele>
        <time>2016-06-05T13:26:44Z</time>
      </trkpt>
      <trkpt lat="42.81624" lon="-0.11434">
        <ele>2345.27</ele>
        <time>2016-06-05T13:27:06Z</time>
      </trkpt>
      <trkpt lat="42.81624" lon="-0.11426">
        <ele>2345.27</ele>
        <time>2016-06-05T13:27:14Z</time>
      </trkpt>
      <trkpt lat="42.81624" lon="-0.11413">
        <ele>2344.31</ele>
        <time>2016-06-05T13:27:27Z</time>
      </trkpt>
      <trkpt lat="42.81623" lon="-0.11402">
        <ele>2342.87</ele>
        <time>2016-06-05T13:27:39Z</time>
      </trkpt>
      <trkpt lat="42.81624" lon="-0.11392">
        <ele>2340.95</ele>
        <time>2016-06-05T13:27:51Z</time>
      </trkpt>
      <trkpt lat="42.81625" lon="-0.11381">
        <ele>2339.99</ele>
        <time>2016-06-05T13:28:04Z</time>
      </trkpt>
      <trkpt lat="42.81625" lon="-0.11377">
        <ele>2339.51</ele>
        <time>2016-06-05T13:28:08Z</time>
      </trkpt>
      <trkpt lat="42.81625" lon="-0.11368">
        <ele>2339.02</ele>
        <time>2016-06-05T13:28:20Z</time>
      </trkpt>
      <trkpt lat="42.81624" lon="-0.11357">
        <ele>2339.02</ele>
        <time>2016-06-05T13:28:33Z</time>
      </trkpt>
      <trkpt lat="42.81624" lon="-0.11355">
        <ele>2339.02</ele>
        <time>2016-06-05T13:28:37Z</time>
      </trkpt>
      <trkpt lat="42.8162" lon="-0.11346">
        <ele>2337.1</ele>
        <time>2016-06-05T13:28:50Z</time>
      </trkpt>
      <trkpt lat="42.81614" lon="-0.11337">
        <ele>2334.7</ele>
        <time>2016-06-05T13:29:04Z</time>
      </trkpt>
      <trkpt lat="42.81611" lon="-0.11332">
        <ele>2333.26</ele>
        <time>2016-06-05T13:29:11Z</time>
      </trkpt>
      <trkpt lat="42.81601" lon="-0.11325">
        <ele>2330.85</ele>
        <time>2016-06-05T13:29:25Z</time>
      </trkpt>
      <trkpt lat="42.81598" lon="-0.11324">
        <ele>2330.37</ele>
        <time>2016-06-05T13:29:30Z</time>
      </trkpt>
      <trkpt lat="42.8159" lon="-0.11322">
        <ele>2329.89</ele>
        <time>2016-06-05T13:29:39Z</time>
      </trkpt>
      <trkpt lat="42.81583" lon="-0.1132">
        <ele>2328.93</ele>
        <time>2016-06-05T13:29:49Z</time>
      </trkpt>
      <trkpt lat="42.81577" lon="-0.11316">
        <ele>2327.49</ele>
        <time>2016-06-05T13:29:59Z</time>
      </trkpt>
      <trkpt lat="42.81572" lon="-0.11314">
        <ele>2326.05</ele>
        <time>2016-06-05T13:30:11Z</time>
      </trkpt>
      <trkpt lat="42.81571" lon="-0.11313">
        <ele>2326.05</ele>
        <time>2016-06-05T13:30:22Z</time>
      </trkpt>
      <trkpt lat="42.81565" lon="-0.11305">
        <ele>2321.72</ele>
        <time>2016-06-05T13:30:33Z</time>
      </trkpt>
      <trkpt lat="42.81561" lon="-0.11308">
        <ele>2321.24</ele>
        <time>2016-06-05T13:30:53Z</time>
      </trkpt>
      <trkpt lat="42.81558" lon="-0.11303">
        <ele>2319.32</ele>
        <time>2016-06-05T13:31:06Z</time>
      </trkpt>
      <trkpt lat="42.81556" lon="-0.11296">
        <ele>2316.91</ele>
        <time>2016-06-05T13:31:18Z</time>
      </trkpt>
      <trkpt lat="42.81556" lon="-0.11292">
        <ele>2315.95</ele>
        <time>2016-06-05T13:31:29Z</time>
      </trkpt>
      <trkpt lat="42.81554" lon="-0.11286">
        <ele>2314.51</ele>
        <time>2016-06-05T13:31:47Z</time>
      </trkpt>
      <trkpt lat="42.81554" lon="-0.11277">
        <ele>2313.07</ele>
        <time>2016-06-05T13:32:01Z</time>
      </trkpt>
      <trkpt lat="42.81555" lon="-0.11274">
        <ele>2312.59</ele>
        <time>2016-06-05T13:32:13Z</time>
      </trkpt>
      <trkpt lat="42.81557" lon="-0.11267">
        <ele>2313.55</ele>
        <time>2016-06-05T13:32:26Z</time>
      </trkpt>
      <trkpt lat="42.81555" lon="-0.11261">
        <ele>2312.11</ele>
        <time>2016-06-05T13:32:37Z</time>
      </trkpt>
      <trkpt lat="42.81554" lon="-0.11256">
        <ele>2310.19</ele>
        <time>2016-06-05T13:32:50Z</time>
      </trkpt>
      <trkpt lat="42.81549" lon="-0.11254">
        <ele>2309.22</ele>
        <time>2016-06-05T13:33:04Z</time>
      </trkpt>
      <trkpt lat="42.81545" lon="-0.11249">
        <ele>2307.78</ele>
        <time>2016-06-05T13:33:18Z</time>
      </trkpt>
      <trkpt lat="42.81545" lon="-0.11242">
        <ele>2306.34</ele>
        <time>2016-06-05T13:33:30Z</time>
      </trkpt>
      <trkpt lat="42.81546" lon="-0.11233">
        <ele>2303.46</ele>
        <time>2016-06-05T13:33:43Z</time>
      </trkpt>
      <trkpt lat="42.81547" lon="-0.11227">
        <ele>2301.05</ele>
        <time>2016-06-05T13:33:56Z</time>
      </trkpt>
      <trkpt lat="42.81547" lon="-0.11223">
        <ele>2299.61</ele>
        <time>2016-06-05T13:34:08Z</time>
      </trkpt>
      <trkpt lat="42.81546" lon="-0.11218">
        <ele>2297.69</ele>
        <time>2016-06-05T13:34:22Z</time>
      </trkpt>
      <trkpt lat="42.81552" lon="-0.11214">
        <ele>2296.73</ele>
        <time>2016-06-05T13:34:33Z</time>
      </trkpt>
      <trkpt lat="42.81558" lon="-0.11211">
        <ele>2296.25</ele>
        <time>2016-06-05T13:34:45Z</time>
      </trkpt>
      <trkpt lat="42.81559" lon="-0.11207">
        <ele>2295.28</ele>
        <time>2016-06-05T13:34:58Z</time>
      </trkpt>
      <trkpt lat="42.81559" lon="-0.11205">
        <ele>2293.84</ele>
        <time>2016-06-05T13:35:17Z</time>
      </trkpt>
      <trkpt lat="42.81562" lon="-0.11204">
        <ele>2291.92</ele>
        <time>2016-06-05T13:35:27Z</time>
      </trkpt>
      <trkpt lat="42.81559" lon="-0.11197">
        <ele>2290.48</ele>
        <time>2016-06-05T13:35:39Z</time>
      </trkpt>
      <trkpt lat="42.81558" lon="-0.11193">
        <ele>2288.56</ele>
        <time>2016-06-05T13:35:52Z</time>
      </trkpt>
      <trkpt lat="42.81562" lon="-0.1119">
        <ele>2286.63</ele>
        <time>2016-06-05T13:36:04Z</time>
      </trkpt>
      <trkpt lat="42.81559" lon="-0.11185">
        <ele>2284.71</ele>
        <time>2016-06-05T13:36:17Z</time>
      </trkpt>
      <trkpt lat="42.8156" lon="-0.11183">
        <ele>2283.27</ele>
        <time>2016-06-05T13:36:27Z</time>
      </trkpt>
      <trkpt lat="42.81558" lon="-0.11179">
        <ele>2281.35</ele>
        <time>2016-06-05T13:36:38Z</time>
      </trkpt>
      <trkpt lat="42.81563" lon="-0.11176">
        <ele>2279.42</ele>
        <time>2016-06-05T13:36:51Z</time>
      </trkpt>
      <trkpt lat="42.81561" lon="-0.1117">
        <ele>2276.54</ele>
        <time>2016-06-05T13:37:04Z</time>
      </trkpt>
      <trkpt lat="42.81563" lon="-0.11167">
        <ele>2274.62</ele>
        <time>2016-06-05T13:37:15Z</time>
      </trkpt>
      <trkpt lat="42.81563" lon="-0.11162">
        <ele>2272.69</ele>
        <time>2016-06-05T13:37:26Z</time>
      </trkpt>
      <trkpt lat="42.81565" lon="-0.11158">
        <ele>2271.25</ele>
        <time>2016-06-05T13:37:37Z</time>
      </trkpt>
      <trkpt lat="42.81568" lon="-0.11155">
        <ele>2269.81</ele>
        <time>2016-06-05T13:37:49Z</time>
      </trkpt>
      <trkpt lat="42.81567" lon="-0.1115">
        <ele>2266.93</ele>
        <time>2016-06-05T13:38:01Z</time>
      </trkpt>
      <trkpt lat="42.81566" lon="-0.11144">
        <ele>2265</ele>
        <time>2016-06-05T13:38:13Z</time>
      </trkpt>
      <trkpt lat="42.81565" lon="-0.1114">
        <ele>2263.08</ele>
        <time>2016-06-05T13:38:24Z</time>
      </trkpt>
      <trkpt lat="42.81569" lon="-0.11139">
        <ele>2261.64</ele>
        <time>2016-06-05T13:38:34Z</time>
      </trkpt>
      <trkpt lat="42.81569" lon="-0.11133">
        <ele>2260.2</ele>
        <time>2016-06-05T13:38:48Z</time>
      </trkpt>
      <trkpt lat="42.81569" lon="-0.11131">
        <ele>2259.72</ele>
        <time>2016-06-05T13:38:50Z</time>
      </trkpt>
      <trkpt lat="42.81566" lon="-0.11125">
        <ele>2259.24</ele>
        <time>2016-06-05T13:39:01Z</time>
      </trkpt>
      <trkpt lat="42.81563" lon="-0.11122">
        <ele>2258.75</ele>
        <time>2016-06-05T13:39:11Z</time>
      </trkpt>
      <trkpt lat="42.8156" lon="-0.11115">
        <ele>2258.27</ele>
        <time>2016-06-05T13:39:22Z</time>
      </trkpt>
      <trkpt lat="42.81559" lon="-0.11114">
        <ele>2258.27</ele>
        <time>2016-06-05T13:39:33Z</time>
      </trkpt>
      <trkpt lat="42.81556" lon="-0.11109">
        <ele>2257.79</ele>
        <time>2016-06-05T13:39:46Z</time>
      </trkpt>
      <trkpt lat="42.8155" lon="-0.11103">
        <ele>2256.35</ele>
        <time>2016-06-05T13:39:58Z</time>
      </trkpt>
      <trkpt lat="42.81548" lon="-0.11102">
        <ele>2256.35</ele>
        <time>2016-06-05T13:40:10Z</time>
      </trkpt>
      <trkpt lat="42.81548" lon="-0.11101">
        <ele>2255.39</ele>
        <time>2016-06-05T13:40:22Z</time>
      </trkpt>
      <trkpt lat="42.81547" lon="-0.111">
        <ele>2255.39</ele>
        <time>2016-06-05T13:40:35Z</time>
      </trkpt>
      <trkpt lat="42.81547" lon="-0.11101">
        <ele>2256.83</ele>
        <time>2016-06-05T13:40:45Z</time>
      </trkpt>
      <trkpt lat="42.81543" lon="-0.11101">
        <ele>2256.83</ele>
        <time>2016-06-05T13:41:02Z</time>
      </trkpt>
      <trkpt lat="42.81543" lon="-0.11098">
        <ele>2255.39</ele>
        <time>2016-06-05T13:41:17Z</time>
      </trkpt>
      <trkpt lat="42.81543" lon="-0.11095">
        <ele>2254.91</ele>
        <time>2016-06-05T13:41:31Z</time>
      </trkpt>
      <trkpt lat="42.8154" lon="-0.11095">
        <ele>2254.43</ele>
        <time>2016-06-05T13:41:41Z</time>
      </trkpt>
      <trkpt lat="42.81538" lon="-0.11093">
        <ele>2253.95</ele>
        <time>2016-06-05T13:41:54Z</time>
      </trkpt>
      <trkpt lat="42.81536" lon="-0.1109">
        <ele>2253.47</ele>
        <time>2016-06-05T13:42:09Z</time>
      </trkpt>
      <trkpt lat="42.81535" lon="-0.11092">
        <ele>2253.47</ele>
        <time>2016-06-05T13:42:25Z</time>
      </trkpt>
      <trkpt lat="42.81535" lon="-0.1109">
        <ele>2252.99</ele>
        <time>2016-06-05T13:42:45Z</time>
      </trkpt>
      <trkpt lat="42.81533" lon="-0.11089">
        <ele>2252.03</ele>
        <time>2016-06-05T13:42:57Z</time>
      </trkpt>
      <trkpt lat="42.81533" lon="-0.11087">
        <ele>2251.06</ele>
        <time>2016-06-05T13:43:10Z</time>
      </trkpt>
      <trkpt lat="42.81533" lon="-0.11085">
        <ele>2249.62</ele>
        <time>2016-06-05T13:43:27Z</time>
      </trkpt>
      <trkpt lat="42.81532" lon="-0.11081">
        <ele>2247.7</ele>
        <time>2016-06-05T13:43:39Z</time>
      </trkpt>
      <trkpt lat="42.81532" lon="-0.11081">
        <ele>2246.74</ele>
        <time>2016-06-05T13:43:43Z</time>
      </trkpt>
      <trkpt lat="42.81529" lon="-0.11076">
        <ele>2244.82</ele>
        <time>2016-06-05T13:43:54Z</time>
      </trkpt>
      <trkpt lat="42.81525" lon="-0.11073">
        <ele>2242.41</ele>
        <time>2016-06-05T13:44:06Z</time>
      </trkpt>
      <trkpt lat="42.81522" lon="-0.11069">
        <ele>2240.97</ele>
        <time>2016-06-05T13:44:18Z</time>
      </trkpt>
      <trkpt lat="42.81518" lon="-0.11066">
        <ele>2240.01</ele>
        <time>2016-06-05T13:44:28Z</time>
      </trkpt>
      <trkpt lat="42.81516" lon="-0.11063">
        <ele>2238.57</ele>
        <time>2016-06-05T13:44:39Z</time>
      </trkpt>
      <trkpt lat="42.81514" lon="-0.11059">
        <ele>2236.64</ele>
        <time>2016-06-05T13:44:52Z</time>
      </trkpt>
      <trkpt lat="42.81514" lon="-0.11058">
        <ele>2235.68</ele>
        <time>2016-06-05T13:44:56Z</time>
      </trkpt>
      <trkpt lat="42.81514" lon="-0.11055">
        <ele>2234.24</ele>
        <time>2016-06-05T13:45:07Z</time>
      </trkpt>
      <trkpt lat="42.81513" lon="-0.11053">
        <ele>2232.8</ele>
        <time>2016-06-05T13:45:18Z</time>
      </trkpt>
      <trkpt lat="42.81508" lon="-0.11051">
        <ele>2231.84</ele>
        <time>2016-06-05T13:45:30Z</time>
      </trkpt>
      <trkpt lat="42.81506" lon="-0.11047">
        <ele>2229.92</ele>
        <time>2016-06-05T13:45:43Z</time>
      </trkpt>
      <trkpt lat="42.81502" lon="-0.11046">
        <ele>2228.95</ele>
        <time>2016-06-05T13:45:54Z</time>
      </trkpt>
      <trkpt lat="42.81498" lon="-0.11044">
        <ele>2227.99</ele>
        <time>2016-06-05T13:46:09Z</time>
      </trkpt>
      <trkpt lat="42.81496" lon="-0.11043">
        <ele>2226.55</ele>
        <time>2016-06-05T13:46:22Z</time>
      </trkpt>
      <trkpt lat="42.81498" lon="-0.11042">
        <ele>2225.11</ele>
        <time>2016-06-05T13:46:35Z</time>
      </trkpt>
      <trkpt lat="42.81501" lon="-0.11038">
        <ele>2223.67</ele>
        <time>2016-06-05T13:46:46Z</time>
      </trkpt>
      <trkpt lat="42.81502" lon="-0.11038">
        <ele>2222.71</ele>
        <time>2016-06-05T13:46:57Z</time>
      </trkpt>
      <trkpt lat="42.81504" lon="-0.11035">
        <ele>2222.22</ele>
        <time>2016-06-05T13:47:18Z</time>
      </trkpt>
      <trkpt lat="42.81502" lon="-0.11034">
        <ele>2220.78</ele>
        <time>2016-06-05T13:47:30Z</time>
      </trkpt>
      <trkpt lat="42.81502" lon="-0.11033">
        <ele>2220.3</ele>
        <time>2016-06-05T13:47:32Z</time>
      </trkpt>
      <trkpt lat="42.81501" lon="-0.11029">
        <ele>2218.86</ele>
        <time>2016-06-05T13:47:43Z</time>
      </trkpt>
      <trkpt lat="42.81503" lon="-0.11025">
        <ele>2217.42</ele>
        <time>2016-06-05T13:47:56Z</time>
      </trkpt>
      <trkpt lat="42.81501" lon="-0.11027">
        <ele>2216.94</ele>
        <time>2016-06-05T13:48:16Z</time>
      </trkpt>
      <trkpt lat="42.81499" lon="-0.11021">
        <ele>2216.46</ele>
        <time>2016-06-05T13:48:30Z</time>
      </trkpt>
      <trkpt lat="42.81498" lon="-0.1102">
        <ele>2217.42</ele>
        <time>2016-06-05T13:48:36Z</time>
      </trkpt>
      <trkpt lat="42.81495" lon="-0.11021">
        <ele>2217.9</ele>
        <time>2016-06-05T13:48:51Z</time>
      </trkpt>
      <trkpt lat="42.81494" lon="-0.11017">
        <ele>2217.9</ele>
        <time>2016-06-05T13:49:07Z</time>
      </trkpt>
      <trkpt lat="42.81492" lon="-0.11016">
        <ele>2218.38</ele>
        <time>2016-06-05T13:49:17Z</time>
      </trkpt>
      <trkpt lat="42.81491" lon="-0.11013">
        <ele>2218.86</ele>
        <time>2016-06-05T13:49:31Z</time>
      </trkpt>
      <trkpt lat="42.81489" lon="-0.1101">
        <ele>2219.34</ele>
        <time>2016-06-05T13:49:49Z</time>
      </trkpt>
      <trkpt lat="42.8149" lon="-0.11009">
        <ele>2219.34</ele>
        <time>2016-06-05T13:50:01Z</time>
      </trkpt>
      <trkpt lat="42.81491" lon="-0.11006">
        <ele>2218.38</ele>
        <time>2016-06-05T13:50:05Z</time>
      </trkpt>
      <trkpt lat="42.81489" lon="-0.11003">
        <ele>2216.46</ele>
        <time>2016-06-05T13:50:20Z</time>
      </trkpt>
      <trkpt lat="42.8149" lon="-0.11">
        <ele>2215.01</ele>
        <time>2016-06-05T13:50:32Z</time>
      </trkpt>
      <trkpt lat="42.8149" lon="-0.10995">
        <ele>2213.57</ele>
        <time>2016-06-05T13:50:46Z</time>
      </trkpt>
      <trkpt lat="42.8149" lon="-0.10993">
        <ele>2211.65</ele>
        <time>2016-06-05T13:50:58Z</time>
      </trkpt>
      <trkpt lat="42.81489" lon="-0.10991">
        <ele>2210.21</ele>
        <time>2016-06-05T13:51:09Z</time>
      </trkpt>
      <trkpt lat="42.8149" lon="-0.10985">
        <ele>2208.77</ele>
        <time>2016-06-05T13:51:20Z</time>
      </trkpt>
      <trkpt lat="42.8149" lon="-0.10983">
        <ele>2208.29</ele>
        <time>2016-06-05T13:51:30Z</time>
      </trkpt>
      <trkpt lat="42.81489" lon="-0.10979">
        <ele>2206.84</ele>
        <time>2016-06-05T13:51:38Z</time>
      </trkpt>
      <trkpt lat="42.81489" lon="-0.10973">
        <ele>2204.44</ele>
        <time>2016-06-05T13:51:50Z</time>
      </trkpt>
      <trkpt lat="42.8149" lon="-0.1097">
        <ele>2202.52</ele>
        <time>2016-06-05T13:52:03Z</time>
      </trkpt>
      <trkpt lat="42.81488" lon="-0.10968">
        <ele>2201.56</ele>
        <time>2016-06-05T13:52:14Z</time>
      </trkpt>
      <trkpt lat="42.81486" lon="-0.1097">
        <ele>2201.56</ele>
        <time>2016-06-05T13:52:28Z</time>
      </trkpt>
      <trkpt lat="42.81482" lon="-0.10969">
        <ele>2201.08</ele>
        <time>2016-06-05T13:52:43Z</time>
      </trkpt>
      <trkpt lat="42.81481" lon="-0.10968">
        <ele>2201.08</ele>
        <time>2016-06-05T13:52:57Z</time>
      </trkpt>
      <trkpt lat="42.81478" lon="-0.10968">
        <ele>2201.08</ele>
        <time>2016-06-05T13:53:06Z</time>
      </trkpt>
      <trkpt lat="42.81478" lon="-0.10967">
        <ele>2202.52</ele>
        <time>2016-06-05T13:53:14Z</time>
      </trkpt>
      <trkpt lat="42.81476" lon="-0.10966">
        <ele>2203</ele>
        <time>2016-06-05T13:53:26Z</time>
      </trkpt>
      <trkpt lat="42.81473" lon="-0.10966">
        <ele>2203</ele>
        <time>2016-06-05T13:53:41Z</time>
      </trkpt>
      <trkpt lat="42.81473" lon="-0.10962">
        <ele>2203</ele>
        <time>2016-06-05T13:53:53Z</time>
      </trkpt>
      <trkpt lat="42.81474" lon="-0.10962">
        <ele>2201.56</ele>
        <time>2016-06-05T13:53:55Z</time>
      </trkpt>
      <trkpt lat="42.81472" lon="-0.10956">
        <ele>2200.59</ele>
        <time>2016-06-05T13:54:11Z</time>
      </trkpt>
      <trkpt lat="42.81472" lon="-0.10955">
        <ele>2200.11</ele>
        <time>2016-06-05T13:54:29Z</time>
      </trkpt>
      <trkpt lat="42.81472" lon="-0.10956">
        <ele>2199.63</ele>
        <time>2016-06-05T13:54:39Z</time>
      </trkpt>
      <trkpt lat="42.8147" lon="-0.1095">
        <ele>2197.71</ele>
        <time>2016-06-05T13:54:52Z</time>
      </trkpt>
      <trkpt lat="42.8147" lon="-0.10948">
        <ele>2196.75</ele>
        <time>2016-06-05T13:55:06Z</time>
      </trkpt>
      <trkpt lat="42.81473" lon="-0.10946">
        <ele>2194.83</ele>
        <time>2016-06-05T13:55:17Z</time>
      </trkpt>
      <trkpt lat="42.81473" lon="-0.10943">
        <ele>2192.9</ele>
        <time>2016-06-05T13:55:29Z</time>
      </trkpt>
      <trkpt lat="42.81472" lon="-0.10943">
        <ele>2191.94</ele>
        <time>2016-06-05T13:55:40Z</time>
      </trkpt>
      <trkpt lat="42.81473" lon="-0.1094">
        <ele>2190.5</ele>
        <time>2016-06-05T13:55:52Z</time>
      </trkpt>
      <trkpt lat="42.81474" lon="-0.1094">
        <ele>2189.06</ele>
        <time>2016-06-05T13:56:04Z</time>
      </trkpt>
      <trkpt lat="42.81474" lon="-0.10934">
        <ele>2187.14</ele>
        <time>2016-06-05T13:56:14Z</time>
      </trkpt>
      <trkpt lat="42.81474" lon="-0.10931">
        <ele>2185.69</ele>
        <time>2016-06-05T13:56:28Z</time>
      </trkpt>
      <trkpt lat="42.81475" lon="-0.10929">
        <ele>2184.73</ele>
        <time>2016-06-05T13:56:41Z</time>
      </trkpt>
      <trkpt lat="42.81478" lon="-0.10928">
        <ele>2183.77</ele>
        <time>2016-06-05T13:56:53Z</time>
      </trkpt>
      <trkpt lat="42.8148" lon="-0.10924">
        <ele>2181.37</ele>
        <time>2016-06-05T13:57:04Z</time>
      </trkpt>
      <trkpt lat="42.81484" lon="-0.10919">
        <ele>2178.48</ele>
        <time>2016-06-05T13:57:16Z</time>
      </trkpt>
      <trkpt lat="42.81483" lon="-0.10911">
        <ele>2176.56</ele>
        <time>2016-06-05T13:57:27Z</time>
      </trkpt>
      <trkpt lat="42.81483" lon="-0.10904">
        <ele>2174.16</ele>
        <time>2016-06-05T13:57:39Z</time>
      </trkpt>
      <trkpt lat="42.81483" lon="-0.10902">
        <ele>2173.68</ele>
        <time>2016-06-05T13:57:40Z</time>
      </trkpt>
      <trkpt lat="42.81477" lon="-0.10902">
        <ele>2172.72</ele>
        <time>2016-06-05T13:57:51Z</time>
      </trkpt>
      <trkpt lat="42.81475" lon="-0.10902">
        <ele>2172.24</ele>
        <time>2016-06-05T13:58:00Z</time>
      </trkpt>
      <trkpt lat="42.81475" lon="-0.10896">
        <ele>2170.79</ele>
        <time>2016-06-05T13:58:12Z</time>
      </trkpt>
      <trkpt lat="42.81472" lon="-0.10895">
        <ele>2168.87</ele>
        <time>2016-06-05T13:58:22Z</time>
      </trkpt>
      <trkpt lat="42.81469" lon="-0.10897">
        <ele>2168.87</ele>
        <time>2016-06-05T13:58:33Z</time>
      </trkpt>
      <trkpt lat="42.81468" lon="-0.10895">
        <ele>2168.39</ele>
        <time>2016-06-05T13:58:44Z</time>
      </trkpt>
      <trkpt lat="42.81467" lon="-0.10892">
        <ele>2166.95</ele>
        <time>2016-06-05T13:58:57Z</time>
      </trkpt>
      <trkpt lat="42.81463" lon="-0.10888">
        <ele>2166.47</ele>
        <time>2016-06-05T13:59:06Z</time>
      </trkpt>
      <trkpt lat="42.8146" lon="-0.10881">
        <ele>2165.51</ele>
        <time>2016-06-05T13:59:18Z</time>
      </trkpt>
      <trkpt lat="42.81458" lon="-0.10879">
        <ele>2164.06</ele>
        <time>2016-06-05T13:59:30Z</time>
      </trkpt>
      <trkpt lat="42.81456" lon="-0.10874">
        <ele>2162.62</ele>
        <time>2016-06-05T13:59:40Z</time>
      </trkpt>
      <trkpt lat="42.81455" lon="-0.10873">
        <ele>2161.66</ele>
        <time>2016-06-05T13:59:47Z</time>
      </trkpt>
      <trkpt lat="42.81455" lon="-0.10866">
        <ele>2159.74</ele>
        <time>2016-06-05T14:00:00Z</time>
      </trkpt>
      <trkpt lat="42.81454" lon="-0.10861">
        <ele>2158.78</ele>
        <time>2016-06-05T14:00:13Z</time>
      </trkpt>
      <trkpt lat="42.81455" lon="-0.10858">
        <ele>2158.3</ele>
        <time>2016-06-05T14:00:29Z</time>
      </trkpt>
      <trkpt lat="42.81458" lon="-0.10854">
        <ele>2156.37</ele>
        <time>2016-06-05T14:00:42Z</time>
      </trkpt>
      <trkpt lat="42.81458" lon="-0.10851">
        <ele>2154.45</ele>
        <time>2016-06-05T14:00:54Z</time>
      </trkpt>
      <trkpt lat="42.81463" lon="-0.1085">
        <ele>2153.97</ele>
        <time>2016-06-05T14:01:05Z</time>
      </trkpt>
      <trkpt lat="42.81465" lon="-0.10846">
        <ele>2152.53</ele>
        <time>2016-06-05T14:01:17Z</time>
      </trkpt>
      <trkpt lat="42.81466" lon="-0.1084">
        <ele>2150.61</ele>
        <time>2016-06-05T14:01:30Z</time>
      </trkpt>
      <trkpt lat="42.81469" lon="-0.10837">
        <ele>2148.68</ele>
        <time>2016-06-05T14:01:42Z</time>
      </trkpt>
      <trkpt lat="42.81474" lon="-0.10834">
        <ele>2146.76</ele>
        <time>2016-06-05T14:01:55Z</time>
      </trkpt>
      <trkpt lat="42.81475" lon="-0.1083">
        <ele>2145.32</ele>
        <time>2016-06-05T14:02:06Z</time>
      </trkpt>
      <trkpt lat="42.81477" lon="-0.1083">
        <ele>2145.8</ele>
        <time>2016-06-05T14:02:25Z</time>
      </trkpt>
      <trkpt lat="42.81477" lon="-0.10829">
        <ele>2144.36</ele>
        <time>2016-06-05T14:02:27Z</time>
      </trkpt>
      <trkpt lat="42.81481" lon="-0.10825">
        <ele>2142.44</ele>
        <time>2016-06-05T14:02:40Z</time>
      </trkpt>
      <trkpt lat="42.81479" lon="-0.1082">
        <ele>2140.51</ele>
        <time>2016-06-05T14:02:51Z</time>
      </trkpt>
      <trkpt lat="42.81477" lon="-0.10815">
        <ele>2139.07</ele>
        <time>2016-06-05T14:03:03Z</time>
      </trkpt>
      <trkpt lat="42.81476" lon="-0.10814">
        <ele>2138.11</ele>
        <time>2016-06-05T14:03:16Z</time>
      </trkpt>
      <trkpt lat="42.81484" lon="-0.10814">
        <ele>2136.67</ele>
        <time>2016-06-05T14:03:27Z</time>
      </trkpt>
      <trkpt lat="42.81485" lon="-0.10812">
        <ele>2135.23</ele>
        <time>2016-06-05T14:03:40Z</time>
      </trkpt>
      <trkpt lat="42.81482" lon="-0.1081">
        <ele>2134.26</ele>
        <time>2016-06-05T14:03:51Z</time>
      </trkpt>
      <trkpt lat="42.81483" lon="-0.10809">
        <ele>2132.34</ele>
        <time>2016-06-05T14:04:04Z</time>
      </trkpt>
      <trkpt lat="42.8148" lon="-0.10804">
        <ele>2129.94</ele>
        <time>2016-06-05T14:04:18Z</time>
      </trkpt>
      <trkpt lat="42.81478" lon="-0.108">
        <ele>2128.5</ele>
        <time>2016-06-05T14:04:31Z</time>
      </trkpt>
      <trkpt lat="42.81474" lon="-0.10795">
        <ele>2126.09</ele>
        <time>2016-06-05T14:04:43Z</time>
      </trkpt>
      <trkpt lat="42.81475" lon="-0.10789">
        <ele>2124.17</ele>
        <time>2016-06-05T14:04:58Z</time>
      </trkpt>
      <trkpt lat="42.81473" lon="-0.10785">
        <ele>2123.21</ele>
        <time>2016-06-05T14:05:08Z</time>
      </trkpt>
      <trkpt lat="42.81469" lon="-0.1078">
        <ele>2121.77</ele>
        <time>2016-06-05T14:05:15Z</time>
      </trkpt>
      <trkpt lat="42.81467" lon="-0.10773">
        <ele>2121.29</ele>
        <time>2016-06-05T14:05:27Z</time>
      </trkpt>
      <trkpt lat="42.81463" lon="-0.10763">
        <ele>2120.32</ele>
        <time>2016-06-05T14:05:41Z</time>
      </trkpt>
      <trkpt lat="42.81462" lon="-0.10759">
        <ele>2118.88</ele>
        <time>2016-06-05T14:05:52Z</time>
      </trkpt>
      <trkpt lat="42.81456" lon="-0.10759">
        <ele>2117.44</ele>
        <time>2016-06-05T14:06:04Z</time>
      </trkpt>
      <trkpt lat="42.81453" lon="-0.10757">
        <ele>2116.48</ele>
        <time>2016-06-05T14:06:12Z</time>
      </trkpt>
      <trkpt lat="42.81446" lon="-0.10753">
        <ele>2115.04</ele>
        <time>2016-06-05T14:06:25Z</time>
      </trkpt>
      <trkpt lat="42.81445" lon="-0.10749">
        <ele>2114.08</ele>
        <time>2016-06-05T14:06:38Z</time>
      </trkpt>
      <trkpt lat="42.81441" lon="-0.10746">
        <ele>2113.12</ele>
        <time>2016-06-05T14:06:53Z</time>
      </trkpt>
      <trkpt lat="42.81437" lon="-0.1074">
        <ele>2110.71</ele>
        <time>2016-06-05T14:07:05Z</time>
      </trkpt>
      <trkpt lat="42.81434" lon="-0.10736">
        <ele>2108.79</ele>
        <time>2016-06-05T14:07:16Z</time>
      </trkpt>
      <trkpt lat="42.81431" lon="-0.10726">
        <ele>2106.39</ele>
        <time>2016-06-05T14:07:30Z</time>
      </trkpt>
      <trkpt lat="42.81429" lon="-0.10718">
        <ele>2104.46</ele>
        <time>2016-06-05T14:07:45Z</time>
      </trkpt>
      <trkpt lat="42.81427" lon="-0.10712">
        <ele>2103.02</ele>
        <time>2016-06-05T14:07:56Z</time>
      </trkpt>
      <trkpt lat="42.81423" lon="-0.10709">
        <ele>2102.06</ele>
        <time>2016-06-05T14:08:07Z</time>
      </trkpt>
      <trkpt lat="42.81424" lon="-0.10708">
        <ele>2100.62</ele>
        <time>2016-06-05T14:08:16Z</time>
      </trkpt>
      <trkpt lat="42.81422" lon="-0.10707">
        <ele>2100.14</ele>
        <time>2016-06-05T14:08:32Z</time>
      </trkpt>
      <trkpt lat="42.81422" lon="-0.10705">
        <ele>2098.21</ele>
        <time>2016-06-05T14:08:42Z</time>
      </trkpt>
      <trkpt lat="42.81421" lon="-0.10699">
        <ele>2096.77</ele>
        <time>2016-06-05T14:08:52Z</time>
      </trkpt>
      <trkpt lat="42.81419" lon="-0.10693">
        <ele>2094.37</ele>
        <time>2016-06-05T14:09:06Z</time>
      </trkpt>
      <trkpt lat="42.81415" lon="-0.10688">
        <ele>2092.45</ele>
        <time>2016-06-05T14:09:18Z</time>
      </trkpt>
      <trkpt lat="42.81411" lon="-0.10684">
        <ele>2091</ele>
        <time>2016-06-05T14:09:31Z</time>
      </trkpt>
      <trkpt lat="42.8141" lon="-0.10678">
        <ele>2088.6</ele>
        <time>2016-06-05T14:09:46Z</time>
      </trkpt>
      <trkpt lat="42.81404" lon="-0.10675">
        <ele>2087.16</ele>
        <time>2016-06-05T14:09:58Z</time>
      </trkpt>
      <trkpt lat="42.81396" lon="-0.10672">
        <ele>2085.72</ele>
        <time>2016-06-05T14:10:11Z</time>
      </trkpt>
      <trkpt lat="42.81394" lon="-0.1067">
        <ele>2084.76</ele>
        <time>2016-06-05T14:10:24Z</time>
      </trkpt>
      <trkpt lat="42.81384" lon="-0.10665">
        <ele>2082.35</ele>
        <time>2016-06-05T14:10:41Z</time>
      </trkpt>
      <trkpt lat="42.81381" lon="-0.10663">
        <ele>2081.87</ele>
        <time>2016-06-05T14:10:56Z</time>
      </trkpt>
      <trkpt lat="42.81378" lon="-0.10664">
        <ele>2081.87</ele>
        <time>2016-06-05T14:11:09Z</time>
      </trkpt>
      <trkpt lat="42.8138" lon="-0.10662">
        <ele>2080.91</ele>
        <time>2016-06-05T14:11:24Z</time>
      </trkpt>
      <trkpt lat="42.81382" lon="-0.1066">
        <ele>2080.43</ele>
        <time>2016-06-05T14:11:42Z</time>
      </trkpt>
      <trkpt lat="42.8138" lon="-0.10659">
        <ele>2079.95</ele>
        <time>2016-06-05T14:11:58Z</time>
      </trkpt>
      <trkpt lat="42.81379" lon="-0.10656">
        <ele>2079.95</ele>
        <time>2016-06-05T14:12:12Z</time>
      </trkpt>
      <trkpt lat="42.81376" lon="-0.10652">
        <ele>2079.95</ele>
        <time>2016-06-05T14:12:27Z</time>
      </trkpt>
      <trkpt lat="42.81371" lon="-0.10644">
        <ele>2079.47</ele>
        <time>2016-06-05T14:12:38Z</time>
      </trkpt>
      <trkpt lat="42.81371" lon="-0.10639">
        <ele>2077.55</ele>
        <time>2016-06-05T14:12:50Z</time>
      </trkpt>
      <trkpt lat="42.81368" lon="-0.10633">
        <ele>2076.59</ele>
        <time>2016-06-05T14:13:01Z</time>
      </trkpt>
      <trkpt lat="42.81367" lon="-0.10629">
        <ele>2075.62</ele>
        <time>2016-06-05T14:13:13Z</time>
      </trkpt>
      <trkpt lat="42.81368" lon="-0.10628">
        <ele>2074.66</ele>
        <time>2016-06-05T14:13:25Z</time>
      </trkpt>
      <trkpt lat="42.81364" lon="-0.10624">
        <ele>2072.74</ele>
        <time>2016-06-05T14:13:40Z</time>
      </trkpt>
      <trkpt lat="42.81359" lon="-0.1062">
        <ele>2071.78</ele>
        <time>2016-06-05T14:13:53Z</time>
      </trkpt>
      <trkpt lat="42.81356" lon="-0.10615">
        <ele>2071.78</ele>
        <time>2016-06-05T14:14:08Z</time>
      </trkpt>
      <trkpt lat="42.81354" lon="-0.1061">
        <ele>2071.3</ele>
        <time>2016-06-05T14:14:21Z</time>
      </trkpt>
      <trkpt lat="42.81353" lon="-0.10605">
        <ele>2070.82</ele>
        <time>2016-06-05T14:14:33Z</time>
      </trkpt>
      <trkpt lat="42.81348" lon="-0.10598">
        <ele>2070.34</ele>
        <time>2016-06-05T14:14:47Z</time>
      </trkpt>
      <trkpt lat="42.81345" lon="-0.10595">
        <ele>2070.34</ele>
        <time>2016-06-05T14:14:58Z</time>
      </trkpt>
      <trkpt lat="42.81342" lon="-0.10593">
        <ele>2068.89</ele>
        <time>2016-06-05T14:15:10Z</time>
      </trkpt>
      <trkpt lat="42.81341" lon="-0.10589">
        <ele>2067.45</ele>
        <time>2016-06-05T14:15:21Z</time>
      </trkpt>
      <trkpt lat="42.81338" lon="-0.10583">
        <ele>2065.53</ele>
        <time>2016-06-05T14:15:34Z</time>
      </trkpt>
      <trkpt lat="42.81337" lon="-0.10581">
        <ele>2065.05</ele>
        <time>2016-06-05T14:15:45Z</time>
      </trkpt>
      <trkpt lat="42.81335" lon="-0.10576">
        <ele>2063.61</ele>
        <time>2016-06-05T14:15:57Z</time>
      </trkpt>
      <trkpt lat="42.81335" lon="-0.10575">
        <ele>2063.13</ele>
        <time>2016-06-05T14:15:59Z</time>
      </trkpt>
      <trkpt lat="42.81331" lon="-0.10565">
        <ele>2062.17</ele>
        <time>2016-06-05T14:16:13Z</time>
      </trkpt>
      <trkpt lat="42.81329" lon="-0.10556">
        <ele>2059.76</ele>
        <time>2016-06-05T14:16:27Z</time>
      </trkpt>
      <trkpt lat="42.81325" lon="-0.1055">
        <ele>2058.8</ele>
        <time>2016-06-05T14:16:39Z</time>
      </trkpt>
      <trkpt lat="42.81325" lon="-0.1055">
        <ele>2058.32</ele>
        <time>2016-06-05T14:17:00Z</time>
      </trkpt>
      <trkpt lat="42.81327" lon="-0.10552">
        <ele>2057.84</ele>
        <time>2016-06-05T14:17:33Z</time>
      </trkpt>
      <trkpt lat="42.81325" lon="-0.10551">
        <ele>2057.84</ele>
        <time>2016-06-05T14:17:54Z</time>
      </trkpt>
      <trkpt lat="42.81322" lon="-0.10546">
        <ele>2057.84</ele>
        <time>2016-06-05T14:18:13Z</time>
      </trkpt>
      <trkpt lat="42.81318" lon="-0.10541">
        <ele>2056.88</ele>
        <time>2016-06-05T14:18:26Z</time>
      </trkpt>
      <trkpt lat="42.81316" lon="-0.10538">
        <ele>2055.92</ele>
        <time>2016-06-05T14:18:37Z</time>
      </trkpt>
      <trkpt lat="42.81317" lon="-0.10537">
        <ele>2055.44</ele>
        <time>2016-06-05T14:18:54Z</time>
      </trkpt>
      <trkpt lat="42.81314" lon="-0.10533">
        <ele>2053.99</ele>
        <time>2016-06-05T14:19:08Z</time>
      </trkpt>
      <trkpt lat="42.81314" lon="-0.10529">
        <ele>2052.55</ele>
        <time>2016-06-05T14:19:24Z</time>
      </trkpt>
      <trkpt lat="42.81314" lon="-0.10528">
        <ele>2052.07</ele>
        <time>2016-06-05T14:19:41Z</time>
      </trkpt>
      <trkpt lat="42.81313" lon="-0.10526">
        <ele>2051.11</ele>
        <time>2016-06-05T14:20:07Z</time>
      </trkpt>
      <trkpt lat="42.81313" lon="-0.10524">
        <ele>2050.63</ele>
        <time>2016-06-05T14:20:21Z</time>
      </trkpt>
      <trkpt lat="42.8131" lon="-0.1052">
        <ele>2049.19</ele>
        <time>2016-06-05T14:20:35Z</time>
      </trkpt>
      <trkpt lat="42.81306" lon="-0.10519">
        <ele>2047.75</ele>
        <time>2016-06-05T14:20:46Z</time>
      </trkpt>
      <trkpt lat="42.81306" lon="-0.10516">
        <ele>2047.26</ele>
        <time>2016-06-05T14:21:00Z</time>
      </trkpt>
      <trkpt lat="42.81303" lon="-0.10513">
        <ele>2046.78</ele>
        <time>2016-06-05T14:21:15Z</time>
      </trkpt>
      <trkpt lat="42.81302" lon="-0.10511">
        <ele>2046.3</ele>
        <time>2016-06-05T14:21:29Z</time>
      </trkpt>
      <trkpt lat="42.81301" lon="-0.10508">
        <ele>2046.3</ele>
        <time>2016-06-05T14:21:42Z</time>
      </trkpt>
      <trkpt lat="42.81301" lon="-0.10505">
        <ele>2045.34</ele>
        <time>2016-06-05T14:21:58Z</time>
      </trkpt>
      <trkpt lat="42.81302" lon="-0.10505">
        <ele>2044.86</ele>
        <time>2016-06-05T14:22:00Z</time>
      </trkpt>
      <trkpt lat="42.813" lon="-0.10503">
        <ele>2044.38</ele>
        <time>2016-06-05T14:22:11Z</time>
      </trkpt>
      <trkpt lat="42.81296" lon="-0.105">
        <ele>2044.38</ele>
        <time>2016-06-05T14:22:21Z</time>
      </trkpt>
      <trkpt lat="42.81295" lon="-0.10499">
        <ele>2044.38</ele>
        <time>2016-06-05T14:22:34Z</time>
      </trkpt>
      <trkpt lat="42.81294" lon="-0.10495">
        <ele>2044.38</ele>
        <time>2016-06-05T14:22:38Z</time>
      </trkpt>
      <trkpt lat="42.8129" lon="-0.1049">
        <ele>2044.38</ele>
        <time>2016-06-05T14:22:49Z</time>
      </trkpt>
      <trkpt lat="42.8129" lon="-0.10489">
        <ele>2044.38</ele>
        <time>2016-06-05T14:22:54Z</time>
      </trkpt>
      <trkpt lat="42.81288" lon="-0.10486">
        <ele>2045.82</ele>
        <time>2016-06-05T14:22:58Z</time>
      </trkpt>
      <trkpt lat="42.81285" lon="-0.10482">
        <ele>2046.78</ele>
        <time>2016-06-05T14:23:10Z</time>
      </trkpt>
      <trkpt lat="42.81283" lon="-0.10482">
        <ele>2047.75</ele>
        <time>2016-06-05T14:23:18Z</time>
      </trkpt>
      <trkpt lat="42.81282" lon="-0.10477">
        <ele>2048.71</ele>
        <time>2016-06-05T14:23:28Z</time>
      </trkpt>
      <trkpt lat="42.81277" lon="-0.10475">
        <ele>2048.71</ele>
        <time>2016-06-05T14:23:45Z</time>
      </trkpt>
      <trkpt lat="42.81272" lon="-0.10474">
        <ele>2048.71</ele>
        <time>2016-06-05T14:23:59Z</time>
      </trkpt>
      <trkpt lat="42.81271" lon="-0.10468">
        <ele>2046.3</ele>
        <time>2016-06-05T14:24:12Z</time>
      </trkpt>
      <trkpt lat="42.81271" lon="-0.10468">
        <ele>2046.3</ele>
        <time>2016-06-05T14:24:23Z</time>
      </trkpt>
      <trkpt lat="42.8127" lon="-0.10467">
        <ele>2045.34</ele>
        <time>2016-06-05T14:24:42Z</time>
      </trkpt>
      <trkpt lat="42.81268" lon="-0.10468">
        <ele>2044.86</ele>
        <time>2016-06-05T14:24:55Z</time>
      </trkpt>
      <trkpt lat="42.81266" lon="-0.10467">
        <ele>2044.86</ele>
        <time>2016-06-05T14:24:58Z</time>
      </trkpt>
      <trkpt lat="42.81261" lon="-0.10464">
        <ele>2044.86</ele>
        <time>2016-06-05T14:25:11Z</time>
      </trkpt>
      <trkpt lat="42.81258" lon="-0.10463">
        <ele>2044.86</ele>
        <time>2016-06-05T14:25:20Z</time>
      </trkpt>
      <trkpt lat="42.8125" lon="-0.10461">
        <ele>2046.3</ele>
        <time>2016-06-05T14:25:34Z</time>
      </trkpt>
      <trkpt lat="42.81249" lon="-0.10467">
        <ele>2046.3</ele>
        <time>2016-06-05T14:25:55Z</time>
      </trkpt>
      <trkpt lat="42.81246" lon="-0.10464">
        <ele>2044.86</ele>
        <time>2016-06-05T14:26:07Z</time>
      </trkpt>
      <trkpt lat="42.8125" lon="-0.10467">
        <ele>2044.86</ele>
        <time>2016-06-05T14:26:22Z</time>
      </trkpt>
      <trkpt lat="42.81248" lon="-0.10468">
        <ele>2044.86</ele>
        <time>2016-06-05T14:26:30Z</time>
      </trkpt>
      <trkpt lat="42.81244" lon="-0.10466">
        <ele>2044.86</ele>
        <time>2016-06-05T14:26:40Z</time>
      </trkpt>
      <trkpt lat="42.81243" lon="-0.10466">
        <ele>2044.86</ele>
        <time>2016-06-05T14:27:00Z</time>
      </trkpt>
      <trkpt lat="42.81241" lon="-0.10466">
        <ele>2044.86</ele>
        <time>2016-06-05T14:27:03Z</time>
      </trkpt>
      <trkpt lat="42.81235" lon="-0.10463">
        <ele>2044.86</ele>
        <time>2016-06-05T14:27:16Z</time>
      </trkpt>
      <trkpt lat="42.81229" lon="-0.10457">
        <ele>2044.38</ele>
        <time>2016-06-05T14:27:29Z</time>
      </trkpt>
      <trkpt lat="42.81228" lon="-0.10454">
        <ele>2043.9</ele>
        <time>2016-06-05T14:27:40Z</time>
      </trkpt>
      <trkpt lat="42.81226" lon="-0.10452">
        <ele>2043.42</ele>
        <time>2016-06-05T14:27:47Z</time>
      </trkpt>
      <trkpt lat="42.81225" lon="-0.10447">
        <ele>2043.9</ele>
        <time>2016-06-05T14:28:00Z</time>
      </trkpt>
      <trkpt lat="42.81221" lon="-0.10444">
        <ele>2043.42</ele>
        <time>2016-06-05T14:28:16Z</time>
      </trkpt>
      <trkpt lat="42.8122" lon="-0.1044">
        <ele>2041.98</ele>
        <time>2016-06-05T14:28:30Z</time>
      </trkpt>
      <trkpt lat="42.81219" lon="-0.10438">
        <ele>2040.54</ele>
        <time>2016-06-05T14:28:42Z</time>
      </trkpt>
      <trkpt lat="42.81217" lon="-0.10437">
        <ele>2040.54</ele>
        <time>2016-06-05T14:29:09Z</time>
      </trkpt>
      <trkpt lat="42.81219" lon="-0.10432">
        <ele>2037.65</ele>
        <time>2016-06-05T14:29:22Z</time>
      </trkpt>
      <trkpt lat="42.81221" lon="-0.10429">
        <ele>2036.21</ele>
        <time>2016-06-05T14:29:36Z</time>
      </trkpt>
      <trkpt lat="42.81221" lon="-0.10428">
        <ele>2036.21</ele>
        <time>2016-06-05T14:29:43Z</time>
      </trkpt>
      <trkpt lat="42.81218" lon="-0.1043">
        <ele>2037.65</ele>
        <time>2016-06-05T14:29:48Z</time>
      </trkpt>
      <trkpt lat="42.81216" lon="-0.10426">
        <ele>2036.21</ele>
        <time>2016-06-05T14:29:55Z</time>
      </trkpt>
      <trkpt lat="42.81214" lon="-0.1042">
        <ele>2033.81</ele>
        <time>2016-06-05T14:30:06Z</time>
      </trkpt>
      <trkpt lat="42.81213" lon="-0.10419">
        <ele>2033.81</ele>
        <time>2016-06-05T14:30:07Z</time>
      </trkpt>
      <trkpt lat="42.81209" lon="-0.10413">
        <ele>2032.36</ele>
        <time>2016-06-05T14:30:20Z</time>
      </trkpt>
      <trkpt lat="42.81205" lon="-0.10411">
        <ele>2031.4</ele>
        <time>2016-06-05T14:30:29Z</time>
      </trkpt>
      <trkpt lat="42.81203" lon="-0.1041">
        <ele>2030.92</ele>
        <time>2016-06-05T14:30:40Z</time>
      </trkpt>
      <trkpt lat="42.81203" lon="-0.10407">
        <ele>2030.92</ele>
        <time>2016-06-05T14:30:58Z</time>
      </trkpt>
      <trkpt lat="42.81201" lon="-0.10409">
        <ele>2030.92</ele>
        <time>2016-06-05T14:31:22Z</time>
      </trkpt>
      <trkpt lat="42.81202" lon="-0.10409">
        <ele>2030.92</ele>
        <time>2016-06-05T14:31:47Z</time>
      </trkpt>
      <trkpt lat="42.81201" lon="-0.10406">
        <ele>2030.44</ele>
        <time>2016-06-05T14:32:15Z</time>
      </trkpt>
      <trkpt lat="42.81201" lon="-0.10408">
        <ele>2030.44</ele>
        <time>2016-06-05T14:32:37Z</time>
      </trkpt>
      <trkpt lat="42.812" lon="-0.10406">
        <ele>2029.48</ele>
        <time>2016-06-05T14:32:52Z</time>
      </trkpt>
      <trkpt lat="42.81197" lon="-0.10402">
        <ele>2028.04</ele>
        <time>2016-06-05T14:33:03Z</time>
      </trkpt>
      <trkpt lat="42.81191" lon="-0.10401">
        <ele>2026.6</ele>
        <time>2016-06-05T14:33:14Z</time>
      </trkpt>
      <trkpt lat="42.81185" lon="-0.10404">
        <ele>2025.64</ele>
        <time>2016-06-05T14:33:26Z</time>
      </trkpt>
      <trkpt lat="42.81177" lon="-0.10405">
        <ele>2025.15</ele>
        <time>2016-06-05T14:33:39Z</time>
      </trkpt>
      <trkpt lat="42.81176" lon="-0.10404">
        <ele>2024.19</ele>
        <time>2016-06-05T14:33:52Z</time>
      </trkpt>
      <trkpt lat="42.81173" lon="-0.10405">
        <ele>2022.75</ele>
        <time>2016-06-05T14:34:08Z</time>
      </trkpt>
      <trkpt lat="42.81174" lon="-0.10404">
        <ele>2022.27</ele>
        <time>2016-06-05T14:34:22Z</time>
      </trkpt>
      <trkpt lat="42.81176" lon="-0.104">
        <ele>2021.31</ele>
        <time>2016-06-05T14:34:32Z</time>
      </trkpt>
      <trkpt lat="42.81175" lon="-0.10399">
        <ele>2019.39</ele>
        <time>2016-06-05T14:34:43Z</time>
      </trkpt>
      <trkpt lat="42.81174" lon="-0.10397">
        <ele>2018.43</ele>
        <time>2016-06-05T14:34:52Z</time>
      </trkpt>
      <trkpt lat="42.81175" lon="-0.10394">
        <ele>2017.94</ele>
        <time>2016-06-05T14:35:06Z</time>
      </trkpt>
      <trkpt lat="42.81172" lon="-0.10392">
        <ele>2017.46</ele>
        <time>2016-06-05T14:35:36Z</time>
      </trkpt>
      <trkpt lat="42.81169" lon="-0.10397">
        <ele>2016.5</ele>
        <time>2016-06-05T14:35:55Z</time>
      </trkpt>
      <trkpt lat="42.81171" lon="-0.10396">
        <ele>2016.02</ele>
        <time>2016-06-05T14:36:08Z</time>
      </trkpt>
      <trkpt lat="42.81167" lon="-0.10399">
        <ele>2015.54</ele>
        <time>2016-06-05T14:36:20Z</time>
      </trkpt>
      <trkpt lat="42.81165" lon="-0.10397">
        <ele>2014.1</ele>
        <time>2016-06-05T14:36:33Z</time>
      </trkpt>
      <trkpt lat="42.81165" lon="-0.10398">
        <ele>2013.62</ele>
        <time>2016-06-05T14:36:47Z</time>
      </trkpt>
      <trkpt lat="42.81165" lon="-0.10392">
        <ele>2013.62</ele>
        <time>2016-06-05T14:37:02Z</time>
      </trkpt>
      <trkpt lat="42.81163" lon="-0.10393">
        <ele>2013.62</ele>
        <time>2016-06-05T14:37:16Z</time>
      </trkpt>
      <trkpt lat="42.81159" lon="-0.10393">
        <ele>2012.66</ele>
        <time>2016-06-05T14:37:28Z</time>
      </trkpt>
      <trkpt lat="42.81157" lon="-0.10393">
        <ele>2014.1</ele>
        <time>2016-06-05T14:37:33Z</time>
      </trkpt>
      <trkpt lat="42.81157" lon="-0.10396">
        <ele>2015.06</ele>
        <time>2016-06-05T14:37:44Z</time>
      </trkpt>
      <trkpt lat="42.81156" lon="-0.10399">
        <ele>2015.06</ele>
        <time>2016-06-05T14:37:57Z</time>
      </trkpt>
      <trkpt lat="42.81154" lon="-0.10401">
        <ele>2013.62</ele>
        <time>2016-06-05T14:38:07Z</time>
      </trkpt>
      <trkpt lat="42.81153" lon="-0.10401">
        <ele>2012.66</ele>
        <time>2016-06-05T14:38:17Z</time>
      </trkpt>
      <trkpt lat="42.81151" lon="-0.10405">
        <ele>2011.22</ele>
        <time>2016-06-05T14:38:29Z</time>
      </trkpt>
      <trkpt lat="42.81149" lon="-0.10402">
        <ele>2010.25</ele>
        <time>2016-06-05T14:38:44Z</time>
      </trkpt>
      <trkpt lat="42.81146" lon="-0.10399">
        <ele>2009.29</ele>
        <time>2016-06-05T14:38:58Z</time>
      </trkpt>
      <trkpt lat="42.81144" lon="-0.10401">
        <ele>2009.29</ele>
        <time>2016-06-05T14:39:16Z</time>
      </trkpt>
      <trkpt lat="42.81143" lon="-0.10401">
        <ele>2009.29</ele>
        <time>2016-06-05T14:39:17Z</time>
      </trkpt>
      <trkpt lat="42.81142" lon="-0.10399">
        <ele>2010.73</ele>
        <time>2016-06-05T14:39:21Z</time>
      </trkpt>
      <trkpt lat="42.81141" lon="-0.10399">
        <ele>2010.73</ele>
        <time>2016-06-05T14:39:24Z</time>
      </trkpt>
      <trkpt lat="42.81137" lon="-0.10399">
        <ele>2011.7</ele>
        <time>2016-06-05T14:39:38Z</time>
      </trkpt>
      <trkpt lat="42.81137" lon="-0.10398">
        <ele>2010.25</ele>
        <time>2016-06-05T14:39:43Z</time>
      </trkpt>
      <trkpt lat="42.81132" lon="-0.10398">
        <ele>2009.29</ele>
        <time>2016-06-05T14:39:54Z</time>
      </trkpt>
      <trkpt lat="42.81126" lon="-0.10394">
        <ele>2007.85</ele>
        <time>2016-06-05T14:40:06Z</time>
      </trkpt>
      <trkpt lat="42.81125" lon="-0.10393">
        <ele>2007.85</ele>
        <time>2016-06-05T14:40:09Z</time>
      </trkpt>
      <trkpt lat="42.81123" lon="-0.10393">
        <ele>2007.85</ele>
        <time>2016-06-05T14:40:20Z</time>
      </trkpt>
      <trkpt lat="42.81122" lon="-0.10394">
        <ele>2008.33</ele>
        <time>2016-06-05T14:40:34Z</time>
      </trkpt>
      <trkpt lat="42.81122" lon="-0.10394">
        <ele>2007.37</ele>
        <time>2016-06-05T14:40:47Z</time>
      </trkpt>
      <trkpt lat="42.81121" lon="-0.10399">
        <ele>2007.37</ele>
        <time>2016-06-05T14:41:16Z</time>
      </trkpt>
      <trkpt lat="42.8112" lon="-0.10402">
        <ele>2007.37</ele>
        <time>2016-06-05T14:41:34Z</time>
      </trkpt>
      <trkpt lat="42.81119" lon="-0.10399">
        <ele>2007.37</ele>
        <time>2016-06-05T14:41:49Z</time>
      </trkpt>
      <trkpt lat="42.81119" lon="-0.10397">
        <ele>2006.89</ele>
        <time>2016-06-05T14:42:08Z</time>
      </trkpt>
      <trkpt lat="42.81118" lon="-0.10395">
        <ele>2006.41</ele>
        <time>2016-06-05T14:42:16Z</time>
      </trkpt>
      <trkpt lat="42.81116" lon="-0.10394">
        <ele>2004.97</ele>
        <time>2016-06-05T14:42:26Z</time>
      </trkpt>
      <trkpt lat="42.81117" lon="-0.10395">
        <ele>2004.49</ele>
        <time>2016-06-05T14:42:44Z</time>
      </trkpt>
      <trkpt lat="42.81116" lon="-0.10397">
        <ele>2004.49</ele>
        <time>2016-06-05T14:43:05Z</time>
      </trkpt>
      <trkpt lat="42.81117" lon="-0.10398">
        <ele>2004.49</ele>
        <time>2016-06-05T14:43:25Z</time>
      </trkpt>
      <trkpt lat="42.81115" lon="-0.10398">
        <ele>2004.01</ele>
        <time>2016-06-05T14:43:41Z</time>
      </trkpt>
      <trkpt lat="42.81114" lon="-0.10397">
        <ele>2002.08</ele>
        <time>2016-06-05T14:43:51Z</time>
      </trkpt>
      <trkpt lat="42.81112" lon="-0.10398">
        <ele>1999.68</ele>
        <time>2016-06-05T14:44:04Z</time>
      </trkpt>
      <trkpt lat="42.81109" lon="-0.10395">
        <ele>1997.28</ele>
        <time>2016-06-05T14:44:17Z</time>
      </trkpt>
      <trkpt lat="42.81107" lon="-0.10396">
        <ele>1995.35</ele>
        <time>2016-06-05T14:44:26Z</time>
      </trkpt>
      <trkpt lat="42.81105" lon="-0.10395">
        <ele>1994.87</ele>
        <time>2016-06-05T14:44:41Z</time>
      </trkpt>
      <trkpt lat="42.81103" lon="-0.10392">
        <ele>1994.87</ele>
        <time>2016-06-05T14:45:07Z</time>
      </trkpt>
      <trkpt lat="42.81101" lon="-0.10394">
        <ele>1992.95</ele>
        <time>2016-06-05T14:45:20Z</time>
      </trkpt>
      <trkpt lat="42.81098" lon="-0.10394">
        <ele>1991.99</ele>
        <time>2016-06-05T14:45:32Z</time>
      </trkpt>
      <trkpt lat="42.81098" lon="-0.10392">
        <ele>1991.03</ele>
        <time>2016-06-05T14:45:46Z</time>
      </trkpt>
      <trkpt lat="42.81096" lon="-0.10392">
        <ele>1989.59</ele>
        <time>2016-06-05T14:45:56Z</time>
      </trkpt>
      <trkpt lat="42.81095" lon="-0.10393">
        <ele>1987.66</ele>
        <time>2016-06-05T14:46:08Z</time>
      </trkpt>
      <trkpt lat="42.81092" lon="-0.10394">
        <ele>1986.22</ele>
        <time>2016-06-05T14:46:18Z</time>
      </trkpt>
      <trkpt lat="42.81086" lon="-0.10395">
        <ele>1985.74</ele>
        <time>2016-06-05T14:46:31Z</time>
      </trkpt>
      <trkpt lat="42.81082" lon="-0.10391">
        <ele>1983.34</ele>
        <time>2016-06-05T14:46:43Z</time>
      </trkpt>
      <trkpt lat="42.81077" lon="-0.10391">
        <ele>1985.26</ele>
        <time>2016-06-05T14:46:57Z</time>
      </trkpt>
      <trkpt lat="42.81071" lon="-0.10391">
        <ele>1987.18</ele>
        <time>2016-06-05T14:47:10Z</time>
      </trkpt>
      <trkpt lat="42.8107" lon="-0.10392">
        <ele>1988.14</ele>
        <time>2016-06-05T14:47:22Z</time>
      </trkpt>
      <trkpt lat="42.8107" lon="-0.10394">
        <ele>1988.14</ele>
        <time>2016-06-05T14:47:36Z</time>
      </trkpt>
      <trkpt lat="42.81065" lon="-0.10393">
        <ele>1988.62</ele>
        <time>2016-06-05T14:47:49Z</time>
      </trkpt>
      <trkpt lat="42.8106" lon="-0.10394">
        <ele>1986.22</ele>
        <time>2016-06-05T14:48:04Z</time>
      </trkpt>
      <trkpt lat="42.81059" lon="-0.10394">
        <ele>1986.22</ele>
        <time>2016-06-05T14:48:05Z</time>
      </trkpt>
      <trkpt lat="42.81057" lon="-0.10395">
        <ele>1986.22</ele>
        <time>2016-06-05T14:48:08Z</time>
      </trkpt>
      <trkpt lat="42.81053" lon="-0.10394">
        <ele>1985.26</ele>
        <time>2016-06-05T14:48:14Z</time>
      </trkpt>
      <trkpt lat="42.81049" lon="-0.10395">
        <ele>1985.26</ele>
        <time>2016-06-05T14:48:21Z</time>
      </trkpt>
      <trkpt lat="42.81045" lon="-0.10392">
        <ele>1982.86</ele>
        <time>2016-06-05T14:48:34Z</time>
      </trkpt>
      <trkpt lat="42.81046" lon="-0.10389">
        <ele>1979.97</ele>
        <time>2016-06-05T14:48:46Z</time>
      </trkpt>
      <trkpt lat="42.81046" lon="-0.10388">
        <ele>1979.97</ele>
        <time>2016-06-05T14:48:58Z</time>
      </trkpt>
      <trkpt lat="42.81043" lon="-0.10385">
        <ele>1978.53</ele>
        <time>2016-06-05T14:49:10Z</time>
      </trkpt>
      <trkpt lat="42.81042" lon="-0.10386">
        <ele>1978.05</ele>
        <time>2016-06-05T14:49:26Z</time>
      </trkpt>
      <trkpt lat="42.81039" lon="-0.10385">
        <ele>1977.57</ele>
        <time>2016-06-05T14:49:30Z</time>
      </trkpt>
      <trkpt lat="42.81034" lon="-0.10385">
        <ele>1975.65</ele>
        <time>2016-06-05T14:49:43Z</time>
      </trkpt>
      <trkpt lat="42.81031" lon="-0.10384">
        <ele>1974.2</ele>
        <time>2016-06-05T14:49:55Z</time>
      </trkpt>
      <trkpt lat="42.81027" lon="-0.10385">
        <ele>1973.24</ele>
        <time>2016-06-05T14:50:02Z</time>
      </trkpt>
      <trkpt lat="42.81026" lon="-0.10381">
        <ele>1970.84</ele>
        <time>2016-06-05T14:50:14Z</time>
      </trkpt>
      <trkpt lat="42.81023" lon="-0.10378">
        <ele>1968.44</ele>
        <time>2016-06-05T14:50:23Z</time>
      </trkpt>
      <trkpt lat="42.81023" lon="-0.10377">
        <ele>1967.96</ele>
        <time>2016-06-05T14:50:39Z</time>
      </trkpt>
      <trkpt lat="42.81023" lon="-0.10373">
        <ele>1966.51</ele>
        <time>2016-06-05T14:50:55Z</time>
      </trkpt>
      <trkpt lat="42.81023" lon="-0.10369">
        <ele>1964.11</ele>
        <time>2016-06-05T14:51:05Z</time>
      </trkpt>
      <trkpt lat="42.8102" lon="-0.10364">
        <ele>1961.23</ele>
        <time>2016-06-05T14:51:17Z</time>
      </trkpt>
      <trkpt lat="42.81019" lon="-0.10361">
        <ele>1959.78</ele>
        <time>2016-06-05T14:51:26Z</time>
      </trkpt>
      <trkpt lat="42.81017" lon="-0.10358">
        <ele>1957.38</ele>
        <time>2016-06-05T14:51:36Z</time>
      </trkpt>
      <trkpt lat="42.81015" lon="-0.10355">
        <ele>1955.46</ele>
        <time>2016-06-05T14:51:47Z</time>
      </trkpt>
      <trkpt lat="42.81015" lon="-0.10353">
        <ele>1954.02</ele>
        <time>2016-06-05T14:51:56Z</time>
      </trkpt>
      <trkpt lat="42.81011" lon="-0.1035">
        <ele>1951.61</ele>
        <time>2016-06-05T14:52:11Z</time>
      </trkpt>
      <trkpt lat="42.81007" lon="-0.10346">
        <ele>1950.65</ele>
        <time>2016-06-05T14:52:22Z</time>
      </trkpt>
      <trkpt lat="42.81005" lon="-0.10347">
        <ele>1949.21</ele>
        <time>2016-06-05T14:52:46Z</time>
      </trkpt>
      <trkpt lat="42.81001" lon="-0.10346">
        <ele>1947.77</ele>
        <time>2016-06-05T14:53:00Z</time>
      </trkpt>
      <trkpt lat="42.80997" lon="-0.10345">
        <ele>1946.33</ele>
        <time>2016-06-05T14:53:11Z</time>
      </trkpt>
      <trkpt lat="42.80992" lon="-0.10343">
        <ele>1943.44</ele>
        <time>2016-06-05T14:53:23Z</time>
      </trkpt>
      <trkpt lat="42.80989" lon="-0.10341">
        <ele>1941.04</ele>
        <time>2016-06-05T14:53:33Z</time>
      </trkpt>
      <trkpt lat="42.80985" lon="-0.10342">
        <ele>1940.08</ele>
        <time>2016-06-05T14:53:42Z</time>
      </trkpt>
      <trkpt lat="42.80976" lon="-0.10344">
        <ele>1938.64</ele>
        <time>2016-06-05T14:53:56Z</time>
      </trkpt>
      <trkpt lat="42.8097" lon="-0.10339">
        <ele>1935.75</ele>
        <time>2016-06-05T14:54:10Z</time>
      </trkpt>
      <trkpt lat="42.80958" lon="-0.10336">
        <ele>1933.83</ele>
        <time>2016-06-05T14:54:23Z</time>
      </trkpt>
      <trkpt lat="42.80949" lon="-0.10335">
        <ele>1932.39</ele>
        <time>2016-06-05T14:54:36Z</time>
      </trkpt>
      <trkpt lat="42.80947" lon="-0.10331">
        <ele>1931.43</ele>
        <time>2016-06-05T14:54:51Z</time>
      </trkpt>
      <trkpt lat="42.80947" lon="-0.10331">
        <ele>1932.87</ele>
        <time>2016-06-05T14:54:54Z</time>
      </trkpt>
      <trkpt lat="42.80946" lon="-0.10331">
        <ele>1931.43</ele>
        <time>2016-06-05T14:55:24Z</time>
      </trkpt>
      <trkpt lat="42.80942" lon="-0.1033">
        <ele>1930.46</ele>
        <time>2016-06-05T14:55:35Z</time>
      </trkpt>
      <trkpt lat="42.80936" lon="-0.1033">
        <ele>1928.54</ele>
        <time>2016-06-05T14:55:47Z</time>
      </trkpt>
      <trkpt lat="42.80929" lon="-0.10328">
        <ele>1928.06</ele>
        <time>2016-06-05T14:56:08Z</time>
      </trkpt>
      <trkpt lat="42.80925" lon="-0.10329">
        <ele>1927.1</ele>
        <time>2016-06-05T14:56:21Z</time>
      </trkpt>
      <trkpt lat="42.80917" lon="-0.10323">
        <ele>1927.1</ele>
        <time>2016-06-05T14:56:32Z</time>
      </trkpt>
      <trkpt lat="42.80916" lon="-0.10319">
        <ele>1925.18</ele>
        <time>2016-06-05T14:56:39Z</time>
      </trkpt>
      <trkpt lat="42.80913" lon="-0.10316">
        <ele>1924.7</ele>
        <time>2016-06-05T14:56:43Z</time>
      </trkpt>
      <trkpt lat="42.80908" lon="-0.10315">
        <ele>1924.22</ele>
        <time>2016-06-05T14:56:53Z</time>
      </trkpt>
      <trkpt lat="42.80895" lon="-0.10312">
        <ele>1922.77</ele>
        <time>2016-06-05T14:57:08Z</time>
      </trkpt>
      <trkpt lat="42.80889" lon="-0.1031">
        <ele>1921.81</ele>
        <time>2016-06-05T14:57:18Z</time>
      </trkpt>
      <trkpt lat="42.80882" lon="-0.10308">
        <ele>1920.85</ele>
        <time>2016-06-05T14:57:27Z</time>
      </trkpt>
      <trkpt lat="42.80875" lon="-0.10303">
        <ele>1918.45</ele>
        <time>2016-06-05T14:57:40Z</time>
      </trkpt>
      <trkpt lat="42.80868" lon="-0.10296">
        <ele>1917.49</ele>
        <time>2016-06-05T14:57:53Z</time>
      </trkpt>
      <trkpt lat="42.80863" lon="-0.10293">
        <ele>1916.04</ele>
        <time>2016-06-05T14:58:01Z</time>
      </trkpt>
      <trkpt lat="42.80856" lon="-0.10291">
        <ele>1915.08</ele>
        <time>2016-06-05T14:58:13Z</time>
      </trkpt>
      <trkpt lat="42.8085" lon="-0.10287">
        <ele>1912.2</ele>
        <time>2016-06-05T14:58:28Z</time>
      </trkpt>
      <trkpt lat="42.80844" lon="-0.1028">
        <ele>1909.8</ele>
        <time>2016-06-05T14:58:40Z</time>
      </trkpt>
      <trkpt lat="42.8084" lon="-0.10277">
        <ele>1908.35</ele>
        <time>2016-06-05T14:58:50Z</time>
      </trkpt>
      <trkpt lat="42.80834" lon="-0.10276">
        <ele>1906.43</ele>
        <time>2016-06-05T14:59:04Z</time>
      </trkpt>
      <trkpt lat="42.80829" lon="-0.10275">
        <ele>1904.51</ele>
        <time>2016-06-05T14:59:16Z</time>
      </trkpt>
      <trkpt lat="42.80822" lon="-0.10271">
        <ele>1902.11</ele>
        <time>2016-06-05T14:59:28Z</time>
      </trkpt>
      <trkpt lat="42.80819" lon="-0.10273">
        <ele>1902.11</ele>
        <time>2016-06-05T14:59:40Z</time>
      </trkpt>
      <trkpt lat="42.80811" lon="-0.10273">
        <ele>1903.55</ele>
        <time>2016-06-05T14:59:52Z</time>
      </trkpt>
      <trkpt lat="42.80809" lon="-0.10273">
        <ele>1904.03</ele>
        <time>2016-06-05T15:00:02Z</time>
      </trkpt>
      <trkpt lat="42.80802" lon="-0.10271">
        <ele>1904.03</ele>
        <time>2016-06-05T15:00:13Z</time>
      </trkpt>
      <trkpt lat="42.80801" lon="-0.10269">
        <ele>1902.11</ele>
        <time>2016-06-05T15:00:22Z</time>
      </trkpt>
      <trkpt lat="42.80797" lon="-0.10265">
        <ele>1899.7</ele>
        <time>2016-06-05T15:00:31Z</time>
      </trkpt>
      <trkpt lat="42.80796" lon="-0.10263">
        <ele>1898.74</ele>
        <time>2016-06-05T15:00:43Z</time>
      </trkpt>
      <trkpt lat="42.80797" lon="-0.10263">
        <ele>1898.74</ele>
        <time>2016-06-05T15:01:04Z</time>
      </trkpt>
      <trkpt lat="42.80796" lon="-0.1026">
        <ele>1897.3</ele>
        <time>2016-06-05T15:01:24Z</time>
      </trkpt>
      <trkpt lat="42.80791" lon="-0.10259">
        <ele>1896.34</ele>
        <time>2016-06-05T15:01:30Z</time>
      </trkpt>
      <trkpt lat="42.80783" lon="-0.10258">
        <ele>1894.42</ele>
        <time>2016-06-05T15:01:43Z</time>
      </trkpt>
      <trkpt lat="42.80775" lon="-0.10259">
        <ele>1892.49</ele>
        <time>2016-06-05T15:01:56Z</time>
      </trkpt>
      <trkpt lat="42.80769" lon="-0.1026">
        <ele>1891.05</ele>
        <time>2016-06-05T15:02:07Z</time>
      </trkpt>
      <trkpt lat="42.80767" lon="-0.10258">
        <ele>1888.17</ele>
        <time>2016-06-05T15:02:19Z</time>
      </trkpt>
      <trkpt lat="42.80767" lon="-0.10251">
        <ele>1885.28</ele>
        <time>2016-06-05T15:02:31Z</time>
      </trkpt>
      <trkpt lat="42.80763" lon="-0.10247">
        <ele>1882.88</ele>
        <time>2016-06-05T15:02:42Z</time>
      </trkpt>
      <trkpt lat="42.80758" lon="-0.10246">
        <ele>1882.4</ele>
        <time>2016-06-05T15:02:52Z</time>
      </trkpt>
      <trkpt lat="42.80755" lon="-0.10243">
        <ele>1880.96</ele>
        <time>2016-06-05T15:03:04Z</time>
      </trkpt>
      <trkpt lat="42.80754" lon="-0.10243">
        <ele>1880.48</ele>
        <time>2016-06-05T15:03:05Z</time>
      </trkpt>
      <trkpt lat="42.80751" lon="-0.10237">
        <ele>1878.55</ele>
        <time>2016-06-05T15:03:15Z</time>
      </trkpt>
      <trkpt lat="42.8075" lon="-0.10233">
        <ele>1875.67</ele>
        <time>2016-06-05T15:03:24Z</time>
      </trkpt>
      <trkpt lat="42.80748" lon="-0.10227">
        <ele>1873.75</ele>
        <time>2016-06-05T15:03:34Z</time>
      </trkpt>
      <trkpt lat="42.80747" lon="-0.10219">
        <ele>1870.86</ele>
        <time>2016-06-05T15:03:47Z</time>
      </trkpt>
      <trkpt lat="42.80743" lon="-0.10216">
        <ele>1869.42</ele>
        <time>2016-06-05T15:03:57Z</time>
      </trkpt>
      <trkpt lat="42.80739" lon="-0.10209">
        <ele>1867.02</ele>
        <time>2016-06-05T15:04:09Z</time>
      </trkpt>
      <trkpt lat="42.80737" lon="-0.10204">
        <ele>1865.09</ele>
        <time>2016-06-05T15:04:20Z</time>
      </trkpt>
      <trkpt lat="42.80732" lon="-0.10201">
        <ele>1864.61</ele>
        <time>2016-06-05T15:04:33Z</time>
      </trkpt>
      <trkpt lat="42.8073" lon="-0.10199">
        <ele>1863.65</ele>
        <time>2016-06-05T15:04:54Z</time>
      </trkpt>
      <trkpt lat="42.80731" lon="-0.10193">
        <ele>1860.29</ele>
        <time>2016-06-05T15:05:06Z</time>
      </trkpt>
      <trkpt lat="42.8073" lon="-0.10189">
        <ele>1859.81</ele>
        <time>2016-06-05T15:05:24Z</time>
      </trkpt>
      <trkpt lat="42.80724" lon="-0.10183">
        <ele>1857.89</ele>
        <time>2016-06-05T15:05:38Z</time>
      </trkpt>
      <trkpt lat="42.80723" lon="-0.10177">
        <ele>1856.92</ele>
        <time>2016-06-05T15:05:47Z</time>
      </trkpt>
      <trkpt lat="42.80719" lon="-0.10174">
        <ele>1856.44</ele>
        <time>2016-06-05T15:05:56Z</time>
      </trkpt>
      <trkpt lat="42.80715" lon="-0.10171">
        <ele>1855.96</ele>
        <time>2016-06-05T15:06:13Z</time>
      </trkpt>
      <trkpt lat="42.80715" lon="-0.10175">
        <ele>1855.48</ele>
        <time>2016-06-05T15:06:21Z</time>
      </trkpt>
      <trkpt lat="42.80716" lon="-0.10175">
        <ele>1856.92</ele>
        <time>2016-06-05T15:06:37Z</time>
      </trkpt>
      <trkpt lat="42.8072" lon="-0.10174">
        <ele>1855.48</ele>
        <time>2016-06-05T15:06:52Z</time>
      </trkpt>
      <trkpt lat="42.80714" lon="-0.10169">
        <ele>1855</ele>
        <time>2016-06-05T15:07:04Z</time>
      </trkpt>
      <trkpt lat="42.80714" lon="-0.10168">
        <ele>1852.6</ele>
        <time>2016-06-05T15:07:19Z</time>
      </trkpt>
      <trkpt lat="42.80713" lon="-0.10166">
        <ele>1850.68</ele>
        <time>2016-06-05T15:07:31Z</time>
      </trkpt>
      <trkpt lat="42.8071" lon="-0.1016">
        <ele>1848.75</ele>
        <time>2016-06-05T15:07:43Z</time>
      </trkpt>
      <trkpt lat="42.8071" lon="-0.10156">
        <ele>1846.35</ele>
        <time>2016-06-05T15:07:56Z</time>
      </trkpt>
      <trkpt lat="42.80711" lon="-0.10149">
        <ele>1844.91</ele>
        <time>2016-06-05T15:08:07Z</time>
      </trkpt>
      <trkpt lat="42.80714" lon="-0.10144">
        <ele>1842.5</ele>
        <time>2016-06-05T15:08:19Z</time>
      </trkpt>
      <trkpt lat="42.80713" lon="-0.10139">
        <ele>1841.06</ele>
        <time>2016-06-05T15:08:31Z</time>
      </trkpt>
      <trkpt lat="42.80713" lon="-0.10138">
        <ele>1840.58</ele>
        <time>2016-06-05T15:08:47Z</time>
      </trkpt>
      <trkpt lat="42.80716" lon="-0.10134">
        <ele>1839.62</ele>
        <time>2016-06-05T15:08:58Z</time>
      </trkpt>
      <trkpt lat="42.80717" lon="-0.10125">
        <ele>1838.66</ele>
        <time>2016-06-05T15:09:10Z</time>
      </trkpt>
      <trkpt lat="42.80714" lon="-0.1012">
        <ele>1837.7</ele>
        <time>2016-06-05T15:09:21Z</time>
      </trkpt>
      <trkpt lat="42.80716" lon="-0.10117">
        <ele>1836.26</ele>
        <time>2016-06-05T15:09:35Z</time>
      </trkpt>
      <trkpt lat="42.80714" lon="-0.10114">
        <ele>1835.29</ele>
        <time>2016-06-05T15:09:47Z</time>
      </trkpt>
      <trkpt lat="42.80711" lon="-0.10111">
        <ele>1833.85</ele>
        <time>2016-06-05T15:09:57Z</time>
      </trkpt>
      <trkpt lat="42.8071" lon="-0.10107">
        <ele>1831.93</ele>
        <time>2016-06-05T15:10:09Z</time>
      </trkpt>
      <trkpt lat="42.80708" lon="-0.10102">
        <ele>1830.01</ele>
        <time>2016-06-05T15:10:20Z</time>
      </trkpt>
      <trkpt lat="42.80711" lon="-0.10092">
        <ele>1828.56</ele>
        <time>2016-06-05T15:10:32Z</time>
      </trkpt>
      <trkpt lat="42.80711" lon="-0.10091">
        <ele>1828.56</ele>
        <time>2016-06-05T15:10:44Z</time>
      </trkpt>
      <trkpt lat="42.80709" lon="-0.10092">
        <ele>1828.56</ele>
        <time>2016-06-05T15:11:06Z</time>
      </trkpt>
      <trkpt lat="42.8071" lon="-0.10091">
        <ele>1828.56</ele>
        <time>2016-06-05T15:11:16Z</time>
      </trkpt>
      <trkpt lat="42.80712" lon="-0.10092">
        <ele>1828.56</ele>
        <time>2016-06-05T15:11:33Z</time>
      </trkpt>
      <trkpt lat="42.80715" lon="-0.10087">
        <ele>1828.56</ele>
        <time>2016-06-05T15:12:00Z</time>
      </trkpt>
      <trkpt lat="42.80712" lon="-0.10089">
        <ele>1828.56</ele>
        <time>2016-06-05T15:12:18Z</time>
      </trkpt>
      <trkpt lat="42.8071" lon="-0.10091">
        <ele>1828.08</ele>
        <time>2016-06-05T15:12:32Z</time>
      </trkpt>
      <trkpt lat="42.80709" lon="-0.10081">
        <ele>1825.68</ele>
        <time>2016-06-05T15:12:42Z</time>
      </trkpt>
      <trkpt lat="42.80707" lon="-0.10067">
        <ele>1823.28</ele>
        <time>2016-06-05T15:12:56Z</time>
      </trkpt>
      <trkpt lat="42.80711" lon="-0.10059">
        <ele>1822.8</ele>
        <time>2016-06-05T15:13:06Z</time>
      </trkpt>
      <trkpt lat="42.80714" lon="-0.10058">
        <ele>1822.8</ele>
        <time>2016-06-05T15:13:19Z</time>
      </trkpt>
      <trkpt lat="42.80717" lon="-0.10052">
        <ele>1822.8</ele>
        <time>2016-06-05T15:13:25Z</time>
      </trkpt>
      <trkpt lat="42.80723" lon="-0.10047">
        <ele>1822.8</ele>
        <time>2016-06-05T15:13:36Z</time>
      </trkpt>
      <trkpt lat="42.80728" lon="-0.10036">
        <ele>1824.72</ele>
        <time>2016-06-05T15:13:53Z</time>
      </trkpt>
      <trkpt lat="42.80733" lon="-0.10023">
        <ele>1825.2</ele>
        <time>2016-06-05T15:14:08Z</time>
      </trkpt>
      <trkpt lat="42.80733" lon="-0.10019">
        <ele>1825.2</ele>
        <time>2016-06-05T15:14:25Z</time>
      </trkpt>
      <trkpt lat="42.80735" lon="-0.10017">
        <ele>1825.68</ele>
        <time>2016-06-05T15:14:30Z</time>
      </trkpt>
      <trkpt lat="42.80739" lon="-0.10014">
        <ele>1825.68</ele>
        <time>2016-06-05T15:14:34Z</time>
      </trkpt>
      <trkpt lat="42.80748" lon="-0.10008">
        <ele>1826.16</ele>
        <time>2016-06-05T15:14:46Z</time>
      </trkpt>
      <trkpt lat="42.80754" lon="-0.10002">
        <ele>1826.64</ele>
        <time>2016-06-05T15:14:57Z</time>
      </trkpt>
      <trkpt lat="42.8076" lon="-0.09996">
        <ele>1826.16</ele>
        <time>2016-06-05T15:15:09Z</time>
      </trkpt>
      <trkpt lat="42.80761" lon="-0.09997">
        <ele>1826.16</ele>
        <time>2016-06-05T15:15:28Z</time>
      </trkpt>
      <trkpt lat="42.80763" lon="-0.09992">
        <ele>1824.72</ele>
        <time>2016-06-05T15:15:34Z</time>
      </trkpt>
      <trkpt lat="42.80767" lon="-0.09986">
        <ele>1823.76</ele>
        <time>2016-06-05T15:15:45Z</time>
      </trkpt>
      <trkpt lat="42.8077" lon="-0.09982">
        <ele>1822.32</ele>
        <time>2016-06-05T15:15:57Z</time>
      </trkpt>
      <trkpt lat="42.80767" lon="-0.0998">
        <ele>1820.87</ele>
        <time>2016-06-05T15:16:11Z</time>
      </trkpt>
      <trkpt lat="42.80767" lon="-0.09972">
        <ele>1818.47</ele>
        <time>2016-06-05T15:16:24Z</time>
      </trkpt>
      <trkpt lat="42.80768" lon="-0.09967">
        <ele>1817.99</ele>
        <time>2016-06-05T15:16:28Z</time>
      </trkpt>
      <trkpt lat="42.80769" lon="-0.09964">
        <ele>1817.99</ele>
        <time>2016-06-05T15:16:39Z</time>
      </trkpt>
      <trkpt lat="42.80766" lon="-0.09962">
        <ele>1817.51</ele>
        <time>2016-06-05T15:16:50Z</time>
      </trkpt>
      <trkpt lat="42.80766" lon="-0.09959">
        <ele>1817.51</ele>
        <time>2016-06-05T15:17:08Z</time>
      </trkpt>
      <trkpt lat="42.80766" lon="-0.09955">
        <ele>1817.51</ele>
        <time>2016-06-05T15:17:17Z</time>
      </trkpt>
      <trkpt lat="42.80768" lon="-0.09937">
        <ele>1818.95</ele>
        <time>2016-06-05T15:17:32Z</time>
      </trkpt>
      <trkpt lat="42.80767" lon="-0.09936">
        <ele>1819.43</ele>
        <time>2016-06-05T15:17:34Z</time>
      </trkpt>
      <trkpt lat="42.80769" lon="-0.09933">
        <ele>1819.43</ele>
        <time>2016-06-05T15:17:48Z</time>
      </trkpt>
      <trkpt lat="42.8077" lon="-0.09929">
        <ele>1819.43</ele>
        <time>2016-06-05T15:17:54Z</time>
      </trkpt>
      <trkpt lat="42.80776" lon="-0.09921">
        <ele>1819.91</ele>
        <time>2016-06-05T15:18:08Z</time>
      </trkpt>
      <trkpt lat="42.80773" lon="-0.09922">
        <ele>1819.91</ele>
        <time>2016-06-05T15:18:25Z</time>
      </trkpt>
      <trkpt lat="42.80771" lon="-0.0992">
        <ele>1818.95</ele>
        <time>2016-06-05T15:18:41Z</time>
      </trkpt>
      <trkpt lat="42.80771" lon="-0.09922">
        <ele>1818.95</ele>
        <time>2016-06-05T15:19:05Z</time>
      </trkpt>
      <trkpt lat="42.80771" lon="-0.0992">
        <ele>1818.95</ele>
        <time>2016-06-05T15:19:32Z</time>
      </trkpt>
      <trkpt lat="42.80772" lon="-0.09923">
        <ele>1818.95</ele>
        <time>2016-06-05T15:20:04Z</time>
      </trkpt>
      <trkpt lat="42.80771" lon="-0.09919">
        <ele>1818.95</ele>
        <time>2016-06-05T15:20:31Z</time>
      </trkpt>
      <trkpt lat="42.80771" lon="-0.0992">
        <ele>1818.95</ele>
        <time>2016-06-05T15:20:47Z</time>
      </trkpt>
      <trkpt lat="42.80771" lon="-0.0992">
        <ele>1819.91</ele>
        <time>2016-06-05T15:20:49Z</time>
      </trkpt>
      <trkpt lat="42.80774" lon="-0.09919">
        <ele>1818.95</ele>
        <time>2016-06-05T15:21:09Z</time>
      </trkpt>
      <trkpt lat="42.80773" lon="-0.09915">
        <ele>1818.95</ele>
        <time>2016-06-05T15:21:33Z</time>
      </trkpt>
      <trkpt lat="42.80775" lon="-0.09917">
        <ele>1818.47</ele>
        <time>2016-06-05T15:21:58Z</time>
      </trkpt>
      <trkpt lat="42.80774" lon="-0.09919">
        <ele>1819.91</ele>
        <time>2016-06-05T15:22:09Z</time>
      </trkpt>
      <trkpt lat="42.80777" lon="-0.09918">
        <ele>1819.91</ele>
        <time>2016-06-05T15:22:28Z</time>
      </trkpt>
      <trkpt lat="42.80779" lon="-0.09915">
        <ele>1819.91</ele>
        <time>2016-06-05T15:22:41Z</time>
      </trkpt>
      <trkpt lat="42.80781" lon="-0.09915">
        <ele>1820.39</ele>
        <time>2016-06-05T15:23:04Z</time>
      </trkpt>
      <trkpt lat="42.8078" lon="-0.09918">
        <ele>1820.39</ele>
        <time>2016-06-05T15:23:19Z</time>
      </trkpt>
      <trkpt lat="42.80782" lon="-0.09918">
        <ele>1820.39</ele>
        <time>2016-06-05T15:23:23Z</time>
      </trkpt>
      <trkpt lat="42.80785" lon="-0.09912">
        <ele>1820.39</ele>
        <time>2016-06-05T15:23:35Z</time>
      </trkpt>
      <trkpt lat="42.80785" lon="-0.09913">
        <ele>1820.39</ele>
        <time>2016-06-05T15:23:50Z</time>
      </trkpt>
      <trkpt lat="42.80786" lon="-0.09916">
        <ele>1820.39</ele>
        <time>2016-06-05T15:24:13Z</time>
      </trkpt>
      <trkpt lat="42.80785" lon="-0.09915">
        <ele>1820.87</ele>
        <time>2016-06-05T15:24:40Z</time>
      </trkpt>
      <trkpt lat="42.80782" lon="-0.09915">
        <ele>1820.39</ele>
        <time>2016-06-05T15:25:09Z</time>
      </trkpt>
      <trkpt lat="42.80782" lon="-0.09916">
        <ele>1820.39</ele>
        <time>2016-06-05T15:25:34Z</time>
      </trkpt>
      <trkpt lat="42.80783" lon="-0.09918">
        <ele>1820.39</ele>
        <time>2016-06-05T15:25:55Z</time>
      </trkpt>
      <trkpt lat="42.80783" lon="-0.09917">
        <ele>1819.43</ele>
        <time>2016-06-05T15:26:08Z</time>
      </trkpt>
      <trkpt lat="42.80782" lon="-0.0992">
        <ele>1818.95</ele>
        <time>2016-06-05T15:26:28Z</time>
      </trkpt>
      <trkpt lat="42.80781" lon="-0.09919">
        <ele>1818.95</ele>
        <time>2016-06-05T15:26:56Z</time>
      </trkpt>
      <trkpt lat="42.80781" lon="-0.09919">
        <ele>1818.95</ele>
        <time>2016-06-05T15:27:22Z</time>
      </trkpt>
      <trkpt lat="42.80781" lon="-0.09918">
        <ele>1818.47</ele>
        <time>2016-06-05T15:27:56Z</time>
      </trkpt>
      <trkpt lat="42.80781" lon="-0.09918">
        <ele>1818.47</ele>
        <time>2016-06-05T15:28:23Z</time>
      </trkpt>
      <trkpt lat="42.80782" lon="-0.09915">
        <ele>1817.99</ele>
        <time>2016-06-05T15:28:56Z</time>
      </trkpt>
      <trkpt lat="42.80787" lon="-0.09916">
        <ele>1817.99</ele>
        <time>2016-06-05T15:29:27Z</time>
      </trkpt>
      <trkpt lat="42.80795" lon="-0.09912">
        <ele>1817.99</ele>
        <time>2016-06-05T15:29:41Z</time>
      </trkpt>
      <trkpt lat="42.80795" lon="-0.09912">
        <ele>1817.99</ele>
        <time>2016-06-05T15:29:42Z</time>
      </trkpt>
      <trkpt lat="42.80798" lon="-0.09911">
        <ele>1817.99</ele>
        <time>2016-06-05T15:29:45Z</time>
      </trkpt>
      <trkpt lat="42.80804" lon="-0.09906">
        <ele>1817.99</ele>
        <time>2016-06-05T15:29:56Z</time>
      </trkpt>
      <trkpt lat="42.80805" lon="-0.09902">
        <ele>1817.99</ele>
        <time>2016-06-05T15:30:24Z</time>
      </trkpt>
      <trkpt lat="42.80801" lon="-0.09904">
        <ele>1817.51</ele>
        <time>2016-06-05T15:30:46Z</time>
      </trkpt>
      <trkpt lat="42.80799" lon="-0.09911">
        <ele>1816.55</ele>
        <time>2016-06-05T15:30:59Z</time>
      </trkpt>
      <trkpt lat="42.80799" lon="-0.09912">
        <ele>1816.55</ele>
        <time>2016-06-05T15:31:00Z</time>
      </trkpt>
      <trkpt lat="42.808" lon="-0.09923">
        <ele>1815.59</ele>
        <time>2016-06-05T15:31:07Z</time>
      </trkpt>
      <trkpt lat="42.80805" lon="-0.09931">
        <ele>1814.63</ele>
        <time>2016-06-05T15:31:15Z</time>
      </trkpt>
      <trkpt lat="42.80809" lon="-0.09936">
        <ele>1814.63</ele>
        <time>2016-06-05T15:31:20Z</time>
      </trkpt>
      <trkpt lat="42.80807" lon="-0.09943">
        <ele>1813.66</ele>
        <time>2016-06-05T15:31:27Z</time>
      </trkpt>
      <trkpt lat="42.80808" lon="-0.09949">
        <ele>1812.7</ele>
        <time>2016-06-05T15:31:34Z</time>
      </trkpt>
      <trkpt lat="42.80814" lon="-0.09953">
        <ele>1811.26</ele>
        <time>2016-06-05T15:31:42Z</time>
      </trkpt>
      <trkpt lat="42.80818" lon="-0.09954">
        <ele>1807.9</ele>
        <time>2016-06-05T15:31:48Z</time>
      </trkpt>
      <trkpt lat="42.80818" lon="-0.09954">
        <ele>1812.7</ele>
        <time>2016-06-05T15:31:49Z</time>
      </trkpt>
      <trkpt lat="42.80821" lon="-0.09955">
        <ele>1809.82</ele>
        <time>2016-06-05T15:31:52Z</time>
      </trkpt>
      <trkpt lat="42.80825" lon="-0.09961">
        <ele>1808.86</ele>
        <time>2016-06-05T15:32:00Z</time>
      </trkpt>
      <trkpt lat="42.80831" lon="-0.09967">
        <ele>1807.9</ele>
        <time>2016-06-05T15:32:07Z</time>
      </trkpt>
      <trkpt lat="42.80833" lon="-0.09965">
        <ele>1807.42</ele>
        <time>2016-06-05T15:32:09Z</time>
      </trkpt>
      <trkpt lat="42.80843" lon="-0.09953">
        <ele>1805.97</ele>
        <time>2016-06-05T15:32:23Z</time>
      </trkpt>
      <trkpt lat="42.80854" lon="-0.0995">
        <ele>1805.01</ele>
        <time>2016-06-05T15:32:37Z</time>
      </trkpt>
      <trkpt lat="42.80857" lon="-0.09953">
        <ele>1803.57</ele>
        <time>2016-06-05T15:32:42Z</time>
      </trkpt>
      <trkpt lat="42.80864" lon="-0.09963">
        <ele>1801.65</ele>
        <time>2016-06-05T15:32:55Z</time>
      </trkpt>
      <trkpt lat="42.80877" lon="-0.09972">
        <ele>1801.17</ele>
        <time>2016-06-05T15:33:10Z</time>
      </trkpt>
      <trkpt lat="42.80884" lon="-0.09977">
        <ele>1801.17</ele>
        <time>2016-06-05T15:33:19Z</time>
      </trkpt>
      <trkpt lat="42.80886" lon="-0.09991">
        <ele>1801.17</ele>
        <time>2016-06-05T15:33:33Z</time>
      </trkpt>
      <trkpt lat="42.80886" lon="-0.09996">
        <ele>1800.21</ele>
        <time>2016-06-05T15:33:37Z</time>
      </trkpt>
      <trkpt lat="42.8089" lon="-0.09997">
        <ele>1799.73</ele>
        <time>2016-06-05T15:33:41Z</time>
      </trkpt>
      <trkpt lat="42.80896" lon="-0.1">
        <ele>1799.73</ele>
        <time>2016-06-05T15:33:46Z</time>
      </trkpt>
      <trkpt lat="42.80904" lon="-0.10002">
        <ele>1799.24</ele>
        <time>2016-06-05T15:33:52Z</time>
      </trkpt>
      <trkpt lat="42.80926" lon="-0.09993">
        <ele>1797.8</ele>
        <time>2016-06-05T15:34:07Z</time>
      </trkpt>
      <trkpt lat="42.80936" lon="-0.09999">
        <ele>1796.84</ele>
        <time>2016-06-05T15:34:17Z</time>
      </trkpt>
      <trkpt lat="42.80943" lon="-0.10002">
        <ele>1794.44</ele>
        <time>2016-06-05T15:34:29Z</time>
      </trkpt>
      <trkpt lat="42.8094" lon="-0.10001">
        <ele>1794.44</ele>
        <time>2016-06-05T15:34:40Z</time>
      </trkpt>
      <trkpt lat="42.80943" lon="-0.1">
        <ele>1793.48</ele>
        <time>2016-06-05T15:34:57Z</time>
      </trkpt>
      <trkpt lat="42.80944" lon="-0.09998">
        <ele>1793</ele>
        <time>2016-06-05T15:35:01Z</time>
      </trkpt>
      <trkpt lat="42.80949" lon="-0.09994">
        <ele>1791.55</ele>
        <time>2016-06-05T15:35:11Z</time>
      </trkpt>
      <trkpt lat="42.80957" lon="-0.09994">
        <ele>1790.59</ele>
        <time>2016-06-05T15:35:22Z</time>
      </trkpt>
      <trkpt lat="42.8096" lon="-0.09989">
        <ele>1789.15</ele>
        <time>2016-06-05T15:35:33Z</time>
      </trkpt>
      <trkpt lat="42.80967" lon="-0.09983">
        <ele>1787.23</ele>
        <time>2016-06-05T15:35:46Z</time>
      </trkpt>
      <trkpt lat="42.80968" lon="-0.09979">
        <ele>1786.27</ele>
        <time>2016-06-05T15:36:05Z</time>
      </trkpt>
      <trkpt lat="42.80975" lon="-0.09972">
        <ele>1783.86</ele>
        <time>2016-06-05T15:36:16Z</time>
      </trkpt>
      <trkpt lat="42.80986" lon="-0.09964">
        <ele>1782.42</ele>
        <time>2016-06-05T15:36:29Z</time>
      </trkpt>
      <trkpt lat="42.80997" lon="-0.09958">
        <ele>1780.98</ele>
        <time>2016-06-05T15:36:41Z</time>
      </trkpt>
      <trkpt lat="42.81001" lon="-0.09957">
        <ele>1780.5</ele>
        <time>2016-06-05T15:36:54Z</time>
      </trkpt>
      <trkpt lat="42.81008" lon="-0.09955">
        <ele>1780.02</ele>
        <time>2016-06-05T15:37:11Z</time>
      </trkpt>
      <trkpt lat="42.81009" lon="-0.09954">
        <ele>1780.02</ele>
        <time>2016-06-05T15:37:12Z</time>
      </trkpt>
      <trkpt lat="42.81019" lon="-0.09951">
        <ele>1778.1</ele>
        <time>2016-06-05T15:37:22Z</time>
      </trkpt>
      <trkpt lat="42.81038" lon="-0.09948">
        <ele>1776.17</ele>
        <time>2016-06-05T15:37:39Z</time>
      </trkpt>
      <trkpt lat="42.81039" lon="-0.09948">
        <ele>1776.17</ele>
        <time>2016-06-05T15:37:51Z</time>
      </trkpt>
      <trkpt lat="42.81041" lon="-0.09947">
        <ele>1776.17</ele>
        <time>2016-06-05T15:37:53Z</time>
      </trkpt>
      <trkpt lat="42.81044" lon="-0.09947">
        <ele>1775.69</ele>
        <time>2016-06-05T15:37:57Z</time>
      </trkpt>
      <trkpt lat="42.81057" lon="-0.09945">
        <ele>1774.73</ele>
        <time>2016-06-05T15:38:13Z</time>
      </trkpt>
      <trkpt lat="42.81071" lon="-0.09946">
        <ele>1772.81</ele>
        <time>2016-06-05T15:38:28Z</time>
      </trkpt>
      <trkpt lat="42.81079" lon="-0.09942">
        <ele>1772.33</ele>
        <time>2016-06-05T15:38:36Z</time>
      </trkpt>
      <trkpt lat="42.81087" lon="-0.09939">
        <ele>1772.33</ele>
        <time>2016-06-05T15:38:44Z</time>
      </trkpt>
      <trkpt lat="42.81094" lon="-0.0994">
        <ele>1770.89</ele>
        <time>2016-06-05T15:38:52Z</time>
      </trkpt>
      <trkpt lat="42.81108" lon="-0.09944">
        <ele>1769.44</ele>
        <time>2016-06-05T15:39:07Z</time>
      </trkpt>
      <trkpt lat="42.81116" lon="-0.09948">
        <ele>1768.96</ele>
        <time>2016-06-05T15:39:17Z</time>
      </trkpt>
      <trkpt lat="42.81121" lon="-0.09957">
        <ele>1767.52</ele>
        <time>2016-06-05T15:39:31Z</time>
      </trkpt>
      <trkpt lat="42.81123" lon="-0.09955">
        <ele>1767.04</ele>
        <time>2016-06-05T15:39:47Z</time>
      </trkpt>
      <trkpt lat="42.81123" lon="-0.09955">
        <ele>1767.04</ele>
        <time>2016-06-05T15:40:03Z</time>
      </trkpt>
      <trkpt lat="42.81131" lon="-0.09953">
        <ele>1766.08</ele>
        <time>2016-06-05T15:40:26Z</time>
      </trkpt>
      <trkpt lat="42.81142" lon="-0.09954">
        <ele>1764.16</ele>
        <time>2016-06-05T15:40:37Z</time>
      </trkpt>
      <trkpt lat="42.81147" lon="-0.09953">
        <ele>1761.27</ele>
        <time>2016-06-05T15:40:50Z</time>
      </trkpt>
      <trkpt lat="42.81154" lon="-0.09945">
        <ele>1759.35</ele>
        <time>2016-06-05T15:41:02Z</time>
      </trkpt>
      <trkpt lat="42.81162" lon="-0.09941">
        <ele>1756.95</ele>
        <time>2016-06-05T15:41:17Z</time>
      </trkpt>
      <trkpt lat="42.81161" lon="-0.09931">
        <ele>1755.5</ele>
        <time>2016-06-05T15:41:34Z</time>
      </trkpt>
      <trkpt lat="42.81154" lon="-0.09929">
        <ele>1755.02</ele>
        <time>2016-06-05T15:41:59Z</time>
      </trkpt>
      <trkpt lat="42.81147" lon="-0.09921">
        <ele>1755.02</ele>
        <time>2016-06-05T15:42:30Z</time>
      </trkpt>
      <trkpt lat="42.81148" lon="-0.09941">
        <ele>1754.54</ele>
        <time>2016-06-05T15:42:55Z</time>
      </trkpt>
      <trkpt lat="42.81166" lon="-0.0994">
        <ele>1753.1</ele>
        <time>2016-06-05T15:43:09Z</time>
      </trkpt>
      <trkpt lat="42.81179" lon="-0.09933">
        <ele>1750.22</ele>
        <time>2016-06-05T15:43:23Z</time>
      </trkpt>
      <trkpt lat="42.81189" lon="-0.09931">
        <ele>1748.78</ele>
        <time>2016-06-05T15:43:34Z</time>
      </trkpt>
      <trkpt lat="42.81197" lon="-0.09926">
        <ele>1746.85</ele>
        <time>2016-06-05T15:43:44Z</time>
      </trkpt>
      <trkpt lat="42.81207" lon="-0.09921">
        <ele>1744.93</ele>
        <time>2016-06-05T15:43:57Z</time>
      </trkpt>
      <trkpt lat="42.81209" lon="-0.09913">
        <ele>1742.53</ele>
        <time>2016-06-05T15:44:07Z</time>
      </trkpt>
      <trkpt lat="42.81213" lon="-0.09905">
        <ele>1740.6</ele>
        <time>2016-06-05T15:44:18Z</time>
      </trkpt>
      <trkpt lat="42.8122" lon="-0.09898">
        <ele>1738.2</ele>
        <time>2016-06-05T15:44:27Z</time>
      </trkpt>
      <trkpt lat="42.81224" lon="-0.09898">
        <ele>1736.76</ele>
        <time>2016-06-05T15:44:30Z</time>
      </trkpt>
      <trkpt lat="42.81229" lon="-0.09895">
        <ele>1735.8</ele>
        <time>2016-06-05T15:44:35Z</time>
      </trkpt>
      <trkpt lat="42.81243" lon="-0.0989">
        <ele>1733.88</ele>
        <time>2016-06-05T15:44:49Z</time>
      </trkpt>
      <trkpt lat="42.81243" lon="-0.09889">
        <ele>1733.88</ele>
        <time>2016-06-05T15:44:50Z</time>
      </trkpt>
      <trkpt lat="42.81253" lon="-0.09883">
        <ele>1730.51</ele>
        <time>2016-06-05T15:45:04Z</time>
      </trkpt>
      <trkpt lat="42.81263" lon="-0.09885">
        <ele>1728.59</ele>
        <time>2016-06-05T15:45:14Z</time>
      </trkpt>
      <trkpt lat="42.81269" lon="-0.0989">
        <ele>1728.11</ele>
        <time>2016-06-05T15:45:31Z</time>
      </trkpt>
      <trkpt lat="42.81272" lon="-0.09891">
        <ele>1727.63</ele>
        <time>2016-06-05T15:45:33Z</time>
      </trkpt>
      <trkpt lat="42.81277" lon="-0.09889">
        <ele>1726.67</ele>
        <time>2016-06-05T15:45:39Z</time>
      </trkpt>
      <trkpt lat="42.81281" lon="-0.09891">
        <ele>1726.18</ele>
        <time>2016-06-05T15:45:42Z</time>
      </trkpt>
      <trkpt lat="42.81287" lon="-0.09895">
        <ele>1725.7</ele>
        <time>2016-06-05T15:45:47Z</time>
      </trkpt>
      <trkpt lat="42.81294" lon="-0.09892">
        <ele>1724.74</ele>
        <time>2016-06-05T15:45:59Z</time>
      </trkpt>
      <trkpt lat="42.81304" lon="-0.0989">
        <ele>1723.78</ele>
        <time>2016-06-05T15:46:13Z</time>
      </trkpt>
      <trkpt lat="42.81317" lon="-0.09884">
        <ele>1722.82</ele>
        <time>2016-06-05T15:46:27Z</time>
      </trkpt>
      <trkpt lat="42.8132" lon="-0.0987">
        <ele>1721.38</ele>
        <time>2016-06-05T15:46:39Z</time>
      </trkpt>
      <trkpt lat="42.81325" lon="-0.09867">
        <ele>1719.46</ele>
        <time>2016-06-05T15:46:50Z</time>
      </trkpt>
      <trkpt lat="42.81336" lon="-0.09872">
        <ele>1718.49</ele>
        <time>2016-06-05T15:47:01Z</time>
      </trkpt>
      <trkpt lat="42.81345" lon="-0.09862">
        <ele>1716.57</ele>
        <time>2016-06-05T15:47:14Z</time>
      </trkpt>
      <trkpt lat="42.81348" lon="-0.09864">
        <ele>1716.57</ele>
        <time>2016-06-05T15:47:16Z</time>
      </trkpt>
      <trkpt lat="42.81355" lon="-0.09867">
        <ele>1715.61</ele>
        <time>2016-06-05T15:47:23Z</time>
      </trkpt>
      <trkpt lat="42.8136" lon="-0.09868">
        <ele>1714.65</ele>
        <time>2016-06-05T15:47:28Z</time>
      </trkpt>
      <trkpt lat="42.81366" lon="-0.09871">
        <ele>1714.65</ele>
        <time>2016-06-05T15:47:33Z</time>
      </trkpt>
      <trkpt lat="42.81378" lon="-0.09878">
        <ele>1714.17</ele>
        <time>2016-06-05T15:47:43Z</time>
      </trkpt>
      <trkpt lat="42.81388" lon="-0.09881">
        <ele>1713.69</ele>
        <time>2016-06-05T15:47:56Z</time>
      </trkpt>
      <trkpt lat="42.81391" lon="-0.09883">
        <ele>1715.13</ele>
        <time>2016-06-05T15:47:59Z</time>
      </trkpt>
      <trkpt lat="42.81401" lon="-0.09886">
        <ele>1714.65</ele>
        <time>2016-06-05T15:48:11Z</time>
      </trkpt>
      <trkpt lat="42.81417" lon="-0.09884">
        <ele>1711.28</ele>
        <time>2016-06-05T15:48:23Z</time>
      </trkpt>
      <trkpt lat="42.81423" lon="-0.09876">
        <ele>1708.4</ele>
        <time>2016-06-05T15:48:37Z</time>
      </trkpt>
      <trkpt lat="42.81431" lon="-0.09871">
        <ele>1705.04</ele>
        <time>2016-06-05T15:48:52Z</time>
      </trkpt>
      <trkpt lat="42.81434" lon="-0.09865">
        <ele>1703.11</ele>
        <time>2016-06-05T15:49:02Z</time>
      </trkpt>
      <trkpt lat="42.81442" lon="-0.09866">
        <ele>1699.75</ele>
        <time>2016-06-05T15:49:17Z</time>
      </trkpt>
      <trkpt lat="42.81447" lon="-0.09862">
        <ele>1697.83</ele>
        <time>2016-06-05T15:49:28Z</time>
      </trkpt>
      <trkpt lat="42.81446" lon="-0.09854">
        <ele>1696.38</ele>
        <time>2016-06-05T15:49:40Z</time>
      </trkpt>
      <trkpt lat="42.81452" lon="-0.09853">
        <ele>1694.46</ele>
        <time>2016-06-05T15:50:03Z</time>
      </trkpt>
      <trkpt lat="42.81459" lon="-0.09853">
        <ele>1691.58</ele>
        <time>2016-06-05T15:50:14Z</time>
      </trkpt>
      <trkpt lat="42.81465" lon="-0.09857">
        <ele>1688.69</ele>
        <time>2016-06-05T15:50:29Z</time>
      </trkpt>
      <trkpt lat="42.81467" lon="-0.09847">
        <ele>1685.81</ele>
        <time>2016-06-05T15:50:42Z</time>
      </trkpt>
      <trkpt lat="42.81471" lon="-0.09848">
        <ele>1684.85</ele>
        <time>2016-06-05T15:51:00Z</time>
      </trkpt>
      <trkpt lat="42.81477" lon="-0.09849">
        <ele>1682.44</ele>
        <time>2016-06-05T15:51:12Z</time>
      </trkpt>
      <trkpt lat="42.81481" lon="-0.09857">
        <ele>1680.52</ele>
        <time>2016-06-05T15:51:20Z</time>
      </trkpt>
      <trkpt lat="42.81486" lon="-0.09859">
        <ele>1679.56</ele>
        <time>2016-06-05T15:51:25Z</time>
      </trkpt>
      <trkpt lat="42.81488" lon="-0.0986">
        <ele>1678.6</ele>
        <time>2016-06-05T15:51:27Z</time>
      </trkpt>
      <trkpt lat="42.81493" lon="-0.09856">
        <ele>1677.64</ele>
        <time>2016-06-05T15:51:35Z</time>
      </trkpt>
      <trkpt lat="42.8149" lon="-0.0985">
        <ele>1675.72</ele>
        <time>2016-06-05T15:51:47Z</time>
      </trkpt>
      <trkpt lat="42.81488" lon="-0.09842">
        <ele>1673.31</ele>
        <time>2016-06-05T15:52:01Z</time>
      </trkpt>
      <trkpt lat="42.81488" lon="-0.0983">
        <ele>1671.39</ele>
        <time>2016-06-05T15:52:11Z</time>
      </trkpt>
      <trkpt lat="42.81498" lon="-0.09842">
        <ele>1668.99</ele>
        <time>2016-06-05T15:52:25Z</time>
      </trkpt>
      <trkpt lat="42.81504" lon="-0.09853">
        <ele>1667.06</ele>
        <time>2016-06-05T15:52:38Z</time>
      </trkpt>
      <trkpt lat="42.81506" lon="-0.09856">
        <ele>1665.62</ele>
        <time>2016-06-05T15:52:47Z</time>
      </trkpt>
      <trkpt lat="42.81513" lon="-0.09855">
        <ele>1664.18</ele>
        <time>2016-06-05T15:52:56Z</time>
      </trkpt>
      <trkpt lat="42.81513" lon="-0.09851">
        <ele>1661.78</ele>
        <time>2016-06-05T15:53:08Z</time>
      </trkpt>
      <trkpt lat="42.8152" lon="-0.09844">
        <ele>1658.89</ele>
        <time>2016-06-05T15:53:22Z</time>
      </trkpt>
      <trkpt lat="42.81521" lon="-0.09846">
        <ele>1657.45</ele>
        <time>2016-06-05T15:53:33Z</time>
      </trkpt>
      <trkpt lat="42.81524" lon="-0.09839">
        <ele>1655.53</ele>
        <time>2016-06-05T15:53:44Z</time>
      </trkpt>
      <trkpt lat="42.81531" lon="-0.09839">
        <ele>1654.57</ele>
        <time>2016-06-05T15:53:56Z</time>
      </trkpt>
      <trkpt lat="42.81534" lon="-0.0984">
        <ele>1652.64</ele>
        <time>2016-06-05T15:54:09Z</time>
      </trkpt>
      <trkpt lat="42.81542" lon="-0.09844">
        <ele>1651.2</ele>
        <time>2016-06-05T15:54:22Z</time>
      </trkpt>
      <trkpt lat="42.81543" lon="-0.09843">
        <ele>1651.2</ele>
        <time>2016-06-05T15:54:38Z</time>
      </trkpt>
      <trkpt lat="42.8155" lon="-0.09851">
        <ele>1648.8</ele>
        <time>2016-06-05T15:54:51Z</time>
      </trkpt>
      <trkpt lat="42.81554" lon="-0.09856">
        <ele>1646.88</ele>
        <time>2016-06-05T15:55:03Z</time>
      </trkpt>
      <trkpt lat="42.81562" lon="-0.0986">
        <ele>1645.43</ele>
        <time>2016-06-05T15:55:16Z</time>
      </trkpt>
      <trkpt lat="42.81571" lon="-0.09858">
        <ele>1643.51</ele>
        <time>2016-06-05T15:55:29Z</time>
      </trkpt>
      <trkpt lat="42.81579" lon="-0.0986">
        <ele>1641.59</ele>
        <time>2016-06-05T15:55:45Z</time>
      </trkpt>
      <trkpt lat="42.81584" lon="-0.09865">
        <ele>1639.19</ele>
        <time>2016-06-05T15:55:59Z</time>
      </trkpt>
      <trkpt lat="42.81587" lon="-0.09876">
        <ele>1637.26</ele>
        <time>2016-06-05T15:56:12Z</time>
      </trkpt>
      <trkpt lat="42.81603" lon="-0.09867">
        <ele>1634.86</ele>
        <time>2016-06-05T15:56:25Z</time>
      </trkpt>
      <trkpt lat="42.81609" lon="-0.09859">
        <ele>1632.94</ele>
        <time>2016-06-05T15:56:38Z</time>
      </trkpt>
      <trkpt lat="42.81615" lon="-0.09859">
        <ele>1631.01</ele>
        <time>2016-06-05T15:56:54Z</time>
      </trkpt>
      <trkpt lat="42.81632" lon="-0.09861">
        <ele>1629.09</ele>
        <time>2016-06-05T15:57:05Z</time>
      </trkpt>
      <trkpt lat="42.81647" lon="-0.09864">
        <ele>1628.61</ele>
        <time>2016-06-05T15:57:20Z</time>
      </trkpt>
      <trkpt lat="42.81658" lon="-0.09859">
        <ele>1627.17</ele>
        <time>2016-06-05T15:57:32Z</time>
      </trkpt>
      <trkpt lat="42.81669" lon="-0.09849">
        <ele>1625.25</ele>
        <time>2016-06-05T15:57:44Z</time>
      </trkpt>
      <trkpt lat="42.81677" lon="-0.0984">
        <ele>1623.8</ele>
        <time>2016-06-05T15:57:56Z</time>
      </trkpt>
      <trkpt lat="42.81677" lon="-0.0984">
        <ele>1623.32</ele>
        <time>2016-06-05T15:57:57Z</time>
      </trkpt>
      <trkpt lat="42.81683" lon="-0.09836">
        <ele>1622.84</ele>
        <time>2016-06-05T15:58:02Z</time>
      </trkpt>
      <trkpt lat="42.81697" lon="-0.09833">
        <ele>1621.88</ele>
        <time>2016-06-05T15:58:17Z</time>
      </trkpt>
      <trkpt lat="42.81712" lon="-0.09828">
        <ele>1620.92</ele>
        <time>2016-06-05T15:58:34Z</time>
      </trkpt>
      <trkpt lat="42.81716" lon="-0.09823">
        <ele>1620.92</ele>
        <time>2016-06-05T15:58:48Z</time>
      </trkpt>
      <trkpt lat="42.81714" lon="-0.09819">
        <ele>1620.92</ele>
        <time>2016-06-05T15:59:02Z</time>
      </trkpt>
      <trkpt lat="42.81713" lon="-0.09822">
        <ele>1620.92</ele>
        <time>2016-06-05T15:59:26Z</time>
      </trkpt>
      <trkpt lat="42.8172" lon="-0.09831">
        <ele>1619.48</ele>
        <time>2016-06-05T15:59:37Z</time>
      </trkpt>
      <trkpt lat="42.81731" lon="-0.09836">
        <ele>1618.52</ele>
        <time>2016-06-05T15:59:50Z</time>
      </trkpt>
      <trkpt lat="42.8174" lon="-0.09831">
        <ele>1618.04</ele>
        <time>2016-06-05T16:00:02Z</time>
      </trkpt>
      <trkpt lat="42.81743" lon="-0.09831">
        <ele>1617.56</ele>
        <time>2016-06-05T16:00:05Z</time>
      </trkpt>
      <trkpt lat="42.81756" lon="-0.09826">
        <ele>1616.59</ele>
        <time>2016-06-05T16:00:17Z</time>
      </trkpt>
      <trkpt lat="42.81772" lon="-0.09825">
        <ele>1615.15</ele>
        <time>2016-06-05T16:00:28Z</time>
      </trkpt>
      <trkpt lat="42.81779" lon="-0.09822">
        <ele>1614.67</ele>
        <time>2016-06-05T16:00:38Z</time>
      </trkpt>
      <trkpt lat="42.8179" lon="-0.0982">
        <ele>1613.23</ele>
        <time>2016-06-05T16:00:52Z</time>
      </trkpt>
      <trkpt lat="42.81791" lon="-0.0982">
        <ele>1613.23</ele>
        <time>2016-06-05T16:00:54Z</time>
      </trkpt>
      <trkpt lat="42.81797" lon="-0.09813">
        <ele>1612.75</ele>
        <time>2016-06-05T16:01:06Z</time>
      </trkpt>
      <trkpt lat="42.81798" lon="-0.09811">
        <ele>1612.75</ele>
        <time>2016-06-05T16:01:25Z</time>
      </trkpt>
      <trkpt lat="42.81799" lon="-0.09811">
        <ele>1612.75</ele>
        <time>2016-06-05T16:01:27Z</time>
      </trkpt>
      <trkpt lat="42.81808" lon="-0.09802">
        <ele>1611.79</ele>
        <time>2016-06-05T16:01:39Z</time>
      </trkpt>
      <trkpt lat="42.81814" lon="-0.09797">
        <ele>1611.79</ele>
        <time>2016-06-05T16:01:45Z</time>
      </trkpt>
      <trkpt lat="42.81824" lon="-0.09798">
        <ele>1610.83</ele>
        <time>2016-06-05T16:01:56Z</time>
      </trkpt>
      <trkpt lat="42.81834" lon="-0.09789">
        <ele>1608.9</ele>
        <time>2016-06-05T16:02:09Z</time>
      </trkpt>
      <trkpt lat="42.81844" lon="-0.09786">
        <ele>1608.42</ele>
        <time>2016-06-05T16:02:17Z</time>
      </trkpt>
      <trkpt lat="42.8185" lon="-0.09779">
        <ele>1606.5</ele>
        <time>2016-06-05T16:02:28Z</time>
      </trkpt>
      <trkpt lat="42.81855" lon="-0.0978">
        <ele>1606.02</ele>
        <time>2016-06-05T16:02:32Z</time>
      </trkpt>
      <trkpt lat="42.81861" lon="-0.09785">
        <ele>1605.54</ele>
        <time>2016-06-05T16:02:38Z</time>
      </trkpt>
      <trkpt lat="42.81867" lon="-0.09788">
        <ele>1605.54</ele>
        <time>2016-06-05T16:02:51Z</time>
      </trkpt>
      <trkpt lat="42.81869" lon="-0.09794">
        <ele>1605.54</ele>
        <time>2016-06-05T16:03:08Z</time>
      </trkpt>
      <trkpt lat="42.81871" lon="-0.09798">
        <ele>1605.54</ele>
        <time>2016-06-05T16:03:11Z</time>
      </trkpt>
      <trkpt lat="42.81873" lon="-0.09801">
        <ele>1605.54</ele>
        <time>2016-06-05T16:03:13Z</time>
      </trkpt>
      <trkpt lat="42.81875" lon="-0.09802">
        <ele>1605.54</ele>
        <time>2016-06-05T16:03:15Z</time>
      </trkpt>
      <trkpt lat="42.81877" lon="-0.09805">
        <ele>1605.06</ele>
        <time>2016-06-05T16:03:18Z</time>
      </trkpt>
      <trkpt lat="42.81878" lon="-0.09807">
        <ele>1605.06</ele>
        <time>2016-06-05T16:03:20Z</time>
      </trkpt>
      <trkpt lat="42.8188" lon="-0.0981">
        <ele>1605.06</ele>
        <time>2016-06-05T16:03:23Z</time>
      </trkpt>
      <trkpt lat="42.81888" lon="-0.0982">
        <ele>1604.1</ele>
        <time>2016-06-05T16:03:35Z</time>
      </trkpt>
      <trkpt lat="42.81899" lon="-0.09822">
        <ele>1602.66</ele>
        <time>2016-06-05T16:03:48Z</time>
      </trkpt>
      <trkpt lat="42.81898" lon="-0.09823">
        <ele>1602.66</ele>
        <time>2016-06-05T16:03:49Z</time>
      </trkpt>
      <trkpt lat="42.81903" lon="-0.09825">
        <ele>1602.66</ele>
        <time>2016-06-05T16:03:55Z</time>
      </trkpt>
      <trkpt lat="42.81906" lon="-0.09824">
        <ele>1602.66</ele>
        <time>2016-06-05T16:03:59Z</time>
      </trkpt>
      <trkpt lat="42.81912" lon="-0.09825">
        <ele>1602.66</ele>
        <time>2016-06-05T16:04:04Z</time>
      </trkpt>
      <trkpt lat="42.81915" lon="-0.09826">
        <ele>1602.66</ele>
        <time>2016-06-05T16:04:06Z</time>
      </trkpt>
      <trkpt lat="42.81926" lon="-0.09827">
        <ele>1602.66</ele>
        <time>2016-06-05T16:04:14Z</time>
      </trkpt>
      <trkpt lat="42.81947" lon="-0.09822">
        <ele>1601.69</ele>
        <time>2016-06-05T16:04:29Z</time>
      </trkpt>
      <trkpt lat="42.81956" lon="-0.09825">
        <ele>1601.69</ele>
        <time>2016-06-05T16:04:40Z</time>
      </trkpt>
      <trkpt lat="42.81969" lon="-0.09824">
        <ele>1602.66</ele>
        <time>2016-06-05T16:04:54Z</time>
      </trkpt>
      <trkpt lat="42.81973" lon="-0.09821">
        <ele>1601.69</ele>
        <time>2016-06-05T16:04:58Z</time>
      </trkpt>
      <trkpt lat="42.81982" lon="-0.09814">
        <ele>1600.25</ele>
        <time>2016-06-05T16:05:09Z</time>
      </trkpt>
      <trkpt lat="42.81986" lon="-0.09814">
        <ele>1599.77</ele>
        <time>2016-06-05T16:05:12Z</time>
      </trkpt>
      <trkpt lat="42.81989" lon="-0.09814">
        <ele>1599.77</ele>
        <time>2016-06-05T16:05:14Z</time>
      </trkpt>
      <trkpt lat="42.82002" lon="-0.09805">
        <ele>1596.89</ele>
        <time>2016-06-05T16:05:28Z</time>
      </trkpt>
      <trkpt lat="42.82002" lon="-0.09805">
        <ele>1596.89</ele>
        <time>2016-06-05T16:05:29Z</time>
      </trkpt>
      <trkpt lat="42.82009" lon="-0.09798">
        <ele>1594.96</ele>
        <time>2016-06-05T16:05:39Z</time>
      </trkpt>
      <trkpt lat="42.8202" lon="-0.09793">
        <ele>1593.04</ele>
        <time>2016-06-05T16:05:50Z</time>
      </trkpt>
      <trkpt lat="42.82027" lon="-0.09792">
        <ele>1591.12</ele>
        <time>2016-06-05T16:06:03Z</time>
      </trkpt>
      <trkpt lat="42.8204" lon="-0.0979">
        <ele>1589.2</ele>
        <time>2016-06-05T16:06:16Z</time>
      </trkpt>
      <trkpt lat="42.82052" lon="-0.0979">
        <ele>1587.75</ele>
        <time>2016-06-05T16:06:28Z</time>
      </trkpt>
      <trkpt lat="42.82059" lon="-0.09791">
        <ele>1586.31</ele>
        <time>2016-06-05T16:06:37Z</time>
      </trkpt>
      <trkpt lat="42.8207" lon="-0.09792">
        <ele>1585.35</ele>
        <time>2016-06-05T16:06:47Z</time>
      </trkpt>
      <trkpt lat="42.82083" lon="-0.09797">
        <ele>1583.43</ele>
        <time>2016-06-05T16:07:02Z</time>
      </trkpt>
      <trkpt lat="42.8209" lon="-0.09795">
        <ele>1582.95</ele>
        <time>2016-06-05T16:07:11Z</time>
      </trkpt>
      <trkpt lat="42.82098" lon="-0.09793">
        <ele>1581.99</ele>
        <time>2016-06-05T16:07:24Z</time>
      </trkpt>
      <trkpt lat="42.82108" lon="-0.09796">
        <ele>1581.51</ele>
        <time>2016-06-05T16:07:41Z</time>
      </trkpt>
      <trkpt lat="42.82119" lon="-0.09796">
        <ele>1581.03</ele>
        <time>2016-06-05T16:07:54Z</time>
      </trkpt>
      <trkpt lat="42.82123" lon="-0.09795">
        <ele>1581.03</ele>
        <time>2016-06-05T16:07:58Z</time>
      </trkpt>
      <trkpt lat="42.82126" lon="-0.09789">
        <ele>1580.54</ele>
        <time>2016-06-05T16:08:04Z</time>
      </trkpt>
      <trkpt lat="42.82131" lon="-0.09786">
        <ele>1579.58</ele>
        <time>2016-06-05T16:08:09Z</time>
      </trkpt>
      <trkpt lat="42.82135" lon="-0.09785">
        <ele>1579.1</ele>
        <time>2016-06-05T16:08:12Z</time>
      </trkpt>
      <trkpt lat="42.8214" lon="-0.09783">
        <ele>1578.62</ele>
        <time>2016-06-05T16:08:16Z</time>
      </trkpt>
      <trkpt lat="42.82147" lon="-0.09785">
        <ele>1578.14</ele>
        <time>2016-06-05T16:08:21Z</time>
      </trkpt>
      <trkpt lat="42.82151" lon="-0.09783">
        <ele>1577.66</ele>
        <time>2016-06-05T16:08:25Z</time>
      </trkpt>
      <trkpt lat="42.82159" lon="-0.09779">
        <ele>1576.7</ele>
        <time>2016-06-05T16:08:33Z</time>
      </trkpt>
      <trkpt lat="42.82169" lon="-0.09775">
        <ele>1575.26</ele>
        <time>2016-06-05T16:08:46Z</time>
      </trkpt>
      <trkpt lat="42.82184" lon="-0.09768">
        <ele>1573.33</ele>
        <time>2016-06-05T16:09:00Z</time>
      </trkpt>
      <trkpt lat="42.82186" lon="-0.09767">
        <ele>1572.85</ele>
        <time>2016-06-05T16:09:03Z</time>
      </trkpt>
      <trkpt lat="42.82202" lon="-0.09753">
        <ele>1570.45</ele>
        <time>2016-06-05T16:09:19Z</time>
      </trkpt>
      <trkpt lat="42.82205" lon="-0.0975">
        <ele>1569.97</ele>
        <time>2016-06-05T16:09:23Z</time>
      </trkpt>
      <trkpt lat="42.82218" lon="-0.09742">
        <ele>1568.53</ele>
        <time>2016-06-05T16:09:37Z</time>
      </trkpt>
      <trkpt lat="42.82224" lon="-0.09738">
        <ele>1568.05</ele>
        <time>2016-06-05T16:09:43Z</time>
      </trkpt>
      <trkpt lat="42.82241" lon="-0.09725">
        <ele>1566.61</ele>
        <time>2016-06-05T16:09:58Z</time>
      </trkpt>
      <trkpt lat="42.82246" lon="-0.09716">
        <ele>1566.12</ele>
        <time>2016-06-05T16:10:13Z</time>
      </trkpt>
      <trkpt lat="42.82249" lon="-0.09717">
        <ele>1566.12</ele>
        <time>2016-06-05T16:10:16Z</time>
      </trkpt>
      <trkpt lat="42.8226" lon="-0.09715">
        <ele>1565.16</ele>
        <time>2016-06-05T16:10:28Z</time>
      </trkpt>
      <trkpt lat="42.82267" lon="-0.09711">
        <ele>1564.68</ele>
        <time>2016-06-05T16:10:41Z</time>
      </trkpt>
      <trkpt lat="42.82284" lon="-0.0971">
        <ele>1562.76</ele>
        <time>2016-06-05T16:10:57Z</time>
      </trkpt>
      <trkpt lat="42.82286" lon="-0.09711">
        <ele>1562.76</ele>
        <time>2016-06-05T16:10:59Z</time>
      </trkpt>
      <trkpt lat="42.82294" lon="-0.09712">
        <ele>1562.28</ele>
        <time>2016-06-05T16:11:06Z</time>
      </trkpt>
      <trkpt lat="42.82298" lon="-0.09713">
        <ele>1561.8</ele>
        <time>2016-06-05T16:11:12Z</time>
      </trkpt>
      <trkpt lat="42.82309" lon="-0.09707">
        <ele>1560.36</ele>
        <time>2016-06-05T16:11:25Z</time>
      </trkpt>
      <trkpt lat="42.82315" lon="-0.09707">
        <ele>1559.88</ele>
        <time>2016-06-05T16:11:31Z</time>
      </trkpt>
      <trkpt lat="42.82319" lon="-0.09709">
        <ele>1559.88</ele>
        <time>2016-06-05T16:11:35Z</time>
      </trkpt>
      <trkpt lat="42.82324" lon="-0.09706">
        <ele>1559.4</ele>
        <time>2016-06-05T16:11:41Z</time>
      </trkpt>
      <trkpt lat="42.82335" lon="-0.09703">
        <ele>1559.4</ele>
        <time>2016-06-05T16:11:52Z</time>
      </trkpt>
      <trkpt lat="42.82338" lon="-0.09702">
        <ele>1559.4</ele>
        <time>2016-06-05T16:11:55Z</time>
      </trkpt>
      <trkpt lat="42.82343" lon="-0.097">
        <ele>1559.4</ele>
        <time>2016-06-05T16:12:00Z</time>
      </trkpt>
      <trkpt lat="42.82344" lon="-0.09699">
        <ele>1559.4</ele>
        <time>2016-06-05T16:12:02Z</time>
      </trkpt>
      <trkpt lat="42.82355" lon="-0.0969">
        <ele>1559.4</ele>
        <time>2016-06-05T16:12:14Z</time>
      </trkpt>
      <trkpt lat="42.82363" lon="-0.09685">
        <ele>1557.95</ele>
        <time>2016-06-05T16:12:22Z</time>
      </trkpt>
      <trkpt lat="42.8237" lon="-0.09676">
        <ele>1557.47</ele>
        <time>2016-06-05T16:12:35Z</time>
      </trkpt>
      <trkpt lat="42.82377" lon="-0.09665">
        <ele>1556.99</ele>
        <time>2016-06-05T16:12:55Z</time>
      </trkpt>
      <trkpt lat="42.82379" lon="-0.09662">
        <ele>1556.99</ele>
        <time>2016-06-05T16:12:58Z</time>
      </trkpt>
      <trkpt lat="42.82386" lon="-0.0966">
        <ele>1556.03</ele>
        <time>2016-06-05T16:13:03Z</time>
      </trkpt>
      <trkpt lat="42.82388" lon="-0.09659">
        <ele>1555.55</ele>
        <time>2016-06-05T16:13:05Z</time>
      </trkpt>
      <trkpt lat="42.82392" lon="-0.09654">
        <ele>1555.07</ele>
        <time>2016-06-05T16:13:10Z</time>
      </trkpt>
      <trkpt lat="42.82391" lon="-0.09648">
        <ele>1554.59</ele>
        <time>2016-06-05T16:13:24Z</time>
      </trkpt>
      <trkpt lat="42.82389" lon="-0.0964">
        <ele>1554.59</ele>
        <time>2016-06-05T16:13:30Z</time>
      </trkpt>
      <trkpt lat="42.82395" lon="-0.09629">
        <ele>1553.63</ele>
        <time>2016-06-05T16:13:41Z</time>
      </trkpt>
      <trkpt lat="42.82398" lon="-0.09628">
        <ele>1553.63</ele>
        <time>2016-06-05T16:13:44Z</time>
      </trkpt>
      <trkpt lat="42.82406" lon="-0.09626">
        <ele>1553.63</ele>
        <time>2016-06-05T16:13:49Z</time>
      </trkpt>
      <trkpt lat="42.8241" lon="-0.09627">
        <ele>1553.63</ele>
        <time>2016-06-05T16:13:53Z</time>
      </trkpt>
      <trkpt lat="42.82425" lon="-0.09622">
        <ele>1552.67</ele>
        <time>2016-06-05T16:14:05Z</time>
      </trkpt>
      <trkpt lat="42.82439" lon="-0.09625">
        <ele>1552.19</ele>
        <time>2016-06-05T16:14:16Z</time>
      </trkpt>
      <trkpt lat="42.82451" lon="-0.09623">
        <ele>1551.71</ele>
        <time>2016-06-05T16:14:27Z</time>
      </trkpt>
      <trkpt lat="42.82457" lon="-0.09617">
        <ele>1551.22</ele>
        <time>2016-06-05T16:14:39Z</time>
      </trkpt>
      <trkpt lat="42.8246" lon="-0.09619">
        <ele>1550.74</ele>
        <time>2016-06-05T16:14:55Z</time>
      </trkpt>
      <trkpt lat="42.82465" lon="-0.09615">
        <ele>1550.74</ele>
        <time>2016-06-05T16:15:04Z</time>
      </trkpt>
      <trkpt lat="42.8247" lon="-0.09616">
        <ele>1550.74</ele>
        <time>2016-06-05T16:15:10Z</time>
      </trkpt>
      <trkpt lat="42.82479" lon="-0.09619">
        <ele>1549.3</ele>
        <time>2016-06-05T16:15:17Z</time>
      </trkpt>
      <trkpt lat="42.82491" lon="-0.09617">
        <ele>1549.3</ele>
        <time>2016-06-05T16:15:24Z</time>
      </trkpt>
      <trkpt lat="42.82504" lon="-0.09619">
        <ele>1548.34</ele>
        <time>2016-06-05T16:15:37Z</time>
      </trkpt>
      <trkpt lat="42.82516" lon="-0.0962">
        <ele>1547.38</ele>
        <time>2016-06-05T16:15:49Z</time>
      </trkpt>
      <trkpt lat="42.82523" lon="-0.09615">
        <ele>1547.38</ele>
        <time>2016-06-05T16:15:59Z</time>
      </trkpt>
      <trkpt lat="42.82533" lon="-0.09614">
        <ele>1547.38</ele>
        <time>2016-06-05T16:16:12Z</time>
      </trkpt>
      <trkpt lat="42.82534" lon="-0.09616">
        <ele>1548.82</ele>
        <time>2016-06-05T16:16:17Z</time>
      </trkpt>
      <trkpt lat="42.82539" lon="-0.09616">
        <ele>1549.78</ele>
        <time>2016-06-05T16:16:27Z</time>
      </trkpt>
      <trkpt lat="42.82546" lon="-0.0962">
        <ele>1549.78</ele>
        <time>2016-06-05T16:16:38Z</time>
      </trkpt>
      <trkpt lat="42.82549" lon="-0.0962">
        <ele>1549.78</ele>
        <time>2016-06-05T16:16:41Z</time>
      </trkpt>
      <trkpt lat="42.82561" lon="-0.09623">
        <ele>1547.86</ele>
        <time>2016-06-05T16:16:54Z</time>
      </trkpt>
      <trkpt lat="42.82563" lon="-0.09624">
        <ele>1547.86</ele>
        <time>2016-06-05T16:16:55Z</time>
      </trkpt>
      <trkpt lat="42.82582" lon="-0.09625">
        <ele>1547.38</ele>
        <time>2016-06-05T16:17:08Z</time>
      </trkpt>
      <trkpt lat="42.82586" lon="-0.09624">
        <ele>1546.9</ele>
        <time>2016-06-05T16:17:12Z</time>
      </trkpt>
      <trkpt lat="42.82596" lon="-0.09621">
        <ele>1546.42</ele>
        <time>2016-06-05T16:17:19Z</time>
      </trkpt>
      <trkpt lat="42.82597" lon="-0.09621">
        <ele>1546.42</ele>
        <time>2016-06-05T16:17:20Z</time>
      </trkpt>
      <trkpt lat="42.82616" lon="-0.09621">
        <ele>1544.98</ele>
        <time>2016-06-05T16:17:35Z</time>
      </trkpt>
      <trkpt lat="42.8264" lon="-0.09619">
        <ele>1544.5</ele>
        <time>2016-06-05T16:17:48Z</time>
      </trkpt>
      <trkpt lat="42.82644" lon="-0.09616">
        <ele>1543.53</ele>
        <time>2016-06-05T16:17:58Z</time>
      </trkpt>
      <trkpt lat="42.82649" lon="-0.09613">
        <ele>1543.53</ele>
        <time>2016-06-05T16:18:03Z</time>
      </trkpt>
      <trkpt lat="42.82653" lon="-0.09609">
        <ele>1543.53</ele>
        <time>2016-06-05T16:18:07Z</time>
      </trkpt>
      <trkpt lat="42.82657" lon="-0.09605">
        <ele>1543.53</ele>
        <time>2016-06-05T16:18:12Z</time>
      </trkpt>
      <trkpt lat="42.8266" lon="-0.09602">
        <ele>1542.57</ele>
        <time>2016-06-05T16:18:15Z</time>
      </trkpt>
      <trkpt lat="42.82662" lon="-0.09602">
        <ele>1542.57</ele>
        <time>2016-06-05T16:18:17Z</time>
      </trkpt>
      <trkpt lat="42.82673" lon="-0.09595">
        <ele>1542.57</ele>
        <time>2016-06-05T16:18:31Z</time>
      </trkpt>
      <trkpt lat="42.82678" lon="-0.09588">
        <ele>1541.61</ele>
        <time>2016-06-05T16:18:43Z</time>
      </trkpt>
      <trkpt lat="42.82686" lon="-0.09579">
        <ele>1541.13</ele>
        <time>2016-06-05T16:18:55Z</time>
      </trkpt>
      <trkpt lat="42.82689" lon="-0.09575">
        <ele>1540.17</ele>
        <time>2016-06-05T16:18:59Z</time>
      </trkpt>
      <trkpt lat="42.82694" lon="-0.09571">
        <ele>1539.69</ele>
        <time>2016-06-05T16:19:13Z</time>
      </trkpt>
      <trkpt lat="42.82698" lon="-0.09568">
        <ele>1539.69</ele>
        <time>2016-06-05T16:19:27Z</time>
      </trkpt>
      <trkpt lat="42.82702" lon="-0.09569">
        <ele>1539.21</ele>
        <time>2016-06-05T16:19:45Z</time>
      </trkpt>
      <trkpt lat="42.82704" lon="-0.09569">
        <ele>1538.73</ele>
        <time>2016-06-05T16:19:58Z</time>
      </trkpt>
      <trkpt lat="42.82708" lon="-0.09565">
        <ele>1538.25</ele>
        <time>2016-06-05T16:20:13Z</time>
      </trkpt>
      <trkpt lat="42.82714" lon="-0.09561">
        <ele>1537.29</ele>
        <time>2016-06-05T16:20:23Z</time>
      </trkpt>
      <trkpt lat="42.82724" lon="-0.09563">
        <ele>1535.84</ele>
        <time>2016-06-05T16:20:38Z</time>
      </trkpt>
      <trkpt lat="42.82733" lon="-0.09571">
        <ele>1534.88</ele>
        <time>2016-06-05T16:20:50Z</time>
      </trkpt>
      <trkpt lat="42.82748" lon="-0.09582">
        <ele>1534.4</ele>
        <time>2016-06-05T16:21:03Z</time>
      </trkpt>
      <trkpt lat="42.82752" lon="-0.09584">
        <ele>1533.92</ele>
        <time>2016-06-05T16:21:06Z</time>
      </trkpt>
      <trkpt lat="42.82761" lon="-0.09586">
        <ele>1532.96</ele>
        <time>2016-06-05T16:21:16Z</time>
      </trkpt>
      <trkpt lat="42.82771" lon="-0.09595">
        <ele>1532</ele>
        <time>2016-06-05T16:21:28Z</time>
      </trkpt>
      <trkpt lat="42.82782" lon="-0.09599">
        <ele>1530.56</ele>
        <time>2016-06-05T16:21:40Z</time>
      </trkpt>
      <trkpt lat="42.82792" lon="-0.09606">
        <ele>1529.59</ele>
        <time>2016-06-05T16:21:51Z</time>
      </trkpt>
      <trkpt lat="42.82804" lon="-0.09606">
        <ele>1529.59</ele>
        <time>2016-06-05T16:22:03Z</time>
      </trkpt>
      <trkpt lat="42.82813" lon="-0.09609">
        <ele>1529.59</ele>
        <time>2016-06-05T16:22:14Z</time>
      </trkpt>
      <trkpt lat="42.82824" lon="-0.09617">
        <ele>1528.15</ele>
        <time>2016-06-05T16:22:25Z</time>
      </trkpt>
      <trkpt lat="42.82827" lon="-0.09619">
        <ele>1527.67</ele>
        <time>2016-06-05T16:22:28Z</time>
      </trkpt>
      <trkpt lat="42.82838" lon="-0.09625">
        <ele>1527.19</ele>
        <time>2016-06-05T16:22:37Z</time>
      </trkpt>
      <trkpt lat="42.82845" lon="-0.0963">
        <ele>1526.23</ele>
        <time>2016-06-05T16:22:44Z</time>
      </trkpt>
      <trkpt lat="42.82859" lon="-0.09633">
        <ele>1524.31</ele>
        <time>2016-06-05T16:22:58Z</time>
      </trkpt>
      <trkpt lat="42.82874" lon="-0.09644">
        <ele>1522.87</ele>
        <time>2016-06-05T16:23:12Z</time>
      </trkpt>
      <trkpt lat="42.82883" lon="-0.09644">
        <ele>1522.87</ele>
        <time>2016-06-05T16:23:21Z</time>
      </trkpt>
      <trkpt lat="42.82899" lon="-0.09643">
        <ele>1522.87</ele>
        <time>2016-06-05T16:23:33Z</time>
      </trkpt>
      <trkpt lat="42.82917" lon="-0.09644">
        <ele>1521.9</ele>
        <time>2016-06-05T16:23:45Z</time>
      </trkpt>
      <trkpt lat="42.82931" lon="-0.09651">
        <ele>1521.42</ele>
        <time>2016-06-05T16:23:56Z</time>
      </trkpt>
      <trkpt lat="42.82947" lon="-0.09646">
        <ele>1520.46</ele>
        <time>2016-06-05T16:24:10Z</time>
      </trkpt>
      <trkpt lat="42.82957" lon="-0.09647">
        <ele>1519.98</ele>
        <time>2016-06-05T16:24:22Z</time>
      </trkpt>
      <trkpt lat="42.82968" lon="-0.09646">
        <ele>1519.02</ele>
        <time>2016-06-05T16:24:38Z</time>
      </trkpt>
      <trkpt lat="42.82977" lon="-0.09642">
        <ele>1518.54</ele>
        <time>2016-06-05T16:24:44Z</time>
      </trkpt>
      <trkpt lat="42.82982" lon="-0.09638">
        <ele>1518.54</ele>
        <time>2016-06-05T16:24:50Z</time>
      </trkpt>
      <trkpt lat="42.82989" lon="-0.09648">
        <ele>1518.06</ele>
        <time>2016-06-05T16:25:03Z</time>
      </trkpt>
      <trkpt lat="42.82995" lon="-0.09652">
        <ele>1518.06</ele>
        <time>2016-06-05T16:25:18Z</time>
      </trkpt>
      <trkpt lat="42.82994" lon="-0.09653">
        <ele>1517.58</ele>
        <time>2016-06-05T16:25:43Z</time>
      </trkpt>
      <trkpt lat="42.82994" lon="-0.09652">
        <ele>1517.58</ele>
        <time>2016-06-05T16:25:58Z</time>
      </trkpt>
      <trkpt lat="42.82994" lon="-0.09652">
        <ele>1519.02</ele>
        <time>2016-06-05T16:26:04Z</time>
      </trkpt>
      <trkpt lat="42.83002" lon="-0.09655">
        <ele>1518.06</ele>
        <time>2016-06-05T16:26:16Z</time>
      </trkpt>
      <trkpt lat="42.83005" lon="-0.09654">
        <ele>1518.06</ele>
        <time>2016-06-05T16:26:20Z</time>
      </trkpt>
      <trkpt lat="42.8301" lon="-0.09655">
        <ele>1518.06</ele>
        <time>2016-06-05T16:26:25Z</time>
      </trkpt>
      <trkpt lat="42.83019" lon="-0.09648">
        <ele>1518.06</ele>
        <time>2016-06-05T16:26:37Z</time>
      </trkpt>
      <trkpt lat="42.83024" lon="-0.09638">
        <ele>1519.5</ele>
        <time>2016-06-05T16:26:49Z</time>
      </trkpt>
      <trkpt lat="42.83031" lon="-0.09632">
        <ele>1519.98</ele>
        <time>2016-06-05T16:27:00Z</time>
      </trkpt>
      <trkpt lat="42.83033" lon="-0.09629">
        <ele>1519.98</ele>
        <time>2016-06-05T16:27:03Z</time>
      </trkpt>
      <trkpt lat="42.83041" lon="-0.09623">
        <ele>1518.54</ele>
        <time>2016-06-05T16:27:15Z</time>
      </trkpt>
      <trkpt lat="42.83045" lon="-0.0962">
        <ele>1518.54</ele>
        <time>2016-06-05T16:27:22Z</time>
      </trkpt>
      <trkpt lat="42.83053" lon="-0.09617">
        <ele>1518.54</ele>
        <time>2016-06-05T16:27:28Z</time>
      </trkpt>
      <trkpt lat="42.83055" lon="-0.0962">
        <ele>1518.06</ele>
        <time>2016-06-05T16:27:40Z</time>
      </trkpt>
      <trkpt lat="42.83054" lon="-0.09622">
        <ele>1518.06</ele>
        <time>2016-06-05T16:27:42Z</time>
      </trkpt>
      <trkpt lat="42.83053" lon="-0.09627">
        <ele>1517.58</ele>
        <time>2016-06-05T16:27:56Z</time>
      </trkpt>
      <trkpt lat="42.83053" lon="-0.09628">
        <ele>1517.58</ele>
        <time>2016-06-05T16:28:11Z</time>
      </trkpt>
      <trkpt lat="42.83057" lon="-0.09618">
        <ele>1517.58</ele>
        <time>2016-06-05T16:28:20Z</time>
      </trkpt>
      <trkpt lat="42.83062" lon="-0.09617">
        <ele>1517.58</ele>
        <time>2016-06-05T16:28:25Z</time>
      </trkpt>
      <trkpt lat="42.83074" lon="-0.09611">
        <ele>1517.1</ele>
        <time>2016-06-05T16:28:39Z</time>
      </trkpt>
      <trkpt lat="42.83086" lon="-0.09606">
        <ele>1517.1</ele>
        <time>2016-06-05T16:28:51Z</time>
      </trkpt>
      <trkpt lat="42.83097" lon="-0.09601">
        <ele>1516.62</ele>
        <time>2016-06-05T16:29:05Z</time>
      </trkpt>
      <trkpt lat="42.83101" lon="-0.096">
        <ele>1516.62</ele>
        <time>2016-06-05T16:29:15Z</time>
      </trkpt>
      <trkpt lat="42.83107" lon="-0.09603">
        <ele>1516.62</ele>
        <time>2016-06-05T16:29:31Z</time>
      </trkpt>
      <trkpt lat="42.83115" lon="-0.09597">
        <ele>1516.14</ele>
        <time>2016-06-05T16:29:40Z</time>
      </trkpt>
      <trkpt lat="42.83128" lon="-0.09593">
        <ele>1516.14</ele>
        <time>2016-06-05T16:29:50Z</time>
      </trkpt>
      <trkpt lat="42.83138" lon="-0.09588">
        <ele>1515.18</ele>
        <time>2016-06-05T16:30:01Z</time>
      </trkpt>
      <trkpt lat="42.83158" lon="-0.0958">
        <ele>1513.25</ele>
        <time>2016-06-05T16:30:16Z</time>
      </trkpt>
      <trkpt lat="42.83163" lon="-0.09578">
        <ele>1511.81</ele>
        <time>2016-06-05T16:30:23Z</time>
      </trkpt>
      <trkpt lat="42.83172" lon="-0.09576">
        <ele>1509.41</ele>
        <time>2016-06-05T16:30:36Z</time>
      </trkpt>
      <trkpt lat="42.83179" lon="-0.09577">
        <ele>1507.97</ele>
        <time>2016-06-05T16:30:48Z</time>
      </trkpt>
      <trkpt lat="42.83191" lon="-0.09578">
        <ele>1506.04</ele>
        <time>2016-06-05T16:31:01Z</time>
      </trkpt>
      <trkpt lat="42.832" lon="-0.09575">
        <ele>1504.6</ele>
        <time>2016-06-05T16:31:12Z</time>
      </trkpt>
      <trkpt lat="42.83203" lon="-0.09576">
        <ele>1504.12</ele>
        <time>2016-06-05T16:31:15Z</time>
      </trkpt>
      <trkpt lat="42.83208" lon="-0.09576">
        <ele>1503.64</ele>
        <time>2016-06-05T16:31:18Z</time>
      </trkpt>
      <trkpt lat="42.83214" lon="-0.09574">
        <ele>1503.64</ele>
        <time>2016-06-05T16:31:22Z</time>
      </trkpt>
      <trkpt lat="42.83219" lon="-0.09573">
        <ele>1503.16</ele>
        <time>2016-06-05T16:31:25Z</time>
      </trkpt>
      <trkpt lat="42.83227" lon="-0.09576">
        <ele>1500.27</ele>
        <time>2016-06-05T16:31:38Z</time>
      </trkpt>
      <trkpt lat="42.83235" lon="-0.09581">
        <ele>1497.39</ele>
        <time>2016-06-05T16:31:50Z</time>
      </trkpt>
      <trkpt lat="42.83241" lon="-0.09581">
        <ele>1496.91</ele>
        <time>2016-06-05T16:31:53Z</time>
      </trkpt>
      <trkpt lat="42.83246" lon="-0.09595">
        <ele>1494.99</ele>
        <time>2016-06-05T16:32:05Z</time>
      </trkpt>
      <trkpt lat="42.83251" lon="-0.09598">
        <ele>1493.55</ele>
        <time>2016-06-05T16:32:10Z</time>
      </trkpt>
      <trkpt lat="42.83253" lon="-0.09603">
        <ele>1493.06</ele>
        <time>2016-06-05T16:32:14Z</time>
      </trkpt>
      <trkpt lat="42.83262" lon="-0.09605">
        <ele>1492.1</ele>
        <time>2016-06-05T16:32:23Z</time>
      </trkpt>
      <trkpt lat="42.83283" lon="-0.09604">
        <ele>1490.66</ele>
        <time>2016-06-05T16:32:40Z</time>
      </trkpt>
      <trkpt lat="42.83286" lon="-0.09605">
        <ele>1490.66</ele>
        <time>2016-06-05T16:32:43Z</time>
      </trkpt>
      <trkpt lat="42.83294" lon="-0.09604">
        <ele>1490.18</ele>
        <time>2016-06-05T16:32:50Z</time>
      </trkpt>
      <trkpt lat="42.83308" lon="-0.09602">
        <ele>1489.22</ele>
        <time>2016-06-05T16:33:01Z</time>
      </trkpt>
      <trkpt lat="42.83313" lon="-0.09602">
        <ele>1488.74</ele>
        <time>2016-06-05T16:33:05Z</time>
      </trkpt>
      <trkpt lat="42.83327" lon="-0.09601">
        <ele>1488.26</ele>
        <time>2016-06-05T16:33:18Z</time>
      </trkpt>
      <trkpt lat="42.83345" lon="-0.09598">
        <ele>1487.78</ele>
        <time>2016-06-05T16:33:35Z</time>
      </trkpt>
      <trkpt lat="42.83359" lon="-0.09594">
        <ele>1486.34</ele>
        <time>2016-06-05T16:33:47Z</time>
      </trkpt>
      <trkpt lat="42.83368" lon="-0.09591">
        <ele>1485.85</ele>
        <time>2016-06-05T16:33:58Z</time>
      </trkpt>
      <trkpt lat="42.83377" lon="-0.09594">
        <ele>1485.85</ele>
        <time>2016-06-05T16:34:08Z</time>
      </trkpt>
      <trkpt lat="42.83392" lon="-0.096">
        <ele>1485.37</ele>
        <time>2016-06-05T16:34:19Z</time>
      </trkpt>
      <trkpt lat="42.83399" lon="-0.09602">
        <ele>1485.37</ele>
        <time>2016-06-05T16:34:25Z</time>
      </trkpt>
      <trkpt lat="42.83406" lon="-0.09606">
        <ele>1484.41</ele>
        <time>2016-06-05T16:34:31Z</time>
      </trkpt>
      <trkpt lat="42.83407" lon="-0.09607">
        <ele>1484.41</ele>
        <time>2016-06-05T16:34:32Z</time>
      </trkpt>
      <trkpt lat="42.83408" lon="-0.09609">
        <ele>1484.41</ele>
        <time>2016-06-05T16:34:34Z</time>
      </trkpt>
      <trkpt lat="42.8342" lon="-0.09612">
        <ele>1484.41</ele>
        <time>2016-06-05T16:34:45Z</time>
      </trkpt>
      <trkpt lat="42.83432" lon="-0.09611">
        <ele>1484.41</ele>
        <time>2016-06-05T16:34:56Z</time>
      </trkpt>
      <trkpt lat="42.83445" lon="-0.09611">
        <ele>1484.41</ele>
        <time>2016-06-05T16:35:07Z</time>
      </trkpt>
      <trkpt lat="42.83456" lon="-0.09616">
        <ele>1483.45</ele>
        <time>2016-06-05T16:35:21Z</time>
      </trkpt>
      <trkpt lat="42.83465" lon="-0.0962">
        <ele>1483.45</ele>
        <time>2016-06-05T16:35:32Z</time>
      </trkpt>
      <trkpt lat="42.83473" lon="-0.09624">
        <ele>1483.45</ele>
        <time>2016-06-05T16:35:41Z</time>
      </trkpt>
      <trkpt lat="42.83479" lon="-0.09629">
        <ele>1482.49</ele>
        <time>2016-06-05T16:35:51Z</time>
      </trkpt>
      <trkpt lat="42.83488" lon="-0.09633">
        <ele>1482.01</ele>
        <time>2016-06-05T16:36:01Z</time>
      </trkpt>
      <trkpt lat="42.83503" lon="-0.09645">
        <ele>1481.05</ele>
        <time>2016-06-05T16:36:15Z</time>
      </trkpt>
      <trkpt lat="42.83512" lon="-0.09646">
        <ele>1480.57</ele>
        <time>2016-06-05T16:36:27Z</time>
      </trkpt>
      <trkpt lat="42.83527" lon="-0.09648">
        <ele>1480.09</ele>
        <time>2016-06-05T16:36:43Z</time>
      </trkpt>
      <trkpt lat="42.83543" lon="-0.09656">
        <ele>1480.09</ele>
        <time>2016-06-05T16:36:55Z</time>
      </trkpt>
      <trkpt lat="42.8355" lon="-0.09659">
        <ele>1478.65</ele>
        <time>2016-06-05T16:37:06Z</time>
      </trkpt>
      <trkpt lat="42.83565" lon="-0.09667">
        <ele>1477.68</ele>
        <time>2016-06-05T16:37:20Z</time>
      </trkpt>
      <trkpt lat="42.83577" lon="-0.09673">
        <ele>1476.72</ele>
        <time>2016-06-05T16:37:29Z</time>
      </trkpt>
      <trkpt lat="42.83588" lon="-0.09672">
        <ele>1476.24</ele>
        <time>2016-06-05T16:37:43Z</time>
      </trkpt>
      <trkpt lat="42.83598" lon="-0.0967">
        <ele>1475.28</ele>
        <time>2016-06-05T16:37:52Z</time>
      </trkpt>
      <trkpt lat="42.83605" lon="-0.09668">
        <ele>1475.28</ele>
        <time>2016-06-05T16:37:57Z</time>
      </trkpt>
      <trkpt lat="42.83622" lon="-0.09665">
        <ele>1474.8</ele>
        <time>2016-06-05T16:38:10Z</time>
      </trkpt>
      <trkpt lat="42.83632" lon="-0.09664">
        <ele>1474.8</ele>
        <time>2016-06-05T16:38:20Z</time>
      </trkpt>
      <trkpt lat="42.8364" lon="-0.09666">
        <ele>1474.8</ele>
        <time>2016-06-05T16:38:27Z</time>
      </trkpt>
      <trkpt lat="42.83642" lon="-0.09668">
        <ele>1474.8</ele>
        <time>2016-06-05T16:38:29Z</time>
      </trkpt>
      <trkpt lat="42.83653" lon="-0.09671">
        <ele>1473.84</ele>
        <time>2016-06-05T16:38:40Z</time>
      </trkpt>
      <trkpt lat="42.8366" lon="-0.09673">
        <ele>1473.84</ele>
        <time>2016-06-05T16:38:46Z</time>
      </trkpt>
      <trkpt lat="42.83676" lon="-0.09672">
        <ele>1473.36</ele>
        <time>2016-06-05T16:39:00Z</time>
      </trkpt>
      <trkpt lat="42.83677" lon="-0.09672">
        <ele>1472.88</ele>
        <time>2016-06-05T16:39:01Z</time>
      </trkpt>
      <trkpt lat="42.8368" lon="-0.0967">
        <ele>1472.88</ele>
        <time>2016-06-05T16:39:04Z</time>
      </trkpt>
      <trkpt lat="42.83694" lon="-0.09661">
        <ele>1471.92</ele>
        <time>2016-06-05T16:39:18Z</time>
      </trkpt>
      <trkpt lat="42.83698" lon="-0.0966">
        <ele>1471.92</ele>
        <time>2016-06-05T16:39:21Z</time>
      </trkpt>
      <trkpt lat="42.83702" lon="-0.09657">
        <ele>1471.44</ele>
        <time>2016-06-05T16:39:25Z</time>
      </trkpt>
      <trkpt lat="42.83715" lon="-0.09648">
        <ele>1471.44</ele>
        <time>2016-06-05T16:39:38Z</time>
      </trkpt>
      <trkpt lat="42.8373" lon="-0.0964">
        <ele>1471.44</ele>
        <time>2016-06-05T16:39:52Z</time>
      </trkpt>
      <trkpt lat="42.83744" lon="-0.09634">
        <ele>1470.95</ele>
        <time>2016-06-05T16:40:05Z</time>
      </trkpt>
      <trkpt lat="42.83749" lon="-0.09634">
        <ele>1470.47</ele>
        <time>2016-06-05T16:40:09Z</time>
      </trkpt>
      <trkpt lat="42.83764" lon="-0.09626">
        <ele>1469.51</ele>
        <time>2016-06-05T16:40:23Z</time>
      </trkpt>
      <trkpt lat="42.83779" lon="-0.09621">
        <ele>1469.03</ele>
        <time>2016-06-05T16:40:36Z</time>
      </trkpt>
      <trkpt lat="42.8378" lon="-0.0962">
        <ele>1469.03</ele>
        <time>2016-06-05T16:40:37Z</time>
      </trkpt>
      <trkpt lat="42.83794" lon="-0.09616">
        <ele>1468.55</ele>
        <time>2016-06-05T16:40:51Z</time>
      </trkpt>
      <trkpt lat="42.83798" lon="-0.09615">
        <ele>1468.55</ele>
        <time>2016-06-05T16:40:55Z</time>
      </trkpt>
      <trkpt lat="42.83807" lon="-0.09611">
        <ele>1468.55</ele>
        <time>2016-06-05T16:41:04Z</time>
      </trkpt>
      <trkpt lat="42.83813" lon="-0.09606">
        <ele>1467.59</ele>
        <time>2016-06-05T16:41:10Z</time>
      </trkpt>
      <trkpt lat="42.8382" lon="-0.09603">
        <ele>1467.59</ele>
        <time>2016-06-05T16:41:18Z</time>
      </trkpt>
      <trkpt lat="42.83832" lon="-0.096">
        <ele>1467.59</ele>
        <time>2016-06-05T16:41:29Z</time>
      </trkpt>
      <trkpt lat="42.83848" lon="-0.09597">
        <ele>1467.59</ele>
        <time>2016-06-05T16:41:45Z</time>
      </trkpt>
      <trkpt lat="42.83849" lon="-0.09598">
        <ele>1467.11</ele>
        <time>2016-06-05T16:41:46Z</time>
      </trkpt>
      <trkpt lat="42.83853" lon="-0.09599">
        <ele>1467.11</ele>
        <time>2016-06-05T16:41:49Z</time>
      </trkpt>
      <trkpt lat="42.83865" lon="-0.09605">
        <ele>1466.63</ele>
        <time>2016-06-05T16:42:03Z</time>
      </trkpt>
      <trkpt lat="42.83875" lon="-0.09612">
        <ele>1466.15</ele>
        <time>2016-06-05T16:42:17Z</time>
      </trkpt>
      <trkpt lat="42.83884" lon="-0.09616">
        <ele>1466.15</ele>
        <time>2016-06-05T16:42:30Z</time>
      </trkpt>
      <trkpt lat="42.83898" lon="-0.09614">
        <ele>1465.67</ele>
        <time>2016-06-05T16:42:45Z</time>
      </trkpt>
      <trkpt lat="42.83906" lon="-0.09614">
        <ele>1465.67</ele>
        <time>2016-06-05T16:42:52Z</time>
      </trkpt>
      <trkpt lat="42.83924" lon="-0.09617">
        <ele>1465.67</ele>
        <time>2016-06-05T16:43:06Z</time>
      </trkpt>
      <trkpt lat="42.83924" lon="-0.09618">
        <ele>1465.19</ele>
        <time>2016-06-05T16:43:08Z</time>
      </trkpt>
      <trkpt lat="42.83933" lon="-0.09624">
        <ele>1464.71</ele>
        <time>2016-06-05T16:43:21Z</time>
      </trkpt>
      <trkpt lat="42.83942" lon="-0.09625">
        <ele>1464.71</ele>
        <time>2016-06-05T16:43:34Z</time>
      </trkpt>
      <trkpt lat="42.83954" lon="-0.09627">
        <ele>1464.23</ele>
        <time>2016-06-05T16:43:45Z</time>
      </trkpt>
      <trkpt lat="42.83969" lon="-0.09628">
        <ele>1463.74</ele>
        <time>2016-06-05T16:43:59Z</time>
      </trkpt>
      <trkpt lat="42.83977" lon="-0.09633">
        <ele>1463.74</ele>
        <time>2016-06-05T16:44:12Z</time>
      </trkpt>
      <trkpt lat="42.83985" lon="-0.09639">
        <ele>1463.74</ele>
        <time>2016-06-05T16:44:25Z</time>
      </trkpt>
      <trkpt lat="42.83992" lon="-0.09645">
        <ele>1462.78</ele>
        <time>2016-06-05T16:44:37Z</time>
      </trkpt>
      <trkpt lat="42.84" lon="-0.09652">
        <ele>1462.3</ele>
        <time>2016-06-05T16:44:48Z</time>
      </trkpt>
      <trkpt lat="42.84004" lon="-0.09655">
        <ele>1461.82</ele>
        <time>2016-06-05T16:44:51Z</time>
      </trkpt>
      <trkpt lat="42.84008" lon="-0.09659">
        <ele>1461.82</ele>
        <time>2016-06-05T16:44:57Z</time>
      </trkpt>
      <trkpt lat="42.84019" lon="-0.0966">
        <ele>1461.34</ele>
        <time>2016-06-05T16:45:08Z</time>
      </trkpt>
      <trkpt lat="42.84035" lon="-0.09658">
        <ele>1460.86</ele>
        <time>2016-06-05T16:45:25Z</time>
      </trkpt>
      <trkpt lat="42.8404" lon="-0.09659">
        <ele>1460.38</ele>
        <time>2016-06-05T16:45:30Z</time>
      </trkpt>
      <trkpt lat="42.84054" lon="-0.0966">
        <ele>1460.38</ele>
        <time>2016-06-05T16:45:43Z</time>
      </trkpt>
      <trkpt lat="42.84066" lon="-0.09662">
        <ele>1460.38</ele>
        <time>2016-06-05T16:45:55Z</time>
      </trkpt>
      <trkpt lat="42.84072" lon="-0.09665">
        <ele>1461.82</ele>
        <time>2016-06-05T16:46:07Z</time>
      </trkpt>
      <trkpt lat="42.84079" lon="-0.0967">
        <ele>1462.78</ele>
        <time>2016-06-05T16:46:17Z</time>
      </trkpt>
      <trkpt lat="42.84085" lon="-0.0968">
        <ele>1460.38</ele>
        <time>2016-06-05T16:46:30Z</time>
      </trkpt>
      <trkpt lat="42.84088" lon="-0.09683">
        <ele>1459.9</ele>
        <time>2016-06-05T16:46:33Z</time>
      </trkpt>
      <trkpt lat="42.84096" lon="-0.09691">
        <ele>1457.5</ele>
        <time>2016-06-05T16:46:44Z</time>
      </trkpt>
      <trkpt lat="42.84096" lon="-0.09691">
        <ele>1457.5</ele>
        <time>2016-06-05T16:46:45Z</time>
      </trkpt>
      <trkpt lat="42.84102" lon="-0.097">
        <ele>1456.05</ele>
        <time>2016-06-05T16:46:56Z</time>
      </trkpt>
      <trkpt lat="42.84105" lon="-0.09702">
        <ele>1456.05</ele>
        <time>2016-06-05T16:46:59Z</time>
      </trkpt>
      <trkpt lat="42.84107" lon="-0.09708">
        <ele>1454.61</ele>
        <time>2016-06-05T16:47:06Z</time>
      </trkpt>
      <trkpt lat="42.84115" lon="-0.09721">
        <ele>1452.69</ele>
        <time>2016-06-05T16:47:20Z</time>
      </trkpt>
      <trkpt lat="42.84126" lon="-0.09728">
        <ele>1450.77</ele>
        <time>2016-06-05T16:47:30Z</time>
      </trkpt>
      <trkpt lat="42.8413" lon="-0.09733">
        <ele>1450.77</ele>
        <time>2016-06-05T16:47:34Z</time>
      </trkpt>
      <trkpt lat="42.84145" lon="-0.09738">
        <ele>1449.32</ele>
        <time>2016-06-05T16:47:48Z</time>
      </trkpt>
      <trkpt lat="42.84146" lon="-0.09738">
        <ele>1449.32</ele>
        <time>2016-06-05T16:47:50Z</time>
      </trkpt>
      <trkpt lat="42.84162" lon="-0.09734">
        <ele>1447.88</ele>
        <time>2016-06-05T16:48:04Z</time>
      </trkpt>
      <trkpt lat="42.84175" lon="-0.09728">
        <ele>1447.4</ele>
        <time>2016-06-05T16:48:17Z</time>
      </trkpt>
      <trkpt lat="42.84186" lon="-0.09721">
        <ele>1446.44</ele>
        <time>2016-06-05T16:48:28Z</time>
      </trkpt>
      <trkpt lat="42.84189" lon="-0.09718">
        <ele>1445.96</ele>
        <time>2016-06-05T16:48:31Z</time>
      </trkpt>
      <trkpt lat="42.84197" lon="-0.097">
        <ele>1444.52</ele>
        <time>2016-06-05T16:48:48Z</time>
      </trkpt>
      <trkpt lat="42.84199" lon="-0.09684">
        <ele>1443.08</ele>
        <time>2016-06-05T16:49:01Z</time>
      </trkpt>
      <trkpt lat="42.84206" lon="-0.09666">
        <ele>1442.6</ele>
        <time>2016-06-05T16:49:16Z</time>
      </trkpt>
      <trkpt lat="42.84215" lon="-0.09656">
        <ele>1441.63</ele>
        <time>2016-06-05T16:49:30Z</time>
      </trkpt>
      <trkpt lat="42.84234" lon="-0.09658">
        <ele>1441.63</ele>
        <time>2016-06-05T16:49:43Z</time>
      </trkpt>
      <trkpt lat="42.84235" lon="-0.09658">
        <ele>1441.63</ele>
        <time>2016-06-05T16:49:44Z</time>
      </trkpt>
      <trkpt lat="42.84246" lon="-0.0966">
        <ele>1441.63</ele>
        <time>2016-06-05T16:49:56Z</time>
      </trkpt>
      <trkpt lat="42.84249" lon="-0.09661">
        <ele>1441.63</ele>
        <time>2016-06-05T16:49:59Z</time>
      </trkpt>
      <trkpt lat="42.84251" lon="-0.0966">
        <ele>1441.63</ele>
        <time>2016-06-05T16:50:01Z</time>
      </trkpt>
      <trkpt lat="42.84263" lon="-0.09659">
        <ele>1441.15</ele>
        <time>2016-06-05T16:50:16Z</time>
      </trkpt>
      <trkpt lat="42.84266" lon="-0.09659">
        <ele>1441.15</ele>
        <time>2016-06-05T16:50:20Z</time>
      </trkpt>
      <trkpt lat="42.84272" lon="-0.0966">
        <ele>1440.67</ele>
        <time>2016-06-05T16:50:27Z</time>
      </trkpt>
      <trkpt lat="42.84274" lon="-0.09659">
        <ele>1440.67</ele>
        <time>2016-06-05T16:50:30Z</time>
      </trkpt>
      <trkpt lat="42.84282" lon="-0.09659">
        <ele>1440.67</ele>
        <time>2016-06-05T16:50:38Z</time>
      </trkpt>
      <trkpt lat="42.84287" lon="-0.09657">
        <ele>1440.67</ele>
        <time>2016-06-05T16:50:43Z</time>
      </trkpt>
      <trkpt lat="42.84289" lon="-0.09658">
        <ele>1440.67</ele>
        <time>2016-06-05T16:50:46Z</time>
      </trkpt>
      <trkpt lat="42.84291" lon="-0.09658">
        <ele>1440.67</ele>
        <time>2016-06-05T16:50:48Z</time>
      </trkpt>
      <trkpt lat="42.84295" lon="-0.09662">
        <ele>1442.11</ele>
        <time>2016-06-05T16:50:59Z</time>
      </trkpt>
      <trkpt lat="42.84297" lon="-0.09662">
        <ele>1442.11</ele>
        <time>2016-06-05T16:51:01Z</time>
      </trkpt>
      <trkpt lat="42.84304" lon="-0.09662">
        <ele>1442.11</ele>
        <time>2016-06-05T16:51:08Z</time>
      </trkpt>
      <trkpt lat="42.84311" lon="-0.09663">
        <ele>1442.11</ele>
        <time>2016-06-05T16:51:15Z</time>
      </trkpt>
      <trkpt lat="42.84318" lon="-0.09664">
        <ele>1440.67</ele>
        <time>2016-06-05T16:51:21Z</time>
      </trkpt>
      <trkpt lat="42.84328" lon="-0.0966">
        <ele>1439.71</ele>
        <time>2016-06-05T16:51:36Z</time>
      </trkpt>
      <trkpt lat="42.84339" lon="-0.09657">
        <ele>1438.75</ele>
        <time>2016-06-05T16:51:50Z</time>
      </trkpt>
      <trkpt lat="42.84341" lon="-0.09658">
        <ele>1438.75</ele>
        <time>2016-06-05T16:51:51Z</time>
      </trkpt>
      <trkpt lat="42.84359" lon="-0.09662">
        <ele>1438.27</ele>
        <time>2016-06-05T16:52:05Z</time>
      </trkpt>
      <trkpt lat="42.84363" lon="-0.09661">
        <ele>1437.79</ele>
        <time>2016-06-05T16:52:08Z</time>
      </trkpt>
      <trkpt lat="42.84376" lon="-0.0966">
        <ele>1437.31</ele>
        <time>2016-06-05T16:52:19Z</time>
      </trkpt>
      <trkpt lat="42.8438" lon="-0.09663">
        <ele>1437.31</ele>
        <time>2016-06-05T16:52:23Z</time>
      </trkpt>
      <trkpt lat="42.84383" lon="-0.09662">
        <ele>1436.35</ele>
        <time>2016-06-05T16:52:37Z</time>
      </trkpt>
      <trkpt lat="42.84383" lon="-0.09662">
        <ele>1436.35</ele>
        <time>2016-06-05T16:52:38Z</time>
      </trkpt>
      <trkpt lat="42.844" lon="-0.09662">
        <ele>1435.39</ele>
        <time>2016-06-05T16:52:54Z</time>
      </trkpt>
      <trkpt lat="42.84415" lon="-0.09661">
        <ele>1433.46</ele>
        <time>2016-06-05T16:53:07Z</time>
      </trkpt>
      <trkpt lat="42.84419" lon="-0.09659">
        <ele>1432.98</ele>
        <time>2016-06-05T16:53:13Z</time>
      </trkpt>
      <trkpt lat="42.84429" lon="-0.09656">
        <ele>1431.54</ele>
        <time>2016-06-05T16:53:26Z</time>
      </trkpt>
      <trkpt lat="42.84439" lon="-0.09653">
        <ele>1429.14</ele>
        <time>2016-06-05T16:53:41Z</time>
      </trkpt>
      <trkpt lat="42.8445" lon="-0.09646">
        <ele>1426.25</ele>
        <time>2016-06-05T16:53:57Z</time>
      </trkpt>
      <trkpt lat="42.84464" lon="-0.09642">
        <ele>1423.85</ele>
        <time>2016-06-05T16:54:13Z</time>
      </trkpt>
      <trkpt lat="42.84479" lon="-0.09638">
        <ele>1420.49</ele>
        <time>2016-06-05T16:54:29Z</time>
      </trkpt>
      <trkpt lat="42.84491" lon="-0.09634">
        <ele>1417.6</ele>
        <time>2016-06-05T16:54:45Z</time>
      </trkpt>
      <trkpt lat="42.845" lon="-0.0963">
        <ele>1415.68</ele>
        <time>2016-06-05T16:54:59Z</time>
      </trkpt>
      <trkpt lat="42.84516" lon="-0.09625">
        <ele>1413.76</ele>
        <time>2016-06-05T16:55:14Z</time>
      </trkpt>
      <trkpt lat="42.84531" lon="-0.09623">
        <ele>1412.79</ele>
        <time>2016-06-05T16:55:27Z</time>
      </trkpt>
      <trkpt lat="42.84535" lon="-0.09623">
        <ele>1412.79</ele>
        <time>2016-06-05T16:55:31Z</time>
      </trkpt>
      <trkpt lat="42.84546" lon="-0.09619">
        <ele>1411.83</ele>
        <time>2016-06-05T16:55:44Z</time>
      </trkpt>
      <trkpt lat="42.84548" lon="-0.09617">
        <ele>1411.35</ele>
        <time>2016-06-05T16:55:47Z</time>
      </trkpt>
      <trkpt lat="42.84555" lon="-0.09618">
        <ele>1409.91</ele>
        <time>2016-06-05T16:55:53Z</time>
      </trkpt>
      <trkpt lat="42.84558" lon="-0.09619">
        <ele>1409.91</ele>
        <time>2016-06-05T16:55:56Z</time>
      </trkpt>
      <trkpt lat="42.84569" lon="-0.0962">
        <ele>1409.43</ele>
        <time>2016-06-05T16:56:08Z</time>
      </trkpt>
      <trkpt lat="42.8457" lon="-0.0962">
        <ele>1409.43</ele>
        <time>2016-06-05T16:56:10Z</time>
      </trkpt>
      <trkpt lat="42.84579" lon="-0.09627">
        <ele>1408.95</ele>
        <time>2016-06-05T16:56:23Z</time>
      </trkpt>
      <trkpt lat="42.84588" lon="-0.09633">
        <ele>1408.95</ele>
        <time>2016-06-05T16:56:31Z</time>
      </trkpt>
      <trkpt lat="42.84596" lon="-0.09632">
        <ele>1407.03</ele>
        <time>2016-06-05T16:56:41Z</time>
      </trkpt>
      <trkpt lat="42.8461" lon="-0.09623">
        <ele>1406.07</ele>
        <time>2016-06-05T16:56:54Z</time>
      </trkpt>
      <trkpt lat="42.84623" lon="-0.09619">
        <ele>1405.1</ele>
        <time>2016-06-05T16:57:06Z</time>
      </trkpt>
      <trkpt lat="42.84637" lon="-0.09619">
        <ele>1404.14</ele>
        <time>2016-06-05T16:57:18Z</time>
      </trkpt>
      <trkpt lat="42.84652" lon="-0.09621">
        <ele>1403.66</ele>
        <time>2016-06-05T16:57:32Z</time>
      </trkpt>
      <trkpt lat="42.84662" lon="-0.09621">
        <ele>1403.18</ele>
        <time>2016-06-05T16:57:44Z</time>
      </trkpt>
      <trkpt lat="42.84665" lon="-0.09622">
        <ele>1403.66</ele>
        <time>2016-06-05T16:57:46Z</time>
      </trkpt>
      <trkpt lat="42.84671" lon="-0.09621">
        <ele>1403.66</ele>
        <time>2016-06-05T16:57:53Z</time>
      </trkpt>
      <trkpt lat="42.84672" lon="-0.09621">
        <ele>1403.66</ele>
        <time>2016-06-05T16:57:54Z</time>
      </trkpt>
      <trkpt lat="42.84675" lon="-0.09622">
        <ele>1403.66</ele>
        <time>2016-06-05T16:57:57Z</time>
      </trkpt>
      <trkpt lat="42.84687" lon="-0.09624">
        <ele>1402.7</ele>
        <time>2016-06-05T16:58:10Z</time>
      </trkpt>
      <trkpt lat="42.84696" lon="-0.09623">
        <ele>1402.7</ele>
        <time>2016-06-05T16:58:21Z</time>
      </trkpt>
      <trkpt lat="42.84704" lon="-0.09621">
        <ele>1401.74</ele>
        <time>2016-06-05T16:58:32Z</time>
      </trkpt>
      <trkpt lat="42.84712" lon="-0.09623">
        <ele>1400.3</ele>
        <time>2016-06-05T16:58:41Z</time>
      </trkpt>
      <trkpt lat="42.84719" lon="-0.09626">
        <ele>1399.82</ele>
        <time>2016-06-05T16:58:52Z</time>
      </trkpt>
      <trkpt lat="42.84721" lon="-0.09627">
        <ele>1399.82</ele>
        <time>2016-06-05T16:58:54Z</time>
      </trkpt>
      <trkpt lat="42.84732" lon="-0.09629">
        <ele>1398.86</ele>
        <time>2016-06-05T16:59:07Z</time>
      </trkpt>
      <trkpt lat="42.84744" lon="-0.0963">
        <ele>1397.89</ele>
        <time>2016-06-05T16:59:16Z</time>
      </trkpt>
      <trkpt lat="42.84752" lon="-0.09634">
        <ele>1397.41</ele>
        <time>2016-06-05T16:59:23Z</time>
      </trkpt>
      <trkpt lat="42.84759" lon="-0.09638">
        <ele>1397.41</ele>
        <time>2016-06-05T16:59:28Z</time>
      </trkpt>
      <trkpt lat="42.84763" lon="-0.09641">
        <ele>1397.41</ele>
        <time>2016-06-05T16:59:32Z</time>
      </trkpt>
      <trkpt lat="42.84766" lon="-0.09644">
        <ele>1396.93</ele>
        <time>2016-06-05T16:59:35Z</time>
      </trkpt>
      <trkpt lat="42.84767" lon="-0.09646">
        <ele>1396.93</ele>
        <time>2016-06-05T16:59:37Z</time>
      </trkpt>
      <trkpt lat="42.84773" lon="-0.09651">
        <ele>1396.45</ele>
        <time>2016-06-05T16:59:47Z</time>
      </trkpt>
      <trkpt lat="42.84776" lon="-0.09654">
        <ele>1396.45</ele>
        <time>2016-06-05T16:59:50Z</time>
      </trkpt>
      <trkpt lat="42.84792" lon="-0.09662">
        <ele>1395.97</ele>
        <time>2016-06-05T17:00:06Z</time>
      </trkpt>
      <trkpt lat="42.84805" lon="-0.09665">
        <ele>1394.53</ele>
        <time>2016-06-05T17:00:20Z</time>
      </trkpt>
      <trkpt lat="42.84817" lon="-0.09668">
        <ele>1393.57</ele>
        <time>2016-06-05T17:00:31Z</time>
      </trkpt>
      <trkpt lat="42.8483" lon="-0.09673">
        <ele>1392.13</ele>
        <time>2016-06-05T17:00:45Z</time>
      </trkpt>
      <trkpt lat="42.84843" lon="-0.09677">
        <ele>1391.65</ele>
        <time>2016-06-05T17:00:56Z</time>
      </trkpt>
      <trkpt lat="42.84848" lon="-0.0968">
        <ele>1391.17</ele>
        <time>2016-06-05T17:01:00Z</time>
      </trkpt>
      <trkpt lat="42.84859" lon="-0.09688">
        <ele>1390.68</ele>
        <time>2016-06-05T17:01:12Z</time>
      </trkpt>
      <trkpt lat="42.84874" lon="-0.09694">
        <ele>1390.2</ele>
        <time>2016-06-05T17:01:24Z</time>
      </trkpt>
      <trkpt lat="42.84875" lon="-0.09694">
        <ele>1390.2</ele>
        <time>2016-06-05T17:01:26Z</time>
      </trkpt>
      <trkpt lat="42.84881" lon="-0.09696">
        <ele>1389.72</ele>
        <time>2016-06-05T17:01:31Z</time>
      </trkpt>
      <trkpt lat="42.84884" lon="-0.097">
        <ele>1389.24</ele>
        <time>2016-06-05T17:01:36Z</time>
      </trkpt>
      <trkpt lat="42.84896" lon="-0.09706">
        <ele>1388.28</ele>
        <time>2016-06-05T17:01:48Z</time>
      </trkpt>
      <trkpt lat="42.84908" lon="-0.09716">
        <ele>1388.28</ele>
        <time>2016-06-05T17:02:01Z</time>
      </trkpt>
      <trkpt lat="42.84911" lon="-0.09721">
        <ele>1388.28</ele>
        <time>2016-06-05T17:02:06Z</time>
      </trkpt>
      <trkpt lat="42.84917" lon="-0.09723">
        <ele>1388.28</ele>
        <time>2016-06-05T17:02:11Z</time>
      </trkpt>
      <trkpt lat="42.84921" lon="-0.09728">
        <ele>1389.72</ele>
        <time>2016-06-05T17:02:17Z</time>
      </trkpt>
      <trkpt lat="42.84933" lon="-0.09741">
        <ele>1390.2</ele>
        <time>2016-06-05T17:02:33Z</time>
      </trkpt>
      <trkpt lat="42.84933" lon="-0.09744">
        <ele>1388.76</ele>
        <time>2016-06-05T17:02:36Z</time>
      </trkpt>
      <trkpt lat="42.84942" lon="-0.09747">
        <ele>1388.76</ele>
        <time>2016-06-05T17:02:42Z</time>
      </trkpt>
      <trkpt lat="42.84945" lon="-0.09749">
        <ele>1388.76</ele>
        <time>2016-06-05T17:02:44Z</time>
      </trkpt>
      <trkpt lat="42.84958" lon="-0.09756">
        <ele>1387.32</ele>
        <time>2016-06-05T17:02:57Z</time>
      </trkpt>
      <trkpt lat="42.84974" lon="-0.09761">
        <ele>1386.84</ele>
        <time>2016-06-05T17:03:10Z</time>
      </trkpt>
      <trkpt lat="42.84978" lon="-0.0976">
        <ele>1386.84</ele>
        <time>2016-06-05T17:03:14Z</time>
      </trkpt>
      <trkpt lat="42.84983" lon="-0.09762">
        <ele>1387.32</ele>
        <time>2016-06-05T17:03:20Z</time>
      </trkpt>
      <trkpt lat="42.85" lon="-0.09766">
        <ele>1385.88</ele>
        <time>2016-06-05T17:03:35Z</time>
      </trkpt>
      <trkpt lat="42.85004" lon="-0.09768">
        <ele>1386.36</ele>
        <time>2016-06-05T17:03:40Z</time>
      </trkpt>
      <trkpt lat="42.85016" lon="-0.0977">
        <ele>1384.92</ele>
        <time>2016-06-05T17:03:50Z</time>
      </trkpt>
      <trkpt lat="42.85018" lon="-0.09769">
        <ele>1384.92</ele>
        <time>2016-06-05T17:03:52Z</time>
      </trkpt>
      <trkpt lat="42.85029" lon="-0.09777">
        <ele>1384.92</ele>
        <time>2016-06-05T17:04:06Z</time>
      </trkpt>
      <trkpt lat="42.85044" lon="-0.09776">
        <ele>1383.47</ele>
        <time>2016-06-05T17:04:18Z</time>
      </trkpt>
      <trkpt lat="42.85064" lon="-0.09785">
        <ele>1382.99</ele>
        <time>2016-06-05T17:04:36Z</time>
      </trkpt>
      <trkpt lat="42.85081" lon="-0.09786">
        <ele>1381.07</ele>
        <time>2016-06-05T17:04:50Z</time>
      </trkpt>
      <trkpt lat="42.85096" lon="-0.09786">
        <ele>1380.11</ele>
        <time>2016-06-05T17:05:02Z</time>
      </trkpt>
      <trkpt lat="42.85115" lon="-0.09787">
        <ele>1379.15</ele>
        <time>2016-06-05T17:05:19Z</time>
      </trkpt>
      <trkpt lat="42.85131" lon="-0.09787">
        <ele>1378.67</ele>
        <time>2016-06-05T17:05:34Z</time>
      </trkpt>
      <trkpt lat="42.85147" lon="-0.09786">
        <ele>1378.19</ele>
        <time>2016-06-05T17:05:48Z</time>
      </trkpt>
      <trkpt lat="42.85162" lon="-0.09784">
        <ele>1378.19</ele>
        <time>2016-06-05T17:06:01Z</time>
      </trkpt>
      <trkpt lat="42.85163" lon="-0.09784">
        <ele>1377.71</ele>
        <time>2016-06-05T17:06:02Z</time>
      </trkpt>
      <trkpt lat="42.85171" lon="-0.09782">
        <ele>1377.23</ele>
        <time>2016-06-05T17:06:11Z</time>
      </trkpt>
      <trkpt lat="42.85174" lon="-0.09782">
        <ele>1377.23</ele>
        <time>2016-06-05T17:06:14Z</time>
      </trkpt>
      <trkpt lat="42.85181" lon="-0.09781">
        <ele>1376.75</ele>
        <time>2016-06-05T17:06:20Z</time>
      </trkpt>
      <trkpt lat="42.85195" lon="-0.0978">
        <ele>1376.26</ele>
        <time>2016-06-05T17:06:33Z</time>
      </trkpt>
      <trkpt lat="42.85205" lon="-0.09787">
        <ele>1375.78</ele>
        <time>2016-06-05T17:06:46Z</time>
      </trkpt>
      <trkpt lat="42.8522" lon="-0.09793">
        <ele>1374.82</ele>
        <time>2016-06-05T17:07:00Z</time>
      </trkpt>
      <trkpt lat="42.85225" lon="-0.09793">
        <ele>1374.34</ele>
        <time>2016-06-05T17:07:04Z</time>
      </trkpt>
      <trkpt lat="42.85233" lon="-0.09797">
        <ele>1374.34</ele>
        <time>2016-06-05T17:07:15Z</time>
      </trkpt>
      <trkpt lat="42.85238" lon="-0.09804">
        <ele>1373.86</ele>
        <time>2016-06-05T17:07:22Z</time>
      </trkpt>
      <trkpt lat="42.85244" lon="-0.09814">
        <ele>1373.86</ele>
        <time>2016-06-05T17:07:30Z</time>
      </trkpt>
      <trkpt lat="42.85254" lon="-0.0981">
        <ele>1373.86</ele>
        <time>2016-06-05T17:07:44Z</time>
      </trkpt>
      <trkpt lat="42.85258" lon="-0.09814">
        <ele>1373.86</ele>
        <time>2016-06-05T17:07:48Z</time>
      </trkpt>
      <trkpt lat="42.85274" lon="-0.09811">
        <ele>1373.38</ele>
        <time>2016-06-05T17:08:02Z</time>
      </trkpt>
      <trkpt lat="42.85284" lon="-0.09813">
        <ele>1372.9</ele>
        <time>2016-06-05T17:08:12Z</time>
      </trkpt>
      <trkpt lat="42.85296" lon="-0.09815">
        <ele>1372.42</ele>
        <time>2016-06-05T17:08:25Z</time>
      </trkpt>
      <trkpt lat="42.85296" lon="-0.09811">
        <ele>1372.42</ele>
        <time>2016-06-05T17:08:27Z</time>
      </trkpt>
      <trkpt lat="42.85294" lon="-0.098">
        <ele>1372.42</ele>
        <time>2016-06-05T17:08:42Z</time>
      </trkpt>
      <trkpt lat="42.85294" lon="-0.09801">
        <ele>1372.42</ele>
        <time>2016-06-05T17:08:55Z</time>
      </trkpt>
      <trkpt lat="42.85294" lon="-0.09804">
        <ele>1371.94</ele>
        <time>2016-06-05T17:09:05Z</time>
      </trkpt>
    </trkseg>
  </trk>
</gpx>